SondeTracker

Meteorological Radiosondes Database

Operations

Sounding was ended - last measurement: 2022-12-06 01:21:22z

MAP
About Radiosonde

Number: U2220858

Launch Site: Salem [OR] (US)

Type: RS41

AUX: NO

Frequency: 401.401 MHz

Max Speed: 85 km/h at 28481 m

Average Speed: 44.25 km/h

Max Altitude: 28618 m

Average Ascent Speed: 4.86 m/s

Average Descent Speed: 13.90 m/s

Status: UNKNOWN

Status Changes
Launch Site Type AUX Frequency Status Finder Landing Point Description Changes made by
APRS Statistics

Received Frames: 1806

First Frame [UTC]: 2022-12-05 23:12:55z

Last Frame [UTC]: 2022-12-06 01:21:22z

Receivers: K6GDP-11, K6GDP-14, KE7WWC, KG7GDB-12, KJ7NUX-14, W7BDB-12, W7BDB-13, WA9ONY-10, WA9ONY-14

Flight Time: 02:08:27 h

Distance From First Measurement: 66.69 km

Nearest City: Sweet Home [OR] (US) [12.58 km]

Nearest Hunter: kg7bz [15.35 km]

Ground Altitude: 213 m

Distance from QTH: 0.00 km

APRS Data
Receiver Number Date/Time [UTC] φ λ Course [°] Speed [km/h] Altitude [m] Description
WA9ONY-14U22208582022-12-06 01:21:2244.3253-122.81929131770Clb=-8.1m/s p=813.9hPa t=-3.5C h=88.2% 401.40MHz Type=RS41-SGP Join https://groups.io/g/Balloons
WA9ONY-10U22208582022-12-06 01:21:1744.3252-122.81930131804Clb=-7.2m/s p=810.2hPa t=-3.8C h=89.4% 401.40MHz Type=RS41-SGP batt=2.6V Join https://groups.io/g/Balloons
WA9ONY-10U22208582022-12-06 01:21:1244.3251-122.81933111840Clb=-7.0m/s p=806.7hPa t=-4.1C h=90.3% 401.40MHz Type=RS41-SGP Join https://groups.io/g/Balloons
WA9ONY-14U22208582022-12-06 01:21:1144.325-122.81932111847Clb=-8.0m/s p=805.9hPa t=-4.1C h=90.3% 401.40MHz Type=RS41-SGP Join https://groups.io/g/Balloons
WA9ONY-10U22208582022-12-06 01:21:0644.3249-122.8193191886Clb=-8.1m/s p=801.8hPa t=-4.5C h=92.8% 401.40MHz Type=RS41-SGP Join https://groups.io/g/Balloons
WA9ONY-10U22208582022-12-06 01:21:0144.3248-122.8192891923Clb=-8.1m/s p=798.2hPa t=-4.8C h=94.8% 401.40MHz Type=RS41-SGP TxOff=7h52m batt=2.6V Join https://groups.io/g/Balloons
WA9ONY-14U22208582022-12-06 01:20:5644.3247-122.8195061960Clb=-7.6m/s p=794.4hPa t=-5.0C h=94.8% 401.40MHz Type=RS41-SGP Join https://groups.io/g/Balloons
WA9ONY-14U22208582022-12-06 01:20:5144.3247-122.826361997Clb=-8.5m/s p=790.8hPa t=-4.8C h=86.1% 401.40MHz Type=RS41-SGP Join https://groups.io/g/Balloons
WA9ONY-14U22208582022-12-06 01:20:4644.3247-122.827142033Clb=-7.7m/s p=787.1hPa t=-4.9C h=84.8% 401.40MHz Type=RS41-SGP batt=2.6V Join https://groups.io/g/Balloons
WA9ONY-14U22208582022-12-06 01:20:4144.3246-122.829942072Clb=-8.8m/s p=783.3hPa t=-5.1C h=81.7% 401.40MHz Type=RS41-SGP Join https://groups.io/g/Balloons
WA9ONY-10U22208582022-12-06 01:20:3644.3247-122.8210842111Clb=-7.4m/s p=779.3hPa t=-5.1C h=74.9% 401.40MHz Type=RS41-SGP Join https://groups.io/g/Balloons
WA9ONY-14U22208582022-12-06 01:20:3144.3247-122.8213642150Clb=-8.5m/s p=775.7hPa t=-5.3C h=75.6% 401.40MHz Type=RS41-SGP batt=2.6V Join https://groups.io/g/Balloons
WA9ONY-10U22208582022-12-06 01:20:2644.3247-122.8214142189Clb=-8.1m/s p=771.8hPa t=-5.7C h=81.5% 401.40MHz Type=RS41-SGP Join https://groups.io/g/Balloons
WA9ONY-14U22208582022-12-06 01:20:2144.3248-122.8216042227Clb=-7.5m/s p=768.0hPa t=-5.9C h=82.0% 401.40MHz Type=RS41-SGP TxOff=7h53m Join https://groups.io/g/Balloons
WA9ONY-14U22208582022-12-06 01:20:1644.3248-122.8210942267Clb=-7.9m/s p=764.3hPa t=-6.0C h=80.2% 401.40MHz Type=RS41-SGP batt=2.6V Join https://groups.io/g/Balloons
WA9ONY-14U22208582022-12-06 01:20:1144.3248-122.828042306Clb=-8.8m/s p=760.4hPa t=-6.2C h=77.6% 401.40MHz Type=RS41-SGP Join https://groups.io/g/Balloons
WA9ONY-14U22208582022-12-06 01:20:0644.3248-122.828442345Clb=-7.8m/s p=756.5hPa t=-6.3C h=74.7% 401.40MHz Type=RS41-SGP Join https://groups.io/g/Balloons
WA9ONY-14U22208582022-12-06 01:20:0144.3248-122.828662384Clb=-7.9m/s p=752.8hPa t=-6.4C h=72.8% 401.40MHz Type=RS41-SGP batt=2.6V Join https://groups.io/g/Balloons
WA9ONY-10U22208582022-12-06 01:19:5644.3248-122.826662423Clb=-6.4m/s p=749.0hPa t=-6.4C h=70.4% 401.40MHz Type=RS41-SGP Join https://groups.io/g/Balloons
WA9ONY-14U22208582022-12-06 01:19:5144.3248-122.827772460Clb=-7.7m/s p=745.6hPa t=-6.5C h=66.6% 401.40MHz Type=RS41-SGP Join https://groups.io/g/Balloons
WA9ONY-14U22208582022-12-06 01:19:4644.3248-122.8217862497Clb=-8.5m/s p=742.0hPa t=-6.6C h=62.9% 401.40MHz Type=RS41-SGP batt=2.5V Join https://groups.io/g/Balloons
WA9ONY-10U22208582022-12-06 01:19:4144.3248-122.82110762537Clb=-7.5m/s p=738.2hPa t=-6.9C h=65.3% 401.40MHz Type=RS41-SGP TxOff=7h54m Join https://groups.io/g/Balloons
WA9ONY-14U22208582022-12-06 01:19:3644.3249-122.82110872574Clb=-7.7m/s p=734.6hPa t=-7.0C h=56.5% 401.40MHz Type=RS41-SGP Join https://groups.io/g/Balloons
WA9ONY-14U22208582022-12-06 01:19:3144.3249-122.82113272610Clb=-7.0m/s p=731.3hPa t=-7.1C h=52.8% 401.40MHz Type=RS41-SGP batt=2.6V Join https://groups.io/g/Balloons
WA9ONY-10U22208582022-12-06 01:19:2644.325-122.82113572647Clb=-7.6m/s p=728.0hPa t=-7.2C h=50.9% 401.40MHz Type=RS41-SGP Join https://groups.io/g/Balloons
WA9ONY-14U22208582022-12-06 01:19:2144.3251-122.82113672686Clb=-7.3m/s p=724.1hPa t=-7.5C h=49.8% 401.40MHz Type=RS41-SGP Join https://groups.io/g/Balloons
WA9ONY-10U22208582022-12-06 01:19:1644.3251-122.82114572725Clb=-7.2m/s p=720.5hPa t=-7.7C h=50.9% 401.40MHz Type=RS41-SGP batt=2.6V Join https://groups.io/g/Balloons
WA9ONY-14U22208582022-12-06 01:19:1144.3252-122.82111472766Clb=-7.7m/s p=716.8hPa t=-8.0C h=52.7% 401.40MHz Type=RS41-SGP Join https://groups.io/g/Balloons
WA9ONY-10U22208582022-12-06 01:19:0744.3253-122.82111672806Clb=-7.0m/s p=713.1hPa t=-8.3C h=54.2% 401.40MHz Type=RS41-SGP Join https://groups.io/g/Balloons
WA9ONY-14U22208582022-12-06 01:19:0244.3253-122.82112172840Clb=-7.6m/s p=710.0hPa t=-8.6C h=54.2% 401.40MHz Type=RS41-SGP TxOff=7h54m batt=2.6V Join https://groups.io/g/Balloons
WA9ONY-10U22208582022-12-06 01:18:5644.3253-122.82112472880Clb=-9.0m/s p=706.4hPa t=-8.9C h=54.6% 401.40MHz Type=RS41-SGP Join https://groups.io/g/Balloons
WA9ONY-10U22208582022-12-06 01:18:5144.3254-122.82211772919Clb=-7.5m/s p=702.7hPa t=-9.2C h=54.9% 401.40MHz Type=RS41-SGP Join https://groups.io/g/Balloons
WA9ONY-10U22208582022-12-06 01:18:4644.3254-122.82212172957Clb=-8.2m/s p=699.5hPa t=-9.4C h=52.3% 401.40MHz Type=RS41-SGP batt=2.5V Join https://groups.io/g/Balloons
K6GDP-11U22208582022-12-06 01:18:4544.3255-122.82212672979Clb=-6.3m/s t=-9.6C h=53.5% p=697.2hPa 401.400 MHz Type=RS41-SGP ser=U2220858 Radiosonde
WA9ONY-14U22208582022-12-06 01:18:4144.3255-122.82212372995Clb=-9.1m/s p=696.2hPa t=-9.7C h=53.9% 401.40MHz Type=RS41-SGP Join https://groups.io/g/Balloons
WA9ONY-14U22208582022-12-06 01:18:3544.3255-122.82213773043Clb=-7.3m/s p=691.9hPa t=-9.9C h=46.7% 401.40MHz Type=RS41-SGP Join https://groups.io/g/Balloons
WA9ONY-10U22208582022-12-06 01:18:3344.3256-122.82212473059Clb=-8.6m/s p=690.6hPa t=-9.9C h=43.0% 401.40MHz Type=RS41-SGP Join https://groups.io/g/Balloons
WA9ONY-14U22208582022-12-06 01:18:2544.3257-122.82214793122Clb=-8.6m/s p=684.8hPa t=-10.2C h=34.3% 401.40MHz Type=RS41-SGP batt=2.5V Join https://groups.io/g/Balloons
WA9ONY-10U22208582022-12-06 01:18:2344.3257-122.822143113139Clb=-8.3m/s p=683.4hPa t=-10.2C h=32.0% 401.40MHz Type=RS41-SGP batt=2.6V Join https://groups.io/g/Balloons
WA9ONY-14U22208582022-12-06 01:18:1544.3259-122.822147113196Clb=-7.6m/s p=678.1hPa t=-10.4C h=33.4% 401.40MHz Type=RS41-SGP Join https://groups.io/g/Balloons
K6GDP-11U22208582022-12-06 01:18:1444.3259-122.822140113211Clb=-7.9m/s t=-10.6C h=36.9% p=676.9hPa 401.400 MHz Type=RS41-SGP ser=U2220858 Radiosonde
WA9ONY-14U22208582022-12-06 01:18:0644.3261-122.82313793273Clb=-7.3m/s p=671.4hPa t=-10.9C h=37.8% 401.40MHz Type=RS41-SGP TxOff=7h55m Join https://groups.io/g/Balloons
WA9ONY-10U22208582022-12-06 01:18:0544.3261-122.82315493288Clb=-7.1m/s p=670.3hPa t=-11.0C h=38.5% 401.40MHz Type=RS41-SGP TxOff=7h55m Join https://groups.io/g/Balloons
KJ7NUX-14U22208582022-12-06 01:17:5944.3263-122.82315493331Clb=-8.1m/s p=666.3hPa t=-11.3C h=34.5% 401.40MHz Type=RS41-SGP TxOff=7h55m Details on http://radiosondy.info
WA9ONY-14U22208582022-12-06 01:17:5744.3263-122.82315893346Clb=-7.5m/s p=664.9hPa t=-11.4C h=33.7% 401.40MHz Type=RS41-SGP batt=2.5V Join https://groups.io/g/Balloons
WA9ONY-10U22208582022-12-06 01:17:5544.3264-122.82315793360Clb=-8.1m/s p=663.5hPa t=-11.5C h=32.7% 401.40MHz Type=RS41-SGP batt=2.6V Join https://groups.io/g/Balloons
WA9ONY-14U22208582022-12-06 01:17:4844.3265-122.82314393423Clb=-8.3m/s p=658.2hPa t=-11.9C h=31.5% 401.40MHz Type=RS41-SGP Join https://groups.io/g/Balloons
WA9ONY-10U22208582022-12-06 01:17:4544.3266-122.82312693438Clb=-7.6m/s p=656.9hPa t=-12.0C h=31.9% 401.40MHz Type=RS41-SGP Join https://groups.io/g/Balloons
KJ7NUX-14U22208582022-12-06 01:17:4344.3266-122.82312693454Clb=-8.5m/s p=655.6hPa t=-12.1C h=32.2% 401.40MHz Type=RS41-SGP Details on http://radiosondy.info
WA9ONY-14U22208582022-12-06 01:17:3744.3266-122.82312393503Clb=-7.1m/s p=651.6hPa t=-12.4C h=32.0% 401.40MHz Type=RS41-SGP Join https://groups.io/g/Balloons
WA9ONY-10U22208582022-12-06 01:17:3644.3267-122.82311393517Clb=-7.3m/s p=650.3hPa t=-12.3C h=27.6% 401.40MHz Type=RS41-SGP Join https://groups.io/g/Balloons
KJ7NUX-14U22208582022-12-06 01:17:2644.3267-122.8249193577Clb=-7.6m/s p=645.3hPa t=-12.5C h=27.3% 401.40MHz Type=RS41-SGP batt=2.5V Details on http://radiosondy.info
WA9ONY-10U22208582022-12-06 01:17:2444.3267-122.8249893594Clb=-7.0m/s p=643.8hPa t=-12.7C h=30.6% 401.40MHz Type=RS41-SGP batt=2.5V Join https://groups.io/g/Balloons
WA9ONY-14U22208582022-12-06 01:17:1644.3267-122.8248773658Clb=-8.5m/s p=638.5hPa t=-13.1C h=33.8% 401.40MHz Type=RS41-SGP Join https://groups.io/g/Balloons
WA9ONY-10U22208582022-12-06 01:17:1444.3267-122.8247273675Clb=-8.6m/s p=637.1hPa t=-13.2C h=32.8% 401.40MHz Type=RS41-SGP Join https://groups.io/g/Balloons
K6GDP-11U22208582022-12-06 01:17:1244.3267-122.8248463698Clb=-7.1m/s t=-13.4C h=31.5% p=635.3hPa 401.400 MHz Type=RS41-SGP ser=U2220858 Radiosonde
KJ7NUX-14U22208582022-12-06 01:17:1044.3267-122.8248173707Clb=-8.9m/s p=634.6hPa t=-13.4C h=31.5% 401.40MHz Type=RS41-SGP Details on http://radiosondy.info
WA9ONY-14U22208582022-12-06 01:17:0644.3267-122.8248773739Clb=-8.0m/s p=631.8hPa t=-13.7C h=32.1% 401.40MHz Type=RS41-SGP Join https://groups.io/g/Balloons
WA9ONY-10U22208582022-12-06 01:17:0444.3267-122.8247973755Clb=-6.8m/s p=630.5hPa t=-13.7C h=31.1% 401.40MHz Type=RS41-SGP Join https://groups.io/g/Balloons
WA9ONY-14U22208582022-12-06 01:16:5544.3268-122.82412363815Clb=-7.1m/s p=625.4hPa t=-14.2C h=29.1% 401.40MHz Type=RS41-SGP batt=2.6V Join https://groups.io/g/Balloons
KJ7NUX-14U22208582022-12-06 01:16:5344.3268-122.82410963831Clb=-8.4m/s p=623.9hPa t=-14.4C h=27.9% 401.40MHz Type=RS41-SGP Details on http://radiosondy.info
WA9ONY-14U22208582022-12-06 01:16:4544.3268-122.8259263897Clb=-8.6m/s p=618.8hPa t=-14.9C h=21.7% 401.40MHz Type=RS41-SGP TxOff=7h56m Join https://groups.io/g/Balloons
WA9ONY-10U22208582022-12-06 01:16:4344.3268-122.8257843911Clb=-6.5m/s p=617.4hPa t=-15.0C h=20.6% 401.40MHz Type=RS41-SGP TxOff=7h56m Join https://groups.io/g/Balloons
KJ7NUX-14U22208582022-12-06 01:16:3744.3268-122.8259243958Clb=-7.5m/s p=613.5hPa t=-15.3C h=22.8% 401.40MHz Type=RS41-SGP batt=2.6V Details on http://radiosondy.info
WA9ONY-14U22208582022-12-06 01:16:3544.3268-122.8257523975Clb=-9.2m/s p=612.2hPa t=-15.5C h=23.5% 401.40MHz Type=RS41-SGP Join https://groups.io/g/Balloons
WA9ONY-10U22208582022-12-06 01:16:3344.3268-122.8258643992Clb=-9.0m/s p=611.0hPa t=-15.6C h=23.9% 401.40MHz Type=RS41-SGP Join https://groups.io/g/Balloons
WA9ONY-14U22208582022-12-06 01:16:2544.3268-122.82512844059Clb=-8.5m/s p=605.6hPa t=-16.2C h=22.3% 401.40MHz Type=RS41-SGP batt=2.6V Join https://groups.io/g/Balloons
WA9ONY-10U22208582022-12-06 01:16:2344.3268-122.82513544075Clb=-7.1m/s p=604.2hPa t=-16.3C h=21.8% 401.40MHz Type=RS41-SGP batt=2.6V Join https://groups.io/g/Balloons
KJ7NUX-14U22208582022-12-06 01:16:2144.3268-122.82516044089Clb=-8.3m/s p=603.0hPa t=-16.4C h=19.5% 401.40MHz Type=RS41-SGP Details on http://radiosondy.info
WA9ONY-14U22208582022-12-06 01:16:1544.3269-122.82519164140Clb=-9.5m/s p=599.0hPa t=-16.8C h=19.3% 401.40MHz Type=RS41-SGP Join https://groups.io/g/Balloons
WA9ONY-10U22208582022-12-06 01:16:1344.3269-122.82518064157Clb=-7.7m/s p=597.6hPa t=-16.9C h=18.3% 401.40MHz Type=RS41-SGP Join https://groups.io/g/Balloons
KJ7NUX-14U22208582022-12-06 01:16:0644.327-122.82520744222Clb=-7.9m/s p=592.4hPa t=-17.4C h=17.9% 401.40MHz Type=RS41-SGP Details on http://radiosondy.info
WA9ONY-10U22208582022-12-06 01:16:0444.3271-122.82518764240Clb=-8.7m/s p=591.1hPa t=-17.5C h=19.2% 401.40MHz Type=RS41-SGP Join https://groups.io/g/Balloons
W7BDB-13U22208582022-12-06 01:16:0344.3271-122.82523764249Clb=-8.4m/s p=590.5hPa t=-17.6C h=19.8% 401.40MHz Type=RS41-SGP batt=2.5V Details on http://radiosondy.info
WA9ONY-14U22208582022-12-06 01:15:5544.3271-122.82522544310Clb=-8.5m/s p=585.8hPa t=-18.0C h=20.1% 401.40MHz Type=RS41-SGP batt=2.6V Join https://groups.io/g/Balloons
WA9ONY-10U22208582022-12-06 01:15:5344.3272-122.82525044326Clb=-8.0m/s p=584.6hPa t=-18.1C h=20.3% 401.40MHz Type=RS41-SGP batt=2.5V Join https://groups.io/g/Balloons
KJ7NUX-14U22208582022-12-06 01:15:5044.3272-122.82526744358Clb=-9.0m/s p=582.0hPa t=-18.4C h=20.4% 401.40MHz Type=RS41-SGP TxOff=7h57m batt=2.6V Details on http://radiosondy.info
W7BDB-13U22208582022-12-06 01:15:4844.3272-122.82528864375Clb=-8.3m/s p=580.7hPa t=-18.5C h=20.1% 401.40MHz Type=RS41-SGP Details on http://radiosondy.info
WA9ONY-14U22208582022-12-06 01:15:4644.3272-122.82530044392Clb=-8.5m/s p=579.3hPa t=-18.7C h=19.6% 401.40MHz Type=RS41-SGP Join https://groups.io/g/Balloons
WA9ONY-10U22208582022-12-06 01:15:4444.3272-122.82526744407Clb=-6.4m/s p=578.0hPa t=-18.8C h=19.5% 401.40MHz Type=RS41-SGP Join https://groups.io/g/Balloons
K6GDP-11U22208582022-12-06 01:15:4044.3272-122.82424324446Clb=-7.5m/s t=-19.2C h=18.8% p=575.0hPa 401.400 MHz Type=RS41-SGP ser=U2220858 Radiosonde
WA9ONY-14U22208582022-12-06 01:15:3744.3272-122.82423774474Clb=-7.9m/s p=572.9hPa t=-19.3C h=17.2% 401.40MHz Type=RS41-SGP Join https://groups.io/g/Balloons
KJ7NUX-14U22208582022-12-06 01:15:3644.3272-122.824244174491Clb=-8.6m/s p=571.4hPa t=-19.4C h=15.6% 401.40MHz Type=RS41-SGP Details on http://radiosondy.info
W7BDB-13U22208582022-12-06 01:15:3344.3272-122.824229114507Clb=-9.0m/s p=570.4hPa t=-19.4C h=14.1% 401.40MHz Type=RS41-SGP Details on http://radiosondy.info
WA9ONY-14U22208582022-12-06 01:15:2844.3273-122.824224134557Clb=-9.9m/s p=566.6hPa t=-19.7C h=13.2% 401.40MHz Type=RS41-SGP TxOff=7h58m batt=2.5V Join https://groups.io/g/Balloons
WA9ONY-10U22208582022-12-06 01:15:2644.3274-122.824216154574Clb=-9.4m/s p=565.2hPa t=-19.8C h=13.4% 401.40MHz Type=RS41-SGP TxOff=7h58m batt=2.6V Join https://groups.io/g/Balloons
W7BDB-12U22208582022-12-06 01:15:2244.3275-122.824217154639Clb=-8.9m/s t=-20.2C h=15.6% p=560.6hPa 401.399 MHz Type=RS41-SGP ser=U2220858 Radiosonde
W7BDB-13U22208582022-12-06 01:15:1944.3275-122.824218154639Clb=-8.9m/s p=560.6hPa t=-20.1C h=16.1% 401.40MHz Type=RS41-SGP batt=2.5V Details on http://radiosondy.info
WA9ONY-14U22208582022-12-06 01:15:1844.3275-122.824216154648Clb=-8.1m/s p=559.8hPa t=-20.2C h=16.5% 401.40MHz Type=RS41-SGP Join https://groups.io/g/Balloons
WA9ONY-10U22208582022-12-06 01:15:1644.3276-122.824217154664Clb=-8.9m/s p=558.7hPa t=-20.4C h=16.8% 401.40MHz Type=RS41-SGP Join https://groups.io/g/Balloons
K6GDP-11U22208582022-12-06 01:15:1144.3278-122.824218134713Clb=-8.2m/s t=-20.9C h=21.3% p=554.8hPa 401.400 MHz Type=RS41-SGP ser=U2220858 Radiosonde
WA9ONY-14U22208582022-12-06 01:15:0944.3278-122.824231154731Clb=-9.6m/s p=553.5hPa t=-20.9C h=26.9% 401.40MHz Type=RS41-SGP Join https://groups.io/g/Balloons
WA9ONY-10U22208582022-12-06 01:15:0744.3279-122.823228154750Clb=-8.9m/s p=552.2hPa t=-21.1C h=27.1% 401.40MHz Type=RS41-SGP Join https://groups.io/g/Balloons
W7BDB-13U22208582022-12-06 01:15:0444.3279-122.823218154776Clb=-7.5m/s p=550.1hPa t=-21.3C h=26.7% 401.40MHz Type=RS41-SGP Details on http://radiosondy.info
WA9ONY-14U22208582022-12-06 01:14:5944.3281-122.823213174817Clb=-9.7m/s p=547.2hPa t=-21.5C h=22.6% 401.40MHz Type=RS41-SGP batt=2.5V Join https://groups.io/g/Balloons
WA9ONY-10U22208582022-12-06 01:14:5744.3282-122.823212174833Clb=-7.3m/s p=545.8hPa t=-21.7C h=21.6% 401.40MHz Type=RS41-SGP batt=2.6V Join https://groups.io/g/Balloons
WA9ONY-14U22208582022-12-06 01:14:4944.3284-122.823212194903Clb=-8.5m/s p=540.9hPa t=-22.1C h=24.3% 401.40MHz Type=RS41-SGP Join https://groups.io/g/Balloons
WA9ONY-10U22208582022-12-06 01:14:4844.3285-122.823206204919Clb=-7.4m/s p=539.7hPa t=-22.2C h=25.4% 401.40MHz Type=RS41-SGP Join https://groups.io/g/Balloons
K6GDP-11U22208582022-12-06 01:14:4144.3289-122.823202224988Clb=-9.2m/s t=-22.7C h=27.5% p=534.7hPa 401.400 MHz Type=RS41-SGP ser=U2220858 Radiosonde
WA9ONY-14U22208582022-12-06 01:14:4044.3289-122.823203204988Clb=-9.1m/s p=534.7hPa t=-22.7C h=28.4% 401.40MHz Type=RS41-SGP Join https://groups.io/g/Balloons
WA9ONY-10U22208582022-12-06 01:14:3844.329-122.823206205005Clb=-8.9m/s p=533.5hPa t=-22.8C h=26.6% 401.40MHz Type=RS41-SGP Join https://groups.io/g/Balloons
W7BDB-13U22208582022-12-06 01:14:3344.3292-122.822209225045Clb=-8.7m/s p=530.5hPa t=-23.0C h=28.1% 401.40MHz Type=RS41-SGP TxOff=7h59m batt=2.6V Details on http://radiosondy.info
WA9ONY-14U22208582022-12-06 01:14:3044.3294-122.822213225069Clb=-8.7m/s p=528.7hPa t=-23.2C h=28.2% 401.40MHz Type=RS41-SGP batt=2.5V Join https://groups.io/g/Balloons
WA9ONY-10U22208582022-12-06 01:14:2844.3294-122.822212225086Clb=-8.3m/s p=527.4hPa t=-23.3C h=28.9% 401.40MHz Type=RS41-SGP batt=2.6V Join https://groups.io/g/Balloons
WA9ONY-14U22208582022-12-06 01:14:2144.3298-122.822226245155Clb=-9.0m/s p=522.5hPa t=-23.7C h=36.4% 401.40MHz Type=RS41-SGP Join https://groups.io/g/Balloons
WA9ONY-10U22208582022-12-06 01:14:1944.3299-122.822229265172Clb=-7.9m/s p=521.2hPa t=-23.8C h=38.6% 401.40MHz Type=RS41-SGP Join https://groups.io/g/Balloons
KJ7NUX-14U22208582022-12-06 01:14:1844.3299-122.822228305181Clb=-8.9m/s p=520.6hPa t=-23.8C h=40.4% 401.40MHz Type=RS41-SGP Details on http://radiosondy.info
WA9ONY-14U22208582022-12-06 01:14:1144.3302-122.821230315240Clb=-7.8m/s p=516.4hPa t=-24.2C h=49.4% 401.40MHz Type=RS41-SGP TxOff=7h59m Join https://groups.io/g/Balloons
WA9ONY-10U22208582022-12-06 01:14:0944.3303-122.821232335256Clb=-8.1m/s p=515.2hPa t=-24.4C h=51.7% 401.40MHz Type=RS41-SGP TxOff=7h59m Join https://groups.io/g/Balloons
W7BDB-13U22208582022-12-06 01:14:0144.3307-122.82229375316Clb=-9.5m/s p=511.1hPa t=-24.7C h=60.4% 401.40MHz Type=RS41-SGP Details on http://radiosondy.info
WA9ONY-14U22208582022-12-06 01:14:0044.3307-122.82227375326Clb=-8.9m/s p=510.4hPa t=-24.8C h=61.1% 401.40MHz Type=RS41-SGP batt=2.5V Join https://groups.io/g/Balloons
WA9ONY-10U22208582022-12-06 01:13:5844.3308-122.82228375343Clb=-9.9m/s p=509.2hPa t=-24.9C h=62.3% 401.40MHz Type=RS41-SGP batt=2.6V Join https://groups.io/g/Balloons
WA9ONY-14U22208582022-12-06 01:13:5144.3313-122.819229395410Clb=-8.0m/s p=504.4hPa t=-25.3C h=64.0% 401.40MHz Type=RS41-SGP Join https://groups.io/g/Balloons
WA9ONY-10U22208582022-12-06 01:13:4944.3315-122.819227395426Clb=-9.1m/s p=503.3hPa t=-25.4C h=64.7% 401.40MHz Type=RS41-SGP Join https://groups.io/g/Balloons
W7BDB-13U22208582022-12-06 01:13:4744.3316-122.819228395443Clb=-8.0m/s p=502.2hPa t=-25.6C h=65.0% 401.40MHz Type=RS41-SGP batt=2.6V Details on http://radiosondy.info
KJ7NUX-14U22208582022-12-06 01:13:4644.3317-122.819228395451Clb=-7.4m/s p=501.5hPa t=-25.6C h=64.3% 401.40MHz Type=RS41-SGP Details on http://radiosondy.info
WA9ONY-14U22208582022-12-06 01:13:4144.332-122.818229415497Clb=-9.5m/s p=498.6hPa t=-25.8C h=61.5% 401.40MHz Type=RS41-SGP Join https://groups.io/g/Balloons
WA9ONY-10U22208582022-12-06 01:13:3944.3321-122.818227415515Clb=-9.8m/s p=497.4hPa t=-25.9C h=61.6% 401.40MHz Type=RS41-SGP Join https://groups.io/g/Balloons
W7BDB-13U22208582022-12-06 01:13:3044.3327-122.817224395583Clb=-9.2m/s p=492.6hPa t=-26.6C h=64.9% 401.40MHz Type=RS41-SGP Details on http://radiosondy.info
WA9ONY-10U22208582022-12-06 01:13:2944.3328-122.817225395599Clb=-8.6m/s p=491.4hPa t=-26.7C h=65.1% 401.40MHz Type=RS41-SGP TxOff=8h00m batt=2.6V Join https://groups.io/g/Balloons
WA9ONY-14U22208582022-12-06 01:13:2144.3334-122.816233415668Clb=-8.9m/s p=486.8hPa t=-27.0C h=58.9% 401.40MHz Type=RS41-SGP Join https://groups.io/g/Balloons
WA9ONY-10U22208582022-12-06 01:13:1944.3335-122.816227395686Clb=-8.5m/s p=485.7hPa t=-27.1C h=59.2% 401.40MHz Type=RS41-SGP Join https://groups.io/g/Balloons
W7BDB-13U22208582022-12-06 01:13:1644.3337-122.816226415713Clb=-10.5m/s p=483.9hPa t=-27.2C h=57.9% 401.40MHz Type=RS41-SGP Details on http://radiosondy.info
KJ7NUX-14U22208582022-12-06 01:13:1444.3338-122.816231415732Clb=-10.0m/s p=482.7hPa t=-27.4C h=57.8% 401.40MHz Type=RS41-SGP TxOff=8h00m batt=2.5V Details on http://radiosondy.info
WA9ONY-14U22208582022-12-06 01:13:1144.334-122.815232415762Clb=-10.6m/s p=480.6hPa t=-27.6C h=59.2% 401.40MHz Type=RS41-SGP Join https://groups.io/g/Balloons
WA9ONY-10U22208582022-12-06 01:13:0944.3341-122.815229415780Clb=-7.4m/s p=479.4hPa t=-27.7C h=60.4% 401.40MHz Type=RS41-SGP Join https://groups.io/g/Balloons
WA9ONY-14U22208582022-12-06 01:13:0044.3347-122.814231435848Clb=-9.9m/s p=474.8hPa t=-28.1C h=54.7% 401.40MHz Type=RS41-SGP batt=2.5V Join https://groups.io/g/Balloons
W7BDB-13U22208582022-12-06 01:12:5944.3347-122.814230435857Clb=-9.1m/s p=474.2hPa t=-28.2C h=52.5% 401.40MHz Type=RS41-SGP TxOff=8h00m batt=2.5V Details on http://radiosondy.info
WA9ONY-10U22208582022-12-06 01:12:5844.3348-122.814230435866Clb=-9.0m/s p=473.6hPa t=-28.3C h=47.2% 401.40MHz Type=RS41-SGP batt=2.5V Join https://groups.io/g/Balloons
WA9ONY-14U22208582022-12-06 01:12:5144.3353-122.813233445935Clb=-8.7m/s p=469.0hPa t=-28.6C h=28.3% 401.40MHz Type=RS41-SGP Join https://groups.io/g/Balloons
WA9ONY-10U22208582022-12-06 01:12:4944.3355-122.813234465951Clb=-8.6m/s p=467.9hPa t=-28.7C h=27.4% 401.40MHz Type=RS41-SGP Join https://groups.io/g/Balloons
WA9ONY-14U22208582022-12-06 01:12:4244.336-122.812233486023Clb=-7.6m/s p=463.3hPa t=-29.1C h=22.7% 401.40MHz Type=RS41-SGP Join https://groups.io/g/Balloons
WA9ONY-10U22208582022-12-06 01:12:4044.3362-122.812231486041Clb=-9.8m/s p=462.2hPa t=-29.3C h=22.2% 401.40MHz Type=RS41-SGP Join https://groups.io/g/Balloons
W7BDB-13U22208582022-12-06 01:12:3444.3365-122.811233506074Clb=-8.6m/s p=459.9hPa t=-29.6C h=23.1% 401.40MHz Type=RS41-SGP Details on http://radiosondy.info
WA9ONY-14U22208582022-12-06 01:12:2944.3368-122.811231576107Clb=-8.6m/s p=457.8hPa t=-29.9C h=23.8% 401.40MHz Type=RS41-SGP batt=2.5V Join https://groups.io/g/Balloons
WA9ONY-10U22208582022-12-06 01:12:2844.3369-122.81233576124Clb=-9.5m/s p=456.7hPa t=-30.0C h=24.2% 401.40MHz Type=RS41-SGP batt=2.5V Join https://groups.io/g/Balloons
W7BDB-12U22208582022-12-06 01:12:1744.3382-122.808235576266Clb=-9.0m/s t=-31.0C h=46.8% p=448.0hPa 401.399 MHz Type=RS41-SGP ser=U2220858 Radiosonde
KJ7NUX-14U22208582022-12-06 01:12:0844.3386-122.807237636308Clb=-9.6m/s p=445.3hPa t=-31.2C h=40.0% 401.40MHz Type=RS41-SGP Details on http://radiosondy.info
K6GDP-11U22208582022-12-06 01:12:0544.3394-122.806235576381Clb=-9.4m/s t=-31.4C h=21.6% p=440.6hPa 401.400 MHz Type=RS41-SGP ser=U2220858 Radiosonde
KJ7NUX-14U22208582022-12-06 01:11:4844.3402-122.804237636463Clb=-9.6m/s p=435.6hPa t=-31.7C h=27.4% 401.40MHz Type=RS41-SGP batt=2.6V Details on http://radiosondy.info
WA9ONY-10U22208582022-12-06 01:11:4244.3407-122.803236656517Clb=-9.7m/s p=432.3hPa t=-32.1C h=28.7% 401.40MHz Type=RS41-SGP Join https://groups.io/g/Balloons
K6GDP-11U22208582022-12-06 01:11:3444.3415-122.801234616587Clb=-6.6m/s t=-32.7C h=30.0% p=428.0hPa 401.400 MHz Type=RS41-SGP ser=U2220858 Radiosonde
KJ7NUX-14U22208582022-12-06 01:11:3244.3416-122.801234636595Clb=-8.1m/s p=427.5hPa t=-32.7C h=31.5% 401.40MHz Type=RS41-SGP Details on http://radiosondy.info
KJ7NUX-14U22208582022-12-06 01:11:1744.3431-122.798236656725Clb=-7.6m/s p=419.5hPa t=-33.5C h=35.2% 401.40MHz Type=RS41-SGP Details on http://radiosondy.info
W7BDB-12U22208582022-12-06 01:11:1544.3439-122.797238656796Clb=-9.2m/s t=-34.1C h=33.6% p=415.2hPa 401.399 MHz Type=RS41-SGP ser=U2220858 Radiosonde
K6GDP-11U22208582022-12-06 01:11:0244.3443-122.796238656840Clb=-8.3m/s t=-34.5C h=35.0% p=412.7hPa 401.400 MHz Type=RS41-SGP ser=U2220858 Radiosonde
KJ7NUX-14U22208582022-12-06 01:11:0044.3444-122.795238676856Clb=-7.9m/s p=411.8hPa t=-34.6C h=36.9% 401.40MHz Type=RS41-SGP batt=2.6V Details on http://radiosondy.info
KJ7NUX-14U22208582022-12-06 01:10:4544.3457-122.792242706994Clb=-10.0m/s p=403.7hPa t=-35.5C h=30.1% 401.40MHz Type=RS41-SGP Details on http://radiosondy.info
WA9ONY-14U22208582022-12-06 01:10:4144.346-122.791242657028Clb=-10.1m/s p=401.7hPa t=-35.6C h=28.9% 401.40MHz Type=RS41-SGP Join https://groups.io/g/Balloons
WA9ONY-10U22208582022-12-06 01:10:3044.3469-122.789243727118Clb=-10.1m/s p=396.4hPa t=-36.3C h=33.0% 401.40MHz Type=RS41-SGP TxOff=8h03m batt=2.5V Join https://groups.io/g/Balloons
WA9ONY-14U22208582022-12-06 01:10:2744.347-122.789242707137Clb=-11.7m/s p=395.4hPa t=-36.4C h=33.3% 401.40MHz Type=RS41-SGP TxOff=8h03m batt=2.5V Join https://groups.io/g/Balloons
KJ7NUX-14U22208582022-12-06 01:10:2644.3472-122.788243707156Clb=-9.0m/s p=394.1hPa t=-36.6C h=34.2% 401.40MHz Type=RS41-SGP Details on http://radiosondy.info
WA9ONY-10U22208582022-12-06 01:10:1944.3478-122.787243707222Clb=-9.3m/s p=390.4hPa t=-37.2C h=35.8% 401.40MHz Type=RS41-SGP Join https://groups.io/g/Balloons
WA9ONY-14U22208582022-12-06 01:10:1644.3481-122.786244707249Clb=-11.4m/s p=389.0hPa t=-37.5C h=36.1% 401.40MHz Type=RS41-SGP Join https://groups.io/g/Balloons
KJ7NUX-14U22208582022-12-06 01:10:1144.3486-122.785240707311Clb=-8.8m/s p=385.6hPa t=-38.0C h=37.5% 401.40MHz Type=RS41-SGP TxOff=8h03m batt=2.5V Details on http://radiosondy.info
K6GDP-11U22208582022-12-06 01:10:0044.3494-122.783242707406Clb=-9.4m/s t=-38.9C h=37.7% p=380.6hPa 401.400 MHz Type=RS41-SGP ser=U2220858 Radiosonde
WA9ONY-14U22208582022-12-06 01:09:5644.3497-122.782241707446Clb=-9.7m/s p=378.4hPa t=-39.2C h=41.5% 401.40MHz Type=RS41-SGP Join https://groups.io/g/Balloons
KJ7NUX-14U22208582022-12-06 01:09:5444.3499-122.781240727464Clb=-8.1m/s p=377.3hPa t=-39.3C h=41.7% 401.40MHz Type=RS41-SGP Details on http://radiosondy.info
WA9ONY-14U22208582022-12-06 01:09:4744.3506-122.779237707537Clb=-9.4m/s p=373.3hPa t=-39.9C h=40.0% 401.40MHz Type=RS41-SGP batt=2.6V Join https://groups.io/g/Balloons
WA9ONY-10U22208582022-12-06 01:09:4644.3507-122.779236707546Clb=-9.2m/s p=372.8hPa t=-40.0C h=40.3% 401.40MHz Type=RS41-SGP batt=2.6V Join https://groups.io/g/Balloons
KJ7NUX-14U22208582022-12-06 01:09:3844.3517-122.777237727626Clb=-10.3m/s p=368.5hPa t=-40.7C h=42.9% 401.40MHz Type=RS41-SGP Details on http://radiosondy.info
W7BDB-13U22208582022-12-06 01:09:3244.3522-122.776236697674Clb=-10.4m/s p=365.9hPa t=-41.0C h=43.4% 401.40MHz Type=RS41-SGP batt=2.5V Details on http://radiosondy.info
K6GDP-11U22208582022-12-06 01:09:3044.3526-122.775240697726Clb=-9.9m/s t=-41.2C h=39.4% p=363.2hPa 401.400 MHz Type=RS41-SGP ser=U2220858 Radiosonde
WA9ONY-14U22208582022-12-06 01:09:2444.3528-122.775239697744Clb=-9.7m/s p=362.0hPa t=-41.3C h=40.8% 401.40MHz Type=RS41-SGP Join https://groups.io/g/Balloons
KJ7NUX-14U22208582022-12-06 01:09:2044.3532-122.774237697784Clb=-11.7m/s p=360.2hPa t=-41.3C h=35.7% 401.40MHz Type=RS41-SGP batt=2.5V Details on http://radiosondy.info
WA9ONY-10U22208582022-12-06 01:09:1544.3538-122.773238697842Clb=-8.0m/s p=357.0hPa t=-41.8C h=32.2% 401.40MHz Type=RS41-SGP Join https://groups.io/g/Balloons
W7BDB-13U22208582022-12-06 01:09:1444.3539-122.773237697852Clb=-11.6m/s p=356.7hPa t=-41.8C h=30.7% 401.40MHz Type=RS41-SGP Details on http://radiosondy.info
W7BDB-12U22208582022-12-06 01:09:1144.3544-122.772233697914Clb=-9.8m/s t=-42.4C h=25.5% p=353.4hPa 401.399 MHz Type=RS41-SGP ser=U2220858 Radiosonde
KJ7NUX-14U22208582022-12-06 01:09:0544.3547-122.771234707943Clb=-10.8m/s p=351.8hPa t=-42.6C h=28.9% 401.40MHz Type=RS41-SGP Details on http://radiosondy.info
K6GDP-11U22208582022-12-06 01:08:5844.3554-122.77232707999Clb=-10.6m/s t=-43.1C h=28.1% p=348.9hPa 401.400 MHz Type=RS41-SGP ser=U2220858 Radiosonde
W7BDB-13U22208582022-12-06 01:08:5744.3555-122.77234708010Clb=-10.4m/s p=348.3hPa t=-43.1C h=31.1% 401.40MHz Type=RS41-SGP Details on http://radiosondy.info
WA9ONY-14U22208582022-12-06 01:08:5444.3558-122.769234708037Clb=-10.1m/s p=347.0hPa t=-43.3C h=31.4% 401.40MHz Type=RS41-SGP Join https://groups.io/g/Balloons
KJ7NUX-14U22208582022-12-06 01:08:4844.3564-122.768231728092Clb=-9.1m/s p=344.0hPa t=-43.8C h=32.6% 401.40MHz Type=RS41-SGP Details on http://radiosondy.info
WA9ONY-14U22208582022-12-06 01:08:4444.3569-122.767232728127Clb=-9.6m/s p=342.1hPa t=-44.1C h=32.8% 401.40MHz Type=RS41-SGP Join https://groups.io/g/Balloons
W7BDB-13U22208582022-12-06 01:08:4244.3571-122.767232728145Clb=-9.9m/s p=341.2hPa t=-44.2C h=33.4% 401.40MHz Type=RS41-SGP batt=2.5V Details on http://radiosondy.info
WA9ONY-14U22208582022-12-06 01:08:3244.358-122.765230728223Clb=-10.0m/s p=337.2hPa t=-44.9C h=36.7% 401.40MHz Type=RS41-SGP TxOff=8h05m batt=2.6V Join https://groups.io/g/Balloons
KJ7NUX-14U22208582022-12-06 01:08:3044.3582-122.765231728243Clb=-11.1m/s p=336.3hPa t=-45.0C h=36.9% 401.40MHz Type=RS41-SGP batt=2.5V Details on http://radiosondy.info
K6GDP-11U22208582022-12-06 01:08:2544.3588-122.764229728295Clb=-8.6m/s t=-45.5C h=34.1% p=333.8hPa 401.400 MHz Type=RS41-SGP ser=U2220858 Radiosonde
W7BDB-13U22208582022-12-06 01:08:2444.3589-122.764229728305Clb=-9.9m/s p=333.4hPa t=-45.5C h=37.1% 401.40MHz Type=RS41-SGP Details on http://radiosondy.info
WA9ONY-14U22208582022-12-06 01:08:2244.3592-122.763229728324Clb=-8.7m/s p=332.3hPa t=-45.6C h=36.6% 401.40MHz Type=RS41-SGP Join https://groups.io/g/Balloons
KJ7NUX-14U22208582022-12-06 01:08:1344.3601-122.762231728396Clb=-7.9m/s p=328.8hPa t=-46.2C h=34.6% 401.40MHz Type=RS41-SGP Details on http://radiosondy.info
WA9ONY-14U22208582022-12-06 01:08:1044.3603-122.761232728416Clb=-9.2m/s p=327.9hPa t=-46.4C h=34.2% 401.40MHz Type=RS41-SGP Join https://groups.io/g/Balloons
W7BDB-13U22208582022-12-06 01:08:0644.3608-122.761233708455Clb=-8.7m/s p=325.9hPa t=-46.6C h=34.1% 401.40MHz Type=RS41-SGP Details on http://radiosondy.info
WA9ONY-10U22208582022-12-06 01:08:0044.3614-122.759234708513Clb=-10.6m/s p=323.0hPa t=-47.0C h=33.5% 401.40MHz Type=RS41-SGP batt=2.6V Join https://groups.io/g/Balloons
KJ7NUX-14U22208582022-12-06 01:07:5644.3618-122.758236698554Clb=-11.0m/s p=321.2hPa t=-47.3C h=32.5% 401.40MHz Type=RS41-SGP Details on http://radiosondy.info
K6GDP-11U22208582022-12-06 01:07:5244.3622-122.758235708596Clb=-9.4m/s t=-47.7C h=29.1% p=319.2hPa 401.400 MHz Type=RS41-SGP ser=U2220858 Radiosonde
WA9ONY-14U22208582022-12-06 01:07:5044.3624-122.757236698616Clb=-9.5m/s p=318.1hPa t=-47.8C h=32.5% 401.40MHz Type=RS41-SGP Join https://groups.io/g/Balloons
WA9ONY-10U22208582022-12-06 01:07:4944.3625-122.757237698625Clb=-9.3m/s p=317.6hPa t=-47.9C h=32.8% 401.40MHz Type=RS41-SGP Join https://groups.io/g/Balloons
KJ7NUX-14U22208582022-12-06 01:07:4044.3634-122.755236638710Clb=-10.9m/s p=313.6hPa t=-48.7C h=32.0% 401.40MHz Type=RS41-SGP TxOff=8h06m batt=2.6V Details on http://radiosondy.info
WA9ONY-10U22208582022-12-06 01:07:3944.3635-122.755236638720Clb=-10.0m/s p=313.1hPa t=-48.8C h=32.1% 401.40MHz Type=RS41-SGP Join https://groups.io/g/Balloons
W7BDB-13U22208582022-12-06 01:07:3544.3639-122.754234618755Clb=-9.3m/s p=311.4hPa t=-49.0C h=30.9% 401.40MHz Type=RS41-SGP Details on http://radiosondy.info
WA9ONY-14U22208582022-12-06 01:07:3044.3644-122.754231618803Clb=-10.1m/s p=309.1hPa t=-49.2C h=28.2% 401.40MHz Type=RS41-SGP batt=2.6V Join https://groups.io/g/Balloons
WA9ONY-10U22208582022-12-06 01:07:2944.3644-122.753232618811Clb=-8.8m/s p=308.6hPa t=-49.2C h=28.0% 401.40MHz Type=RS41-SGP batt=2.5V Join https://groups.io/g/Balloons
KJ7NUX-14U22208582022-12-06 01:07:2444.3649-122.753229618857Clb=-10.4m/s p=306.4hPa t=-49.4C h=27.6% 401.40MHz Type=RS41-SGP Details on http://radiosondy.info
K6GDP-11U22208582022-12-06 01:07:2244.3652-122.752226578883Clb=-9.2m/s t=-49.7C h=24.6% p=305.2hPa 401.400 MHz Type=RS41-SGP ser=U2220858 Radiosonde
WA9ONY-14U22208582022-12-06 01:07:2044.3653-122.752228618893Clb=-9.4m/s p=304.8hPa t=-49.7C h=27.9% 401.40MHz Type=RS41-SGP Join https://groups.io/g/Balloons
KG7GDB-12U22208582022-12-06 01:07:1944.3655-122.752227598902Clb=-9.4m/s t=-49.8C h=24.8% p=304.4hPa 401.401 MHz Type=RS41-SGP ser=U2220858 Radiosonde
WA9ONY-14U22208582022-12-06 01:07:1044.3664-122.75227638990Clb=-10.5m/s p=300.4hPa t=-50.5C h=29.2% 401.40MHz Type=RS41-SGP Join https://groups.io/g/Balloons
WA9ONY-10U22208582022-12-06 01:07:0944.3665-122.75227659001Clb=-10.4m/s p=300.0hPa t=-50.6C h=29.3% 401.40MHz Type=RS41-SGP Join https://groups.io/g/Balloons
KJ7NUX-14U22208582022-12-06 01:07:0844.3666-122.75227659010Clb=-8.8m/s p=299.5hPa t=-50.7C h=29.6% 401.40MHz Type=RS41-SGP Details on http://radiosondy.info
W7BDB-13U22208582022-12-06 01:07:0344.3672-122.749228659057Clb=-8.9m/s p=297.3hPa t=-51.1C h=30.1% 401.40MHz Type=RS41-SGP batt=2.5V Details on http://radiosondy.info
WA9ONY-14U22208582022-12-06 01:07:0044.3675-122.749229659086Clb=-9.9m/s p=296.0hPa t=-51.3C h=30.5% 401.40MHz Type=RS41-SGP TxOff=8h06m batt=2.6V Join https://groups.io/g/Balloons
WA9ONY-10U22208582022-12-06 01:06:5944.3676-122.749229639096Clb=-9.3m/s p=295.5hPa t=-51.4C h=30.6% 401.40MHz Type=RS41-SGP TxOff=8h06m batt=2.5V Join https://groups.io/g/Balloons
KE7WWCU22208582022-12-06 01:06:5444.3682-122.748227619153Clb=-11.0m/s t=-52.0C h=27.6% p=293.1hPa 401.374 MHz Type=RS41-SGP ser=U2220858 Radiosonde
KJ7NUX-14U22208582022-12-06 01:06:5244.3683-122.747229639163Clb=-8.4m/s p=292.6hPa t=-52.0C h=31.7% 401.40MHz Type=RS41-SGP batt=2.5V Details on http://radiosondy.info
K6GDP-11U22208582022-12-06 01:06:5044.3685-122.747227599180Clb=-8.4m/s t=-52.2C h=28.0% p=291.9hPa 401.400 MHz Type=RS41-SGP ser=U2220858 Radiosonde
WA9ONY-10U22208582022-12-06 01:06:4944.3687-122.747227639188Clb=-7.6m/s p=291.3hPa t=-52.2C h=31.8% 401.40MHz Type=RS41-SGP Join https://groups.io/g/Balloons
KG7GDB-12U22208582022-12-06 01:06:4844.3688-122.747226619197Clb=-10.2m/s t=-52.3C h=27.8% p=291.1hPa 401.401 MHz Type=RS41-SGP ser=U2220858 Radiosonde
W7BDB-13U22208582022-12-06 01:06:4744.3689-122.747227639206Clb=-9.5m/s p=290.6hPa t=-52.3C h=31.9% 401.40MHz Type=RS41-SGP Details on http://radiosondy.info
W7BDB-13U22208582022-12-06 01:06:4344.3705-122.744226659355Clb=-8.9m/s p=284.0hPa t=-53.5C h=35.4% 401.40MHz Type=RS41-SGP Details on http://radiosondy.info
KJ7NUX-14U22208582022-12-06 01:06:4244.3719-122.742225639465Clb=-9.6m/s p=279.2hPa t=-54.4C h=34.4% 401.40MHz Type=RS41-SGP Details on http://radiosondy.info
W7BDB-12U22208582022-12-06 01:06:4144.3746-122.739221599698Clb=-9.8m/s t=-55.8C h=23.7% p=269.3hPa 401.399 MHz Type=RS41-SGP ser=U2220858 Radiosonde
WA9ONY-14U22208582022-12-06 01:06:4044.3769-122.737212679869Clb=-10.2m/s p=262.0hPa t=-56.8C h=26.8% 401.40MHz Type=RS41-SGP Join https://groups.io/g/Balloons
WA9ONY-10U22208582022-12-06 01:06:3944.377-122.737211679880Clb=-11.6m/s p=261.6hPa t=-56.8C h=26.7% 401.40MHz Type=RS41-SGP Join https://groups.io/g/Balloons
KJ7NUX-14U22208582022-12-06 01:06:3844.378-122.736211679953Clb=-11.0m/s p=258.6hPa t=-57.5C h=26.3% 401.40MHz Type=RS41-SGP Details on http://radiosondy.info
WA9ONY-14U22208582022-12-06 01:06:3544.3798-122.7342107010087Clb=-7.7m/s p=253.1hPa t=-58.3C h=26.6% 401.40MHz Type=RS41-SGP Join https://groups.io/g/Balloons
WA9ONY-10U22208582022-12-06 01:06:3444.3799-122.7342087010095Clb=-8.1m/s p=252.8hPa t=-58.3C h=26.3% 401.40MHz Type=RS41-SGP Join https://groups.io/g/Balloons
K6GDP-11U22208582022-12-06 01:06:3344.3804-122.7342057010129Clb=-11.6m/s t=-58.7C h=21.2% p=251.6hPa 401.400 MHz Type=RS41-SGP ser=U2220858 Radiosonde
KJ7NUX-14U22208582022-12-06 01:06:3244.3804-122.7342067210129Clb=-11.5m/s p=251.6hPa t=-58.6C h=25.7% 401.40MHz Type=RS41-SGP TxOff=8h08m batt=2.5V Details on http://radiosondy.info
KG7GDB-12U22208582022-12-06 01:06:3144.3806-122.7342077010141Clb=-12.1m/s t=-58.8C h=21.1% p=251.2hPa 401.401 MHz Type=RS41-SGP ser=U2220858 Radiosonde
W7BDB-13U22208582022-12-06 01:06:3044.3809-122.7342077410164Clb=-10.4m/s p=250.2hPa t=-59.0C h=25.8% 401.40MHz Type=RS41-SGP Details on http://radiosondy.info
WA9ONY-14U22208582022-12-06 01:06:2744.3814-122.7332057410199Clb=-13.4m/s p=248.9hPa t=-59.2C h=25.1% 401.40MHz Type=RS41-SGP Join https://groups.io/g/Balloons
WA9ONY-10U22208582022-12-06 01:06:2644.3815-122.7332067410211Clb=-11.3m/s p=248.3hPa t=-59.3C h=25.2% 401.40MHz Type=RS41-SGP Join https://groups.io/g/Balloons
KJ7NUX-14U22208582022-12-06 01:06:2144.383-122.7322028010312Clb=-11.2m/s p=244.4hPa t=-60.1C h=24.9% 401.40MHz Type=RS41-SGP Details on http://radiosondy.info
WA9ONY-10U22208582022-12-06 01:06:1944.3832-122.7322028010323Clb=-11.2m/s p=243.9hPa t=-60.2C h=24.9% 401.40MHz Type=RS41-SGP batt=2.6V Join https://groups.io/g/Balloons
WA9ONY-14U22208582022-12-06 01:06:1344.3849-122.7312038010427Clb=-10.7m/s p=240.0hPa t=-60.6C h=23.8% 401.40MHz Type=RS41-SGP Join https://groups.io/g/Balloons
K6GDP-11U22208582022-12-06 01:06:1144.3858-122.7312058010483Clb=-11.6m/s t=-60.7C h=18.9% p=237.8hPa 401.400 MHz Type=RS41-SGP ser=U2220858 Radiosonde
KJ7NUX-14U22208582022-12-06 01:06:1044.386-122.7312067410494Clb=-10.0m/s p=237.3hPa t=-60.5C h=23.7% 401.40MHz Type=RS41-SGP Details on http://radiosondy.info
W7BDB-13U22208582022-12-06 01:06:0744.3865-122.732087210525Clb=-10.3m/s p=236.1hPa t=-60.5C h=23.1% 401.40MHz Type=RS41-SGP batt=2.6V Details on http://radiosondy.info
WA9ONY-14U22208582022-12-06 01:06:0644.3867-122.732087410536Clb=-11.3m/s p=235.8hPa t=-60.5C h=23.2% 401.40MHz Type=RS41-SGP Join https://groups.io/g/Balloons
WA9ONY-14U22208582022-12-06 01:06:0144.3883-122.7292106110642Clb=-11.1m/s p=231.7hPa t=-60.6C h=22.3% 401.40MHz Type=RS41-SGP batt=2.6V Join https://groups.io/g/Balloons
W7BDB-13U22208582022-12-06 01:06:0044.3888-122.7282105010683Clb=-9.5m/s p=230.2hPa t=-60.4C h=21.6% 401.40MHz Type=RS41-SGP Details on http://radiosondy.info
WA9ONY-14U22208582022-12-06 01:05:5944.3896-122.7282154610742Clb=-11.1m/s p=228.1hPa t=-58.3C h=16.8% 401.40MHz Type=RS41-SGP Join https://groups.io/g/Balloons
K6GDP-11U22208582022-12-06 01:05:5844.3902-122.7272174310808Clb=-11.2m/s t=-57.8C h=10.8% p=225.8hPa 401.400 MHz Type=RS41-SGP ser=U2220858 Radiosonde
KE7WWCU22208582022-12-06 01:05:5744.3905-122.7272183910849Clb=-11.1m/s t=-57.8C h=9.9% p=224.3hPa 401.374 MHz Type=RS41-SGP ser=U2220858 Radiosonde
WA9ONY-14U22208582022-12-06 01:05:5644.3911-122.7262162010955Clb=-9.1m/s p=220.4hPa t=-58.0C h=11.9% 401.40MHz Type=RS41-SGP TxOff=8h09m batt=2.6V Join https://groups.io/g/Balloons
W7BDB-13U22208582022-12-06 01:03:5644.3913-122.7262112210994Clb=-11.6m/s p=219.1hPa t=-58.0C h=10.7% 401.40MHz Type=RS41-SGP batt=2.6V Details on http://radiosondy.info
KJ7NUX-14U22208582022-12-06 01:03:5244.41-122.7451204813351Clb=-10.2m/s p=151.7hPa t=-50.8C h=3.3% 401.40MHz Type=RS41-SGP Details on http://radiosondy.info
WA9ONY-14U22208582022-12-06 01:03:5144.41-122.7451204813352Clb=-10.2m/s p=151.7hPa t=-50.8C h=3.3% 401.40MHz Type=RS41-SGP Join https://groups.io/g/Balloons
WA9ONY-10U22208582022-12-06 01:03:5044.4101-122.7451204613362Clb=-11.5m/s p=151.5hPa t=-50.7C h=3.3% 401.40MHz Type=RS41-SGP Join https://groups.io/g/Balloons
K6GDP-11U22208582022-12-06 01:03:4644.4102-122.7451175013395Clb=-11.2m/s t=-50.8C h=1.3% p=150.7hPa 401.400 MHz Type=RS41-SGP ser=U2220858 Radiosonde
KG7GDB-12U22208582022-12-06 01:03:4344.4103-122.7461195013417Clb=-11.4m/s t=-50.8C h=1.2% p=150.3hPa 401.401 MHz Type=RS41-SGP ser=U2220858 Radiosonde
W7BDB-13U22208582022-12-06 01:03:4044.4105-122.7461224613448Clb=-10.8m/s p=149.5hPa t=-50.7C h=3.3% 401.40MHz Type=RS41-SGP batt=2.5V Details on http://radiosondy.info
KJ7NUX-14U22208582022-12-06 01:03:2944.4109-122.7471114413522Clb=-11.0m/s p=147.8hPa t=-50.8C h=3.3% 401.40MHz Type=RS41-SGP Details on http://radiosondy.info
KE7WWCU22208582022-12-06 01:03:1744.4112-122.7481024413613Clb=-11.8m/s t=-51.4C h=1.3% p=145.8hPa 401.374 MHz Type=RS41-SGP ser=U2220858 Radiosonde
W7BDB-13U22208582022-12-06 01:03:1444.4112-122.7491024413637Clb=-11.3m/s p=145.2hPa t=-51.3C h=3.4% 401.40MHz Type=RS41-SGP Details on http://radiosondy.info
KJ7NUX-14U22208582022-12-06 01:03:0744.4113-122.751014313700Clb=-10.2m/s p=143.8hPa t=-51.6C h=3.5% 401.40MHz Type=RS41-SGP batt=2.5V Details on http://radiosondy.info
K6GDP-11U22208582022-12-06 01:03:0344.4114-122.75974313732Clb=-11.5m/s t=-51.9C h=1.3% p=143.2hPa 401.400 MHz Type=RS41-SGP ser=U2220858 Radiosonde
KG7GDB-12U22208582022-12-06 01:03:0044.4114-122.75944313752Clb=-9.3m/s t=-52.0C h=1.3% p=142.7hPa 401.401 MHz Type=RS41-SGP ser=U2220858 Radiosonde
W7BDB-13U22208582022-12-06 01:02:5444.4114-122.751933913807Clb=-12.6m/s p=141.5hPa t=-52.2C h=3.6% 401.40MHz Type=RS41-SGP Details on http://radiosondy.info
WA9ONY-10U22208582022-12-06 01:02:5244.4114-122.751943913828Clb=-9.8m/s p=141.0hPa t=-52.3C h=3.5% 401.40MHz Type=RS41-SGP batt=2.6V Join https://groups.io/g/Balloons
KJ7NUX-14U22208582022-12-06 01:02:4744.4115-122.752983913870Clb=-9.5m/s p=140.1hPa t=-52.6C h=3.6% 401.40MHz Type=RS41-SGP Details on http://radiosondy.info
WA9ONY-14U22208582022-12-06 01:02:3844.4116-122.7531043913928Clb=-9.1m/s p=138.8hPa t=-52.9C h=3.7% 401.40MHz Type=RS41-SGP Join https://groups.io/g/Balloons
W7BDB-13U22208582022-12-06 01:02:3344.4117-122.7531034113973Clb=-13.7m/s p=137.9hPa t=-53.3C h=3.7% 401.40MHz Type=RS41-SGP batt=2.5V Details on http://radiosondy.info
WA9ONY-10U22208582022-12-06 01:02:2544.4118-122.7541094114047Clb=-11.6m/s p=136.3hPa t=-54.0C h=3.9% 401.40MHz Type=RS41-SGP Join https://groups.io/g/Balloons
K6GDP-11U22208582022-12-06 01:02:2244.4119-122.7541123914070Clb=-12.2m/s t=-54.3C h=1.5% p=135.9hPa 401.400 MHz Type=RS41-SGP ser=U2220858 Radiosonde
KG7GDB-12U22208582022-12-06 01:02:2144.412-122.7551174114092Clb=-11.7m/s t=-54.5C h=1.5% p=135.4hPa 401.401 MHz Type=RS41-SGP ser=U2220858 Radiosonde
WA9ONY-14U22208582022-12-06 01:02:1244.4123-122.7551254614156Clb=-12.0m/s p=134.0hPa t=-54.7C h=4.1% 401.40MHz Type=RS41-SGP TxOff=8h14m batt=2.6V Join https://groups.io/g/Balloons
KJ7NUX-14U22208582022-12-06 01:02:0544.4127-122.7561244414226Clb=-11.8m/s p=132.5hPa t=-54.9C h=4.2% 401.40MHz Type=RS41-SGP batt=2.5V Details on http://radiosondy.info
WA9ONY-10U22208582022-12-06 01:01:5944.413-122.7571304314270Clb=-10.8m/s p=131.7hPa t=-54.9C h=4.2% 401.40MHz Type=RS41-SGP Join https://groups.io/g/Balloons
W7BDB-13U22208582022-12-06 01:01:4944.4135-122.7571314614353Clb=-13.6m/s p=130.0hPa t=-54.7C h=4.0% 401.40MHz Type=RS41-SGP Details on http://radiosondy.info
WA9ONY-10U22208582022-12-06 01:01:4544.4137-122.7581334614394Clb=-11.2m/s p=129.1hPa t=-54.9C h=4.2% 401.40MHz Type=RS41-SGP Join https://groups.io/g/Balloons
KJ7NUX-14U22208582022-12-06 01:01:4344.4139-122.7581334614416Clb=-10.4m/s p=128.7hPa t=-54.8C h=4.2% 401.40MHz Type=RS41-SGP Details on http://radiosondy.info
K6GDP-11U22208582022-12-06 01:01:4044.4139-122.7581334414426Clb=-11.0m/s t=-54.7C h=1.5% p=128.5hPa 401.400 MHz Type=RS41-SGP ser=U2220858 Radiosonde
KG7GDB-12U22208582022-12-06 01:01:3744.4141-122.7581344614448Clb=-10.8m/s t=-54.9C h=1.5% p=128.1hPa 401.401 MHz Type=RS41-SGP ser=U2220858 Radiosonde
WA9ONY-10U22208582022-12-06 01:01:2844.4145-122.7591384614498Clb=-10.1m/s p=127.0hPa t=-54.7C h=4.2% 401.40MHz Type=RS41-SGP batt=2.5V Join https://groups.io/g/Balloons
W7BDB-13U22208582022-12-06 01:01:2644.4147-122.7591374614521Clb=-11.9m/s p=126.6hPa t=-54.5C h=4.2% 401.40MHz Type=RS41-SGP TxOff=8h15m batt=2.6V Details on http://radiosondy.info
KJ7NUX-14U22208582022-12-06 01:01:1944.4152-122.761304414592Clb=-12.0m/s p=125.2hPa t=-53.9C h=3.9% 401.40MHz Type=RS41-SGP Details on http://radiosondy.info
WA9ONY-10U22208582022-12-06 01:01:1444.4153-122.761314414617Clb=-12.3m/s p=124.7hPa t=-53.9C h=3.9% 401.40MHz Type=RS41-SGP Join https://groups.io/g/Balloons
W7BDB-12U22208582022-12-06 01:01:1144.4157-122.7611284314675Clb=-10.7m/s t=-53.9C h=1.4% p=123.6hPa 401.399 MHz Type=RS41-SGP ser=U2220858 Radiosonde
W7BDB-13U22208582022-12-06 01:01:0444.4158-122.7611304314697Clb=-11.7m/s p=123.1hPa t=-53.9C h=3.8% 401.40MHz Type=RS41-SGP Details on http://radiosondy.info
WA9ONY-14U22208582022-12-06 01:00:5944.416-122.7611294314736Clb=-13.2m/s p=122.5hPa t=-54.1C h=3.9% 401.40MHz Type=RS41-SGP Join https://groups.io/g/Balloons
KJ7NUX-14U22208582022-12-06 01:00:5544.4163-122.7621264314782Clb=-9.2m/s p=121.5hPa t=-54.3C h=3.9% 401.40MHz Type=RS41-SGP TxOff=8h15m batt=2.6V Details on http://radiosondy.info
K6GDP-11U22208582022-12-06 01:00:5444.4163-122.7621234114793Clb=-12.8m/s t=-54.4C h=1.4% p=121.4hPa 401.400 MHz Type=RS41-SGP ser=U2220858 Radiosonde
KG7GDB-12U22208582022-12-06 01:00:5244.4164-122.7621234114805Clb=-11.0m/s t=-54.5C h=1.4% p=121.2hPa 401.401 MHz Type=RS41-SGP ser=U2220858 Radiosonde
WA9ONY-14U22208582022-12-06 01:00:4544.4166-122.7621214314850Clb=-10.8m/s p=120.3hPa t=-54.7C h=4.0% 401.40MHz Type=RS41-SGP batt=2.6V Join https://groups.io/g/Balloons
W7BDB-13U22208582022-12-06 01:00:4244.4167-122.7631214314873Clb=-11.0m/s p=119.9hPa t=-54.7C h=4.0% 401.40MHz Type=RS41-SGP Details on http://radiosondy.info
KJ7NUX-14U22208582022-12-06 01:00:3344.4172-122.7641224414961Clb=-10.3m/s p=118.2hPa t=-55.0C h=4.1% 401.40MHz Type=RS41-SGP Details on http://radiosondy.info
WA9ONY-14U22208582022-12-06 01:00:3244.4172-122.7641224314961Clb=-10.3m/s p=118.2hPa t=-55.0C h=4.1% 401.40MHz Type=RS41-SGP Join https://groups.io/g/Balloons
W7BDB-13U22208582022-12-06 01:00:2144.4175-122.7651144615046Clb=-11.1m/s p=116.6hPa t=-55.5C h=4.2% 401.40MHz Type=RS41-SGP batt=2.6V Details on http://radiosondy.info
WA9ONY-14U22208582022-12-06 01:00:1744.4176-122.7651134615070Clb=-14.3m/s p=116.3hPa t=-55.5C h=4.1% 401.40MHz Type=RS41-SGP Join https://groups.io/g/Balloons
K6GDP-11U22208582022-12-06 01:00:1044.4179-122.7661104615150Clb=-11.1m/s t=-55.5C h=1.5% p=114.8hPa 401.400 MHz Type=RS41-SGP ser=U2220858 Radiosonde
KG7GDB-12U22208582022-12-06 01:00:0744.4179-122.7661084615162Clb=-13.1m/s t=-55.5C h=1.5% p=114.6hPa 401.401 MHz Type=RS41-SGP ser=U2220858 Radiosonde
KJ7NUX-14U22208582022-12-06 01:00:0644.418-122.7661095015174Clb=-12.3m/s p=114.4hPa t=-55.5C h=4.2% 401.40MHz Type=RS41-SGP Details on http://radiosondy.info
WA9ONY-10U22208582022-12-06 01:00:0244.418-122.7671105615199Clb=-12.7m/s p=113.9hPa t=-55.7C h=4.3% 401.40MHz Type=RS41-SGP TxOff=8h16m batt=2.6V Join https://groups.io/g/Balloons
W7BDB-13U22208582022-12-06 00:59:5744.4182-122.7671115415245Clb=-12.1m/s p=113.1hPa t=-56.1C h=4.4% 401.40MHz Type=RS41-SGP Details on http://radiosondy.info
KJ7NUX-14U22208582022-12-06 00:59:4544.4187-122.7691165615379Clb=-12.4m/s p=110.8hPa t=-56.6C h=4.6% 401.40MHz Type=RS41-SGP batt=2.5V Details on http://radiosondy.info
W7BDB-12U22208582022-12-06 00:59:4444.4189-122.7691195715415Clb=-10.0m/s t=-56.8C h=1.6% p=110.2hPa 401.399 MHz Type=RS41-SGP ser=U2220858 Radiosonde
WA9ONY-10U22208582022-12-06 00:59:3844.4191-122.771235415436Clb=-10.8m/s p=109.7hPa t=-56.7C h=4.5% 401.40MHz Type=RS41-SGP Join https://groups.io/g/Balloons
W7BDB-13U22208582022-12-06 00:59:3744.4192-122.771245015447Clb=-12.3m/s p=109.6hPa t=-56.7C h=4.5% 401.40MHz Type=RS41-SGP Details on http://radiosondy.info
WA9ONY-14U22208582022-12-06 00:59:2944.4196-122.7711244615518Clb=-10.6m/s p=108.3hPa t=-56.3C h=4.4% 401.40MHz Type=RS41-SGP Join https://groups.io/g/Balloons
KG7GDB-12U22208582022-12-06 00:59:2544.4198-122.7711204615549Clb=-8.7m/s t=-56.3C h=1.6% p=107.8hPa 401.401 MHz Type=RS41-SGP ser=U2220858 Radiosonde
WA9ONY-10U22208582022-12-06 00:59:2444.4198-122.7711214615549Clb=-8.7m/s p=107.7hPa t=-56.3C h=4.5% 401.40MHz Type=RS41-SGP Join https://groups.io/g/Balloons
KJ7NUX-14U22208582022-12-06 00:59:2244.4199-122.7711214415558Clb=-9.2m/s p=107.6hPa t=-56.3C h=4.4% 401.40MHz Type=RS41-SGP Details on http://radiosondy.info
W7BDB-13U22208582022-12-06 00:59:1644.4202-122.7721264315614Clb=-14.0m/s p=106.7hPa t=-56.5C h=4.4% 401.40MHz Type=RS41-SGP batt=2.6V Details on http://radiosondy.info
WA9ONY-14U22208582022-12-06 00:59:1444.4202-122.7721314415627Clb=-14.8m/s p=106.5hPa t=-56.6C h=4.4% 401.40MHz Type=RS41-SGP Join https://groups.io/g/Balloons
WA9ONY-10U22208582022-12-06 00:59:1044.4205-122.7731314315671Clb=-15.0m/s p=105.8hPa t=-56.9C h=4.5% 401.40MHz Type=RS41-SGP batt=2.5V Join https://groups.io/g/Balloons
WA9ONY-14U22208582022-12-06 00:59:0144.4209-122.7731274315762Clb=-11.4m/s p=104.3hPa t=-56.9C h=4.6% 401.40MHz Type=RS41-SGP batt=2.6V Join https://groups.io/g/Balloons
WA9ONY-10U22208582022-12-06 00:58:5744.4211-122.7741214315799Clb=-12.8m/s p=103.7hPa t=-56.9C h=4.6% 401.40MHz Type=RS41-SGP Join https://groups.io/g/Balloons
W7BDB-13U22208582022-12-06 00:58:5244.4212-122.7741184615835Clb=-12.2m/s p=103.1hPa t=-56.8C h=4.6% 401.40MHz Type=RS41-SGP Details on http://radiosondy.info
WA9ONY-14U22208582022-12-06 00:58:4744.4215-122.7751254615887Clb=-13.2m/s p=102.3hPa t=-56.9C h=4.6% 401.40MHz Type=RS41-SGP Join https://groups.io/g/Balloons
WA9ONY-10U22208582022-12-06 00:58:4244.4217-122.7751285015926Clb=-12.8m/s p=101.7hPa t=-56.9C h=4.6% 401.40MHz Type=RS41-SGP Join https://groups.io/g/Balloons
KJ7NUX-14U22208582022-12-06 00:58:3844.4219-122.7751265015964Clb=-12.9m/s p=101.0hPa t=-56.9C h=4.6% 401.40MHz Type=RS41-SGP batt=2.5V Details on http://radiosondy.info
WA9ONY-14U22208582022-12-06 00:58:3344.4222-122.7761265216020Clb=-12.7m/s p=100.2hPa t=-56.8C h=4.6% 401.40MHz Type=RS41-SGP Join https://groups.io/g/Balloons
W7BDB-13U22208582022-12-06 00:58:3244.4222-122.7761265216033Clb=-14.3m/s p=100.0hPa t=-56.8C h=4.6% 401.40MHz Type=RS41-SGP Details on http://radiosondy.info
WA9ONY-10U22208582022-12-06 00:58:2944.4224-122.7761255016060Clb=-13.0m/s p=99.5hPa t=-56.7C h=4.6% 401.40MHz Type=RS41-SGP batt=2.6V Join https://groups.io/g/Balloons
WA9ONY-14U22208582022-12-06 00:58:1944.423-122.7781295216159Clb=-11.6m/s p=98.1hPa t=-56.6C h=4.6% 401.40MHz Type=RS41-SGP batt=2.6V Join https://groups.io/g/Balloons
KJ7NUX-14U22208582022-12-06 00:58:1844.423-122.7781335016172Clb=-14.5m/s p=97.9hPa t=-56.6C h=4.5% 401.40MHz Type=RS41-SGP Details on http://radiosondy.info
WA9ONY-10U22208582022-12-06 00:58:1644.4231-122.7781355216187Clb=-15.2m/s p=97.7hPa t=-56.4C h=4.5% 401.40MHz Type=RS41-SGP Join https://groups.io/g/Balloons
W7BDB-13U22208582022-12-06 00:58:1044.4235-122.7781375016237Clb=-11.1m/s p=96.8hPa t=-55.8C h=4.3% 401.40MHz Type=RS41-SGP TxOff=8h17m batt=2.6V Details on http://radiosondy.info
WA9ONY-14U22208582022-12-06 00:58:0344.4239-122.7791335016284Clb=-11.9m/s p=96.1hPa t=-56.0C h=4.3% 401.40MHz Type=RS41-SGP Join https://groups.io/g/Balloons
K6GDP-11U22208582022-12-06 00:58:0244.424-122.7791314616309Clb=-16.0m/s t=-56.0C h=1.5% p=95.8hPa 401.400 MHz Type=RS41-SGP ser=U2220858 Radiosonde
WA9ONY-10U22208582022-12-06 00:58:0044.424-122.7791325016309Clb=-16.0m/s p=95.8hPa t=-56.0C h=4.3% 401.40MHz Type=RS41-SGP Join https://groups.io/g/Balloons
KG7GDB-12U22208582022-12-06 00:57:5944.4242-122.7791274616338Clb=-11.2m/s t=-56.0C h=1.5% p=95.4hPa 401.401 MHz Type=RS41-SGP ser=U2220858 Radiosonde
KJ7NUX-14U22208582022-12-06 00:57:5444.4244-122.781284416377Clb=-12.7m/s p=94.8hPa t=-56.0C h=4.3% 401.40MHz Type=RS41-SGP Details on http://radiosondy.info
W7BDB-13U22208582022-12-06 00:57:4844.4247-122.781224316425Clb=-11.9m/s p=94.0hPa t=-56.1C h=4.3% 401.40MHz Type=RS41-SGP Details on http://radiosondy.info
WA9ONY-10U22208582022-12-06 00:57:4644.4248-122.7811184316436Clb=-12.2m/s p=93.8hPa t=-56.2C h=4.3% 401.40MHz Type=RS41-SGP TxOff=8h17m batt=2.6V Join https://groups.io/g/Balloons
WA9ONY-14U22208582022-12-06 00:57:3444.4251-122.7821124416530Clb=-13.1m/s p=92.4hPa t=-56.1C h=4.3% 401.40MHz Type=RS41-SGP TxOff=8h18m batt=2.6V Join https://groups.io/g/Balloons
WA9ONY-10U22208582022-12-06 00:57:3144.4252-122.7821124416555Clb=-11.8m/s p=92.1hPa t=-56.1C h=4.3% 401.40MHz Type=RS41-SGP Join https://groups.io/g/Balloons
KJ7NUX-14U22208582022-12-06 00:57:3044.4252-122.7821134616567Clb=-12.6m/s p=91.9hPa t=-56.1C h=4.3% 401.40MHz Type=RS41-SGP TxOff=8h18m batt=2.6V Details on http://radiosondy.info
W7BDB-13U22208582022-12-06 00:57:2344.4254-122.7831064616618Clb=-14.4m/s p=91.2hPa t=-56.4C h=4.2% 401.40MHz Type=RS41-SGP Details on http://radiosondy.info
WA9ONY-14U22208582022-12-06 00:57:1844.4255-122.7831094616657Clb=-12.0m/s p=90.7hPa t=-56.6C h=4.4% 401.40MHz Type=RS41-SGP Join https://groups.io/g/Balloons
WA9ONY-10U22208582022-12-06 00:57:1544.4255-122.7831074816681Clb=-11.6m/s p=90.3hPa t=-56.5C h=4.3% 401.40MHz Type=RS41-SGP Join https://groups.io/g/Balloons
K6GDP-11U22208582022-12-06 00:57:1444.4255-122.7841084316692Clb=-11.8m/s t=-56.6C h=1.5% p=90.2hPa 401.400 MHz Type=RS41-SGP ser=U2220858 Radiosonde
KG7GDB-12U22208582022-12-06 00:57:1144.4256-122.7841124616719Clb=-13.5m/s t=-56.8C h=1.5% p=89.8hPa 401.401 MHz Type=RS41-SGP ser=U2220858 Radiosonde
KJ7NUX-14U22208582022-12-06 00:57:0544.4258-122.7841114616774Clb=-15.6m/s p=89.0hPa t=-57.2C h=4.3% 401.40MHz Type=RS41-SGP Details on http://radiosondy.info
WA9ONY-14U22208582022-12-06 00:57:0344.4259-122.7851114616789Clb=-12.5m/s p=88.8hPa t=-57.3C h=4.4% 401.40MHz Type=RS41-SGP Join https://groups.io/g/Balloons
WA9ONY-10U22208582022-12-06 00:57:0044.4259-122.7851064616819Clb=-16.3m/s p=88.4hPa t=-57.5C h=4.4% 401.40MHz Type=RS41-SGP batt=2.6V Join https://groups.io/g/Balloons
WA9ONY-14U22208582022-12-06 00:56:4944.4262-122.7861065216919Clb=-12.2m/s p=87.0hPa t=-58.3C h=4.7% 401.40MHz Type=RS41-SGP batt=2.6V Join https://groups.io/g/Balloons
W7BDB-12U22208582022-12-06 00:56:4744.4263-122.7871055216974Clb=-10.3m/s t=-58.9C h=1.7% p=86.3hPa 401.399 MHz Type=RS41-SGP ser=U2220858 Radiosonde
KJ7NUX-14U22208582022-12-06 00:56:4244.4264-122.7871035616987Clb=-15.6m/s p=86.1hPa t=-59.0C h=4.9% 401.40MHz Type=RS41-SGP Details on http://radiosondy.info
W7BDB-13U22208582022-12-06 00:56:3944.4264-122.7871065717015Clb=-11.3m/s p=85.6hPa t=-59.1C h=5.0% 401.40MHz Type=RS41-SGP Details on http://radiosondy.info
WA9ONY-14U22208582022-12-06 00:56:3444.4266-122.7881105617051Clb=-12.1m/s p=85.2hPa t=-59.4C h=5.0% 401.40MHz Type=RS41-SGP Join https://groups.io/g/Balloons
WA9ONY-10U22208582022-12-06 00:56:3044.4267-122.7881155717079Clb=-17.0m/s p=84.8hPa t=-59.5C h=4.9% 401.40MHz Type=RS41-SGP Join https://groups.io/g/Balloons
K6GDP-11U22208582022-12-06 00:56:2944.4268-122.7891195417111Clb=-16.3m/s t=-59.8C h=1.7% p=84.4hPa 401.400 MHz Type=RS41-SGP ser=U2220858 Radiosonde
KG7GDB-12U22208582022-12-06 00:56:2644.4269-122.7891215717143Clb=-16.0m/s t=-59.9C h=1.7% p=84.1hPa 401.401 MHz Type=RS41-SGP ser=U2220858 Radiosonde
WA9ONY-14U22208582022-12-06 00:56:2044.4272-122.791236117192Clb=-11.8m/s p=83.3hPa t=-59.9C h=5.2% 401.40MHz Type=RS41-SGP Join https://groups.io/g/Balloons
KJ7NUX-14U22208582022-12-06 00:56:1944.4273-122.791206117204Clb=-11.6m/s p=83.1hPa t=-59.7C h=5.0% 401.40MHz Type=RS41-SGP batt=2.6V Details on http://radiosondy.info
W7BDB-13U22208582022-12-06 00:56:1744.4274-122.791216117218Clb=-13.2m/s p=83.0hPa t=-59.6C h=5.0% 401.40MHz Type=RS41-SGP Details on http://radiosondy.info
WA9ONY-14U22208582022-12-06 00:56:0644.4281-122.7911265917329Clb=-12.2m/s p=81.5hPa t=-60.0C h=5.0% 401.40MHz Type=RS41-SGP batt=2.6V Join https://groups.io/g/Balloons
WA9ONY-10U22208582022-12-06 00:56:0344.4282-122.7921255917357Clb=-14.3m/s p=81.2hPa t=-60.3C h=5.2% 401.40MHz Type=RS41-SGP Join https://groups.io/g/Balloons
KJ7NUX-14U22208582022-12-06 00:55:5644.4287-122.7931335717425Clb=-14.7m/s p=80.3hPa t=-60.7C h=5.3% 401.40MHz Type=RS41-SGP Details on http://radiosondy.info
WA9ONY-14U22208582022-12-06 00:55:5044.429-122.7931355917466Clb=-13.0m/s p=79.7hPa t=-60.9C h=5.3% 401.40MHz Type=RS41-SGP Join https://groups.io/g/Balloons
WA9ONY-10U22208582022-12-06 00:55:4844.4292-122.7931385717492Clb=-12.3m/s p=79.4hPa t=-60.9C h=5.4% 401.40MHz Type=RS41-SGP Join https://groups.io/g/Balloons
K6GDP-11U22208582022-12-06 00:55:4344.4295-122.7941405917538Clb=-15.9m/s t=-60.9C h=1.7% p=78.9hPa 401.400 MHz Type=RS41-SGP ser=U2220858 Radiosonde
KG7GDB-12U22208582022-12-06 00:55:4044.4298-122.7941425717569Clb=-13.0m/s t=-61.1C h=1.8% p=78.5hPa 401.401 MHz Type=RS41-SGP ser=U2220858 Radiosonde
WA9ONY-14U22208582022-12-06 00:55:3544.4301-122.7941455017607Clb=-12.6m/s p=77.9hPa t=-61.0C h=5.4% 401.40MHz Type=RS41-SGP Join https://groups.io/g/Balloons
WA9ONY-10U22208582022-12-06 00:55:3344.4303-122.7941465217635Clb=-13.1m/s p=77.6hPa t=-61.1C h=5.5% 401.40MHz Type=RS41-SGP TxOff=8h19m batt=2.6V Join https://groups.io/g/Balloons
KJ7NUX-14U22208582022-12-06 00:55:3244.4304-122.7951465617650Clb=-16.9m/s p=77.4hPa t=-61.2C h=5.5% 401.40MHz Type=RS41-SGP Details on http://radiosondy.info
W7BDB-13U22208582022-12-06 00:55:3144.4304-122.7951465717650Clb=-16.9m/s p=77.4hPa t=-61.2C h=5.5% 401.40MHz Type=RS41-SGP Details on http://radiosondy.info
WA9ONY-14U22208582022-12-06 00:55:2144.4311-122.7951456317746Clb=-12.5m/s p=76.2hPa t=-61.3C h=5.9% 401.40MHz Type=RS41-SGP TxOff=8h19m batt=2.6V Join https://groups.io/g/Balloons
WA9ONY-10U22208582022-12-06 00:55:1844.4314-122.7961466317771Clb=-15.3m/s p=76.0hPa t=-61.2C h=5.9% 401.40MHz Type=RS41-SGP Join https://groups.io/g/Balloons
W7BDB-12U22208582022-12-06 00:55:1644.4319-122.7961446317821Clb=-13.7m/s t=-61.5C h=1.9% p=75.4hPa 401.399 MHz Type=RS41-SGP ser=U2220858 Radiosonde
KJ7NUX-14U22208582022-12-06 00:55:1044.4323-122.7961466517862Clb=-14.4m/s p=74.8hPa t=-61.1C h=6.1% 401.40MHz Type=RS41-SGP batt=2.6V Details on http://radiosondy.info
W7BDB-13U22208582022-12-06 00:55:0744.4324-122.7971446517874Clb=-12.0m/s p=74.7hPa t=-61.1C h=6.0% 401.40MHz Type=RS41-SGP Details on http://radiosondy.info
WA9ONY-14U22208582022-12-06 00:55:0644.4324-122.7971446317874Clb=-12.0m/s p=74.7hPa t=-61.1C h=6.0% 401.40MHz Type=RS41-SGP Join https://groups.io/g/Balloons
WA9ONY-10U22208582022-12-06 00:55:0244.4327-122.7971456517900Clb=-14.1m/s p=74.4hPa t=-61.0C h=6.1% 401.40MHz Type=RS41-SGP Join https://groups.io/g/Balloons
K6GDP-11U22208582022-12-06 00:54:5744.4332-122.7971446117949Clb=-13.7m/s t=-59.1C h=1.6% p=73.8hPa 401.400 MHz Type=RS41-SGP ser=U2220858 Radiosonde
KG7GDB-12U22208582022-12-06 00:54:5444.4334-122.7981476117978Clb=-15.7m/s t=-58.5C h=1.6% p=73.6hPa 401.401 MHz Type=RS41-SGP ser=U2220858 Radiosonde
WA9ONY-14U22208582022-12-06 00:54:5044.4337-122.7981506518007Clb=-12.4m/s p=73.1hPa t=-58.0C h=4.6% 401.40MHz Type=RS41-SGP Join https://groups.io/g/Balloons
WA9ONY-10U22208582022-12-06 00:54:4744.434-122.7981496318033Clb=-11.1m/s p=72.9hPa t=-58.1C h=4.5% 401.40MHz Type=RS41-SGP batt=2.6V Join https://groups.io/g/Balloons
W7BDB-13U22208582022-12-06 00:54:4344.4344-122.7981415918077Clb=-16.1m/s p=72.4hPa t=-58.3C h=4.5% 401.40MHz Type=RS41-SGP TxOff=8h19m batt=2.6V Details on http://radiosondy.info
WA9ONY-14U22208582022-12-06 00:54:3644.435-122.7991365918153Clb=-13.9m/s p=71.5hPa t=-58.2C h=4.4% 401.40MHz Type=RS41-SGP batt=2.6V Join https://groups.io/g/Balloons
WA9ONY-10U22208582022-12-06 00:54:3444.4352-122.7991345918183Clb=-14.5m/s p=71.2hPa t=-58.4C h=4.4% 401.40MHz Type=RS41-SGP Join https://groups.io/g/Balloons
KJ7NUX-14U22208582022-12-06 00:54:2144.436-122.8011306918302Clb=-15.7m/s p=69.9hPa t=-59.2C h=4.7% 401.40MHz Type=RS41-SGP Details on http://radiosondy.info
W7BDB-13U22208582022-12-06 00:54:2044.436-122.8011306918303Clb=-15.7m/s p=69.9hPa t=-59.2C h=4.7% 401.40MHz Type=RS41-SGP Details on http://radiosondy.info
WA9ONY-14U22208582022-12-06 00:54:1844.4361-122.8011306918317Clb=-12.7m/s p=69.7hPa t=-59.3C h=4.7% 401.40MHz Type=RS41-SGP Join https://groups.io/g/Balloons
KG7GDB-12U22208582022-12-06 00:54:0844.4369-122.8021367018410Clb=-14.6m/s t=-60.0C h=1.5% p=68.8hPa 401.401 MHz Type=RS41-SGP ser=U2220858 Radiosonde
WA9ONY-10U22208582022-12-06 00:54:0244.4373-122.8031395618458Clb=-12.9m/s p=68.1hPa t=-60.1C h=5.1% 401.40MHz Type=RS41-SGP batt=2.6V Join https://groups.io/g/Balloons
W7BDB-13U22208582022-12-06 00:53:5544.4379-122.8031365618525Clb=-12.5m/s p=67.4hPa t=-60.5C h=5.4% 401.40MHz Type=RS41-SGP Details on http://radiosondy.info
W7BDB-12U22208582022-12-06 00:53:4144.4391-122.8051384118695Clb=-18.2m/s t=-60.1C h=1.6% p=65.7hPa 401.399 MHz Type=RS41-SGP ser=U2220858 Radiosonde
WA9ONY-14U22208582022-12-06 00:53:3744.4391-122.8051394118695Clb=-18.2m/s p=65.7hPa t=-60.0C h=5.1% 401.40MHz Type=RS41-SGP batt=2.6V Join https://groups.io/g/Balloons
W7BDB-13U22208582022-12-06 00:53:2944.4395-122.8051423318786Clb=-18.7m/s p=64.7hPa t=-59.8C h=4.9% 401.40MHz Type=RS41-SGP batt=2.6V Details on http://radiosondy.info
K6GDP-11U22208582022-12-06 00:53:2344.4399-122.8061353118870Clb=-14.7m/s t=-60.2C h=1.5% p=63.8hPa 401.400 MHz Type=RS41-SGP ser=U2220858 Radiosonde
WA9ONY-14U22208582022-12-06 00:53:2244.4399-122.8061363118870Clb=-14.7m/s p=63.8hPa t=-60.1C h=5.0% 401.40MHz Type=RS41-SGP Join https://groups.io/g/Balloons
KG7GDB-12U22208582022-12-06 00:53:2044.44-122.8061323118899Clb=-13.9m/s t=-60.4C h=1.5% p=63.5hPa 401.401 MHz Type=RS41-SGP ser=U2220858 Radiosonde
KE7WWCU22208582022-12-06 00:53:1944.4402-122.8061123018970Clb=-14.4m/s t=-60.4C h=1.5% p=62.8hPa 401.374 MHz Type=RS41-SGP ser=U2220858 Radiosonde
WA9ONY-14U22208582022-12-06 00:53:0744.4403-122.8071144319012Clb=-13.8m/s p=62.4hPa t=-60.4C h=5.1% 401.40MHz Type=RS41-SGP Join https://groups.io/g/Balloons
KJ7NUX-14U22208582022-12-06 00:53:0644.4403-122.8071144319025Clb=-12.4m/s p=62.2hPa t=-60.3C h=5.0% 401.40MHz Type=RS41-SGP Details on http://radiosondy.info
W7BDB-13U22208582022-12-06 00:53:0444.4404-122.8071144419037Clb=-12.3m/s p=62.1hPa t=-60.3C h=5.0% 401.40MHz Type=RS41-SGP Details on http://radiosondy.info
WA9ONY-14U22208582022-12-06 00:52:5144.4407-122.8081084619141Clb=-13.0m/s p=61.1hPa t=-59.8C h=4.8% 401.40MHz Type=RS41-SGP TxOff=8h21m batt=2.6V Join https://groups.io/g/Balloons
KJ7NUX-14U22208582022-12-06 00:52:3944.4409-122.8091105419243Clb=-15.5m/s p=60.1hPa t=-60.4C h=4.9% 401.40MHz Type=RS41-SGP batt=2.6V Details on http://radiosondy.info
W7BDB-13U22208582022-12-06 00:52:3844.4409-122.8091105419243Clb=-15.5m/s p=60.1hPa t=-60.4C h=4.9% 401.40MHz Type=RS41-SGP Details on http://radiosondy.info
WA9ONY-10U22208582022-12-06 00:52:3444.4411-122.811165619289Clb=-15.4m/s p=59.7hPa t=-60.7C h=5.1% 401.40MHz Type=RS41-SGP Join https://groups.io/g/Balloons
K6GDP-11U22208582022-12-06 00:52:3344.4411-122.811155419304Clb=-16.3m/s t=-60.8C h=1.5% p=59.6hPa 401.400 MHz Type=RS41-SGP ser=U2220858 Radiosonde
KG7GDB-12U22208582022-12-06 00:52:3044.4413-122.811155919356Clb=-15.8m/s t=-61.1C h=1.6% p=59.1hPa 401.401 MHz Type=RS41-SGP ser=U2220858 Radiosonde
WA9ONY-14U22208582022-12-06 00:52:1644.4417-122.8111175619440Clb=-12.5m/s p=58.2hPa t=-61.1C h=5.5% 401.40MHz Type=RS41-SGP Join https://groups.io/g/Balloons
W7BDB-13U22208582022-12-06 00:52:1344.4418-122.8121235919470Clb=-15.3m/s p=58.0hPa t=-60.6C h=5.2% 401.40MHz Type=RS41-SGP batt=2.6V Details on http://radiosondy.info
KJ7NUX-14U22208582022-12-06 00:52:1244.4419-122.8121256119485Clb=-15.3m/s p=57.8hPa t=-60.3C h=5.0% 401.40MHz Type=RS41-SGP Details on http://radiosondy.info
WA9ONY-10U22208582022-12-06 00:52:0144.4425-122.8131386519597Clb=-15.2m/s p=56.8hPa t=-60.5C h=5.3% 401.40MHz Type=RS41-SGP Join https://groups.io/g/Balloons
W7BDB-13U22208582022-12-06 00:51:5344.4436-122.8141505419722Clb=-15.2m/s p=55.7hPa t=-59.7C h=4.9% 401.40MHz Type=RS41-SGP Details on http://radiosondy.info
KJ7NUX-14U22208582022-12-06 00:51:5244.4437-122.8141515419739Clb=-18.4m/s p=55.6hPa t=-59.7C h=4.9% 401.40MHz Type=RS41-SGP Details on http://radiosondy.info
WA9ONY-14U22208582022-12-06 00:51:5144.4438-122.8141495219757Clb=-15.4m/s p=55.4hPa t=-59.7C h=4.9% 401.40MHz Type=RS41-SGP Join https://groups.io/g/Balloons
K6GDP-11U22208582022-12-06 00:51:4944.4441-122.8141515419785Clb=-18.6m/s t=-59.6C h=1.3% p=55.2hPa 401.400 MHz Type=RS41-SGP ser=U2220858 Radiosonde
KE7WWCU22208582022-12-06 00:51:4744.4443-122.8151525019819Clb=-15.5m/s t=-59.6C h=1.4% p=54.9hPa 401.374 MHz Type=RS41-SGP ser=U2220858 Radiosonde
WA9ONY-14U22208582022-12-06 00:51:4144.4449-122.8151394819915Clb=-16.6m/s p=54.0hPa t=-59.2C h=4.7% 401.40MHz Type=RS41-SGP Join https://groups.io/g/Balloons
W7BDB-13U22208582022-12-06 00:51:4044.4452-122.8161364419959Clb=-12.7m/s p=53.6hPa t=-59.4C h=4.8% 401.40MHz Type=RS41-SGP Details on http://radiosondy.info
KJ7NUX-14U22208582022-12-06 00:51:3944.4454-122.8161324319985Clb=-15.8m/s p=53.4hPa t=-59.5C h=4.8% 401.40MHz Type=RS41-SGP batt=2.6V Details on http://radiosondy.info
WA9ONY-10U22208582022-12-06 00:51:3344.4457-122.8161254120062Clb=-12.8m/s p=52.7hPa t=-59.4C h=4.8% 401.40MHz Type=RS41-SGP Join https://groups.io/g/Balloons
W7BDB-13U22208582022-12-06 00:51:2244.4463-122.8171243920202Clb=-15.4m/s p=51.6hPa t=-59.3C h=4.6% 401.40MHz Type=RS41-SGP TxOff=8h22m batt=2.6V Details on http://radiosondy.info
WA9ONY-10U22208582022-12-06 00:51:2144.4463-122.8181243720218Clb=-15.9m/s p=51.5hPa t=-59.5C h=4.7% 401.40MHz Type=RS41-SGP Join https://groups.io/g/Balloons
KJ7NUX-14U22208582022-12-06 00:51:2044.4464-122.8181243920233Clb=-15.0m/s p=51.3hPa t=-59.6C h=4.8% 401.40MHz Type=RS41-SGP Details on http://radiosondy.info
K6GDP-11U22208582022-12-06 00:51:1844.4465-122.8181233920265Clb=-16.3m/s t=-59.9C h=1.3% p=51.1hPa 401.400 MHz Type=RS41-SGP ser=U2220858 Radiosonde
KE7WWCU22208582022-12-06 00:51:1644.4466-122.8181273520299Clb=-18.2m/s t=-60.1C h=1.4% p=50.9hPa 401.375 MHz Type=RS41-SGP ser=U2220858 Radiosonde
WA9ONY-14U22208582022-12-06 00:51:1244.4469-122.8191344420369Clb=-11.8m/s p=50.2hPa t=-59.4C h=5.0% 401.40MHz Type=RS41-SGP Join https://groups.io/g/Balloons
W7BDB-13U22208582022-12-06 00:51:0644.4473-122.8191465420443Clb=-15.2m/s p=49.7hPa t=-59.4C h=5.2% 401.40MHz Type=RS41-SGP Details on http://radiosondy.info
KJ7NUX-14U22208582022-12-06 00:51:0444.4475-122.8191475420467Clb=-12.0m/s p=49.4hPa t=-59.4C h=5.2% 401.40MHz Type=RS41-SGP Details on http://radiosondy.info
WA9ONY-14U22208582022-12-06 00:51:0144.4478-122.821465620509Clb=-15.1m/s p=49.1hPa t=-59.5C h=5.4% 401.40MHz Type=RS41-SGP TxOff=8h22m batt=2.6V Join https://groups.io/g/Balloons
W7BDB-12U22208582022-12-06 00:50:5944.4484-122.821485220585Clb=-17.6m/s t=-58.2C h=1.2% p=48.6hPa 401.399 MHz Type=RS41-SGP ser=U2220858 Radiosonde
WA9ONY-14U22208582022-12-06 00:50:5144.449-122.8211495420664Clb=-14.3m/s p=48.0hPa t=-56.7C h=4.2% 401.40MHz Type=RS41-SGP Join https://groups.io/g/Balloons
W7BDB-13U22208582022-12-06 00:50:5044.4491-122.8211475620680Clb=-16.0m/s p=47.9hPa t=-56.5C h=4.1% 401.40MHz Type=RS41-SGP Details on http://radiosondy.info
KJ7NUX-14U22208582022-12-06 00:50:4844.4493-122.8211455620711Clb=-16.2m/s p=47.6hPa t=-56.3C h=4.1% 401.40MHz Type=RS41-SGP TxOff=8h22m batt=2.7V Details on http://radiosondy.info
K6GDP-11U22208582022-12-06 00:50:4744.4494-122.8211465220726Clb=-13.9m/s t=-56.3C h=1.0% p=47.5hPa 401.400 MHz Type=RS41-SGP ser=U2220858 Radiosonde
KG7GDB-12U22208582022-12-06 00:50:4544.4496-122.8211485220758Clb=-19.2m/s t=-56.0C h=1.0% p=47.4hPa 401.401 MHz Type=RS41-SGP ser=U2220858 Radiosonde
WA9ONY-14U22208582022-12-06 00:50:4144.4501-122.8221625620819Clb=-17.5m/s p=46.8hPa t=-56.5C h=3.9% 401.40MHz Type=RS41-SGP Join https://groups.io/g/Balloons
W7BDB-13U22208582022-12-06 00:50:3744.451-122.8221655220911Clb=-13.7m/s p=46.1hPa t=-57.1C h=4.1% 401.40MHz Type=RS41-SGP batt=2.6V Details on http://radiosondy.info
KJ7NUX-14U22208582022-12-06 00:50:3544.4513-122.8221605020955Clb=-13.8m/s p=45.8hPa t=-57.2C h=4.1% 401.40MHz Type=RS41-SGP Details on http://radiosondy.info
WA9ONY-14U22208582022-12-06 00:50:3344.4515-122.8221645020968Clb=-13.1m/s p=45.7hPa t=-57.1C h=4.0% 401.40MHz Type=RS41-SGP batt=2.7V Join https://groups.io/g/Balloons
WA9ONY-14U22208582022-12-06 00:50:2144.4526-122.8231565421110Clb=-18.2m/s p=44.7hPa t=-57.8C h=4.3% 401.40MHz Type=RS41-SGP Join https://groups.io/g/Balloons
KJ7NUX-14U22208582022-12-06 00:50:1744.4532-122.8231615421191Clb=-15.4m/s p=44.1hPa t=-58.5C h=4.7% 401.40MHz Type=RS41-SGP Details on http://radiosondy.info
KG7GDB-12U22208582022-12-06 00:50:1544.4534-122.8231585621218Clb=-14.8m/s t=-58.4C h=1.2% p=44.0hPa 401.401 MHz Type=RS41-SGP ser=U2220858 Radiosonde
WA9ONY-14U22208582022-12-06 00:50:1144.4538-122.8241605221270Clb=-18.0m/s p=43.6hPa t=-58.2C h=4.6% 401.40MHz Type=RS41-SGP Join https://groups.io/g/Balloons
W7BDB-13U22208582022-12-06 00:50:0544.4546-122.8241655021363Clb=-14.5m/s p=43.0hPa t=-57.8C h=4.5% 401.40MHz Type=RS41-SGP Details on http://radiosondy.info
WA9ONY-14U22208582022-12-06 00:50:0144.4551-122.8241565021422Clb=-13.6m/s p=42.5hPa t=-57.6C h=4.5% 401.40MHz Type=RS41-SGP batt=2.6V Join https://groups.io/g/Balloons
KJ7NUX-14U22208582022-12-06 00:50:0044.4552-122.8241544821435Clb=-13.0m/s p=42.4hPa t=-57.7C h=4.5% 401.40MHz Type=RS41-SGP batt=2.7V Details on http://radiosondy.info
W7BDB-12U22208582022-12-06 00:49:5744.456-122.8251554821536Clb=-13.4m/s t=-56.8C h=1.1% p=41.9hPa 401.399 MHz Type=RS41-SGP ser=U2220858 Radiosonde
WA9ONY-10U22208582022-12-06 00:49:5144.4562-122.8251554621565Clb=-16.7m/s p=41.6hPa t=-56.4C h=4.2% 401.40MHz Type=RS41-SGP Join https://groups.io/g/Balloons
W7BDB-13U22208582022-12-06 00:49:5044.4563-122.8251495021582Clb=-17.0m/s p=41.5hPa t=-56.5C h=4.2% 401.40MHz Type=RS41-SGP batt=2.6V Details on http://radiosondy.info
K6GDP-11U22208582022-12-06 00:49:4544.4567-122.8251374821669Clb=-14.9m/s t=-57.3C h=1.2% p=41.0hPa 401.400 MHz Type=RS41-SGP ser=U2220858 Radiosonde
KG7GDB-12U22208582022-12-06 00:49:4344.4569-122.8261364821698Clb=-15.9m/s t=-57.4C h=1.2% p=40.8hPa 401.401 MHz Type=RS41-SGP ser=U2220858 Radiosonde
KJ7NUX-14U22208582022-12-06 00:49:4244.457-122.8261425021714Clb=-16.1m/s p=40.7hPa t=-57.4C h=4.9% 401.40MHz Type=RS41-SGP Details on http://radiosondy.info
WA9ONY-14U22208582022-12-06 00:49:4144.4571-122.8261455221730Clb=-16.1m/s p=40.6hPa t=-57.2C h=4.8% 401.40MHz Type=RS41-SGP Join https://groups.io/g/Balloons
W7BDB-13U22208582022-12-06 00:49:4044.4737-122.8331455225265Clb=-19.3m/s p=23.3hPa t=-59.1C h=4.5% 401.40MHz Type=RS41-SGP batt=2.6V Details on http://radiosondy.info
KJ7NUX-14U22208582022-12-06 00:49:3844.474-122.8331534825316Clb=-15.9m/s p=23.1hPa t=-59.3C h=4.5% 401.40MHz Type=RS41-SGP Details on http://radiosondy.info
WA9ONY-14U22208582022-12-06 00:49:3744.4745-122.8341564625398Clb=-20.4m/s p=22.9hPa t=-59.9C h=5.0% 401.40MHz Type=RS41-SGP Join https://groups.io/g/Balloons
W7BDB-13U22208582022-12-06 00:49:3644.4754-122.8341444625531Clb=-19.3m/s p=22.3hPa t=-59.8C h=4.9% 401.40MHz Type=RS41-SGP Details on http://radiosondy.info
W7BDB-13U22208582022-12-06 00:49:3544.4767-122.8361434825785Clb=-14.2m/s p=21.5hPa t=-58.2C h=4.3% 401.40MHz Type=RS41-SGP Details on http://radiosondy.info
W7BDB-13U22208582022-12-06 00:49:3444.4783-122.8371614426089Clb=-16.7m/s p=20.5hPa t=-59.0C h=4.2% 401.40MHz Type=RS41-SGP batt=2.6V Details on http://radiosondy.info
KJ7NUX-14U22208582022-12-06 00:49:3344.4789-122.8371684426171Clb=-16.8m/s p=20.2hPa t=-59.7C h=4.5% 401.40MHz Type=RS41-SGP Details on http://radiosondy.info
W7BDB-12U22208582022-12-06 00:49:3244.4815-122.8391644626646Clb=-18.7m/s t=-61.7C h=1.3% p=18.8hPa 401.399 MHz Type=RS41-SGP ser=U2220858 Radiosonde
WA9ONY-14U22208582022-12-06 00:49:3144.4837-122.8411407227095Clb=-23.9m/s p=17.5hPa t=-61.6C h=5.1% 401.40MHz Type=RS41-SGP Join https://groups.io/g/Balloons
W7BDB-13U22208582022-12-06 00:49:3044.4856-122.8431417427391Clb=-22.2m/s p=16.7hPa t=-61.3C h=4.9% 401.40MHz Type=RS41-SGP Details on http://radiosondy.info
W7BDB-13U22208582022-12-06 00:49:2944.4877-122.8461406727751Clb=-29.7m/s p=15.7hPa t=-61.8C h=5.2% 401.40MHz Type=RS41-SGP Details on http://radiosondy.info
W7BDB-13U22208582022-12-06 00:49:2844.4897-122.8481537828130Clb=-16.8m/s p=14.8hPa t=-62.2C h=6.3% 401.40MHz Type=RS41-SGP batt=2.6V Details on http://radiosondy.info
W7BDB-13U22208582022-12-06 00:49:2344.4925-122.851587428487Clb=-19.0m/s p=13.9hPa t=-58.9C h=4.6% 401.40MHz Type=RS41-SGP Details on http://radiosondy.info
WA9ONY-14U22208582022-12-06 00:49:2244.4927-122.851557828505Clb=-17.0m/s p=13.9hPa t=-58.8C h=4.5% 401.40MHz Type=RS41-SGP Join https://groups.io/g/Balloons
WA9ONY-10U22208582022-12-06 00:49:2144.4929-122.851517628524Clb=-21.0m/s p=13.9hPa t=-58.7C h=4.4% 401.40MHz Type=RS41-SGP Join https://groups.io/g/Balloons
KJ7NUX-14U22208582022-12-06 00:49:1644.4937-122.851547228603Clb=-10.6m/s p=13.7hPa t=-58.8C h=4.6% 401.40MHz Type=RS41-SGP TxPastBurst=8h30m batt=2.7V Details on http://radiosondy.info
WA9ONY-14U22208582022-12-06 00:49:1144.4944-122.8511627228618Clb=5.8m/s p=13.6hPa t=-58.9C h=4.5% 401.40MHz Type=RS41-SGP Join https://groups.io/g/Balloons
WA9ONY-10U22208582022-12-06 00:49:0944.4945-122.8511617228612Clb=6.6m/s p=13.7hPa t=-58.8C h=4.4% 401.40MHz Type=RS41-SGP batt=2.7V Join https://groups.io/g/Balloons
W7BDB-13U22208582022-12-06 00:49:0444.495-122.8511587828593Clb=4.4m/s p=13.7hPa t=-58.7C h=4.5% 401.40MHz Type=RS41-SGP Details on http://radiosondy.info
WA9ONY-14U22208582022-12-06 00:48:5444.496-122.8521527828554Clb=6.1m/s p=13.8hPa t=-58.7C h=4.4% 401.40MHz Type=RS41-SGP batt=2.6V Join https://groups.io/g/Balloons
WA9ONY-10U22208582022-12-06 00:48:5244.4962-122.8521527828547Clb=5.8m/s p=13.8hPa t=-58.7C h=4.4% 401.40MHz Type=RS41-SGP Join https://groups.io/g/Balloons
KJ7NUX-14U22208582022-12-06 00:48:5044.4964-122.8521548128541Clb=7.6m/s p=13.8hPa t=-58.8C h=4.3% 401.40MHz Type=RS41-SGP Details on http://radiosondy.info
KG7GDB-12U22208582022-12-06 00:48:4944.4964-122.8521538528540Clb=7.7m/s t=-58.9C h=1.0% p=13.9hPa 401.401 MHz Type=RS41-SGP ser=U2220858 Radiosonde
W7BDB-13U22208582022-12-06 00:48:3944.4976-122.8531528028494Clb=7.2m/s p=13.9hPa t=-59.1C h=4.4% 401.40MHz Type=RS41-SGP batt=2.6V Details on http://radiosondy.info
WA9ONY-14U22208582022-12-06 00:48:3744.4978-122.8531558528487Clb=7.2m/s p=13.9hPa t=-59.1C h=4.3% 401.40MHz Type=RS41-SGP Join https://groups.io/g/Balloons
WA9ONY-10U22208582022-12-06 00:48:3644.4979-122.8531558528481Clb=5.6m/s p=13.9hPa t=-59.1C h=4.4% 401.40MHz Type=RS41-SGP Join https://groups.io/g/Balloons
KJ7NUX-14U22208582022-12-06 00:48:2444.4993-122.8541567828435Clb=5.9m/s p=14.1hPa t=-59.8C h=4.6% 401.40MHz Type=RS41-SGP Details on http://radiosondy.info
WA9ONY-14U22208582022-12-06 00:48:2044.4996-122.8541537428422Clb=7.2m/s p=14.1hPa t=-59.8C h=4.4% 401.40MHz Type=RS41-SGP Join https://groups.io/g/Balloons
WA9ONY-10U22208582022-12-06 00:48:1944.4998-122.8541527428416Clb=5.8m/s p=14.1hPa t=-59.8C h=4.5% 401.40MHz Type=RS41-SGP batt=2.6V Join https://groups.io/g/Balloons
W7BDB-13U22208582022-12-06 00:48:1144.5004-122.8551568028390Clb=5.3m/s p=14.2hPa t=-59.9C h=4.3% 401.40MHz Type=RS41-SGP Details on http://radiosondy.info
WA9ONY-14U22208582022-12-06 00:48:0244.5012-122.8561488028356Clb=7.6m/s p=14.2hPa t=-60.8C h=4.9% 401.40MHz Type=RS41-SGP batt=2.6V Join https://groups.io/g/Balloons
WA9ONY-10U22208582022-12-06 00:48:0144.5014-122.8561507828350Clb=5.8m/s p=14.3hPa t=-61.0C h=5.1% 401.40MHz Type=RS41-SGP Join https://groups.io/g/Balloons
KG7GDB-12U22208582022-12-06 00:47:5644.5018-122.8561478528338Clb=7.5m/s t=-61.0C h=1.2% p=14.3hPa 401.401 MHz Type=RS41-SGP ser=U2220858 Radiosonde
KJ7NUX-14U22208582022-12-06 00:47:5144.5023-122.8571507828320Clb=6.8m/s p=14.3hPa t=-60.8C h=5.0% 401.40MHz Type=RS41-SGP batt=2.6V Details on http://radiosondy.info
WA9ONY-14U22208582022-12-06 00:47:4444.5029-122.8571558028292Clb=7.4m/s p=14.4hPa t=-61.0C h=4.8% 401.40MHz Type=RS41-SGP Join https://groups.io/g/Balloons
WA9ONY-10U22208582022-12-06 00:47:4344.5031-122.8571558128286Clb=5.9m/s p=14.4hPa t=-61.0C h=4.8% 401.40MHz Type=RS41-SGP Join https://groups.io/g/Balloons
WA9ONY-14U22208582022-12-06 00:47:2544.5047-122.8581486928227Clb=7.3m/s p=14.5hPa t=-61.0C h=4.7% 401.40MHz Type=RS41-SGP Join https://groups.io/g/Balloons
WA9ONY-10U22208582022-12-06 00:47:2344.5049-122.8581506928221Clb=6.3m/s p=14.6hPa t=-61.1C h=4.8% 401.40MHz Type=RS41-SGP TxPastBurst=8h30m batt=2.6V Join https://groups.io/g/Balloons
KJ7NUX-14U22208582022-12-06 00:47:1844.5053-122.8591486928202Clb=7.1m/s p=14.6hPa t=-61.6C h=4.9% 401.40MHz Type=RS41-SGP Details on http://radiosondy.info
W7BDB-13U22208582022-12-06 00:47:1444.5056-122.8591506928191Clb=5.0m/s p=14.6hPa t=-62.1C h=5.1% 401.40MHz Type=RS41-SGP TxPastBurst=8h30m batt=2.7V Details on http://radiosondy.info
WA9ONY-14U22208582022-12-06 00:47:0744.5062-122.8591566928164Clb=5.9m/s p=14.7hPa t=-62.4C h=5.4% 401.40MHz Type=RS41-SGP TxPastBurst=8h30m batt=2.7V Join https://groups.io/g/Balloons
WA9ONY-10U22208582022-12-06 00:47:0544.5064-122.8591526928158Clb=7.2m/s p=14.7hPa t=-62.4C h=5.5% 401.40MHz Type=RS41-SGP Join https://groups.io/g/Balloons
K6GDP-11U22208582022-12-06 00:47:0344.5065-122.861467028151Clb=5.9m/s t=-62.4C h=1.3% p=14.8hPa 401.400 MHz Type=RS41-SGP ser=U2220858 Radiosonde
KG7GDB-12U22208582022-12-06 00:46:5944.5068-122.861416328140Clb=7.2m/s t=-62.4C h=1.3% p=14.8hPa 401.401 MHz Type=RS41-SGP ser=U2220858 Radiosonde
KJ7NUX-14U22208582022-12-06 00:46:4944.5075-122.8611376328103Clb=5.0m/s p=14.8hPa t=-62.2C h=5.3% 401.40MHz Type=RS41-SGP Details on http://radiosondy.info
WA9ONY-14U22208582022-12-06 00:46:4844.5075-122.8611376528103Clb=5.0m/s p=14.8hPa t=-62.2C h=5.3% 401.40MHz Type=RS41-SGP Join https://groups.io/g/Balloons
WA9ONY-10U22208582022-12-06 00:46:4744.5077-122.8611406528096Clb=7.4m/s p=14.8hPa t=-62.3C h=5.2% 401.40MHz Type=RS41-SGP Join https://groups.io/g/Balloons
W7BDB-13U22208582022-12-06 00:46:4544.5078-122.8611436328090Clb=6.9m/s p=14.8hPa t=-62.4C h=5.4% 401.40MHz Type=RS41-SGP Details on http://radiosondy.info
WA9ONY-14U22208582022-12-06 00:46:3144.5089-122.8621506528039Clb=6.1m/s p=15.0hPa t=-62.1C h=5.4% 401.40MHz Type=RS41-SGP Join https://groups.io/g/Balloons
WA9ONY-10U22208582022-12-06 00:46:2944.509-122.8621496728033Clb=4.8m/s p=15.0hPa t=-62.1C h=5.4% 401.40MHz Type=RS41-SGP batt=2.7V Join https://groups.io/g/Balloons
W7BDB-12U22208582022-12-06 00:46:2844.5093-122.8631366328015Clb=6.3m/s t=-62.0C h=1.3% p=15.1hPa 401.399 MHz Type=RS41-SGP ser=U2220858 Radiosonde
KE7WWCU22208582022-12-06 00:46:2544.5094-122.8631387028010Clb=5.1m/s t=-62.0C h=1.2% p=15.1hPa 401.375 MHz Type=RS41-SGP ser=U2220858 Radiosonde
KJ7NUX-14U22208582022-12-06 00:46:2144.5096-122.8631426528004Clb=5.7m/s p=15.0hPa t=-62.0C h=5.2% 401.40MHz Type=RS41-SGP batt=2.6V Details on http://radiosondy.info
W7BDB-13U22208582022-12-06 00:46:1744.5099-122.8631516527991Clb=6.3m/s p=15.1hPa t=-62.0C h=5.2% 401.40MHz Type=RS41-SGP Details on http://radiosondy.info
WA9ONY-14U22208582022-12-06 00:46:1344.5102-122.8631546127980Clb=5.2m/s p=15.1hPa t=-62.0C h=5.1% 401.40MHz Type=RS41-SGP batt=2.6V Join https://groups.io/g/Balloons
WA9ONY-10U22208582022-12-06 00:46:1244.5103-122.8641516127973Clb=6.7m/s p=15.1hPa t=-62.0C h=5.2% 401.40MHz Type=RS41-SGP Join https://groups.io/g/Balloons
K6GDP-11U22208582022-12-06 00:46:0744.5106-122.8641385727961Clb=6.3m/s t=-62.1C h=1.4% p=15.2hPa 401.400 MHz Type=RS41-SGP ser=U2220858 Radiosonde
KG7GDB-12U22208582022-12-06 00:46:0344.5109-122.8641386327942Clb=6.5m/s t=-62.1C h=1.3% p=15.3hPa 401.401 MHz Type=RS41-SGP ser=U2220858 Radiosonde
WA9ONY-14U22208582022-12-06 00:45:5444.5114-122.8651417227916Clb=5.5m/s p=15.3hPa t=-62.0C h=5.2% 401.40MHz Type=RS41-SGP Join https://groups.io/g/Balloons
WA9ONY-10U22208582022-12-06 00:45:5244.5115-122.8651447227911Clb=5.8m/s p=15.3hPa t=-62.0C h=5.4% 401.40MHz Type=RS41-SGP Join https://groups.io/g/Balloons
KJ7NUX-14U22208582022-12-06 00:45:5144.5117-122.8651467427904Clb=7.8m/s p=15.3hPa t=-62.0C h=5.5% 401.40MHz Type=RS41-SGP Details on http://radiosondy.info
W7BDB-13U22208582022-12-06 00:45:4844.512-122.8651457627892Clb=5.2m/s p=15.3hPa t=-62.1C h=5.5% 401.40MHz Type=RS41-SGP batt=2.7V Details on http://radiosondy.info
WA9ONY-14U22208582022-12-06 00:45:3844.5127-122.8661387827855Clb=7.2m/s p=15.4hPa t=-62.1C h=5.2% 401.40MHz Type=RS41-SGP Join https://groups.io/g/Balloons
WA9ONY-10U22208582022-12-06 00:45:3644.5129-122.8671427827848Clb=6.5m/s p=15.4hPa t=-62.0C h=5.2% 401.40MHz Type=RS41-SGP batt=2.6V Join https://groups.io/g/Balloons
KJ7NUX-14U22208582022-12-06 00:45:2344.5139-122.8681418027802Clb=6.2m/s p=15.5hPa t=-61.9C h=5.5% 401.40MHz Type=RS41-SGP Details on http://radiosondy.info
W7BDB-13U22208582022-12-06 00:45:1944.5142-122.8681417827790Clb=6.8m/s p=15.6hPa t=-61.8C h=5.3% 401.40MHz Type=RS41-SGP Details on http://radiosondy.info
WA9ONY-10U22208582022-12-06 00:45:1844.5144-122.8681427627783Clb=7.1m/s p=15.6hPa t=-61.8C h=5.4% 401.40MHz Type=RS41-SGP Join https://groups.io/g/Balloons
K6GDP-11U22208582022-12-06 00:45:1144.5148-122.8691467227764Clb=7.8m/s t=-61.9C h=1.3% p=15.7hPa 401.400 MHz Type=RS41-SGP ser=U2220858 Radiosonde
KG7GDB-12U22208582022-12-06 00:45:0844.5153-122.8691457427744Clb=7.6m/s t=-61.8C h=1.2% p=15.8hPa 401.401 MHz Type=RS41-SGP ser=U2220858 Radiosonde
WA9ONY-14U22208582022-12-06 00:45:0144.5158-122.871417627723Clb=8.0m/s p=15.7hPa t=-61.7C h=5.2% 401.40MHz Type=RS41-SGP Join https://groups.io/g/Balloons
WA9ONY-10U22208582022-12-06 00:45:0044.5159-122.871417427716Clb=6.4m/s p=15.8hPa t=-61.6C h=5.3% 401.40MHz Type=RS41-SGP Join https://groups.io/g/Balloons
KJ7NUX-14U22208582022-12-06 00:44:5744.5164-122.871427227697Clb=7.4m/s p=15.8hPa t=-61.6C h=5.3% 401.40MHz Type=RS41-SGP TxPastBurst=8h30m batt=2.7V Details on http://radiosondy.info
W7BDB-13U22208582022-12-06 00:44:5244.5167-122.8711457227684Clb=6.3m/s p=15.9hPa t=-61.6C h=5.2% 401.40MHz Type=RS41-SGP Details on http://radiosondy.info
WA9ONY-14U22208582022-12-06 00:44:4644.5173-122.8711487427658Clb=6.5m/s p=15.9hPa t=-61.7C h=5.1% 401.40MHz Type=RS41-SGP Join https://groups.io/g/Balloons
WA9ONY-10U22208582022-12-06 00:44:4544.5174-122.8711487427652Clb=6.1m/s p=15.9hPa t=-61.7C h=5.0% 401.40MHz Type=RS41-SGP TxPastBurst=8h30m batt=2.6V Join https://groups.io/g/Balloons
W7BDB-12U22208582022-12-06 00:44:4144.5181-122.8721348527621Clb=4.3m/s t=-61.6C h=1.3% p=16.1hPa 401.399 MHz Type=RS41-SGP ser=U2220858 Radiosonde
WA9ONY-14U22208582022-12-06 00:44:2944.5186-122.8731246527597Clb=5.5m/s p=16.1hPa t=-61.7C h=5.2% 401.40MHz Type=RS41-SGP TxPastBurst=8h30m batt=2.7V Join https://groups.io/g/Balloons
WA9ONY-10U22208582022-12-06 00:44:2744.5187-122.8731256727590Clb=6.1m/s p=16.1hPa t=-61.8C h=5.4% 401.40MHz Type=RS41-SGP Join https://groups.io/g/Balloons
W7BDB-13U22208582022-12-06 00:44:2444.5188-122.8731306727584Clb=6.8m/s p=16.1hPa t=-61.9C h=5.5% 401.40MHz Type=RS41-SGP batt=2.6V Details on http://radiosondy.info
K6GDP-11U22208582022-12-06 00:44:1944.5191-122.8741416527565Clb=5.9m/s t=-61.9C h=1.2% p=16.2hPa 401.400 MHz Type=RS41-SGP ser=U2220858 Radiosonde
KG7GDB-12U22208582022-12-06 00:44:1644.5195-122.8741396527546Clb=5.4m/s t=-61.8C h=1.2% p=16.2hPa 401.401 MHz Type=RS41-SGP ser=U2220858 Radiosonde
WA9ONY-14U22208582022-12-06 00:44:1044.5198-122.8751357027532Clb=7.6m/s p=16.2hPa t=-61.7C h=5.2% 401.40MHz Type=RS41-SGP Join https://groups.io/g/Balloons
WA9ONY-10U22208582022-12-06 00:44:0944.5199-122.8751337027526Clb=5.5m/s p=16.2hPa t=-61.7C h=5.3% 401.40MHz Type=RS41-SGP Join https://groups.io/g/Balloons
KJ7NUX-14U22208582022-12-06 00:44:0144.5205-122.8761377427493Clb=6.9m/s p=16.3hPa t=-61.5C h=5.2% 401.40MHz Type=RS41-SGP Details on http://radiosondy.info
W7BDB-13U22208582022-12-06 00:43:5844.5206-122.8761407427487Clb=5.9m/s p=16.3hPa t=-61.4C h=5.2% 401.40MHz Type=RS41-SGP Details on http://radiosondy.info
WA9ONY-14U22208582022-12-06 00:43:5344.521-122.8761477627467Clb=5.9m/s p=16.4hPa t=-61.4C h=5.3% 401.40MHz Type=RS41-SGP Join https://groups.io/g/Balloons
WA9ONY-10U22208582022-12-06 00:43:5144.5212-122.8761477827462Clb=5.0m/s p=16.4hPa t=-61.4C h=5.2% 401.40MHz Type=RS41-SGP batt=2.6V Join https://groups.io/g/Balloons
WA9ONY-14U22208582022-12-06 00:43:3544.5225-122.8781417427402Clb=7.4m/s p=16.6hPa t=-61.1C h=5.1% 401.40MHz Type=RS41-SGP batt=2.7V Join https://groups.io/g/Balloons
WA9ONY-10U22208582022-12-06 00:43:3344.5227-122.8781437427396Clb=5.7m/s p=16.6hPa t=-61.1C h=5.2% 401.40MHz Type=RS41-SGP Join https://groups.io/g/Balloons
W7BDB-13U22208582022-12-06 00:43:2944.5229-122.8781467427383Clb=8.0m/s p=16.6hPa t=-61.1C h=5.1% 401.40MHz Type=RS41-SGP Details on http://radiosondy.info
KJ7NUX-14U22208582022-12-06 00:43:2844.5231-122.8781487227376Clb=6.7m/s p=16.6hPa t=-61.0C h=5.0% 401.40MHz Type=RS41-SGP batt=2.7V Details on http://radiosondy.info
K6GDP-11U22208582022-12-06 00:43:2244.5235-122.8791467827356Clb=7.0m/s t=-61.1C h=1.2% p=16.8hPa 401.400 MHz Type=RS41-SGP ser=U2220858 Radiosonde
KE7WWCU22208582022-12-06 00:43:2044.5237-122.8791448127349Clb=6.3m/s t=-61.1C h=1.2% p=16.8hPa 401.375 MHz Type=RS41-SGP ser=U2220858 Radiosonde
WA9ONY-14U22208582022-12-06 00:43:1544.524-122.8791417227335Clb=7.3m/s p=16.8hPa t=-61.1C h=5.1% 401.40MHz Type=RS41-SGP Join https://groups.io/g/Balloons
WA9ONY-10U22208582022-12-06 00:43:1444.5242-122.881387027328Clb=5.9m/s p=16.8hPa t=-61.1C h=5.3% 401.40MHz Type=RS41-SGP Join https://groups.io/g/Balloons
W7BDB-13U22208582022-12-06 00:43:0044.5253-122.8811536527277Clb=5.0m/s p=16.9hPa t=-61.0C h=5.0% 401.40MHz Type=RS41-SGP TxPastBurst=8h30m batt=2.6V Details on http://radiosondy.info
WA9ONY-14U22208582022-12-06 00:42:5844.5254-122.8811516927272Clb=7.3m/s p=16.9hPa t=-61.0C h=4.9% 401.40MHz Type=RS41-SGP Join https://groups.io/g/Balloons
WA9ONY-10U22208582022-12-06 00:42:5644.5256-122.8811486927265Clb=6.7m/s p=16.9hPa t=-60.9C h=4.9% 401.40MHz Type=RS41-SGP batt=2.7V Join https://groups.io/g/Balloons
KJ7NUX-14U22208582022-12-06 00:42:5544.5257-122.8811446527259Clb=6.0m/s p=17.0hPa t=-61.0C h=4.8% 401.40MHz Type=RS41-SGP Details on http://radiosondy.info
W7BDB-12U22208582022-12-06 00:42:4844.5264-122.8821296727219Clb=7.7m/s t=-60.9C h=1.2% p=17.1hPa 401.399 MHz Type=RS41-SGP ser=U2220858 Radiosonde
WA9ONY-14U22208582022-12-06 00:42:4044.5266-122.8821396327207Clb=4.8m/s p=17.1hPa t=-60.8C h=5.0% 401.40MHz Type=RS41-SGP batt=2.7V Join https://groups.io/g/Balloons
WA9ONY-10U22208582022-12-06 00:42:3844.5268-122.8831436327201Clb=7.2m/s p=17.1hPa t=-60.9C h=5.1% 401.40MHz Type=RS41-SGP Join https://groups.io/g/Balloons
W7BDB-13U22208582022-12-06 00:42:3144.5271-122.8831556927179Clb=7.2m/s p=17.2hPa t=-61.2C h=5.2% 401.40MHz Type=RS41-SGP Details on http://radiosondy.info
K6GDP-11U22208582022-12-06 00:42:2344.5277-122.8831436527153Clb=7.0m/s t=-61.2C h=1.2% p=17.3hPa 401.400 MHz Type=RS41-SGP ser=U2220858 Radiosonde
KE7WWCU22208582022-12-06 00:42:2144.5277-122.8831436527153Clb=7.0m/s t=-61.2C h=1.2% p=17.3hPa 401.374 MHz Type=RS41-SGP ser=U2220858 Radiosonde
WA9ONY-14U22208582022-12-06 00:42:1744.5279-122.8841387227142Clb=6.1m/s p=17.3hPa t=-61.1C h=5.1% 401.40MHz Type=RS41-SGP Join https://groups.io/g/Balloons
WA9ONY-10U22208582022-12-06 00:42:1544.5281-122.8841377227134Clb=8.1m/s p=17.3hPa t=-61.1C h=5.0% 401.40MHz Type=RS41-SGP Join https://groups.io/g/Balloons
W7BDB-13U22208582022-12-06 00:42:0144.5291-122.8851396527082Clb=5.6m/s p=17.4hPa t=-61.1C h=5.3% 401.40MHz Type=RS41-SGP Details on http://radiosondy.info
WA9ONY-14U22208582022-12-06 00:41:5944.5292-122.8851376727077Clb=5.0m/s p=17.4hPa t=-61.1C h=5.3% 401.40MHz Type=RS41-SGP Join https://groups.io/g/Balloons
WA9ONY-10U22208582022-12-06 00:41:5744.5294-122.8861356727071Clb=6.2m/s p=17.5hPa t=-61.1C h=5.4% 401.40MHz Type=RS41-SGP TxPastBurst=8h30m batt=2.7V Join https://groups.io/g/Balloons
KJ7NUX-14U22208582022-12-06 00:41:5244.5297-122.8861306127051Clb=5.7m/s p=17.5hPa t=-61.0C h=5.3% 401.40MHz Type=RS41-SGP batt=2.6V Details on http://radiosondy.info
WA9ONY-14U22208582022-12-06 00:41:4144.5304-122.8871425727012Clb=6.2m/s p=17.7hPa t=-60.7C h=5.0% 401.40MHz Type=RS41-SGP TxPastBurst=8h30m batt=2.6V Join https://groups.io/g/Balloons
WA9ONY-10U22208582022-12-06 00:41:3944.5306-122.8871425627006Clb=5.8m/s p=17.7hPa t=-60.7C h=5.1% 401.40MHz Type=RS41-SGP Join https://groups.io/g/Balloons
W7BDB-13U22208582022-12-06 00:41:3344.5309-122.8871435726986Clb=4.9m/s p=17.7hPa t=-60.5C h=5.0% 401.40MHz Type=RS41-SGP batt=2.6V Details on http://radiosondy.info
K6GDP-11U22208582022-12-06 00:41:2544.5314-122.8881355026954Clb=7.0m/s t=-60.4C h=1.1% p=17.9hPa 401.400 MHz Type=RS41-SGP ser=U2220858 Radiosonde
KE7WWCU22208582022-12-06 00:41:2344.5315-122.8881395426947Clb=6.6m/s t=-60.4C h=1.1% p=17.9hPa 401.374 MHz Type=RS41-SGP ser=U2220858 Radiosonde
KJ7NUX-14U22208582022-12-06 00:41:2244.5315-122.8881405426947Clb=6.5m/s p=17.8hPa t=-60.3C h=4.8% 401.40MHz Type=RS41-SGP Details on http://radiosondy.info
WA9ONY-10U22208582022-12-06 00:41:1944.5316-122.8881425726941Clb=4.9m/s p=17.8hPa t=-60.3C h=4.8% 401.40MHz Type=RS41-SGP Join https://groups.io/g/Balloons
W7BDB-13U22208582022-12-06 00:41:0344.5326-122.8891344826886Clb=7.5m/s p=18.0hPa t=-60.3C h=4.7% 401.40MHz Type=RS41-SGP Details on http://radiosondy.info
WA9ONY-10U22208582022-12-06 00:41:0144.5327-122.891264626879Clb=6.9m/s p=18.0hPa t=-60.3C h=4.5% 401.40MHz Type=RS41-SGP batt=2.6V Join https://groups.io/g/Balloons
KJ7NUX-14U22208582022-12-06 00:40:5244.5331-122.891414426848Clb=6.0m/s p=18.1hPa t=-60.4C h=4.7% 401.40MHz Type=RS41-SGP Details on http://radiosondy.info
W7BDB-12U22208582022-12-06 00:40:4944.5335-122.8911464826823Clb=7.3m/s t=-61.1C h=1.1% p=18.2hPa 401.399 MHz Type=RS41-SGP ser=U2220858 Radiosonde
WA9ONY-14U22208582022-12-06 00:40:4544.5334-122.8911474426823Clb=7.3m/s p=18.2hPa t=-61.0C h=4.9% 401.40MHz Type=RS41-SGP batt=2.6V Join https://groups.io/g/Balloons
WA9ONY-10U22208582022-12-06 00:40:4344.5336-122.8911464326816Clb=6.5m/s p=18.2hPa t=-61.2C h=4.9% 401.40MHz Type=RS41-SGP Join https://groups.io/g/Balloons
W7BDB-13U22208582022-12-06 00:40:3444.5339-122.8911293926791Clb=6.4m/s p=18.3hPa t=-61.8C h=5.1% 401.40MHz Type=RS41-SGP Details on http://radiosondy.info
K6GDP-11U22208582022-12-06 00:40:2644.5342-122.8921443526760Clb=7.1m/s t=-61.8C h=1.4% p=18.4hPa 401.400 MHz Type=RS41-SGP ser=U2220858 Radiosonde
WA9ONY-14U22208582022-12-06 00:40:2444.5342-122.8921453726760Clb=7.0m/s p=18.4hPa t=-61.7C h=5.4% 401.40MHz Type=RS41-SGP Join https://groups.io/g/Balloons
WA9ONY-10U22208582022-12-06 00:40:2244.5343-122.8921503926754Clb=6.6m/s p=18.4hPa t=-61.7C h=5.4% 401.40MHz Type=RS41-SGP Join https://groups.io/g/Balloons
KG7GDB-12U22208582022-12-06 00:40:2144.5344-122.8921553126747Clb=5.2m/s t=-61.7C h=1.3% p=18.4hPa 401.401 MHz Type=RS41-SGP ser=U2220858 Radiosonde
W7BDB-13U22208582022-12-06 00:40:0844.5351-122.8921494326698Clb=7.5m/s p=18.5hPa t=-61.4C h=5.3% 401.40MHz Type=RS41-SGP batt=2.6V Details on http://radiosondy.info
WA9ONY-14U22208582022-12-06 00:40:0744.5351-122.8921494126698Clb=7.5m/s p=18.5hPa t=-61.4C h=5.3% 401.40MHz Type=RS41-SGP Join https://groups.io/g/Balloons
WA9ONY-10U22208582022-12-06 00:40:0644.5352-122.8921494326691Clb=5.7m/s p=18.5hPa t=-61.3C h=5.2% 401.40MHz Type=RS41-SGP batt=2.6V Join https://groups.io/g/Balloons
KJ7NUX-14U22208582022-12-06 00:39:5344.5358-122.8931694626647Clb=5.5m/s p=18.7hPa t=-61.1C h=5.1% 401.40MHz Type=RS41-SGP Details on http://radiosondy.info
WA9ONY-14U22208582022-12-06 00:39:4944.5361-122.8931704626634Clb=5.0m/s p=18.7hPa t=-61.0C h=5.1% 401.40MHz Type=RS41-SGP batt=2.7V Join https://groups.io/g/Balloons
WA9ONY-10U22208582022-12-06 00:39:4744.5362-122.8931694626629Clb=5.2m/s p=18.8hPa t=-61.0C h=5.0% 401.40MHz Type=RS41-SGP Join https://groups.io/g/Balloons
W7BDB-13U22208582022-12-06 00:39:3844.5367-122.8931545026604Clb=6.7m/s p=18.8hPa t=-60.8C h=4.9% 401.40MHz Type=RS41-SGP Details on http://radiosondy.info
WA9ONY-14U22208582022-12-06 00:39:3044.5371-122.8931575426574Clb=6.1m/s p=18.9hPa t=-60.9C h=4.9% 401.40MHz Type=RS41-SGP Join https://groups.io/g/Balloons
WA9ONY-10U22208582022-12-06 00:39:2844.5372-122.8931645626569Clb=5.3m/s p=18.9hPa t=-60.8C h=5.0% 401.40MHz Type=RS41-SGP Join https://groups.io/g/Balloons
KE7WWCU22208582022-12-06 00:39:2744.5373-122.8931695226562Clb=5.9m/s t=-60.9C h=1.2% p=19.0hPa 401.374 MHz Type=RS41-SGP ser=U2220858 Radiosonde
KG7GDB-12U22208582022-12-06 00:39:2644.5375-122.8941745426556Clb=7.7m/s t=-61.0C h=1.2% p=19.0hPa 401.401 MHz Type=RS41-SGP ser=U2220858 Radiosonde
KJ7NUX-14U22208582022-12-06 00:39:2444.5376-122.8941785426549Clb=5.9m/s p=19.0hPa t=-61.1C h=5.0% 401.40MHz Type=RS41-SGP Details on http://radiosondy.info
WA9ONY-14U22208582022-12-06 00:39:1344.5384-122.8941555026514Clb=7.0m/s p=19.1hPa t=-61.0C h=5.1% 401.40MHz Type=RS41-SGP Join https://groups.io/g/Balloons
W7BDB-13U22208582022-12-06 00:39:1144.5385-122.8941535026507Clb=5.4m/s p=19.1hPa t=-61.1C h=5.2% 401.40MHz Type=RS41-SGP Details on http://radiosondy.info
KJ7NUX-14U22208582022-12-06 00:38:5744.5396-122.8941674626455Clb=6.7m/s p=19.3hPa t=-60.9C h=5.1% 401.40MHz Type=RS41-SGP batt=2.7V Details on http://radiosondy.info
WA9ONY-14U22208582022-12-06 00:38:5644.5396-122.8941674626454Clb=6.7m/s p=19.3hPa t=-60.9C h=5.1% 401.40MHz Type=RS41-SGP TxPastBurst=8h30m batt=2.7V Join https://groups.io/g/Balloons
WA9ONY-10U22208582022-12-06 00:38:5444.5397-122.8941644626448Clb=5.0m/s p=19.3hPa t=-60.9C h=5.2% 401.40MHz Type=RS41-SGP Join https://groups.io/g/Balloons
W7BDB-13U22208582022-12-06 00:38:4344.5404-122.8951584426414Clb=6.7m/s p=19.4hPa t=-60.7C h=5.1% 401.40MHz Type=RS41-SGP TxPastBurst=8h30m batt=2.7V Details on http://radiosondy.info
WA9ONY-14U22208582022-12-06 00:38:3744.5407-122.8951664626396Clb=7.1m/s p=19.5hPa t=-60.6C h=5.1% 401.40MHz Type=RS41-SGP Join https://groups.io/g/Balloons
WA9ONY-10U22208582022-12-06 00:38:3544.5408-122.8951704626390Clb=5.1m/s p=19.5hPa t=-60.6C h=5.1% 401.40MHz Type=RS41-SGP Join https://groups.io/g/Balloons
K6GDP-11U22208582022-12-06 00:38:3444.5409-122.8951704626385Clb=5.0m/s t=-60.7C h=1.2% p=19.5hPa 401.400 MHz Type=RS41-SGP ser=U2220858 Radiosonde
KE7WWCU22208582022-12-06 00:38:3344.541-122.8951694826379Clb=7.1m/s t=-60.7C h=1.2% p=19.6hPa 401.374 MHz Type=RS41-SGP ser=U2220858 Radiosonde
KG7GDB-12U22208582022-12-06 00:38:3244.5411-122.8951695026373Clb=4.8m/s t=-60.7C h=1.2% p=19.6hPa 401.401 MHz Type=RS41-SGP ser=U2220858 Radiosonde
KJ7NUX-14U22208582022-12-06 00:38:2844.5414-122.8951754326362Clb=6.5m/s p=19.5hPa t=-60.6C h=5.1% 401.40MHz Type=RS41-SGP Details on http://radiosondy.info
WA9ONY-14U22208582022-12-06 00:38:2144.5418-122.8951744326339Clb=6.6m/s p=19.6hPa t=-60.5C h=5.0% 401.40MHz Type=RS41-SGP Join https://groups.io/g/Balloons
WA9ONY-10U22208582022-12-06 00:38:1944.5419-122.8951714326333Clb=5.3m/s p=19.6hPa t=-60.5C h=5.0% 401.40MHz Type=RS41-SGP batt=2.7V Join https://groups.io/g/Balloons
W7BDB-13U22208582022-12-06 00:38:1744.542-122.8951714426328Clb=4.6m/s p=19.7hPa t=-60.5C h=5.1% 401.40MHz Type=RS41-SGP Details on http://radiosondy.info
WA9ONY-14U22208582022-12-06 00:38:0244.5429-122.8951784626281Clb=6.2m/s p=19.8hPa t=-60.2C h=5.1% 401.40MHz Type=RS41-SGP batt=2.6V Join https://groups.io/g/Balloons
WA9ONY-10U22208582022-12-06 00:38:0144.543-122.8951804826276Clb=4.7m/s p=19.8hPa t=-60.1C h=5.1% 401.40MHz Type=RS41-SGP Join https://groups.io/g/Balloons
KJ7NUX-14U22208582022-12-06 00:37:5844.5431-122.8951794626270Clb=6.2m/s p=19.9hPa t=-60.0C h=5.0% 401.40MHz Type=RS41-SGP Details on http://radiosondy.info
W7BDB-13U22208582022-12-06 00:37:4644.5437-122.8951804626241Clb=5.0m/s p=20.0hPa t=-59.7C h=4.9% 401.40MHz Type=RS41-SGP Details on http://radiosondy.info
WA9ONY-14U22208582022-12-06 00:37:4044.5441-122.8951654426223Clb=4.8m/s p=20.0hPa t=-59.6C h=4.9% 401.40MHz Type=RS41-SGP Join https://groups.io/g/Balloons
WA9ONY-10U22208582022-12-06 00:37:3844.5442-122.8951634626218Clb=4.3m/s p=20.0hPa t=-59.6C h=4.8% 401.40MHz Type=RS41-SGP Join https://groups.io/g/Balloons
K6GDP-11U22208582022-12-06 00:37:3544.5444-122.8961653926206Clb=5.5m/s t=-59.6C h=1.1% p=20.1hPa 401.400 MHz Type=RS41-SGP ser=U2220858 Radiosonde
KE7WWCU22208582022-12-06 00:37:3344.5446-122.8961694126195Clb=6.4m/s t=-59.4C h=1.1% p=20.1hPa 401.374 MHz Type=RS41-SGP ser=U2220858 Radiosonde
KG7GDB-12U22208582022-12-06 00:37:3044.5446-122.8961694126195Clb=6.4m/s t=-59.4C h=1.1% p=20.1hPa 401.401 MHz Type=RS41-SGP ser=U2220858 Radiosonde
KJ7NUX-14U22208582022-12-06 00:37:2444.5449-122.8961794826180Clb=5.1m/s p=20.1hPa t=-59.2C h=4.8% 401.40MHz Type=RS41-SGP batt=2.6V Details on http://radiosondy.info
WA9ONY-14U22208582022-12-06 00:37:1944.5452-122.8961864826168Clb=5.0m/s p=20.2hPa t=-59.2C h=4.7% 401.40MHz Type=RS41-SGP Join https://groups.io/g/Balloons
WA9ONY-10U22208582022-12-06 00:37:1744.5453-122.8961844826163Clb=4.1m/s p=20.2hPa t=-59.2C h=4.9% 401.40MHz Type=RS41-SGP batt=2.6V Join https://groups.io/g/Balloons
W7BDB-13U22208582022-12-06 00:37:1544.5454-122.8961794826157Clb=6.7m/s p=20.2hPa t=-59.2C h=4.7% 401.40MHz Type=RS41-SGP batt=2.6V Details on http://radiosondy.info
WA9ONY-14U22208582022-12-06 00:37:0044.5463-122.8961614826110Clb=5.9m/s p=20.4hPa t=-58.9C h=4.7% 401.40MHz Type=RS41-SGP batt=2.6V Join https://groups.io/g/Balloons
WA9ONY-10U22208582022-12-06 00:36:5844.5464-122.8961644826104Clb=5.0m/s p=20.4hPa t=-58.8C h=4.7% 401.40MHz Type=RS41-SGP Join https://groups.io/g/Balloons
KJ7NUX-14U22208582022-12-06 00:36:5144.5468-122.8961684426087Clb=3.6m/s p=20.4hPa t=-58.6C h=4.6% 401.40MHz Type=RS41-SGP Details on http://radiosondy.info
W7BDB-13U22208582022-12-06 00:36:4244.5472-122.8961574626066Clb=6.2m/s p=20.5hPa t=-58.5C h=4.5% 401.40MHz Type=RS41-SGP Details on http://radiosondy.info
WA9ONY-14U22208582022-12-06 00:36:3844.5474-122.8961534426054Clb=5.2m/s p=20.5hPa t=-58.4C h=4.4% 401.40MHz Type=RS41-SGP Join https://groups.io/g/Balloons
WA9ONY-10U22208582022-12-06 00:36:3644.5475-122.8961494426048Clb=6.1m/s p=20.6hPa t=-58.4C h=4.5% 401.40MHz Type=RS41-SGP Join https://groups.io/g/Balloons
K6GDP-11U22208582022-12-06 00:36:3244.5478-122.8971464126032Clb=5.5m/s t=-58.4C h=1.1% p=20.6hPa 401.400 MHz Type=RS41-SGP ser=U2220858 Radiosonde
KE7WWCU22208582022-12-06 00:36:3044.5479-122.8971513926027Clb=6.1m/s t=-58.4C h=1.0% p=20.7hPa 401.374 MHz Type=RS41-SGP ser=U2220858 Radiosonde
KG7GDB-12U22208582022-12-06 00:36:2744.5481-122.8971604326016Clb=4.2m/s t=-58.5C h=1.1% p=20.7hPa 401.401 MHz Type=RS41-SGP ser=U2220858 Radiosonde
WA9ONY-14U22208582022-12-06 00:36:1944.5484-122.8971614625999Clb=4.6m/s p=20.7hPa t=-58.6C h=4.6% 401.40MHz Type=RS41-SGP Join https://groups.io/g/Balloons
WA9ONY-10U22208582022-12-06 00:36:1744.5486-122.8971614425993Clb=6.4m/s p=20.7hPa t=-58.6C h=4.5% 401.40MHz Type=RS41-SGP TxPastBurst=8h30m batt=2.7V Join https://groups.io/g/Balloons
W7BDB-13U22208582022-12-06 00:36:1144.5489-122.8971485025977Clb=6.4m/s p=20.8hPa t=-58.6C h=4.5% 401.40MHz Type=RS41-SGP Details on http://radiosondy.info
WA9ONY-14U22208582022-12-06 00:36:0144.5494-122.8981435425944Clb=5.2m/s p=20.9hPa t=-58.8C h=4.5% 401.40MHz Type=RS41-SGP TxPastBurst=8h30m batt=2.7V Join https://groups.io/g/Balloons
WA9ONY-10U22208582022-12-06 00:35:5944.5496-122.8981525625932Clb=5.0m/s p=20.9hPa t=-58.7C h=4.5% 401.40MHz Type=RS41-SGP Join https://groups.io/g/Balloons
KJ7NUX-14U22208582022-12-06 00:35:5544.5501-122.8981615225910Clb=3.9m/s p=21.0hPa t=-58.5C h=4.5% 401.40MHz Type=RS41-SGP TxPastBurst=8h30m batt=2.6V Details on http://radiosondy.info
W7BDB-13U22208582022-12-06 00:35:5344.5506-122.8991455225890Clb=4.4m/s p=21.1hPa t=-58.5C h=4.4% 401.40MHz Type=RS41-SGP batt=2.6V Details on http://radiosondy.info
WA9ONY-14U22208582022-12-06 00:35:5244.5506-122.8991455025890Clb=4.4m/s p=21.1hPa t=-58.5C h=4.4% 401.40MHz Type=RS41-SGP Join https://groups.io/g/Balloons
WA9ONY-10U22208582022-12-06 00:35:4944.5508-122.8991465025879Clb=6.7m/s p=21.1hPa t=-58.4C h=4.2% 401.40MHz Type=RS41-SGP Join https://groups.io/g/Balloons
K6GDP-11U22208582022-12-06 00:35:4644.551-122.8991514425863Clb=6.0m/s t=-58.4C h=1.0% p=21.2hPa 401.400 MHz Type=RS41-SGP ser=U2220858 Radiosonde
KG7GDB-12U22208582022-12-06 00:35:4444.5513-122.8991505625852Clb=4.7m/s t=-58.6C h=1.0% p=21.3hPa 401.401 MHz Type=RS41-SGP ser=U2220858 Radiosonde
WA9ONY-14U22208582022-12-06 00:35:4144.5516-122.91515225835Clb=5.5m/s p=21.3hPa t=-59.1C h=4.4% 401.40MHz Type=RS41-SGP Join https://groups.io/g/Balloons
KJ7NUX-14U22208582022-12-06 00:35:4044.5519-122.91445025824Clb=5.5m/s p=21.3hPa t=-59.2C h=4.4% 401.40MHz Type=RS41-SGP Details on http://radiosondy.info
WA9ONY-14U22208582022-12-06 00:35:3844.5526-122.9011474825778Clb=5.1m/s p=21.4hPa t=-59.8C h=4.8% 401.40MHz Type=RS41-SGP batt=2.6V Join https://groups.io/g/Balloons
WA9ONY-10U22208582022-12-06 00:35:3644.5528-122.9011484625767Clb=6.9m/s p=21.5hPa t=-59.9C h=4.8% 401.40MHz Type=RS41-SGP Join https://groups.io/g/Balloons
KJ7NUX-14U22208582022-12-06 00:35:2844.5534-122.9021444425734Clb=6.1m/s p=21.6hPa t=-59.9C h=4.6% 401.40MHz Type=RS41-SGP Details on http://radiosondy.info
W7BDB-13U22208582022-12-06 00:35:2544.5536-122.9021444325721Clb=5.2m/s p=21.6hPa t=-59.9C h=4.6% 401.40MHz Type=RS41-SGP Details on http://radiosondy.info
WA9ONY-10U22208582022-12-06 00:35:2244.5538-122.9021464325710Clb=6.3m/s p=21.7hPa t=-59.9C h=4.6% 401.40MHz Type=RS41-SGP Join https://groups.io/g/Balloons
K6GDP-11U22208582022-12-06 00:35:1844.5541-122.9021433725685Clb=6.2m/s t=-60.2C h=1.2% p=21.8hPa 401.400 MHz Type=RS41-SGP ser=U2220858 Radiosonde
KE7WWCU22208582022-12-06 00:35:1744.5542-122.9021433525680Clb=4.9m/s t=-60.2C h=1.3% p=21.8hPa 401.374 MHz Type=RS41-SGP ser=U2220858 Radiosonde
KG7GDB-12U22208582022-12-06 00:35:1644.5543-122.9021433925674Clb=6.0m/s t=-60.3C h=1.1% p=21.9hPa 401.401 MHz Type=RS41-SGP ser=U2220858 Radiosonde
WA9ONY-14U22208582022-12-06 00:35:1444.5545-122.9031484425662Clb=5.7m/s p=21.9hPa t=-60.2C h=4.8% 401.40MHz Type=RS41-SGP Join https://groups.io/g/Balloons
WA9ONY-10U22208582022-12-06 00:35:1044.5547-122.9031514325651Clb=7.0m/s p=21.9hPa t=-60.2C h=4.8% 401.40MHz Type=RS41-SGP batt=2.6V Join https://groups.io/g/Balloons
KJ7NUX-14U22208582022-12-06 00:35:0844.5549-122.9031514625639Clb=4.7m/s p=22.0hPa t=-60.3C h=4.9% 401.40MHz Type=RS41-SGP batt=2.7V Details on http://radiosondy.info
W7BDB-13U22208582022-12-06 00:35:0644.555-122.9031504425633Clb=7.1m/s p=21.9hPa t=-60.3C h=4.9% 401.40MHz Type=RS41-SGP TxPastBurst=8h30m batt=2.7V Details on http://radiosondy.info
WA9ONY-14U22208582022-12-06 00:35:0144.5554-122.9031414825602Clb=4.5m/s p=22.1hPa t=-60.4C h=5.0% 401.40MHz Type=RS41-SGP batt=2.7V Join https://groups.io/g/Balloons
WA9ONY-10U22208582022-12-06 00:34:5944.5556-122.9041445225591Clb=6.6m/s p=22.1hPa t=-60.5C h=4.9% 401.40MHz Type=RS41-SGP Join https://groups.io/g/Balloons
W7BDB-12U22208582022-12-06 00:34:5644.5562-122.9041635425552Clb=7.7m/s t=-60.4C h=1.2% p=22.3hPa 401.399 MHz Type=RS41-SGP ser=U2220858 Radiosonde
KJ7NUX-14U22208582022-12-06 00:34:5144.5565-122.9041605625539Clb=5.3m/s p=22.3hPa t=-60.5C h=4.9% 401.40MHz Type=RS41-SGP Details on http://radiosondy.info
WA9ONY-10U22208582022-12-06 00:34:4944.5568-122.9041565425526Clb=5.7m/s p=22.3hPa t=-60.5C h=5.1% 401.40MHz Type=RS41-SGP Join https://groups.io/g/Balloons
K6GDP-11U22208582022-12-06 00:34:4444.5574-122.9051535225494Clb=7.8m/s t=-60.4C h=1.2% p=22.5hPa 401.400 MHz Type=RS41-SGP ser=U2220858 Radiosonde
KE7WWCU22208582022-12-06 00:34:4344.5575-122.9051544825487Clb=7.0m/s t=-60.4C h=1.2% p=22.5hPa 401.374 MHz Type=RS41-SGP ser=U2220858 Radiosonde
KG7GDB-12U22208582022-12-06 00:34:4244.5576-122.9051565025481Clb=5.5m/s t=-60.4C h=1.1% p=22.5hPa 401.401 MHz Type=RS41-SGP ser=U2220858 Radiosonde
WA9ONY-14U22208582022-12-06 00:34:4144.5577-122.9051585725474Clb=7.6m/s p=22.5hPa t=-60.3C h=4.9% 401.40MHz Type=RS41-SGP Join https://groups.io/g/Balloons
WA9ONY-10U22208582022-12-06 00:34:3944.558-122.9051575625461Clb=6.1m/s p=22.6hPa t=-60.2C h=5.1% 401.40MHz Type=RS41-SGP TxPastBurst=8h30m batt=2.7V Join https://groups.io/g/Balloons
W7BDB-13U22208582022-12-06 00:34:3844.5583-122.9051505225441Clb=5.5m/s p=22.6hPa t=-60.1C h=5.0% 401.40MHz Type=RS41-SGP Details on http://radiosondy.info
WA9ONY-14U22208582022-12-06 00:34:3444.559-122.9061574825410Clb=6.5m/s p=22.7hPa t=-59.9C h=4.9% 401.40MHz Type=RS41-SGP TxPastBurst=8h30m batt=2.7V Join https://groups.io/g/Balloons
WA9ONY-10U22208582022-12-06 00:34:3244.5592-122.9061585025395Clb=6.3m/s p=22.8hPa t=-59.8C h=5.0% 401.40MHz Type=RS41-SGP Join https://groups.io/g/Balloons
W7BDB-13U22208582022-12-06 00:34:2444.5601-122.9071495225343Clb=6.1m/s p=23.0hPa t=-59.3C h=4.6% 401.40MHz Type=RS41-SGP batt=2.6V Details on http://radiosondy.info
KJ7NUX-14U22208582022-12-06 00:34:2244.5604-122.9071575225329Clb=6.6m/s p=23.0hPa t=-59.2C h=4.7% 401.40MHz Type=RS41-SGP batt=2.7V Details on http://radiosondy.info
K6GDP-11U22208582022-12-06 00:34:1744.561-122.9071444125290Clb=8.1m/s t=-59.1C h=1.1% p=23.2hPa 401.400 MHz Type=RS41-SGP ser=U2220858 Radiosonde
KE7WWCU22208582022-12-06 00:34:1544.5611-122.9071424425282Clb=6.9m/s t=-59.0C h=1.1% p=23.2hPa 401.375 MHz Type=RS41-SGP ser=U2220858 Radiosonde
KG7GDB-12U22208582022-12-06 00:34:1444.5612-122.9071404825276Clb=5.9m/s t=-59.0C h=1.1% p=23.3hPa 401.401 MHz Type=RS41-SGP ser=U2220858 Radiosonde
WA9ONY-10U22208582022-12-06 00:34:1144.5614-122.9081435425262Clb=6.4m/s p=23.3hPa t=-59.0C h=4.5% 401.40MHz Type=RS41-SGP batt=2.6V Join https://groups.io/g/Balloons
W7BDB-13U22208582022-12-06 00:34:0644.5618-122.9081585225240Clb=7.2m/s p=23.4hPa t=-59.2C h=4.5% 401.40MHz Type=RS41-SGP Details on http://radiosondy.info
KJ7NUX-14U22208582022-12-06 00:34:0444.5622-122.9081585225223Clb=7.0m/s p=23.4hPa t=-59.2C h=4.6% 401.40MHz Type=RS41-SGP Details on http://radiosondy.info
WA9ONY-14U22208582022-12-06 00:34:0144.5624-122.9081425025210Clb=6.3m/s p=23.5hPa t=-59.3C h=4.7% 401.40MHz Type=RS41-SGP batt=2.7V Join https://groups.io/g/Balloons
WA9ONY-10U22208582022-12-06 00:34:0044.5625-122.9091345425196Clb=7.2m/s p=23.5hPa t=-59.2C h=4.6% 401.40MHz Type=RS41-SGP Join https://groups.io/g/Balloons
W7BDB-13U22208582022-12-06 00:33:5144.5634-122.9091515925142Clb=5.5m/s p=23.7hPa t=-59.2C h=4.7% 401.40MHz Type=RS41-SGP Details on http://radiosondy.info
WA9ONY-10U22208582022-12-06 00:33:4944.5636-122.911525925129Clb=7.5m/s p=23.8hPa t=-59.1C h=4.7% 401.40MHz Type=RS41-SGP Join https://groups.io/g/Balloons
KJ7NUX-14U22208582022-12-06 00:33:4744.5639-122.911505625116Clb=5.8m/s p=23.8hPa t=-59.1C h=4.6% 401.40MHz Type=RS41-SGP Details on http://radiosondy.info
K6GDP-11U22208582022-12-06 00:33:4244.5645-122.911475925082Clb=7.1m/s t=-59.1C h=1.2% p=24.0hPa 401.400 MHz Type=RS41-SGP ser=U2220858 Radiosonde
KE7WWCU22208582022-12-06 00:33:4144.5646-122.911475925075Clb=6.2m/s t=-59.2C h=1.1% p=24.0hPa 401.375 MHz Type=RS41-SGP ser=U2220858 Radiosonde
WA9ONY-14U22208582022-12-06 00:33:4044.5647-122.9111465225069Clb=7.1m/s p=24.0hPa t=-59.1C h=4.8% 401.40MHz Type=RS41-SGP Join https://groups.io/g/Balloons
WA9ONY-10U22208582022-12-06 00:33:3944.5649-122.9111445025061Clb=7.2m/s p=24.1hPa t=-59.1C h=4.8% 401.40MHz Type=RS41-SGP batt=2.7V Join https://groups.io/g/Balloons
W7BDB-13U22208582022-12-06 00:33:3644.5652-122.9111455025041Clb=7.3m/s p=24.1hPa t=-59.0C h=4.8% 401.40MHz Type=RS41-SGP batt=2.6V Details on http://radiosondy.info
KJ7NUX-14U22208582022-12-06 00:33:3144.5656-122.9121455425008Clb=7.1m/s p=24.2hPa t=-58.8C h=4.8% 401.40MHz Type=RS41-SGP TxPastBurst=8h30m batt=2.7V Details on http://radiosondy.info
WA9ONY-10U22208582022-12-06 00:33:2944.5658-122.9121515624994Clb=5.5m/s p=24.3hPa t=-58.6C h=4.7% 401.40MHz Type=RS41-SGP Join https://groups.io/g/Balloons
W7BDB-13U22208582022-12-06 00:33:2244.5668-122.9131455424942Clb=7.6m/s p=24.5hPa t=-58.2C h=4.6% 401.40MHz Type=RS41-SGP Details on http://radiosondy.info
WA9ONY-14U22208582022-12-06 00:33:2144.5669-122.9131425624934Clb=6.7m/s p=24.5hPa t=-58.1C h=4.7% 401.40MHz Type=RS41-SGP Join https://groups.io/g/Balloons
WA9ONY-10U22208582022-12-06 00:33:1944.567-122.9131435624928Clb=5.4m/s p=24.6hPa t=-58.0C h=4.7% 401.40MHz Type=RS41-SGP Join https://groups.io/g/Balloons
KJ7NUX-14U22208582022-12-06 00:33:1544.5675-122.9131485424904Clb=6.0m/s p=24.6hPa t=-57.8C h=4.5% 401.40MHz Type=RS41-SGP Details on http://radiosondy.info
K6GDP-11U22208582022-12-06 00:33:1244.5679-122.9141435424880Clb=6.6m/s t=-57.7C h=1.0% p=24.8hPa 401.400 MHz Type=RS41-SGP ser=U2220858 Radiosonde
KE7WWCU22208582022-12-06 00:33:1144.568-122.9141465224873Clb=6.8m/s t=-57.6C h=1.0% p=24.8hPa 401.375 MHz Type=RS41-SGP ser=U2220858 Radiosonde
WA9ONY-10U22208582022-12-06 00:33:0944.5681-122.9141485224867Clb=5.7m/s p=24.8hPa t=-57.5C h=4.4% 401.40MHz Type=RS41-SGP TxPastBurst=8h30m batt=2.7V Join https://groups.io/g/Balloons
W7BDB-13U22208582022-12-06 00:33:0644.5684-122.9141395624849Clb=5.5m/s p=24.8hPa t=-57.3C h=4.3% 401.40MHz Type=RS41-SGP Details on http://radiosondy.info
W7BDB-13U22208582022-12-06 00:33:0344.6051-122.9241544822002Clb=5.1m/s p=38.8hPa t=-57.4C h=4.0% 401.40MHz Type=RS41-SGP batt=2.6V Details on http://radiosondy.info
WA9ONY-14U22208582022-12-06 00:32:5544.6056-122.9251524421981Clb=5.7m/s p=38.9hPa t=-57.5C h=4.2% 401.40MHz Type=RS41-SGP batt=2.7V Join https://groups.io/g/Balloons
KJ7NUX-14U22208582022-12-06 00:32:4844.6059-122.9251384621959Clb=5.6m/s p=39.1hPa t=-58.2C h=4.7% 401.40MHz Type=RS41-SGP Details on http://radiosondy.info
KG7GDB-12U22208582022-12-06 00:32:4244.6062-122.9251334621943Clb=5.9m/s t=-58.5C h=1.1% p=39.2hPa 401.401 MHz Type=RS41-SGP ser=U2220858 Radiosonde
KE7WWCU22208582022-12-06 00:32:4044.6064-122.9261375421933Clb=5.9m/s t=-58.7C h=1.1% p=39.2hPa 401.374 MHz Type=RS41-SGP ser=U2220858 Radiosonde
WA9ONY-14U22208582022-12-06 00:32:3644.6065-122.9261414621928Clb=5.8m/s p=39.2hPa t=-58.6C h=4.7% 401.40MHz Type=RS41-SGP Join https://groups.io/g/Balloons
W7BDB-13U22208582022-12-06 00:32:3544.6066-122.9261414321922Clb=4.7m/s p=39.3hPa t=-58.7C h=4.6% 401.40MHz Type=RS41-SGP Details on http://radiosondy.info
KJ7NUX-14U22208582022-12-06 00:32:1944.6072-122.9271183721872Clb=4.7m/s p=39.6hPa t=-58.3C h=4.5% 401.40MHz Type=RS41-SGP batt=2.6V Details on http://radiosondy.info
WA9ONY-14U22208582022-12-06 00:32:1844.6072-122.9271183521872Clb=4.7m/s p=39.6hPa t=-58.3C h=4.5% 401.40MHz Type=RS41-SGP Join https://groups.io/g/Balloons
W7BDB-12U22208582022-12-06 00:32:0944.6075-122.9281323121834Clb=5.7m/s t=-58.0C h=1.2% p=39.9hPa 401.399 MHz Type=RS41-SGP ser=U2220858 Radiosonde
W7BDB-13U22208582022-12-06 00:32:0544.6075-122.9281333721834Clb=5.6m/s p=39.8hPa t=-57.9C h=4.5% 401.40MHz Type=RS41-SGP Details on http://radiosondy.info
WA9ONY-10U22208582022-12-06 00:31:5644.6077-122.9281303921818Clb=4.9m/s p=39.9hPa t=-57.8C h=4.4% 401.40MHz Type=RS41-SGP Join https://groups.io/g/Balloons
KJ7NUX-14U22208582022-12-06 00:31:4544.6081-122.9291273521785Clb=4.9m/s p=40.1hPa t=-57.5C h=4.4% 401.40MHz Type=RS41-SGP Details on http://radiosondy.info
KG7GDB-12U22208582022-12-06 00:31:4144.6082-122.9291263321773Clb=4.7m/s t=-57.5C h=1.1% p=40.3hPa 401.401 MHz Type=RS41-SGP ser=U2220858 Radiosonde
KE7WWCU22208582022-12-06 00:31:3944.6083-122.9291333021762Clb=7.0m/s t=-57.5C h=1.1% p=40.3hPa 401.374 MHz Type=RS41-SGP ser=U2220858 Radiosonde
WA9ONY-14U22208582022-12-06 00:31:3744.6083-122.9291343521762Clb=7.0m/s p=40.3hPa t=-57.4C h=4.4% 401.40MHz Type=RS41-SGP Join https://groups.io/g/Balloons
W7BDB-13U22208582022-12-06 00:31:3344.6084-122.9291303521746Clb=6.9m/s p=40.4hPa t=-57.3C h=4.3% 401.40MHz Type=RS41-SGP batt=2.6V Details on http://radiosondy.info
WA9ONY-10U22208582022-12-06 00:31:2044.6088-122.931273721705Clb=5.2m/s p=40.6hPa t=-57.3C h=4.3% 401.40MHz Type=RS41-SGP TxPastBurst=8h30m batt=2.7V Join https://groups.io/g/Balloons
KJ7NUX-14U22208582022-12-06 00:31:1744.6089-122.931414121696Clb=6.0m/s p=40.7hPa t=-57.2C h=4.2% 401.40MHz Type=RS41-SGP Details on http://radiosondy.info
W7BDB-13U22208582022-12-06 00:31:0544.6094-122.9311394821661Clb=7.4m/s p=40.9hPa t=-57.2C h=4.1% 401.40MHz Type=RS41-SGP Details on http://radiosondy.info
WA9ONY-10U22208582022-12-06 00:31:0044.6096-122.9311374621649Clb=4.4m/s p=41.0hPa t=-57.2C h=4.1% 401.40MHz Type=RS41-SGP Join https://groups.io/g/Balloons
KJ7NUX-14U22208582022-12-06 00:30:4544.6103-122.9321664821605Clb=6.2m/s p=41.3hPa t=-57.4C h=4.1% 401.40MHz Type=RS41-SGP TxPastBurst=8h30m batt=2.6V Details on http://radiosondy.info
WA9ONY-14U22208582022-12-06 00:30:4144.6105-122.9321625221595Clb=4.3m/s p=41.4hPa t=-57.6C h=4.2% 401.40MHz Type=RS41-SGP Join https://groups.io/g/Balloons
W7BDB-13U22208582022-12-06 00:30:3744.6109-122.9321514821579Clb=4.6m/s p=41.5hPa t=-57.8C h=4.2% 401.40MHz Type=RS41-SGP Details on http://radiosondy.info
WA9ONY-14U22208582022-12-06 00:30:2344.6117-122.9331564621543Clb=5.9m/s p=41.7hPa t=-58.3C h=4.5% 401.40MHz Type=RS41-SGP Join https://groups.io/g/Balloons
KJ7NUX-14U22208582022-12-06 00:30:1744.6121-122.9331664821521Clb=4.6m/s p=41.8hPa t=-58.1C h=4.4% 401.40MHz Type=RS41-SGP Details on http://radiosondy.info
W7BDB-13U22208582022-12-06 00:30:0944.6125-122.9331595021500Clb=6.1m/s p=42.0hPa t=-58.0C h=4.2% 401.40MHz Type=RS41-SGP TxPastBurst=8h30m batt=2.6V Details on http://radiosondy.info
WA9ONY-14U22208582022-12-06 00:30:0444.6128-122.9331534621489Clb=5.1m/s p=42.0hPa t=-58.1C h=4.2% 401.40MHz Type=RS41-SGP batt=2.7V Join https://groups.io/g/Balloons
KJ7NUX-14U22208582022-12-06 00:29:4644.6138-122.9341615421436Clb=5.9m/s p=42.4hPa t=-58.8C h=4.7% 401.40MHz Type=RS41-SGP Details on http://radiosondy.info
WA9ONY-10U22208582022-12-06 00:29:4544.6138-122.9341615421436Clb=5.9m/s p=42.4hPa t=-58.8C h=4.7% 401.40MHz Type=RS41-SGP Join https://groups.io/g/Balloons
KE7WWCU22208582022-12-06 00:29:4344.6141-122.9341605421425Clb=6.7m/s t=-58.8C h=1.2% p=42.5hPa 401.374 MHz Type=RS41-SGP ser=U2220858 Radiosonde
W7BDB-13U22208582022-12-06 00:29:4044.6143-122.9341545421414Clb=4.6m/s p=42.5hPa t=-58.7C h=4.5% 401.40MHz Type=RS41-SGP Details on http://radiosondy.info
WA9ONY-10U22208582022-12-06 00:29:2844.615-122.9351615621382Clb=5.1m/s p=42.8hPa t=-58.6C h=4.5% 401.40MHz Type=RS41-SGP batt=2.6V Join https://groups.io/g/Balloons
KJ7NUX-14U22208582022-12-06 00:29:1844.6158-122.9351635421351Clb=6.1m/s p=43.0hPa t=-58.8C h=4.6% 401.40MHz Type=RS41-SGP batt=2.6V Details on http://radiosondy.info
W7BDB-13U22208582022-12-06 00:29:1044.6163-122.9351475421329Clb=4.3m/s p=43.1hPa t=-58.8C h=4.5% 401.40MHz Type=RS41-SGP Details on http://radiosondy.info
WA9ONY-14U22208582022-12-06 00:28:4944.6175-122.9361625421278Clb=5.5m/s p=43.5hPa t=-58.8C h=4.7% 401.40MHz Type=RS41-SGP Join https://groups.io/g/Balloons
KJ7NUX-14U22208582022-12-06 00:28:4744.6177-122.9361584821268Clb=3.9m/s p=43.5hPa t=-58.8C h=4.6% 401.40MHz Type=RS41-SGP Details on http://radiosondy.info
KE7WWCU22208582022-12-06 00:28:4544.6179-122.9361555421263Clb=5.2m/s t=-58.9C h=1.2% p=43.6hPa 401.374 MHz Type=RS41-SGP ser=U2220858 Radiosonde
W7BDB-13U22208582022-12-06 00:28:4144.6181-122.9361504821252Clb=5.0m/s p=43.7hPa t=-58.9C h=4.7% 401.40MHz Type=RS41-SGP batt=2.6V Details on http://radiosondy.info
WA9ONY-10U22208582022-12-06 00:28:3244.6186-122.9371484621226Clb=6.1m/s p=43.8hPa t=-58.8C h=4.8% 401.40MHz Type=RS41-SGP TxPastBurst=8h30m batt=2.7V Join https://groups.io/g/Balloons
KJ7NUX-14U22208582022-12-06 00:28:1444.6196-122.9381424821171Clb=4.3m/s p=44.2hPa t=-58.3C h=4.6% 401.40MHz Type=RS41-SGP Details on http://radiosondy.info
WA9ONY-10U22208582022-12-06 00:28:1344.6196-122.9381424821171Clb=4.3m/s p=44.2hPa t=-58.3C h=4.6% 401.40MHz Type=RS41-SGP Join https://groups.io/g/Balloons
W7BDB-13U22208582022-12-06 00:28:1244.6197-122.9381454821166Clb=5.0m/s p=44.2hPa t=-58.2C h=4.6% 401.40MHz Type=RS41-SGP Details on http://radiosondy.info
WA9ONY-10U22208582022-12-06 00:27:5344.6207-122.9381564621119Clb=4.2m/s p=44.6hPa t=-57.9C h=4.4% 401.40MHz Type=RS41-SGP Join https://groups.io/g/Balloons
KG7GDB-12U22208582022-12-06 00:27:4944.621-122.9391524421102Clb=4.2m/s t=-57.9C h=1.1% p=44.7hPa 401.401 MHz Type=RS41-SGP ser=U2220858 Radiosonde
KE7WWCU22208582022-12-06 00:27:4744.6211-122.9391554421097Clb=6.4m/s t=-57.9C h=1.1% p=44.8hPa 401.374 MHz Type=RS41-SGP ser=U2220858 Radiosonde
KJ7NUX-14U22208582022-12-06 00:27:4444.6213-122.9391605021087Clb=4.4m/s p=44.8hPa t=-57.9C h=4.4% 401.40MHz Type=RS41-SGP batt=2.6V Details on http://radiosondy.info
W7BDB-13U22208582022-12-06 00:27:4244.6214-122.9391575021082Clb=5.8m/s p=44.8hPa t=-58.0C h=4.4% 401.40MHz Type=RS41-SGP Details on http://radiosondy.info
WA9ONY-10U22208582022-12-06 00:27:3644.6217-122.9391655221066Clb=5.8m/s p=44.9hPa t=-58.2C h=4.6% 401.40MHz Type=RS41-SGP batt=2.7V Join https://groups.io/g/Balloons
WA9ONY-14U22208582022-12-06 00:27:3544.6217-122.9391655221066Clb=5.8m/s p=44.9hPa t=-58.2C h=4.6% 401.40MHz Type=RS41-SGP Join https://groups.io/g/Balloons
WA9ONY-14U22208582022-12-06 00:27:1644.6229-122.941615421014Clb=4.8m/s p=45.3hPa t=-57.9C h=4.5% 401.40MHz Type=RS41-SGP batt=2.6V Join https://groups.io/g/Balloons
KJ7NUX-14U22208582022-12-06 00:27:1244.6232-122.941675221004Clb=4.1m/s p=45.4hPa t=-57.8C h=4.5% 401.40MHz Type=RS41-SGP Details on http://radiosondy.info
W7BDB-13U22208582022-12-06 00:27:1044.6233-122.941675220999Clb=5.1m/s p=45.4hPa t=-57.8C h=4.5% 401.40MHz Type=RS41-SGP batt=2.7V Details on http://radiosondy.info
WA9ONY-14U22208582022-12-06 00:26:5444.6242-122.941485220963Clb=5.4m/s p=45.7hPa t=-57.5C h=4.4% 401.40MHz Type=RS41-SGP Join https://groups.io/g/Balloons
KG7GDB-12U22208582022-12-06 00:26:4944.6246-122.9411505020943Clb=4.1m/s t=-57.4C h=1.1% p=45.9hPa 401.401 MHz Type=RS41-SGP ser=U2220858 Radiosonde
KE7WWCU22208582022-12-06 00:26:4744.6247-122.9411495220937Clb=6.9m/s t=-57.4C h=1.1% p=45.9hPa 401.374 MHz Type=RS41-SGP ser=U2220858 Radiosonde
KJ7NUX-14U22208582022-12-06 00:26:4344.625-122.9411525020922Clb=5.0m/s p=46.0hPa t=-57.2C h=4.3% 401.40MHz Type=RS41-SGP Details on http://radiosondy.info
W7BDB-13U22208582022-12-06 00:26:4044.6252-122.9411525220918Clb=3.4m/s p=46.0hPa t=-57.2C h=4.3% 401.40MHz Type=RS41-SGP Details on http://radiosondy.info
WA9ONY-14U22208582022-12-06 00:26:3744.6253-122.9411505020913Clb=5.9m/s p=46.0hPa t=-57.1C h=4.4% 401.40MHz Type=RS41-SGP Join https://groups.io/g/Balloons
WA9ONY-14U22208582022-12-06 00:26:1744.6263-122.9421574820863Clb=5.4m/s p=46.4hPa t=-57.4C h=4.3% 401.40MHz Type=RS41-SGP batt=2.6V Join https://groups.io/g/Balloons
KJ7NUX-14U22208582022-12-06 00:26:1144.6268-122.9431434420843Clb=4.9m/s p=46.6hPa t=-57.3C h=4.4% 401.40MHz Type=RS41-SGP TxPastBurst=8h30m batt=2.7V Details on http://radiosondy.info
W7BDB-13U22208582022-12-06 00:26:0844.6269-122.9431404420838Clb=5.9m/s p=46.6hPa t=-57.3C h=4.3% 401.40MHz Type=RS41-SGP Details on http://radiosondy.info
WA9ONY-10U22208582022-12-06 00:25:5844.6273-122.9431344420813Clb=3.6m/s p=46.8hPa t=-57.1C h=4.3% 401.40MHz Type=RS41-SGP Join https://groups.io/g/Balloons
KG7GDB-12U22208582022-12-06 00:25:5044.6276-122.9441354620788Clb=5.0m/s t=-57.1C h=1.2% p=47.0hPa 401.401 MHz Type=RS41-SGP ser=U2220858 Radiosonde
KE7WWCU22208582022-12-06 00:25:4844.6277-122.9441344620783Clb=5.0m/s t=-57.1C h=1.1% p=47.0hPa 401.374 MHz Type=RS41-SGP ser=U2220858 Radiosonde
KJ7NUX-14U22208582022-12-06 00:25:4044.628-122.9441394620764Clb=5.7m/s p=47.2hPa t=-56.9C h=4.2% 401.40MHz Type=RS41-SGP Details on http://radiosondy.info
WA9ONY-14U22208582022-12-06 00:25:3944.628-122.9441394420764Clb=5.7m/s p=47.2hPa t=-56.9C h=4.2% 401.40MHz Type=RS41-SGP Join https://groups.io/g/Balloons
WA9ONY-10U22208582022-12-06 00:25:2044.6288-122.9451385020716Clb=4.0m/s p=47.5hPa t=-57.2C h=4.2% 401.40MHz Type=RS41-SGP Join https://groups.io/g/Balloons
W7BDB-13U22208582022-12-06 00:25:1044.6293-122.9461385220691Clb=4.0m/s p=47.7hPa t=-57.1C h=4.2% 401.40MHz Type=RS41-SGP Details on http://radiosondy.info
KJ7NUX-14U22208582022-12-06 00:25:0844.6294-122.9461375220686Clb=5.9m/s p=47.7hPa t=-57.1C h=4.1% 401.40MHz Type=RS41-SGP Details on http://radiosondy.info
WA9ONY-10U22208582022-12-06 00:25:0044.6297-122.9471335220666Clb=3.1m/s p=47.9hPa t=-57.3C h=4.2% 401.40MHz Type=RS41-SGP Join https://groups.io/g/Balloons
KG7GDB-12U22208582022-12-06 00:24:5044.6302-122.9471385620637Clb=6.0m/s t=-58.0C h=1.2% p=48.1hPa 401.401 MHz Type=RS41-SGP ser=U2220858 Radiosonde
KE7WWCU22208582022-12-06 00:24:4844.6303-122.9471385620632Clb=4.5m/s t=-58.0C h=1.2% p=48.1hPa 401.374 MHz Type=RS41-SGP ser=U2220858 Radiosonde
WA9ONY-14U22208582022-12-06 00:24:4144.6306-122.9481295020617Clb=4.4m/s p=48.2hPa t=-57.9C h=4.5% 401.40MHz Type=RS41-SGP Join https://groups.io/g/Balloons
W7BDB-13U22208582022-12-06 00:24:4044.6307-122.9481284620612Clb=5.1m/s p=48.3hPa t=-57.9C h=4.5% 401.40MHz Type=RS41-SGP Details on http://radiosondy.info
KJ7NUX-14U22208582022-12-06 00:24:3944.6308-122.9481294820608Clb=4.7m/s p=48.3hPa t=-57.9C h=4.5% 401.40MHz Type=RS41-SGP batt=2.7V Details on http://radiosondy.info
WA9ONY-10U22208582022-12-06 00:24:2144.6315-122.9491454420571Clb=4.7m/s p=48.6hPa t=-58.1C h=4.5% 401.40MHz Type=RS41-SGP Join https://groups.io/g/Balloons
W7BDB-12U22208582022-12-06 00:24:1644.632-122.951424620543Clb=4.8m/s t=-58.4C h=1.2% p=48.9hPa 401.399 MHz Type=RS41-SGP ser=U2220858 Radiosonde
W7BDB-13U22208582022-12-06 00:24:1044.632-122.951435220543Clb=4.7m/s p=48.8hPa t=-58.3C h=4.4% 401.40MHz Type=RS41-SGP batt=2.7V Details on http://radiosondy.info
KJ7NUX-14U22208582022-12-06 00:24:0744.6322-122.951485420533Clb=5.6m/s p=48.9hPa t=-58.4C h=4.3% 401.40MHz Type=RS41-SGP Details on http://radiosondy.info
WA9ONY-10U22208582022-12-06 00:24:0344.6324-122.951535420523Clb=5.1m/s p=49.0hPa t=-58.4C h=4.5% 401.40MHz Type=RS41-SGP Join https://groups.io/g/Balloons
WA9ONY-14U22208582022-12-06 00:24:0244.6324-122.951535420523Clb=5.1m/s p=49.0hPa t=-58.4C h=4.5% 401.40MHz Type=RS41-SGP Join https://groups.io/g/Balloons
KG7GDB-12U22208582022-12-06 00:23:5144.6332-122.9511395620488Clb=6.0m/s t=-58.3C h=1.2% p=49.3hPa 401.401 MHz Type=RS41-SGP ser=U2220858 Radiosonde
KE7WWCU22208582022-12-06 00:23:4944.6333-122.9511375620483Clb=4.1m/s t=-58.3C h=1.2% p=49.3hPa 401.374 MHz Type=RS41-SGP ser=U2220858 Radiosonde
WA9ONY-14U22208582022-12-06 00:23:4444.6335-122.9511355020473Clb=5.2m/s p=49.3hPa t=-58.5C h=4.4% 401.40MHz Type=RS41-SGP Join https://groups.io/g/Balloons
W7BDB-13U22208582022-12-06 00:23:4344.6336-122.9511374820468Clb=4.2m/s p=49.4hPa t=-58.6C h=4.4% 401.40MHz Type=RS41-SGP Details on http://radiosondy.info
KJ7NUX-14U22208582022-12-06 00:23:3744.6339-122.9521514620453Clb=5.1m/s p=49.5hPa t=-59.0C h=4.5% 401.40MHz Type=RS41-SGP Details on http://radiosondy.info
WA9ONY-14U22208582022-12-06 00:23:2544.6345-122.9521504320423Clb=4.6m/s p=49.7hPa t=-59.4C h=4.7% 401.40MHz Type=RS41-SGP batt=2.7V Join https://groups.io/g/Balloons
W7BDB-13U22208582022-12-06 00:23:1444.6351-122.9531443720391Clb=5.3m/s p=50.0hPa t=-59.4C h=4.7% 401.40MHz Type=RS41-SGP Details on http://radiosondy.info
KJ7NUX-14U22208582022-12-06 00:23:0744.6354-122.9531443320369Clb=6.4m/s p=50.2hPa t=-59.5C h=4.7% 401.40MHz Type=RS41-SGP batt=2.6V Details on http://radiosondy.info
WA9ONY-10U22208582022-12-06 00:23:0644.6354-122.9531443320368Clb=6.4m/s p=50.2hPa t=-59.5C h=4.7% 401.40MHz Type=RS41-SGP Join https://groups.io/g/Balloons
KG7GDB-12U22208582022-12-06 00:22:5244.6359-122.9541342820324Clb=6.6m/s t=-59.7C h=1.3% p=50.6hPa 401.401 MHz Type=RS41-SGP ser=U2220858 Radiosonde
KE7WWCU22208582022-12-06 00:22:5044.636-122.9541282620318Clb=5.8m/s t=-59.7C h=1.4% p=50.6hPa 401.374 MHz Type=RS41-SGP ser=U2220858 Radiosonde
WA9ONY-10U22208582022-12-06 00:22:4844.636-122.9541283520314Clb=3.8m/s p=50.6hPa t=-59.7C h=4.9% 401.40MHz Type=RS41-SGP TxPastBurst=8h30m batt=2.6V Join https://groups.io/g/Balloons
W7BDB-13U22208582022-12-06 00:22:4644.6361-122.9541283320309Clb=6.0m/s p=50.6hPa t=-59.7C h=4.8% 401.40MHz Type=RS41-SGP batt=2.6V Details on http://radiosondy.info
KJ7NUX-14U22208582022-12-06 00:22:3744.6363-122.9541323520280Clb=6.3m/s p=50.9hPa t=-59.7C h=4.9% 401.40MHz Type=RS41-SGP Details on http://radiosondy.info
WA9ONY-10U22208582022-12-06 00:22:2744.6366-122.9551453120259Clb=4.8m/s p=51.1hPa t=-59.7C h=4.9% 401.40MHz Type=RS41-SGP Join https://groups.io/g/Balloons
W7BDB-13U22208582022-12-06 00:22:1644.637-122.9551333320227Clb=5.9m/s p=51.3hPa t=-59.6C h=4.7% 401.40MHz Type=RS41-SGP Details on http://radiosondy.info
WA9ONY-14U22208582022-12-06 00:22:0944.6372-122.9551333120206Clb=4.2m/s p=51.5hPa t=-59.5C h=4.8% 401.40MHz Type=RS41-SGP Join https://groups.io/g/Balloons
KJ7NUX-14U22208582022-12-06 00:22:0544.6373-122.9561333320194Clb=4.9m/s p=51.6hPa t=-59.6C h=5.0% 401.40MHz Type=RS41-SGP Details on http://radiosondy.info
KG7GDB-12U22208582022-12-06 00:21:5344.6377-122.9561282420156Clb=6.1m/s t=-59.8C h=1.4% p=51.9hPa 401.401 MHz Type=RS41-SGP ser=U2220858 Radiosonde
WA9ONY-14U22208582022-12-06 00:21:5044.6377-122.9561323520151Clb=5.6m/s p=51.9hPa t=-59.7C h=5.0% 401.40MHz Type=RS41-SGP Join https://groups.io/g/Balloons
W7BDB-13U22208582022-12-06 00:21:4744.6378-122.9561273720140Clb=6.1m/s p=52.0hPa t=-59.6C h=5.0% 401.40MHz Type=RS41-SGP Details on http://radiosondy.info
KJ7NUX-14U22208582022-12-06 00:21:3744.6382-122.9571243920106Clb=6.2m/s p=52.3hPa t=-59.4C h=4.9% 401.40MHz Type=RS41-SGP TxPastBurst=8h30m batt=2.6V Details on http://radiosondy.info
WA9ONY-14U22208582022-12-06 00:21:3244.6383-122.9571243720097Clb=4.8m/s p=52.4hPa t=-59.3C h=4.8% 401.40MHz Type=RS41-SGP batt=2.7V Join https://groups.io/g/Balloons
W7BDB-13U22208582022-12-06 00:21:1844.6387-122.9581324320052Clb=4.9m/s p=52.8hPa t=-59.0C h=4.7% 401.40MHz Type=RS41-SGP TxPastBurst=8h30m batt=2.7V Details on http://radiosondy.info
WA9ONY-10U22208582022-12-06 00:21:1444.6388-122.9581284420042Clb=5.9m/s p=52.8hPa t=-59.0C h=4.7% 401.40MHz Type=RS41-SGP Join https://groups.io/g/Balloons
K6GDP-11U22208582022-12-06 00:21:1244.639-122.9581304320031Clb=5.1m/s t=-58.9C h=1.3% p=53.0hPa 401.400 MHz Type=RS41-SGP ser=U2220858 Radiosonde
KJ7NUX-14U22208582022-12-06 00:21:0744.6391-122.9591354420020Clb=4.7m/s p=53.0hPa t=-58.8C h=4.7% 401.40MHz Type=RS41-SGP Details on http://radiosondy.info
KG7GDB-12U22208582022-12-06 00:20:5644.6396-122.9591324319987Clb=5.4m/s t=-59.0C h=1.3% p=53.3hPa 401.401 MHz Type=RS41-SGP ser=U2220858 Radiosonde
WA9ONY-14U22208582022-12-06 00:20:5544.6396-122.9591334419987Clb=5.4m/s p=53.3hPa t=-58.9C h=4.7% 401.40MHz Type=RS41-SGP Join https://groups.io/g/Balloons
KE7WWCU22208582022-12-06 00:20:5444.6397-122.961303919976Clb=5.5m/s t=-59.0C h=1.3% p=53.5hPa 401.374 MHz Type=RS41-SGP ser=U2220858 Radiosonde
W7BDB-13U22208582022-12-06 00:20:5044.6398-122.961324819971Clb=4.3m/s p=53.4hPa t=-58.9C h=4.8% 401.40MHz Type=RS41-SGP Details on http://radiosondy.info
WA9ONY-10U22208582022-12-06 00:20:3744.6403-122.9611375019931Clb=6.8m/s p=53.8hPa t=-58.7C h=4.8% 401.40MHz Type=RS41-SGP Join https://groups.io/g/Balloons
W7BDB-13U22208582022-12-06 00:20:1944.6412-122.9621374819879Clb=6.1m/s p=54.2hPa t=-58.3C h=4.6% 401.40MHz Type=RS41-SGP Details on http://radiosondy.info
WA9ONY-14U22208582022-12-06 00:20:1744.6412-122.9621364619874Clb=4.9m/s p=54.2hPa t=-58.2C h=4.6% 401.40MHz Type=RS41-SGP Join https://groups.io/g/Balloons
K6GDP-11U22208582022-12-06 00:20:1244.6415-122.9621444419856Clb=4.5m/s t=-58.3C h=1.3% p=54.5hPa 401.400 MHz Type=RS41-SGP ser=U2220858 Radiosonde
KJ7NUX-14U22208582022-12-06 00:20:0744.6418-122.9621465219839Clb=5.5m/s p=54.5hPa t=-58.3C h=4.6% 401.40MHz Type=RS41-SGP batt=2.7V Details on http://radiosondy.info
WA9ONY-10U22208582022-12-06 00:19:5644.6422-122.9631425219814Clb=6.9m/s p=54.7hPa t=-58.3C h=4.6% 401.40MHz Type=RS41-SGP TxPastBurst=8h30m batt=2.7V Join https://groups.io/g/Balloons
KG7GDB-12U22208582022-12-06 00:19:5544.6423-122.9631404819807Clb=5.5m/s t=-58.3C h=1.3% p=54.9hPa 401.401 MHz Type=RS41-SGP ser=U2220858 Radiosonde
KE7WWCU22208582022-12-06 00:19:5344.6424-122.9631414819802Clb=4.9m/s t=-58.3C h=1.3% p=54.9hPa 401.374 MHz Type=RS41-SGP ser=U2220858 Radiosonde
W7BDB-13U22208582022-12-06 00:19:4744.6427-122.9631495719785Clb=5.5m/s p=55.0hPa t=-58.3C h=4.6% 401.40MHz Type=RS41-SGP batt=2.7V Details on http://radiosondy.info
WA9ONY-14U22208582022-12-06 00:19:3944.6433-122.9641555919755Clb=5.3m/s p=55.3hPa t=-58.5C h=4.6% 401.40MHz Type=RS41-SGP TxPastBurst=8h30m batt=2.7V Join https://groups.io/g/Balloons
KJ7NUX-14U22208582022-12-06 00:19:3644.6435-122.9641546319743Clb=4.7m/s p=55.4hPa t=-58.7C h=4.7% 401.40MHz Type=RS41-SGP Details on http://radiosondy.info
WA9ONY-14U22208582022-12-06 00:19:2044.6445-122.9651486919700Clb=5.8m/s p=55.8hPa t=-58.8C h=4.7% 401.40MHz Type=RS41-SGP Join https://groups.io/g/Balloons
K6GDP-11U22208582022-12-06 00:19:1444.6451-122.9651506919678Clb=6.6m/s t=-58.8C h=1.4% p=56.0hPa 401.400 MHz Type=RS41-SGP ser=U2220858 Radiosonde
KJ7NUX-14U22208582022-12-06 00:19:0744.6457-122.9661506719657Clb=3.5m/s p=56.1hPa t=-58.6C h=4.8% 401.40MHz Type=RS41-SGP Details on http://radiosondy.info
WA9ONY-10U22208582022-12-06 00:19:0244.646-122.9661456719647Clb=5.7m/s p=56.2hPa t=-58.7C h=4.7% 401.40MHz Type=RS41-SGP batt=2.6V Join https://groups.io/g/Balloons
KG7GDB-12U22208582022-12-06 00:18:5944.6462-122.9661366319636Clb=5.8m/s t=-58.8C h=1.4% p=56.4hPa 401.401 MHz Type=RS41-SGP ser=U2220858 Radiosonde
KE7WWCU22208582022-12-06 00:18:5744.6464-122.9661366719631Clb=5.5m/s t=-58.8C h=1.3% p=56.4hPa 401.374 MHz Type=RS41-SGP ser=U2220858 Radiosonde
W7BDB-13U22208582022-12-06 00:18:5344.6466-122.9671376719621Clb=5.5m/s p=56.5hPa t=-58.7C h=4.4% 401.40MHz Type=RS41-SGP Details on http://radiosondy.info
WA9ONY-14U22208582022-12-06 00:18:4444.6473-122.9671486719596Clb=3.4m/s p=56.7hPa t=-58.6C h=4.4% 401.40MHz Type=RS41-SGP batt=2.6V Join https://groups.io/g/Balloons
KJ7NUX-14U22208582022-12-06 00:18:3844.6478-122.9681406519577Clb=5.2m/s p=56.9hPa t=-58.9C h=4.5% 401.40MHz Type=RS41-SGP batt=2.6V Details on http://radiosondy.info
WA9ONY-14U22208582022-12-06 00:18:2644.6485-122.9691316319548Clb=5.7m/s p=57.1hPa t=-59.8C h=4.8% 401.40MHz Type=RS41-SGP Join https://groups.io/g/Balloons
W7BDB-13U22208582022-12-06 00:18:2544.6486-122.9691345919543Clb=4.0m/s p=57.2hPa t=-60.0C h=4.9% 401.40MHz Type=RS41-SGP batt=2.6V Details on http://radiosondy.info
K6GDP-11U22208582022-12-06 00:18:1944.6491-122.971435919526Clb=4.4m/s t=-60.3C h=1.5% p=57.4hPa 401.400 MHz Type=RS41-SGP ser=U2220858 Radiosonde
KJ7NUX-14U22208582022-12-06 00:18:0944.6496-122.971285219500Clb=5.6m/s p=57.6hPa t=-60.2C h=5.0% 401.40MHz Type=RS41-SGP Details on http://radiosondy.info
WA9ONY-14U22208582022-12-06 00:18:0844.6496-122.971285419500Clb=5.6m/s p=57.6hPa t=-60.2C h=5.0% 401.40MHz Type=RS41-SGP Join https://groups.io/g/Balloons
KG7GDB-12U22208582022-12-06 00:18:0344.6498-122.9711215619484Clb=4.4m/s t=-60.4C h=1.5% p=57.8hPa 401.401 MHz Type=RS41-SGP ser=U2220858 Radiosonde
KE7WWCU22208582022-12-06 00:18:0044.6499-122.9711215619480Clb=3.8m/s t=-60.4C h=1.5% p=57.8hPa 401.374 MHz Type=RS41-SGP ser=U2220858 Radiosonde
W7BDB-13U22208582022-12-06 00:17:5544.6501-122.9711265419467Clb=3.5m/s p=57.9hPa t=-60.5C h=5.1% 401.40MHz Type=RS41-SGP Details on http://radiosondy.info
WA9ONY-10U22208582022-12-06 00:17:4944.6504-122.9721255219453Clb=4.1m/s p=58.0hPa t=-60.5C h=5.0% 401.40MHz Type=RS41-SGP Join https://groups.io/g/Balloons
KJ7NUX-14U22208582022-12-06 00:17:3944.6508-122.9731225619424Clb=4.7m/s p=58.3hPa t=-60.6C h=5.2% 401.40MHz Type=RS41-SGP Details on http://radiosondy.info
WA9ONY-10U22208582022-12-06 00:17:3044.651-122.9731115719405Clb=5.1m/s p=58.5hPa t=-60.7C h=5.1% 401.40MHz Type=RS41-SGP Join https://groups.io/g/Balloons
W7BDB-13U22208582022-12-06 00:17:2444.6512-122.9741145419391Clb=4.2m/s p=58.6hPa t=-60.9C h=5.2% 401.40MHz Type=RS41-SGP Details on http://radiosondy.info
K6GDP-11U22208582022-12-06 00:17:1944.6513-122.9751105219378Clb=3.3m/s t=-273.0C h=-1.0% p=58.8hPa 401.400 MHz Type=RS41-SGP ser=U2220858 Radiosonde
WA9ONY-14U22208582022-12-06 00:17:1044.6516-122.9751125019358Clb=5.6m/s p=58.9hPa t=-61.1C h=5.3% 401.40MHz Type=RS41-SGP Join https://groups.io/g/Balloons
KJ7NUX-14U22208582022-12-06 00:17:0744.6516-122.9761124819349Clb=4.2m/s p=59.0hPa t=-61.1C h=5.3% 401.40MHz Type=RS41-SGP TxPastBurst=8h30m batt=2.6V Details on http://radiosondy.info
KG7GDB-12U22208582022-12-06 00:17:0244.6518-122.9761175019338Clb=4.7m/s t=-61.1C h=1.6% p=59.1hPa 401.401 MHz Type=RS41-SGP ser=U2220858 Radiosonde
KE7WWCU22208582022-12-06 00:17:0044.6518-122.9761184619333Clb=5.0m/s t=-61.1C h=1.7% p=59.2hPa 401.374 MHz Type=RS41-SGP ser=U2220858 Radiosonde
W7BDB-13U22208582022-12-06 00:16:5444.652-122.9771184319315Clb=5.5m/s p=59.3hPa t=-61.1C h=5.4% 401.40MHz Type=RS41-SGP TxPastBurst=8h30m batt=2.6V Details on http://radiosondy.info
WA9ONY-10U22208582022-12-06 00:16:5144.6521-122.9771184619310Clb=4.7m/s p=59.4hPa t=-61.0C h=5.4% 401.40MHz Type=RS41-SGP Join https://groups.io/g/Balloons
WA9ONY-14U22208582022-12-06 00:16:5044.6521-122.9771184619310Clb=4.7m/s p=59.4hPa t=-61.0C h=5.4% 401.40MHz Type=RS41-SGP TxPastBurst=8h30m batt=2.7V Join https://groups.io/g/Balloons
KJ7NUX-14U22208582022-12-06 00:16:3744.6525-122.9781143919271Clb=5.0m/s p=59.7hPa t=-60.8C h=5.4% 401.40MHz Type=RS41-SGP Details on http://radiosondy.info
WA9ONY-14U22208582022-12-06 00:16:3344.6525-122.9781173919261Clb=5.2m/s p=59.8hPa t=-60.8C h=5.3% 401.40MHz Type=RS41-SGP Join https://groups.io/g/Balloons
W7BDB-12U22208582022-12-06 00:16:3144.6528-122.9791193719237Clb=4.1m/s t=-60.6C h=1.6% p=60.1hPa 401.399 MHz Type=RS41-SGP ser=U2220858 Radiosonde
W7BDB-13U22208582022-12-06 00:16:2444.6528-122.9791203719237Clb=4.1m/s p=60.1hPa t=-60.6C h=5.3% 401.40MHz Type=RS41-SGP Details on http://radiosondy.info
K6GDP-11U22208582022-12-06 00:16:2144.6529-122.9791244119226Clb=5.2m/s t=-273.0C h=-1.0% p=-1.0hPa 401.400 MHz Type=RS41 ser=U2220858 Radiosonde
WA9ONY-14U22208582022-12-06 00:16:1544.653-122.9791183519212Clb=3.9m/s p=60.3hPa t=-60.3C h=5.2% 401.40MHz Type=RS41-SGP Join https://groups.io/g/Balloons
WA9ONY-10U22208582022-12-06 00:16:1444.653-122.9791183519212Clb=3.9m/s p=60.3hPa t=-60.3C h=5.2% 401.40MHz Type=RS41-SGP batt=2.6V Join https://groups.io/g/Balloons
KJ7NUX-14U22208582022-12-06 00:16:0744.6532-122.981163519191Clb=6.3m/s p=60.5hPa t=-60.2C h=5.2% 401.40MHz Type=RS41-SGP Details on http://radiosondy.info
KG7GDB-12U22208582022-12-06 00:16:0544.6532-122.981113319186Clb=5.1m/s t=-60.2C h=1.6% p=60.6hPa 401.401 MHz Type=RS41-SGP ser=U2220858 Radiosonde
KE7WWCU22208582022-12-06 00:16:0444.6533-122.981123119181Clb=4.0m/s t=-60.2C h=1.6% p=60.6hPa 401.374 MHz Type=RS41-SGP ser=U2220858 Radiosonde
WA9ONY-14U22208582022-12-06 00:15:5944.6534-122.9811163519161Clb=6.1m/s p=60.8hPa t=-60.2C h=5.1% 401.40MHz Type=RS41-SGP batt=2.7V Join https://groups.io/g/Balloons
W7BDB-13U22208582022-12-06 00:15:5844.6535-122.9811153319155Clb=4.7m/s p=60.9hPa t=-60.2C h=5.0% 401.40MHz Type=RS41-SGP Details on http://radiosondy.info
KJ7NUX-14U22208582022-12-06 00:15:4944.6538-122.9821183119108Clb=5.6m/s p=61.3hPa t=-60.3C h=5.1% 401.40MHz Type=RS41-SGP batt=2.6V Details on http://radiosondy.info
W7BDB-13U22208582022-12-06 00:15:4444.654-122.9821203119072Clb=4.9m/s p=61.6hPa t=-60.0C h=4.9% 401.40MHz Type=RS41-SGP batt=2.7V Details on http://radiosondy.info
WA9ONY-14U22208582022-12-06 00:15:3944.6542-122.9831283319056Clb=4.7m/s p=61.8hPa t=-60.0C h=5.1% 401.40MHz Type=RS41-SGP Join https://groups.io/g/Balloons
KJ7NUX-14U22208582022-12-06 00:15:3844.6545-122.9831393519023Clb=4.9m/s p=62.1hPa t=-60.2C h=5.1% 401.40MHz Type=RS41-SGP Details on http://radiosondy.info
KG7GDB-12U22208582022-12-06 00:15:3744.6545-122.9831383319023Clb=5.0m/s t=-60.2C h=1.5% p=62.2hPa 401.401 MHz Type=RS41-SGP ser=U2220858 Radiosonde
KE7WWCU22208582022-12-06 00:15:3644.6546-122.9831353119012Clb=5.0m/s t=-60.3C h=1.5% p=62.3hPa 401.374 MHz Type=RS41-SGP ser=U2220858 Radiosonde
WA9ONY-14U22208582022-12-06 00:15:3344.6547-122.9831393519001Clb=6.5m/s p=62.3hPa t=-60.3C h=5.1% 401.40MHz Type=RS41-SGP batt=2.7V Join https://groups.io/g/Balloons
W7BDB-13U22208582022-12-06 00:15:2944.6549-122.9841323718984Clb=5.6m/s p=62.5hPa t=-60.2C h=5.1% 401.40MHz Type=RS41-SGP Details on http://radiosondy.info
WA9ONY-14U22208582022-12-06 00:15:2344.6554-122.9841563918946Clb=5.9m/s p=62.9hPa t=-60.3C h=5.1% 401.40MHz Type=RS41-SGP Join https://groups.io/g/Balloons
KJ7NUX-14U22208582022-12-06 00:15:1944.6558-122.9841534118921Clb=4.7m/s p=63.2hPa t=-60.4C h=5.3% 401.40MHz Type=RS41-SGP Details on http://radiosondy.info
W7BDB-13U22208582022-12-06 00:15:1344.6562-122.9851434118893Clb=5.0m/s p=63.4hPa t=-60.2C h=5.2% 401.40MHz Type=RS41-SGP Details on http://radiosondy.info
WA9ONY-14U22208582022-12-06 00:15:1144.6563-122.9851434318888Clb=4.5m/s p=63.5hPa t=-60.1C h=5.2% 401.40MHz Type=RS41-SGP Join https://groups.io/g/Balloons
KG7GDB-12U22208582022-12-06 00:15:0344.6568-122.9851374318848Clb=6.0m/s t=-60.1C h=1.5% p=64.0hPa 401.401 MHz Type=RS41-SGP ser=U2220858 Radiosonde
KE7WWCU22208582022-12-06 00:15:0244.657-122.9861374118838Clb=5.9m/s t=-60.1C h=1.5% p=64.0hPa 401.374 MHz Type=RS41-SGP ser=U2220858 Radiosonde
KJ7NUX-14U22208582022-12-06 00:15:0044.6571-122.9861364118832Clb=5.7m/s p=64.1hPa t=-60.0C h=5.0% 401.40MHz Type=RS41-SGP batt=2.7V Details on http://radiosondy.info
WA9ONY-10U22208582022-12-06 00:14:5944.6571-122.9861363918831Clb=5.7m/s p=64.1hPa t=-60.0C h=5.0% 401.40MHz Type=RS41-SGP Join https://groups.io/g/Balloons
W7BDB-13U22208582022-12-06 00:14:5444.6574-122.9861384318805Clb=6.0m/s p=64.4hPa t=-60.0C h=5.1% 401.40MHz Type=RS41-SGP batt=2.7V Details on http://radiosondy.info
WA9ONY-14U22208582022-12-06 00:14:4944.6578-122.9871434318778Clb=5.3m/s p=64.6hPa t=-60.0C h=5.1% 401.40MHz Type=RS41-SGP Join https://groups.io/g/Balloons
KJ7NUX-14U22208582022-12-06 00:14:4444.6584-122.9871374818732Clb=6.6m/s p=65.1hPa t=-59.9C h=4.9% 401.40MHz Type=RS41-SGP Details on http://radiosondy.info
KG7GDB-12U22208582022-12-06 00:14:4344.6593-122.9891304618669Clb=5.3m/s t=-60.2C h=1.5% p=65.8hPa 401.401 MHz Type=RS41-SGP ser=U2220858 Radiosonde
KE7WWCU22208582022-12-06 00:14:4244.6594-122.9891294618664Clb=5.3m/s t=-60.2C h=1.5% p=65.9hPa 401.374 MHz Type=RS41-SGP ser=U2220858 Radiosonde
WA9ONY-14U22208582022-12-06 00:14:4144.6594-122.9891305218664Clb=5.2m/s p=65.8hPa t=-60.2C h=5.1% 401.40MHz Type=RS41-SGP batt=2.6V Join https://groups.io/g/Balloons
KJ7NUX-14U22208582022-12-06 00:14:4044.6597-122.9891345418641Clb=6.0m/s p=66.1hPa t=-60.1C h=5.2% 401.40MHz Type=RS41-SGP Details on http://radiosondy.info
WA9ONY-14U22208582022-12-06 00:14:3844.6603-122.991375618608Clb=4.9m/s p=66.4hPa t=-60.2C h=5.1% 401.40MHz Type=RS41-SGP Join https://groups.io/g/Balloons
W7BDB-12U22208582022-12-06 00:14:3744.6611-122.9911305718559Clb=4.1m/s t=-59.9C h=1.5% p=67.0hPa 401.399 MHz Type=RS41-SGP ser=U2220858 Radiosonde
WA9ONY-14U22208582022-12-06 00:14:3444.6612-122.9911335918554Clb=6.5m/s p=67.0hPa t=-59.8C h=5.1% 401.40MHz Type=RS41-SGP Join https://groups.io/g/Balloons
W7BDB-13U22208582022-12-06 00:14:3344.6613-122.9921325918548Clb=4.6m/s p=67.0hPa t=-59.7C h=5.1% 401.40MHz Type=RS41-SGP TxPastBurst=8h30m batt=2.7V Details on http://radiosondy.info
KG7GDB-12U22208582022-12-06 00:14:2444.6622-122.9931325918501Clb=5.6m/s t=-59.6C h=1.5% p=67.6hPa 401.401 MHz Type=RS41-SGP ser=U2220858 Radiosonde
WA9ONY-14U22208582022-12-06 00:14:2144.6622-122.9931335918501Clb=5.6m/s p=67.6hPa t=-59.6C h=4.9% 401.40MHz Type=RS41-SGP batt=2.6V Join https://groups.io/g/Balloons
KJ7NUX-14U22208582022-12-06 00:14:1644.6628-122.9941316318471Clb=5.4m/s p=67.9hPa t=-59.4C h=5.0% 401.40MHz Type=RS41-SGP Details on http://radiosondy.info
WA9ONY-14U22208582022-12-06 00:14:1244.6632-122.9951316518450Clb=4.7m/s p=68.0hPa t=-59.2C h=4.8% 401.40MHz Type=RS41-SGP Join https://groups.io/g/Balloons
WA9ONY-14U22208582022-12-06 00:14:0244.6642-122.9961296918400Clb=6.1m/s p=68.7hPa t=-59.1C h=5.0% 401.40MHz Type=RS41-SGP Join https://groups.io/g/Balloons
W7BDB-13U22208582022-12-06 00:14:0144.6644-122.9971296918390Clb=5.5m/s p=68.8hPa t=-59.1C h=4.9% 401.40MHz Type=RS41-SGP Details on http://radiosondy.info
WA9ONY-10U22208582022-12-06 00:13:5844.6653-122.9981346718351Clb=3.9m/s p=69.2hPa t=-59.0C h=4.9% 401.40MHz Type=RS41-SGP Join https://groups.io/g/Balloons
KJ7NUX-14U22208582022-12-06 00:13:5644.6661-1231166318311Clb=3.9m/s p=69.6hPa t=-58.6C h=4.9% 401.40MHz Type=RS41-SGP batt=2.7V Details on http://radiosondy.info
WA9ONY-14U22208582022-12-06 00:13:5344.6672-123.0021226118254Clb=4.3m/s p=70.2hPa t=-58.2C h=4.7% 401.40MHz Type=RS41-SGP Join https://groups.io/g/Balloons
KJ7NUX-14U22208582022-12-06 00:13:5244.6675-123.0031265918235Clb=5.3m/s p=70.5hPa t=-58.1C h=4.7% 401.40MHz Type=RS41-SGP Details on http://radiosondy.info
W7BDB-13U22208582022-12-06 00:13:5144.6675-123.0031265918235Clb=5.3m/s p=70.5hPa t=-58.1C h=4.7% 401.40MHz Type=RS41-SGP Details on http://radiosondy.info
WA9ONY-14U22208582022-12-06 00:13:5044.6681-123.0041295718208Clb=5.6m/s p=70.8hPa t=-57.8C h=4.8% 401.40MHz Type=RS41-SGP batt=2.6V Join https://groups.io/g/Balloons
KG7GDB-12U22208582022-12-06 00:13:4944.6682-123.0041245918197Clb=4.6m/s t=-57.8C h=1.4% p=70.9hPa 401.401 MHz Type=RS41-SGP ser=U2220858 Radiosonde
W7BDB-13U22208582022-12-06 00:13:4544.6688-123.0051235918158Clb=5.5m/s p=71.3hPa t=-57.4C h=4.4% 401.40MHz Type=RS41-SGP Details on http://radiosondy.info
WA9ONY-14U22208582022-12-06 00:13:4444.6696-123.0071205618110Clb=6.0m/s p=71.9hPa t=-57.2C h=4.5% 401.40MHz Type=RS41-SGP Join https://groups.io/g/Balloons
WA9ONY-14U22208582022-12-06 00:13:4344.6704-123.0091355618058Clb=4.3m/s p=72.4hPa t=-56.9C h=4.3% 401.40MHz Type=RS41-SGP batt=2.6V Join https://groups.io/g/Balloons
KG7GDB-12U22208582022-12-06 00:13:4244.6707-123.0091375418045Clb=4.4m/s t=-57.1C h=1.4% p=72.6hPa 401.401 MHz Type=RS41-SGP ser=U2220858 Radiosonde
WA9ONY-14U22208582022-12-06 00:13:4044.6714-123.011335918013Clb=4.9m/s p=72.9hPa t=-57.4C h=4.5% 401.40MHz Type=RS41-SGP Join https://groups.io/g/Balloons
W7BDB-13U22208582022-12-06 00:13:3944.6733-123.0121416317942Clb=4.1m/s p=73.8hPa t=-58.5C h=4.6% 401.40MHz Type=RS41-SGP Details on http://radiosondy.info
KG7GDB-12U22208582022-12-06 00:13:3844.6743-123.0141385617900Clb=5.2m/s t=-59.2C h=1.6% p=74.3hPa 401.401 MHz Type=RS41-SGP ser=U2220858 Radiosonde
W7BDB-13U22208582022-12-06 00:13:3744.675-123.0141405917872Clb=5.1m/s p=74.6hPa t=-59.7C h=5.0% 401.40MHz Type=RS41-SGP TxPastBurst=8h30m batt=2.6V Details on http://radiosondy.info
W7BDB-13U22208582022-12-06 00:13:3644.6769-123.0171446317789Clb=5.1m/s p=75.6hPa t=-60.1C h=5.2% 401.40MHz Type=RS41-SGP Details on http://radiosondy.info
WA9ONY-14U22208582022-12-06 00:13:3544.6783-123.0181385717727Clb=6.0m/s p=76.4hPa t=-60.2C h=5.3% 401.40MHz Type=RS41-SGP Join https://groups.io/g/Balloons
WA9ONY-14U22208582022-12-06 00:13:3444.6794-123.021375017674Clb=5.6m/s p=77.0hPa t=-59.9C h=5.2% 401.40MHz Type=RS41-SGP Join https://groups.io/g/Balloons
W7BDB-13U22208582022-12-06 00:13:2344.6803-123.0211474617619Clb=5.6m/s p=77.7hPa t=-59.9C h=5.2% 401.40MHz Type=RS41-SGP batt=2.6V Details on http://radiosondy.info
KJ7NUX-14U22208582022-12-06 00:13:1844.6807-123.0211414617596Clb=5.1m/s p=78.0hPa t=-59.7C h=5.2% 401.40MHz Type=RS41-SGP batt=2.7V Details on http://radiosondy.info
KE7WWCU22208582022-12-06 00:13:1544.6811-123.0221394617568Clb=5.3m/s t=-59.6C h=1.6% p=78.4hPa 401.374 MHz Type=RS41-SGP ser=U2220858 Radiosonde
WA9ONY-14U22208582022-12-06 00:13:1244.6812-123.0221414617563Clb=5.1m/s p=78.4hPa t=-59.6C h=5.2% 401.40MHz Type=RS41-SGP Join https://groups.io/g/Balloons
W7BDB-13U22208582022-12-06 00:13:0644.6817-123.0221424817535Clb=5.4m/s p=78.7hPa t=-59.4C h=5.1% 401.40MHz Type=RS41-SGP Details on http://radiosondy.info
KJ7NUX-14U22208582022-12-06 00:13:0244.6821-123.0231425017508Clb=5.9m/s p=79.0hPa t=-59.3C h=5.0% 401.40MHz Type=RS41-SGP Details on http://radiosondy.info
WA9ONY-14U22208582022-12-06 00:13:0144.6821-123.0231424817508Clb=5.9m/s p=79.0hPa t=-59.3C h=5.0% 401.40MHz Type=RS41-SGP Join https://groups.io/g/Balloons
W7BDB-13U22208582022-12-06 00:13:0044.6831-123.0241475217452Clb=6.0m/s p=79.7hPa t=-59.1C h=5.1% 401.40MHz Type=RS41-SGP Details on http://radiosondy.info
W7BDB-13U22208582022-12-06 00:12:5944.6847-123.0261375217364Clb=5.4m/s p=80.9hPa t=-58.8C h=4.8% 401.40MHz Type=RS41-SGP batt=2.6V Details on http://radiosondy.info
KG7GDB-12U22208582022-12-06 00:12:5844.6866-123.0291224817236Clb=4.7m/s t=-58.4C h=1.5% p=82.6hPa 401.401 MHz Type=RS41-SGP ser=U2220858 Radiosonde
W7BDB-12U22208582022-12-06 00:12:5744.6878-123.0321174817151Clb=4.7m/s t=-57.7C h=1.5% p=83.7hPa 401.399 MHz Type=RS41-SGP ser=U2220858 Radiosonde
W7BDB-13U22208582022-12-06 00:12:5644.6883-123.0331325217115Clb=4.7m/s p=84.1hPa t=-57.4C h=4.6% 401.40MHz Type=RS41-SGP TxPastBurst=8h30m batt=2.7V Details on http://radiosondy.info
WA9ONY-10U22208582022-12-06 00:12:5544.6894-123.0351255217036Clb=5.3m/s p=85.2hPa t=-56.7C h=4.4% 401.40MHz Type=RS41-SGP TxPastBurst=8h30m batt=2.7V Join https://groups.io/g/Balloons
KJ7NUX-14U22208582022-12-06 00:12:5244.69-123.0371215416989Clb=3.8m/s p=85.8hPa t=-56.6C h=4.5% 401.40MHz Type=RS41-SGP Details on http://radiosondy.info
W7BDB-13U22208582022-12-06 00:12:4744.6903-123.0371155616964Clb=4.3m/s p=86.2hPa t=-56.4C h=4.4% 401.40MHz Type=RS41-SGP Details on http://radiosondy.info
KG7GDB-12U22208582022-12-06 00:12:4244.6906-123.0381125716940Clb=4.0m/s t=-56.4C h=1.3% p=86.6hPa 401.401 MHz Type=RS41-SGP ser=U2220858 Radiosonde
WA9ONY-14U22208582022-12-06 00:12:4144.6906-123.0381135616939Clb=4.0m/s p=86.5hPa t=-56.4C h=4.2% 401.40MHz Type=RS41-SGP Join https://groups.io/g/Balloons
KE7WWCU22208582022-12-06 00:12:4044.6907-123.0381165616935Clb=5.3m/s t=-56.4C h=1.3% p=86.6hPa 401.374 MHz Type=RS41-SGP ser=U2220858 Radiosonde
KJ7NUX-14U22208582022-12-06 00:12:3244.691-123.0391225716911Clb=4.8m/s p=86.9hPa t=-56.2C h=4.2% 401.40MHz Type=RS41-SGP Details on http://radiosondy.info
WA9ONY-10U22208582022-12-06 00:12:2444.6913-123.041195716890Clb=4.6m/s p=87.2hPa t=-56.3C h=4.2% 401.40MHz Type=RS41-SGP batt=2.7V Join https://groups.io/g/Balloons
W7BDB-13U22208582022-12-06 00:12:2344.6914-123.041165616886Clb=4.0m/s p=87.2hPa t=-56.3C h=4.2% 401.40MHz Type=RS41-SGP batt=2.7V Details on http://radiosondy.info
K6GDP-11U22208582022-12-06 00:12:2244.6914-123.041145916882Clb=5.6m/s t=-56.4C h=1.4% p=87.3hPa 401.400 MHz Type=RS41-SGP ser=U2220858 Radiosonde
W7BDB-12U22208582022-12-06 00:12:1344.6918-123.0421225416848Clb=3.4m/s t=-56.6C h=1.4% p=87.8hPa 401.399 MHz Type=RS41-SGP ser=U2220858 Radiosonde
WA9ONY-14U22208582022-12-06 00:12:0544.6919-123.0421255216845Clb=4.9m/s p=87.8hPa t=-56.6C h=4.3% 401.40MHz Type=RS41-SGP batt=2.6V Join https://groups.io/g/Balloons
KJ7NUX-14U22208582022-12-06 00:12:0244.6921-123.0421305216835Clb=4.9m/s p=87.9hPa t=-56.6C h=4.3% 401.40MHz Type=RS41-SGP batt=2.7V Details on http://radiosondy.info
W7BDB-13U22208582022-12-06 00:11:5344.6924-123.0431245216816Clb=4.3m/s p=88.2hPa t=-56.6C h=4.4% 401.40MHz Type=RS41-SGP Details on http://radiosondy.info
WA9ONY-14U22208582022-12-06 00:11:4744.6926-123.0431105216798Clb=5.6m/s p=88.4hPa t=-56.7C h=4.4% 401.40MHz Type=RS41-SGP Join https://groups.io/g/Balloons
WA9ONY-10U22208582022-12-06 00:11:4644.6926-123.0431105216798Clb=5.6m/s p=88.4hPa t=-56.7C h=4.4% 401.40MHz Type=RS41-SGP Join https://groups.io/g/Balloons
KG7GDB-12U22208582022-12-06 00:11:4544.6928-123.0441185216780Clb=4.4m/s t=-56.6C h=1.3% p=88.8hPa 401.401 MHz Type=RS41-SGP ser=U2220858 Radiosonde
KE7WWCU22208582022-12-06 00:11:4444.6928-123.0441185216780Clb=4.4m/s t=-56.6C h=1.3% p=88.8hPa 401.374 MHz Type=RS41-SGP ser=U2220858 Radiosonde
KJ7NUX-14U22208582022-12-06 00:11:3444.6931-123.0441275216760Clb=5.0m/s p=89.0hPa t=-56.4C h=4.5% 401.40MHz Type=RS41-SGP Details on http://radiosondy.info
WA9ONY-10U22208582022-12-06 00:11:3044.6933-123.0451265216751Clb=5.4m/s p=89.1hPa t=-56.3C h=4.4% 401.40MHz Type=RS41-SGP batt=2.7V Join https://groups.io/g/Balloons
W7BDB-13U22208582022-12-06 00:11:2844.6933-123.0451245216746Clb=4.4m/s p=89.2hPa t=-56.3C h=4.4% 401.40MHz Type=RS41-SGP Details on http://radiosondy.info
K6GDP-11U22208582022-12-06 00:11:2544.6935-123.0451225416736Clb=4.8m/s t=-56.3C h=1.4% p=89.4hPa 401.400 MHz Type=RS41-SGP ser=U2220858 Radiosonde
WA9ONY-14U22208582022-12-06 00:11:1144.694-123.0461255216703Clb=4.9m/s p=89.8hPa t=-56.1C h=4.4% 401.40MHz Type=RS41-SGP batt=2.6V Join https://groups.io/g/Balloons
KJ7NUX-14U22208582022-12-06 00:11:0444.6942-123.0471155016685Clb=5.0m/s p=90.0hPa t=-56.0C h=4.4% 401.40MHz Type=RS41-SGP Details on http://radiosondy.info
W7BDB-13U22208582022-12-06 00:10:5844.6944-123.0471135016671Clb=4.9m/s p=90.2hPa t=-55.9C h=4.3% 401.40MHz Type=RS41-SGP batt=2.7V Details on http://radiosondy.info
WA9ONY-14U22208582022-12-06 00:10:5344.6945-123.0481204816657Clb=5.7m/s p=90.4hPa t=-55.8C h=4.2% 401.40MHz Type=RS41-SGP Join https://groups.io/g/Balloons
KG7GDB-12U22208582022-12-06 00:10:5044.6948-123.0481234816640Clb=4.4m/s t=-55.8C h=1.4% p=90.7hPa 401.401 MHz Type=RS41-SGP ser=U2220858 Radiosonde
KE7WWCU22208582022-12-06 00:10:4844.6948-123.0481234816640Clb=4.4m/s t=-55.8C h=1.4% p=90.7hPa 401.374 MHz Type=RS41-SGP ser=U2220858 Radiosonde
WA9ONY-14U22208582022-12-06 00:10:3644.6952-123.0491265016616Clb=4.3m/s p=91.0hPa t=-55.7C h=4.1% 401.40MHz Type=RS41-SGP Join https://groups.io/g/Balloons
W7BDB-13U22208582022-12-06 00:10:3044.6954-123.051275016603Clb=3.8m/s p=91.2hPa t=-55.6C h=4.2% 401.40MHz Type=RS41-SGP Details on http://radiosondy.info
K6GDP-11U22208582022-12-06 00:10:2644.6955-123.051254616599Clb=3.5m/s t=-55.8C h=1.4% p=91.3hPa 401.400 MHz Type=RS41-SGP ser=U2220858 Radiosonde
WA9ONY-14U22208582022-12-06 00:10:1444.6959-123.0511285016574Clb=4.1m/s p=91.6hPa t=-55.9C h=4.3% 401.40MHz Type=RS41-SGP TxPastBurst=8h30m batt=2.6V Join https://groups.io/g/Balloons
KJ7NUX-14U22208582022-12-06 00:10:0244.6964-123.0521275216548Clb=5.1m/s p=92.0hPa t=-56.2C h=4.3% 401.40MHz Type=RS41-SGP Details on http://radiosondy.info
W7BDB-13U22208582022-12-06 00:09:5644.6966-123.0521205216535Clb=4.8m/s p=92.2hPa t=-56.4C h=4.4% 401.40MHz Type=RS41-SGP Details on http://radiosondy.info
WA9ONY-10U22208582022-12-06 00:09:5344.6967-123.0521185216531Clb=3.6m/s p=92.2hPa t=-56.4C h=4.4% 401.40MHz Type=RS41-SGP Join https://groups.io/g/Balloons
KG7GDB-12U22208582022-12-06 00:09:4944.6969-123.0531254616513Clb=5.0m/s t=-56.5C h=1.5% p=92.5hPa 401.401 MHz Type=RS41-SGP ser=U2220858 Radiosonde
KE7WWCU22208582022-12-06 00:09:4744.697-123.0531314816509Clb=3.9m/s t=-56.5C h=1.5% p=92.6hPa 401.374 MHz Type=RS41-SGP ser=U2220858 Radiosonde
WA9ONY-14U22208582022-12-06 00:09:3644.6974-123.0541324816488Clb=3.3m/s p=92.9hPa t=-56.6C h=4.5% 401.40MHz Type=RS41-SGP Join https://groups.io/g/Balloons
KJ7NUX-14U22208582022-12-06 00:09:3344.6976-123.0541285216479Clb=3.7m/s p=93.0hPa t=-56.6C h=4.5% 401.40MHz Type=RS41-SGP Details on http://radiosondy.info
W7BDB-13U22208582022-12-06 00:09:2944.6978-123.0541265216472Clb=4.9m/s p=93.1hPa t=-56.6C h=4.4% 401.40MHz Type=RS41-SGP TxPastBurst=8h30m batt=2.7V Details on http://radiosondy.info
K6GDP-11U22208582022-12-06 00:09:2844.6978-123.0541244316467Clb=3.5m/s t=-56.6C h=1.5% p=93.3hPa 401.400 MHz Type=RS41-SGP ser=U2220858 Radiosonde
WA9ONY-10U22208582022-12-06 00:09:1944.6982-123.0551375616447Clb=3.2m/s p=93.4hPa t=-56.7C h=4.4% 401.40MHz Type=RS41-SGP Join https://groups.io/g/Balloons
KJ7NUX-14U22208582022-12-06 00:09:0444.699-123.0561325716416Clb=4.5m/s p=93.9hPa t=-57.0C h=4.7% 401.40MHz Type=RS41-SGP TxPastBurst=8h30m batt=2.6V Details on http://radiosondy.info
WA9ONY-10U22208582022-12-06 00:08:5944.6992-123.0561376116408Clb=4.5m/s p=94.1hPa t=-57.0C h=4.6% 401.40MHz Type=RS41-SGP Join https://groups.io/g/Balloons
KG7GDB-12U22208582022-12-06 00:08:5244.6996-123.0571395916390Clb=3.8m/s t=-56.9C h=1.6% p=94.3hPa 401.401 MHz Type=RS41-SGP ser=U2220858 Radiosonde
KE7WWCU22208582022-12-06 00:08:5044.6997-123.0571406116387Clb=3.4m/s t=-57.0C h=1.6% p=94.4hPa 401.374 MHz Type=RS41-SGP ser=U2220858 Radiosonde
WA9ONY-14U22208582022-12-06 00:08:4144.7003-123.0581345616366Clb=3.8m/s p=94.7hPa t=-57.0C h=4.5% 401.40MHz Type=RS41-SGP Join https://groups.io/g/Balloons
KJ7NUX-14U22208582022-12-06 00:08:3544.7007-123.0581355616351Clb=3.7m/s p=94.9hPa t=-57.3C h=4.7% 401.40MHz Type=RS41-SGP Details on http://radiosondy.info
W7BDB-13U22208582022-12-06 00:08:3344.7008-123.0581335616347Clb=5.1m/s p=94.9hPa t=-57.3C h=4.6% 401.40MHz Type=RS41-SGP Details on http://radiosondy.info
K6GDP-11U22208582022-12-06 00:08:3144.7009-123.0591325616342Clb=3.8m/s t=-57.5C h=1.6% p=95.0hPa 401.400 MHz Type=RS41-SGP ser=U2220858 Radiosonde
WA9ONY-14U22208582022-12-06 00:08:2344.7013-123.0591375616325Clb=3.4m/s p=95.2hPa t=-57.6C h=4.8% 401.40MHz Type=RS41-SGP batt=2.7V Join https://groups.io/g/Balloons
W7BDB-12U22208582022-12-06 00:08:2244.7017-123.061305616309Clb=4.9m/s t=-57.9C h=1.7% p=95.6hPa 401.399 MHz Type=RS41-SGP ser=U2220858 Radiosonde
KJ7NUX-14U22208582022-12-06 00:08:0444.7022-123.0611285216282Clb=5.1m/s p=95.9hPa t=-58.0C h=4.9% 401.40MHz Type=RS41-SGP Details on http://radiosondy.info
W7BDB-13U22208582022-12-06 00:08:0244.7023-123.0611285416278Clb=3.6m/s p=96.0hPa t=-58.0C h=5.0% 401.40MHz Type=RS41-SGP batt=2.7V Details on http://radiosondy.info
KE7WWCU22208582022-12-06 00:07:5344.7027-123.0621245416250Clb=4.5m/s t=-58.0C h=1.7% p=96.4hPa 401.374 MHz Type=RS41-SGP ser=U2220858 Radiosonde
WA9ONY-14U22208582022-12-06 00:07:4544.7029-123.0621245416237Clb=3.8m/s p=96.6hPa t=-57.9C h=4.9% 401.40MHz Type=RS41-SGP Join https://groups.io/g/Balloons
KJ7NUX-14U22208582022-12-06 00:07:3644.7034-123.0631295016208Clb=5.4m/s p=97.0hPa t=-57.8C h=4.9% 401.40MHz Type=RS41-SGP batt=2.6V Details on http://radiosondy.info
K6GDP-11U22208582022-12-06 00:07:3444.7035-123.0631295016203Clb=3.9m/s t=-57.8C h=1.7% p=97.2hPa 401.400 MHz Type=RS41-SGP ser=U2220858 Radiosonde
WA9ONY-14U22208582022-12-06 00:07:2844.7037-123.0641284816189Clb=4.5m/s p=97.3hPa t=-57.7C h=4.7% 401.40MHz Type=RS41-SGP TxPastBurst=8h30m batt=2.7V Join https://groups.io/g/Balloons
WA9ONY-14U22208582022-12-06 00:07:0944.7044-123.0651305416141Clb=4.5m/s p=98.1hPa t=-57.9C h=5.0% 401.40MHz Type=RS41-SGP Join https://groups.io/g/Balloons
KJ7NUX-14U22208582022-12-06 00:07:0744.7046-123.0651335016131Clb=4.4m/s p=98.2hPa t=-57.8C h=5.0% 401.40MHz Type=RS41-SGP Details on http://radiosondy.info
W7BDB-13U22208582022-12-06 00:07:0544.7047-123.0651335016127Clb=4.6m/s p=98.3hPa t=-57.8C h=4.9% 401.40MHz Type=RS41-SGP Details on http://radiosondy.info
WA9ONY-14U22208582022-12-06 00:06:5344.7053-123.0661324816092Clb=4.8m/s p=98.8hPa t=-57.8C h=5.0% 401.40MHz Type=RS41-SGP Join https://groups.io/g/Balloons
KJ7NUX-14U22208582022-12-06 00:06:4144.7059-123.0671314316051Clb=4.5m/s p=99.5hPa t=-57.7C h=4.9% 401.40MHz Type=RS41-SGP Details on http://radiosondy.info
WA9ONY-10U22208582022-12-06 00:06:3644.7061-123.0681294116041Clb=4.1m/s p=99.6hPa t=-57.6C h=4.8% 401.40MHz Type=RS41-SGP Join https://groups.io/g/Balloons
W7BDB-12U22208582022-12-06 00:06:3244.7065-123.0681233916011Clb=5.3m/s t=-57.7C h=1.7% p=100.2hPa 401.399 MHz Type=RS41-SGP ser=U2220858 Radiosonde
WA9ONY-14U22208582022-12-06 00:06:1944.7067-123.0691223515991Clb=3.5m/s p=100.4hPa t=-57.8C h=5.0% 401.40MHz Type=RS41-SGP Join https://groups.io/g/Balloons
KJ7NUX-14U22208582022-12-06 00:06:1344.7069-123.0691323515971Clb=4.8m/s p=100.7hPa t=-57.7C h=4.9% 401.40MHz Type=RS41-SGP batt=2.6V Details on http://radiosondy.info
W7BDB-13U22208582022-12-06 00:06:1244.7069-123.0691323515971Clb=4.8m/s p=100.7hPa t=-57.7C h=4.9% 401.40MHz Type=RS41-SGP Details on http://radiosondy.info
KG7GDB-12U22208582022-12-06 00:06:0644.7071-123.071313115953Clb=4.0m/s t=-57.6C h=1.7% p=101.1hPa 401.401 MHz Type=RS41-SGP ser=U2220858 Radiosonde
WA9ONY-14U22208582022-12-06 00:06:0044.7072-123.071253515943Clb=4.0m/s p=101.2hPa t=-57.5C h=4.8% 401.40MHz Type=RS41-SGP Join https://groups.io/g/Balloons
K6GDP-11U22208582022-12-06 00:05:4344.7078-123.0711383315894Clb=4.0m/s t=-57.5C h=1.7% p=102.0hPa 401.400 MHz Type=RS41-SGP ser=U2220858 Radiosonde
WA9ONY-10U22208582022-12-06 00:05:4144.7078-123.0711393715894Clb=4.0m/s p=102.0hPa t=-57.5C h=4.8% 401.40MHz Type=RS41-SGP Join https://groups.io/g/Balloons
WA9ONY-10U22208582022-12-06 00:05:2244.7083-123.0721294115845Clb=3.6m/s p=102.8hPa t=-57.4C h=4.8% 401.40MHz Type=RS41-SGP Join https://groups.io/g/Balloons
KJ7NUX-14U22208582022-12-06 00:05:1244.7088-123.0721384115816Clb=5.9m/s p=103.3hPa t=-57.2C h=4.7% 401.40MHz Type=RS41-SGP Details on http://radiosondy.info
KG7GDB-12U22208582022-12-06 00:05:0844.709-123.0731413715801Clb=4.6m/s t=-57.2C h=1.7% p=103.5hPa 401.401 MHz Type=RS41-SGP ser=U2220858 Radiosonde
WA9ONY-10U22208582022-12-06 00:05:0544.7091-123.0731424315797Clb=4.6m/s p=103.6hPa t=-57.2C h=4.7% 401.40MHz Type=RS41-SGP TxPastBurst=8h30m batt=2.7V Join https://groups.io/g/Balloons
WA9ONY-14U22208582022-12-06 00:05:0444.7091-123.0731424315797Clb=4.6m/s p=103.6hPa t=-57.2C h=4.7% 401.40MHz Type=RS41-SGP Join https://groups.io/g/Balloons
WA9ONY-10U22208582022-12-06 00:04:4844.7099-123.0741354315750Clb=3.9m/s p=104.4hPa t=-57.1C h=4.7% 401.40MHz Type=RS41-SGP Join https://groups.io/g/Balloons
KJ7NUX-14U22208582022-12-06 00:04:4544.71-123.0741324315740Clb=4.0m/s p=104.5hPa t=-57.2C h=4.8% 401.40MHz Type=RS41-SGP TxPastBurst=8h30m batt=2.7V Details on http://radiosondy.info
W7BDB-12U22208582022-12-06 00:04:3944.7104-123.0751324415711Clb=4.5m/s t=-57.3C h=1.7% p=105.0hPa 401.399 MHz Type=RS41-SGP ser=U2220858 Radiosonde
WA9ONY-14U22208582022-12-06 00:04:3144.7106-123.0751374315701Clb=3.4m/s p=105.1hPa t=-57.2C h=4.8% 401.40MHz Type=RS41-SGP Join https://groups.io/g/Balloons
WA9ONY-10U22208582022-12-06 00:04:3044.7106-123.0751374315701Clb=3.4m/s p=105.1hPa t=-57.2C h=4.8% 401.40MHz Type=RS41-SGP Join https://groups.io/g/Balloons
W7BDB-13U22208582022-12-06 00:04:1744.7111-123.0761284115668Clb=3.8m/s p=105.7hPa t=-56.9C h=4.7% 401.40MHz Type=RS41-SGP Details on http://radiosondy.info
KJ7NUX-14U22208582022-12-06 00:04:1644.7112-123.0761274115664Clb=5.7m/s p=105.7hPa t=-56.9C h=4.8% 401.40MHz Type=RS41-SGP Details on http://radiosondy.info
WA9ONY-14U22208582022-12-06 00:04:1244.7113-123.0761264115655Clb=3.3m/s p=105.9hPa t=-56.8C h=4.6% 401.40MHz Type=RS41-SGP Join https://groups.io/g/Balloons
WA9ONY-10U22208582022-12-06 00:03:5944.7119-123.0771273915606Clb=4.8m/s p=106.7hPa t=-56.4C h=4.7% 401.40MHz Type=RS41-SGP Join https://groups.io/g/Balloons
K6GDP-11U22208582022-12-06 00:03:5844.712-123.0771213515597Clb=3.8m/s t=-56.3C h=1.7% p=106.9hPa 401.400 MHz Type=RS41-SGP ser=U2220858 Radiosonde
W7BDB-13U22208582022-12-06 00:03:5644.712-123.0771224315592Clb=5.2m/s p=106.9hPa t=-56.3C h=4.7% 401.40MHz Type=RS41-SGP batt=2.7V Details on http://radiosondy.info
KJ7NUX-14U22208582022-12-06 00:03:5544.7121-123.0771254315587Clb=5.0m/s p=107.0hPa t=-56.2C h=4.7% 401.40MHz Type=RS41-SGP Details on http://radiosondy.info
WA9ONY-14U22208582022-12-06 00:03:4944.7125-123.0781304415558Clb=4.7m/s p=107.5hPa t=-56.0C h=4.4% 401.40MHz Type=RS41-SGP Join https://groups.io/g/Balloons
W7BDB-13U22208582022-12-06 00:03:4044.713-123.0791204415516Clb=4.6m/s p=108.3hPa t=-55.6C h=4.4% 401.40MHz Type=RS41-SGP Details on http://radiosondy.info
WA9ONY-10U22208582022-12-06 00:03:3944.713-123.0791234315511Clb=4.9m/s p=108.3hPa t=-55.6C h=4.3% 401.40MHz Type=RS41-SGP batt=2.7V Join https://groups.io/g/Balloons
KE7WWCU22208582022-12-06 00:03:3844.7131-123.081194115501Clb=5.7m/s t=-55.6C h=1.5% p=108.5hPa 401.374 MHz Type=RS41-SGP ser=U2220858 Radiosonde
WA9ONY-14U22208582022-12-06 00:03:3244.7136-123.0811254615463Clb=5.3m/s p=109.1hPa t=-56.0C h=4.4% 401.40MHz Type=RS41-SGP batt=2.7V Join https://groups.io/g/Balloons
K6GDP-11U22208582022-12-06 00:03:3044.7138-123.0811234415448Clb=4.7m/s t=-56.0C h=1.5% p=109.4hPa 401.400 MHz Type=RS41-SGP ser=U2220858 Radiosonde
W7BDB-13U22208582022-12-06 00:03:2444.7139-123.0811244815440Clb=5.3m/s p=109.5hPa t=-55.9C h=4.3% 401.40MHz Type=RS41-SGP Details on http://radiosondy.info
WA9ONY-14U22208582022-12-06 00:03:2244.7142-123.0821165015416Clb=5.3m/s p=110.0hPa t=-55.8C h=4.5% 401.40MHz Type=RS41-SGP Join https://groups.io/g/Balloons
W7BDB-13U22208582022-12-06 00:03:1244.7146-123.0841224615368Clb=5.0m/s p=110.8hPa t=-55.6C h=4.2% 401.40MHz Type=RS41-SGP batt=2.7V Details on http://radiosondy.info
KJ7NUX-14U22208582022-12-06 00:03:1044.7148-123.0841204415359Clb=5.4m/s p=110.9hPa t=-55.5C h=4.4% 401.40MHz Type=RS41-SGP Details on http://radiosondy.info
KE7WWCU22208582022-12-06 00:03:0844.7148-123.0841184315354Clb=3.9m/s t=-55.7C h=1.5% p=111.1hPa 401.374 MHz Type=RS41-SGP ser=U2220858 Radiosonde
WA9ONY-10U22208582022-12-06 00:02:5944.7152-123.0851174315321Clb=4.7m/s p=111.6hPa t=-55.6C h=4.4% 401.40MHz Type=RS41-SGP Join https://groups.io/g/Balloons
K6GDP-11U22208582022-12-06 00:02:5644.7154-123.0861123915302Clb=4.1m/s t=-55.6C h=1.5% p=112.0hPa 401.400 MHz Type=RS41-SGP ser=U2220858 Radiosonde
W7BDB-13U22208582022-12-06 00:02:5444.7154-123.0861144615297Clb=5.5m/s p=112.0hPa t=-55.5C h=4.3% 401.40MHz Type=RS41-SGP Details on http://radiosondy.info
KJ7NUX-14U22208582022-12-06 00:02:5144.7155-123.0861084615283Clb=4.6m/s p=112.2hPa t=-55.3C h=4.3% 401.40MHz Type=RS41-SGP batt=2.7V Details on http://radiosondy.info
WA9ONY-14U22208582022-12-06 00:02:4944.7156-123.0861104815274Clb=5.5m/s p=112.4hPa t=-55.3C h=4.3% 401.40MHz Type=RS41-SGP Join https://groups.io/g/Balloons
WA9ONY-14U22208582022-12-06 00:02:3944.716-123.0881124315226Clb=4.5m/s p=113.2hPa t=-54.9C h=4.2% 401.40MHz Type=RS41-SGP Join https://groups.io/g/Balloons
W7BDB-13U22208582022-12-06 00:02:3844.7161-123.0881084315222Clb=4.1m/s p=113.3hPa t=-54.9C h=4.2% 401.40MHz Type=RS41-SGP Details on http://radiosondy.info
KG7GDB-12U22208582022-12-06 00:02:3744.7161-123.0881024115213Clb=3.6m/s t=-54.9C h=1.5% p=113.5hPa 401.401 MHz Type=RS41-SGP ser=U2220858 Radiosonde
KE7WWCU22208582022-12-06 00:02:3644.7162-123.0891044115209Clb=3.9m/s t=-54.9C h=1.5% p=113.6hPa 401.374 MHz Type=RS41-SGP ser=U2220858 Radiosonde
KJ7NUX-14U22208582022-12-06 00:02:3544.7162-123.0891054315209Clb=3.9m/s p=113.6hPa t=-54.9C h=4.2% 401.40MHz Type=RS41-SGP Details on http://radiosondy.info
WA9ONY-14U22208582022-12-06 00:02:2944.7164-123.0891124315180Clb=5.6m/s p=114.1hPa t=-54.8C h=4.2% 401.40MHz Type=RS41-SGP batt=2.7V Join https://groups.io/g/Balloons
K6GDP-11U22208582022-12-06 00:02:2544.7165-123.091104315156Clb=5.0m/s t=-54.8C h=1.5% p=114.5hPa 401.400 MHz Type=RS41-SGP ser=U2220858 Radiosonde
W7BDB-13U22208582022-12-06 00:02:2344.7166-123.091104315151Clb=4.7m/s p=114.6hPa t=-54.7C h=4.1% 401.40MHz Type=RS41-SGP TxPastBurst=8h30m batt=2.7V Details on http://radiosondy.info
KJ7NUX-14U22208582022-12-06 00:02:1944.7167-123.0911163915133Clb=4.5m/s p=114.9hPa t=-54.6C h=4.1% 401.40MHz Type=RS41-SGP Details on http://radiosondy.info
WA9ONY-14U22208582022-12-06 00:02:1144.7172-123.0921103315086Clb=4.0m/s p=115.8hPa t=-54.6C h=4.2% 401.40MHz Type=RS41-SGP Join https://groups.io/g/Balloons
W7BDB-13U22208582022-12-06 00:02:1044.7172-123.0921073115082Clb=5.3m/s p=115.9hPa t=-54.5C h=4.1% 401.40MHz Type=RS41-SGP Details on http://radiosondy.info
KG7GDB-12U22208582022-12-06 00:02:0644.7173-123.0931113015063Clb=3.8m/s t=-54.5C h=1.4% p=116.2hPa 401.401 MHz Type=RS41-SGP ser=U2220858 Radiosonde
KE7WWCU22208582022-12-06 00:02:0544.7173-123.0931113015063Clb=3.8m/s t=-54.5C h=1.4% p=116.2hPa 401.374 MHz Type=RS41-SGP ser=U2220858 Radiosonde
KJ7NUX-14U22208582022-12-06 00:02:0344.7173-123.0931093015058Clb=5.7m/s p=116.2hPa t=-54.4C h=4.1% 401.40MHz Type=RS41-SGP TxPastBurst=8h30m batt=2.7V Details on http://radiosondy.info
WA9ONY-14U22208582022-12-06 00:01:5944.7174-123.0931043115038Clb=3.9m/s p=116.6hPa t=-54.2C h=4.1% 401.40MHz Type=RS41-SGP batt=2.7V Join https://groups.io/g/Balloons
K6GDP-11U22208582022-12-06 00:01:5444.7175-123.0941173115011Clb=4.2m/s t=-54.3C h=1.4% p=117.2hPa 401.400 MHz Type=RS41-SGP ser=U2220858 Radiosonde
W7BDB-13U22208582022-12-06 00:01:5344.7175-123.0941183315011Clb=4.2m/s p=117.1hPa t=-54.2C h=4.1% 401.40MHz Type=RS41-SGP Details on http://radiosondy.info
WA9ONY-10U22208582022-12-06 00:01:4944.7177-123.0941153314991Clb=4.3m/s p=117.4hPa t=-54.2C h=4.1% 401.40MHz Type=RS41-SGP Join https://groups.io/g/Balloons
KJ7NUX-14U22208582022-12-06 00:01:4744.7177-123.0941053714982Clb=4.9m/s p=117.6hPa t=-54.2C h=4.0% 401.40MHz Type=RS41-SGP Details on http://radiosondy.info
WA9ONY-14U22208582022-12-06 00:01:3944.718-123.0951233914944Clb=5.0m/s p=118.3hPa t=-54.0C h=4.0% 401.40MHz Type=RS41-SGP Join https://groups.io/g/Balloons
W7BDB-13U22208582022-12-06 00:01:3844.718-123.0951263914939Clb=5.1m/s p=118.4hPa t=-54.0C h=3.9% 401.40MHz Type=RS41-SGP batt=2.7V Details on http://radiosondy.info
KG7GDB-12U22208582022-12-06 00:01:3444.7183-123.0961223914919Clb=5.7m/s t=-54.0C h=1.4% p=118.8hPa 401.401 MHz Type=RS41-SGP ser=U2220858 Radiosonde
WA9ONY-10U22208582022-12-06 00:01:3144.7185-123.0961243914893Clb=5.5m/s p=119.2hPa t=-54.0C h=4.0% 401.40MHz Type=RS41-SGP Join https://groups.io/g/Balloons
W7BDB-13U22208582022-12-06 00:01:2544.7188-123.0971284314865Clb=4.3m/s p=119.8hPa t=-54.1C h=4.1% 401.40MHz Type=RS41-SGP Details on http://radiosondy.info
WA9ONY-14U22208582022-12-06 00:01:2144.7191-123.0981284314845Clb=4.9m/s p=120.2hPa t=-54.0C h=4.0% 401.40MHz Type=RS41-SGP Join https://groups.io/g/Balloons
KJ7NUX-14U22208582022-12-06 00:01:1744.7194-123.0981344114825Clb=5.0m/s p=120.6hPa t=-54.0C h=4.0% 401.40MHz Type=RS41-SGP batt=2.7V Details on http://radiosondy.info
WA9ONY-10U22208582022-12-06 00:01:1044.7198-123.0991364114795Clb=5.3m/s p=121.1hPa t=-53.9C h=4.1% 401.40MHz Type=RS41-SGP batt=2.7V Join https://groups.io/g/Balloons
W7BDB-13U22208582022-12-06 00:01:0944.7199-123.0991334114790Clb=4.6m/s p=121.2hPa t=-53.8C h=4.0% 401.40MHz Type=RS41-SGP Details on http://radiosondy.info
KG7GDB-12U22208582022-12-06 00:01:0344.7202-123.0991273914766Clb=4.1m/s t=-53.6C h=1.4% p=121.7hPa 401.401 MHz Type=RS41-SGP ser=U2220858 Radiosonde
KJ7NUX-14U22208582022-12-06 00:00:5944.7205-123.11374114746Clb=4.9m/s p=122.0hPa t=-53.4C h=3.9% 401.40MHz Type=RS41-SGP Details on http://radiosondy.info
WA9ONY-14U22208582022-12-06 00:00:5644.7236-123.1041435014546Clb=5.5m/s p=125.8hPa t=-52.8C h=3.8% 401.40MHz Type=RS41-SGP Join https://groups.io/g/Balloons
KJ7NUX-14U22208582022-12-06 00:00:5444.7245-123.1051375414497Clb=4.8m/s p=126.8hPa t=-52.7C h=3.8% 401.40MHz Type=RS41-SGP Details on http://radiosondy.info
WA9ONY-10U22208582022-12-06 00:00:5344.7245-123.1051375614497Clb=4.8m/s p=126.8hPa t=-52.7C h=3.8% 401.40MHz Type=RS41-SGP TxPastBurst=8h30m batt=2.7V Join https://groups.io/g/Balloons
KG7GDB-12U22208582022-12-06 00:00:5244.7254-123.1061375414456Clb=4.5m/s t=-52.9C h=1.4% p=127.7hPa 401.401 MHz Type=RS41-SGP ser=U2220858 Radiosonde
KJ7NUX-14U22208582022-12-06 00:00:5144.7259-123.1071365414427Clb=4.3m/s p=128.2hPa t=-52.8C h=3.8% 401.40MHz Type=RS41-SGP Details on http://radiosondy.info
K6GDP-11U22208582022-12-06 00:00:5044.7265-123.1081385914397Clb=5.7m/s t=-53.1C h=1.4% p=128.8hPa 401.400 MHz Type=RS41-SGP ser=U2220858 Radiosonde
W7BDB-12U22208582022-12-06 00:00:4844.7271-123.1091324814362Clb=5.2m/s t=-53.4C h=1.5% p=129.6hPa 401.399 MHz Type=RS41-SGP ser=U2220858 Radiosonde
KJ7NUX-14U22208582022-12-06 00:00:4744.7274-123.1091415714348Clb=4.8m/s p=129.8hPa t=-53.3C h=4.0% 401.40MHz Type=RS41-SGP TxPastBurst=8h30m batt=2.7V Details on http://radiosondy.info
W7BDB-13U22208582022-12-06 00:00:4644.7277-123.1091435614340Clb=5.4m/s p=130.0hPa t=-53.3C h=3.9% 401.40MHz Type=RS41-SGP Details on http://radiosondy.info
KG7GDB-12U22208582022-12-06 00:00:4544.7284-123.111395214307Clb=4.8m/s t=-53.5C h=1.5% p=130.7hPa 401.401 MHz Type=RS41-SGP ser=U2220858 Radiosonde
KE7WWCU22208582022-12-06 00:00:4444.7285-123.111375414302Clb=5.6m/s t=-53.6C h=1.5% p=130.8hPa 401.374 MHz Type=RS41-SGP ser=U2220858 Radiosonde
KJ7NUX-14U22208582022-12-06 00:00:4344.7292-123.1111436114272Clb=4.8m/s p=131.3hPa t=-53.5C h=4.0% 401.40MHz Type=RS41-SGP Details on http://radiosondy.info
WA9ONY-14U22208582022-12-06 00:00:4244.7296-123.1121436114250Clb=4.5m/s p=131.7hPa t=-53.3C h=4.0% 401.40MHz Type=RS41-SGP Join https://groups.io/g/Balloons
WA9ONY-14U22208582022-12-06 00:00:3844.7309-123.1131405914204Clb=4.0m/s p=132.7hPa t=-53.9C h=4.1% 401.40MHz Type=RS41-SGP Join https://groups.io/g/Balloons
KG7GDB-12U22208582022-12-06 00:00:3744.7323-123.1151335714142Clb=3.8m/s t=-54.0C h=1.6% p=134.0hPa 401.401 MHz Type=RS41-SGP ser=U2220858 Radiosonde
KJ7NUX-14U22208582022-12-06 00:00:3644.7328-123.1161275714119Clb=3.9m/s p=134.4hPa t=-53.9C h=4.1% 401.40MHz Type=RS41-SGP batt=2.7V Details on http://radiosondy.info
W7BDB-13U22208582022-12-06 00:00:3544.7328-123.1161285714114Clb=5.6m/s p=134.5hPa t=-53.8C h=4.1% 401.40MHz Type=RS41-SGP Details on http://radiosondy.info
W7BDB-12U22208582022-12-06 00:00:3344.7339-123.1171345714063Clb=4.7m/s t=-54.1C h=1.7% p=135.7hPa 401.399 MHz Type=RS41-SGP ser=U2220858 Radiosonde
WA9ONY-14U22208582022-12-06 00:00:3244.7349-123.1191385414021Clb=5.1m/s p=136.5hPa t=-54.4C h=4.2% 401.40MHz Type=RS41-SGP TxPastBurst=8h30m batt=2.7V Join https://groups.io/g/Balloons
KJ7NUX-14U22208582022-12-06 00:00:3144.7358-123.121314413976Clb=4.9m/s p=137.4hPa t=-54.7C h=4.3% 401.40MHz Type=RS41-SGP Details on http://radiosondy.info
KJ7NUX-14U22208582022-12-06 00:00:3044.737-123.1221334413905Clb=4.4m/s p=139.0hPa t=-54.3C h=4.3% 401.40MHz Type=RS41-SGP batt=2.7V Details on http://radiosondy.info
WA9ONY-14U22208582022-12-06 00:00:2844.7373-123.1221304413887Clb=4.1m/s p=139.4hPa t=-54.2C h=4.2% 401.40MHz Type=RS41-SGP batt=2.7V Join https://groups.io/g/Balloons
KE7WWCU22208582022-12-06 00:00:2544.7375-123.1231294113872Clb=5.8m/s t=-54.3C h=1.7% p=139.8hPa 401.374 MHz Type=RS41-SGP ser=U2220858 Radiosonde
WA9ONY-10U22208582022-12-06 00:00:1844.738-123.1241304613840Clb=5.0m/s p=140.4hPa t=-54.1C h=4.2% 401.40MHz Type=RS41-SGP Join https://groups.io/g/Balloons
KJ7NUX-14U22208582022-12-06 00:00:1744.7381-123.1241304813832Clb=3.5m/s p=140.6hPa t=-54.0C h=4.2% 401.40MHz Type=RS41-SGP Details on http://radiosondy.info
K6GDP-11U22208582022-12-06 00:00:1444.7382-123.1241294313823Clb=3.5m/s t=-54.0C h=1.6% p=140.9hPa 401.400 MHz Type=RS41-SGP ser=U2220858 Radiosonde
WA9ONY-14U22208582022-12-05 23:59:5744.7387-123.1251294813795Clb=5.1m/s p=141.4hPa t=-53.8C h=4.2% 401.40MHz Type=RS41-SGP Join https://groups.io/g/Balloons
KJ7NUX-14U22208582022-12-05 23:59:4444.7393-123.1261254613761Clb=5.2m/s p=142.2hPa t=-53.5C h=4.1% 401.40MHz Type=RS41-SGP Details on http://radiosondy.info
WA9ONY-14U22208582022-12-05 23:59:3944.7394-123.1261214413752Clb=5.4m/s p=142.4hPa t=-53.4C h=4.1% 401.40MHz Type=RS41-SGP batt=2.7V Join https://groups.io/g/Balloons
KG7GDB-12U22208582022-12-05 23:59:3444.7396-123.1271274113733Clb=3.9m/s t=-53.4C h=1.7% p=142.8hPa 401.401 MHz Type=RS41-SGP ser=U2220858 Radiosonde
KE7WWCU22208582022-12-05 23:59:3344.7396-123.1271274113733Clb=3.9m/s t=-53.4C h=1.7% p=142.8hPa 401.374 MHz Type=RS41-SGP ser=U2220858 Radiosonde
WA9ONY-14U22208582022-12-05 23:59:2144.74-123.1281264413704Clb=5.6m/s p=143.4hPa t=-53.3C h=4.0% 401.40MHz Type=RS41-SGP Join https://groups.io/g/Balloons
W7BDB-13U22208582022-12-05 23:59:1744.7402-123.1281254413690Clb=4.6m/s p=143.7hPa t=-53.4C h=4.0% 401.40MHz Type=RS41-SGP Details on http://radiosondy.info
KJ7NUX-14U22208582022-12-05 23:59:1644.7403-123.1281254413686Clb=3.9m/s p=143.8hPa t=-53.4C h=4.0% 401.40MHz Type=RS41-SGP TxPastBurst=8h30m batt=2.7V Details on http://radiosondy.info
K6GDP-11U22208582022-12-05 23:59:1444.7404-123.1281224313681Clb=5.7m/s t=-53.4C h=1.6% p=143.9hPa 401.400 MHz Type=RS41-SGP ser=U2220858 Radiosonde
WA9ONY-10U22208582022-12-05 23:59:0444.7407-123.1291234613657Clb=4.6m/s p=144.4hPa t=-53.2C h=4.1% 401.40MHz Type=RS41-SGP TxPastBurst=8h30m batt=2.7V Join https://groups.io/g/Balloons
W7BDB-13U22208582022-12-05 23:58:4944.7413-123.131284413617Clb=4.2m/s p=145.4hPa t=-53.4C h=4.0% 401.40MHz Type=RS41-SGP batt=2.7V Details on http://radiosondy.info
KJ7NUX-14U22208582022-12-05 23:58:4744.7414-123.131244413612Clb=5.1m/s p=145.5hPa t=-53.4C h=4.0% 401.40MHz Type=RS41-SGP Details on http://radiosondy.info
KG7GDB-12U22208582022-12-05 23:58:3944.7416-123.1311204113589Clb=5.1m/s t=-53.5C h=1.6% p=146.0hPa 401.401 MHz Type=RS41-SGP ser=U2220858 Radiosonde
KE7WWCU22208582022-12-05 23:58:3844.7416-123.1311204113589Clb=5.1m/s t=-53.5C h=1.6% p=146.0hPa 401.375 MHz Type=RS41-SGP ser=U2220858 Radiosonde
WA9ONY-14U22208582022-12-05 23:58:3044.742-123.1311285013568Clb=4.2m/s p=146.5hPa t=-53.4C h=4.1% 401.40MHz Type=RS41-SGP Join https://groups.io/g/Balloons
WA9ONY-10U22208582022-12-05 23:58:2944.742-123.1311285013568Clb=4.2m/s p=146.5hPa t=-53.4C h=4.1% 401.40MHz Type=RS41-SGP Join https://groups.io/g/Balloons
W7BDB-13U22208582022-12-05 23:58:2244.7424-123.1321375413543Clb=3.4m/s p=147.0hPa t=-53.3C h=4.1% 401.40MHz Type=RS41-SGP Details on http://radiosondy.info
KJ7NUX-14U22208582022-12-05 23:58:2144.7425-123.1321375413539Clb=5.3m/s p=147.1hPa t=-53.4C h=4.2% 401.40MHz Type=RS41-SGP Details on http://radiosondy.info
WA9ONY-14U22208582022-12-05 23:58:1344.7428-123.1331305413520Clb=4.9m/s p=147.6hPa t=-53.4C h=4.1% 401.40MHz Type=RS41-SGP Join https://groups.io/g/Balloons
W7BDB-12U22208582022-12-05 23:58:1144.7431-123.1331325413501Clb=3.8m/s t=-53.3C h=1.6% p=148.0hPa 401.399 MHz Type=RS41-SGP ser=U2220858 Radiosonde
WA9ONY-10U22208582022-12-05 23:57:5444.7437-123.1341376313471Clb=4.8m/s p=148.7hPa t=-53.5C h=4.1% 401.40MHz Type=RS41-SGP Join https://groups.io/g/Balloons
W7BDB-13U22208582022-12-05 23:57:5344.7438-123.1341366713466Clb=5.0m/s p=148.8hPa t=-53.5C h=4.1% 401.40MHz Type=RS41-SGP Details on http://radiosondy.info
KJ7NUX-14U22208582022-12-05 23:57:5244.7439-123.1341356713461Clb=3.6m/s p=149.0hPa t=-53.6C h=4.1% 401.40MHz Type=RS41-SGP batt=2.7V Details on http://radiosondy.info
KG7GDB-12U22208582022-12-05 23:57:4544.7444-123.1351336313443Clb=5.4m/s t=-53.8C h=1.7% p=149.4hPa 401.401 MHz Type=RS41-SGP ser=U2220858 Radiosonde
KE7WWCU22208582022-12-05 23:57:4444.7444-123.1351336313443Clb=5.4m/s t=-53.8C h=1.7% p=149.4hPa 401.375 MHz Type=RS41-SGP ser=U2220858 Radiosonde
WA9ONY-14U22208582022-12-05 23:57:3744.7448-123.1361327013425Clb=4.2m/s p=149.8hPa t=-53.7C h=4.2% 401.40MHz Type=RS41-SGP Join https://groups.io/g/Balloons
W7BDB-13U22208582022-12-05 23:57:2544.7457-123.1371336513394Clb=4.7m/s p=150.5hPa t=-53.6C h=4.3% 401.40MHz Type=RS41-SGP batt=2.7V Details on http://radiosondy.info
KJ7NUX-14U22208582022-12-05 23:57:2444.7458-123.1371336313390Clb=4.2m/s p=150.6hPa t=-53.6C h=4.2% 401.40MHz Type=RS41-SGP Details on http://radiosondy.info
WA9ONY-14U22208582022-12-05 23:57:2044.746-123.1371346313381Clb=3.6m/s p=150.8hPa t=-53.5C h=4.2% 401.40MHz Type=RS41-SGP Join https://groups.io/g/Balloons
WA9ONY-14U22208582022-12-05 23:57:0044.7471-123.1391386313336Clb=3.7m/s p=151.8hPa t=-53.3C h=4.2% 401.40MHz Type=RS41-SGP batt=2.7V Join https://groups.io/g/Balloons
W7BDB-13U22208582022-12-05 23:56:5544.7474-123.141326113322Clb=4.1m/s p=152.1hPa t=-53.2C h=4.2% 401.40MHz Type=RS41-SGP Details on http://radiosondy.info
KJ7NUX-14U22208582022-12-05 23:56:5344.7475-123.141326113318Clb=5.3m/s p=152.3hPa t=-53.2C h=4.1% 401.40MHz Type=RS41-SGP Details on http://radiosondy.info
KG7GDB-12U22208582022-12-05 23:56:4844.7478-123.141305913304Clb=3.7m/s t=-53.2C h=1.7% p=152.6hPa 401.401 MHz Type=RS41-SGP ser=U2220858 Radiosonde
KE7WWCU22208582022-12-05 23:56:4744.7479-123.141346113300Clb=4.6m/s t=-53.2C h=1.7% p=152.7hPa 401.375 MHz Type=RS41-SGP ser=U2220858 Radiosonde
WA9ONY-10U22208582022-12-05 23:56:4244.7482-123.1411415913290Clb=4.6m/s p=152.9hPa t=-53.2C h=4.1% 401.40MHz Type=RS41-SGP Join https://groups.io/g/Balloons
K6GDP-11U22208582022-12-05 23:56:2944.7491-123.1421306113256Clb=5.2m/s t=-53.4C h=1.8% p=153.8hPa 401.400 MHz Type=RS41-SGP ser=U2220858 Radiosonde
KJ7NUX-14U22208582022-12-05 23:56:2644.7492-123.1421285913248Clb=3.9m/s p=153.9hPa t=-53.4C h=4.1% 401.40MHz Type=RS41-SGP batt=2.7V Details on http://radiosondy.info
WA9ONY-14U22208582022-12-05 23:56:2544.7492-123.1421285713248Clb=3.9m/s p=153.9hPa t=-53.4C h=4.1% 401.40MHz Type=RS41-SGP Join https://groups.io/g/Balloons
W7BDB-12U22208582022-12-05 23:56:1944.7498-123.1431395613223Clb=4.2m/s t=-53.6C h=1.8% p=154.6hPa 401.399 MHz Type=RS41-SGP ser=U2220858 Radiosonde
WA9ONY-10U22208582022-12-05 23:56:0644.7502-123.1431365913206Clb=3.3m/s p=154.9hPa t=-53.8C h=4.3% 401.40MHz Type=RS41-SGP Join https://groups.io/g/Balloons
W7BDB-13U22208582022-12-05 23:56:0244.7505-123.1441295913193Clb=3.9m/s p=155.2hPa t=-53.9C h=4.3% 401.40MHz Type=RS41-SGP TxPastBurst=8h30m batt=2.7V Details on http://radiosondy.info
W7BDB-13U22208582022-12-05 23:56:0144.7521-123.1461345613124Clb=5.2m/s p=156.9hPa t=-54.6C h=4.5% 401.40MHz Type=RS41-SGP Details on http://radiosondy.info
W7BDB-13U22208582022-12-05 23:56:0044.7536-123.1481355213055Clb=4.0m/s p=158.6hPa t=-54.6C h=4.5% 401.40MHz Type=RS41-SGP Details on http://radiosondy.info
W7BDB-13U22208582022-12-05 23:55:5944.7549-123.1511324612981Clb=3.7m/s p=160.4hPa t=-54.3C h=4.3% 401.40MHz Type=RS41-SGP batt=2.7V Details on http://radiosondy.info
WA9ONY-14U22208582022-12-05 23:55:5644.7557-123.1521374412938Clb=3.3m/s p=161.5hPa t=-54.3C h=4.6% 401.40MHz Type=RS41-SGP batt=2.7V Join https://groups.io/g/Balloons
W7BDB-13U22208582022-12-05 23:55:5144.7561-123.1521263912911Clb=5.3m/s p=162.2hPa t=-54.3C h=4.5% 401.40MHz Type=RS41-SGP Details on http://radiosondy.info
KJ7NUX-14U22208582022-12-05 23:55:4744.7564-123.1531343312893Clb=3.8m/s p=162.7hPa t=-54.2C h=4.5% 401.40MHz Type=RS41-SGP Details on http://radiosondy.info
WA9ONY-10U22208582022-12-05 23:55:4644.7564-123.1531343512892Clb=3.8m/s p=162.7hPa t=-54.2C h=4.5% 401.40MHz Type=RS41-SGP Join https://groups.io/g/Balloons
WA9ONY-10U22208582022-12-05 23:55:3044.757-123.1541263312842Clb=4.9m/s p=164.0hPa t=-54.3C h=4.5% 401.40MHz Type=RS41-SGP TxPastBurst=8h30m batt=2.7V Join https://groups.io/g/Balloons
W7BDB-13U22208582022-12-05 23:55:2944.757-123.1541283312836Clb=5.0m/s p=164.2hPa t=-54.2C h=4.5% 401.40MHz Type=RS41-SGP Details on http://radiosondy.info
K6GDP-11U22208582022-12-05 23:55:2844.7571-123.1541273312831Clb=4.3m/s t=-54.3C h=1.9% p=164.3hPa 401.400 MHz Type=RS41-SGP ser=U2220858 Radiosonde
KJ7NUX-14U22208582022-12-05 23:55:2244.7572-123.1541173312810Clb=4.3m/s p=164.8hPa t=-54.3C h=4.5% 401.40MHz Type=RS41-SGP batt=2.7V Details on http://radiosondy.info
WA9ONY-14U22208582022-12-05 23:55:1344.7574-123.1551163312792Clb=3.5m/s p=165.2hPa t=-54.1C h=4.5% 401.40MHz Type=RS41-SGP TxPastBurst=8h30m batt=2.7V Join https://groups.io/g/Balloons
W7BDB-13U22208582022-12-05 23:55:0244.7577-123.1551273312760Clb=4.3m/s p=166.0hPa t=-54.2C h=4.5% 401.40MHz Type=RS41-SGP batt=2.7V Details on http://radiosondy.info
WA9ONY-14U22208582022-12-05 23:54:5744.7578-123.1561253512746Clb=5.3m/s p=166.5hPa t=-54.1C h=4.5% 401.40MHz Type=RS41-SGP Join https://groups.io/g/Balloons
KG7GDB-12U22208582022-12-05 23:54:5644.7579-123.1561243112737Clb=5.2m/s t=-54.1C h=2.0% p=166.7hPa 401.401 MHz Type=RS41-SGP ser=U2220858 Radiosonde
KE7WWCU22208582022-12-05 23:54:5544.7579-123.1561243112737Clb=5.2m/s t=-54.1C h=2.0% p=166.7hPa 401.375 MHz Type=RS41-SGP ser=U2220858 Radiosonde
KJ7NUX-14U22208582022-12-05 23:54:5444.7579-123.1561253512737Clb=5.1m/s p=166.7hPa t=-54.0C h=4.5% 401.40MHz Type=RS41-SGP Details on http://radiosondy.info
WA9ONY-14U22208582022-12-05 23:54:4244.7583-123.1571203712701Clb=4.9m/s p=167.6hPa t=-53.9C h=4.5% 401.40MHz Type=RS41-SGP Join https://groups.io/g/Balloons
K6GDP-11U22208582022-12-05 23:54:3944.7585-123.1571203312687Clb=3.5m/s t=-53.9C h=2.1% p=168.0hPa 401.400 MHz Type=RS41-SGP ser=U2220858 Radiosonde
W7BDB-13U22208582022-12-05 23:54:3844.7585-123.1571213912687Clb=3.4m/s p=168.0hPa t=-53.9C h=4.5% 401.40MHz Type=RS41-SGP Details on http://radiosondy.info
KJ7NUX-14U22208582022-12-05 23:54:3244.7587-123.1581304112665Clb=4.0m/s p=168.5hPa t=-54.1C h=4.5% 401.40MHz Type=RS41-SGP Details on http://radiosondy.info
WA9ONY-14U22208582022-12-05 23:54:2744.7589-123.1581254112656Clb=4.0m/s p=168.8hPa t=-54.1C h=4.5% 401.40MHz Type=RS41-SGP batt=2.7V Join https://groups.io/g/Balloons
WA9ONY-10U22208582022-12-05 23:54:2644.7589-123.1581254112656Clb=4.0m/s p=168.8hPa t=-54.1C h=4.5% 401.40MHz Type=RS41-SGP Join https://groups.io/g/Balloons
W7BDB-13U22208582022-12-05 23:54:1244.7594-123.1591264412614Clb=4.4m/s p=169.9hPa t=-53.9C h=4.5% 401.40MHz Type=RS41-SGP Details on http://radiosondy.info
WA9ONY-10U22208582022-12-05 23:54:1044.7594-123.1591274312610Clb=4.1m/s p=170.0hPa t=-53.9C h=4.5% 401.40MHz Type=RS41-SGP Join https://groups.io/g/Balloons
KE7WWCU22208582022-12-05 23:54:0644.7596-123.1591244112596Clb=5.2m/s t=-53.9C h=2.0% p=170.4hPa 401.375 MHz Type=RS41-SGP ser=U2220858 Radiosonde
KJ7NUX-14U22208582022-12-05 23:54:0444.7597-123.1591244412591Clb=4.3m/s p=170.5hPa t=-53.8C h=4.5% 401.40MHz Type=RS41-SGP batt=2.7V Details on http://radiosondy.info
WA9ONY-14U22208582022-12-05 23:53:5444.76-123.161274612564Clb=5.0m/s p=171.2hPa t=-54.2C h=4.6% 401.40MHz Type=RS41-SGP Join https://groups.io/g/Balloons
WA9ONY-10U22208582022-12-05 23:53:5344.76-123.161274612564Clb=5.0m/s p=171.2hPa t=-54.2C h=4.6% 401.40MHz Type=RS41-SGP batt=2.7V Join https://groups.io/g/Balloons
K6GDP-11U22208582022-12-05 23:53:4844.7603-123.1611244612545Clb=4.1m/s t=-54.3C h=2.1% p=171.7hPa 401.400 MHz Type=RS41-SGP ser=U2220858 Radiosonde
W7BDB-13U22208582022-12-05 23:53:4644.7604-123.1611254312541Clb=4.9m/s p=171.8hPa t=-54.2C h=4.6% 401.40MHz Type=RS41-SGP TxPastBurst=8h30m batt=2.7V Details on http://radiosondy.info
KJ7NUX-14U22208582022-12-05 23:53:3844.7607-123.1621254112519Clb=4.2m/s p=172.4hPa t=-54.2C h=4.6% 401.40MHz Type=RS41-SGP Details on http://radiosondy.info
WA9ONY-10U22208582022-12-05 23:53:3744.7607-123.1621254112519Clb=4.2m/s p=172.4hPa t=-54.2C h=4.6% 401.40MHz Type=RS41-SGP Join https://groups.io/g/Balloons
WA9ONY-10U22208582022-12-05 23:53:2144.7613-123.1631283712475Clb=5.1m/s p=173.5hPa t=-54.2C h=4.7% 401.40MHz Type=RS41-SGP Join https://groups.io/g/Balloons
W7BDB-13U22208582022-12-05 23:53:2044.7613-123.1631333512469Clb=4.6m/s p=173.7hPa t=-54.2C h=4.7% 401.40MHz Type=RS41-SGP Details on http://radiosondy.info
KG7GDB-12U22208582022-12-05 23:53:1644.7616-123.1631343712456Clb=3.0m/s t=-54.2C h=2.2% p=174.2hPa 401.401 MHz Type=RS41-SGP ser=U2220858 Radiosonde
KE7WWCU22208582022-12-05 23:53:1544.7616-123.1631343712456Clb=3.0m/s t=-54.2C h=2.2% p=174.2hPa 401.375 MHz Type=RS41-SGP ser=U2220858 Radiosonde
KJ7NUX-14U22208582022-12-05 23:53:1244.7617-123.1631323112447Clb=3.9m/s p=174.3hPa t=-54.2C h=4.7% 401.40MHz Type=RS41-SGP Details on http://radiosondy.info
WA9ONY-10U22208582022-12-05 23:53:0644.7619-123.1641333312431Clb=4.1m/s p=174.8hPa t=-54.2C h=4.7% 401.40MHz Type=RS41-SGP TxPastBurst=8h30m batt=2.7V Join https://groups.io/g/Balloons
K6GDP-11U22208582022-12-05 23:52:5844.7622-123.1641463112407Clb=5.2m/s t=-54.1C h=2.2% p=175.5hPa 401.400 MHz Type=RS41-SGP ser=U2220858 Radiosonde
W7BDB-13U22208582022-12-05 23:52:5544.7624-123.1641423012398Clb=4.4m/s p=175.6hPa t=-54.1C h=4.7% 401.40MHz Type=RS41-SGP Details on http://radiosondy.info
WA9ONY-10U22208582022-12-05 23:52:4844.7625-123.1641303012385Clb=4.5m/s p=176.0hPa t=-54.1C h=4.6% 401.40MHz Type=RS41-SGP Join https://groups.io/g/Balloons
KJ7NUX-14U22208582022-12-05 23:52:4644.7626-123.1651263112376Clb=3.5m/s p=176.3hPa t=-54.2C h=4.7% 401.40MHz Type=RS41-SGP TxPastBurst=8h30m batt=2.7V Details on http://radiosondy.info
WA9ONY-14U22208582022-12-05 23:52:3344.763-123.1651323112340Clb=4.8m/s p=177.3hPa t=-54.5C h=4.8% 401.40MHz Type=RS41-SGP Join https://groups.io/g/Balloons
W7BDB-13U22208582022-12-05 23:52:2744.7631-123.1651303012326Clb=5.2m/s p=177.6hPa t=-54.4C h=4.7% 401.40MHz Type=RS41-SGP batt=2.7V Details on http://radiosondy.info
KG7GDB-12U22208582022-12-05 23:52:2544.7632-123.1661262812318Clb=4.9m/s t=-54.6C h=2.3% p=177.9hPa 401.401 MHz Type=RS41-SGP ser=U2220858 Radiosonde
KE7WWCU22208582022-12-05 23:52:2444.7632-123.1661262812318Clb=4.9m/s t=-54.6C h=2.3% p=177.9hPa 401.375 MHz Type=RS41-SGP ser=U2220858 Radiosonde
KJ7NUX-14U22208582022-12-05 23:52:1844.7634-123.1661233012305Clb=4.1m/s p=178.3hPa t=-54.6C h=4.9% 401.40MHz Type=RS41-SGP Details on http://radiosondy.info
WA9ONY-14U22208582022-12-05 23:52:1444.7634-123.1661233012297Clb=4.6m/s p=178.5hPa t=-54.7C h=4.9% 401.40MHz Type=RS41-SGP Join https://groups.io/g/Balloons
K6GDP-11U22208582022-12-05 23:52:0544.7637-123.1671212812271Clb=4.5m/s t=-54.7C h=2.4% p=179.2hPa 401.400 MHz Type=RS41-SGP ser=U2220858 Radiosonde
W7BDB-13U22208582022-12-05 23:52:0044.7638-123.1671153012258Clb=3.7m/s p=179.5hPa t=-54.7C h=4.9% 401.40MHz Type=RS41-SGP Details on http://radiosondy.info
WA9ONY-14U22208582022-12-05 23:51:5944.7638-123.1671153112254Clb=3.9m/s p=179.6hPa t=-54.7C h=4.9% 401.40MHz Type=RS41-SGP batt=2.7V Join https://groups.io/g/Balloons
W7BDB-12U22208582022-12-05 23:51:5844.7639-123.1671133112241Clb=5.3m/s t=-54.8C h=2.4% p=180.0hPa 401.399 MHz Type=RS41-SGP ser=U2220858 Radiosonde
KJ7NUX-14U22208582022-12-05 23:51:5544.7639-123.1671173012237Clb=3.4m/s p=180.1hPa t=-54.7C h=4.9% 401.40MHz Type=RS41-SGP Details on http://radiosondy.info
WA9ONY-10U22208582022-12-05 23:51:4944.7642-123.1681252612210Clb=3.9m/s p=180.9hPa t=-55.0C h=5.0% 401.40MHz Type=RS41-SGP Join https://groups.io/g/Balloons
W7BDB-13U22208582022-12-05 23:51:4544.7644-123.1681393012190Clb=4.7m/s p=181.5hPa t=-55.2C h=5.1% 401.40MHz Type=RS41-SGP Details on http://radiosondy.info
KE7WWCU22208582022-12-05 23:51:4344.7645-123.1681392612182Clb=4.5m/s t=-55.2C h=2.5% p=181.8hPa 401.375 MHz Type=RS41-SGP ser=U2220858 Radiosonde
KJ7NUX-14U22208582022-12-05 23:51:3944.7647-123.1691463112164Clb=3.4m/s p=182.2hPa t=-55.0C h=5.1% 401.40MHz Type=RS41-SGP batt=2.7V Details on http://radiosondy.info
K6GDP-11U22208582022-12-05 23:51:3244.7651-123.1691483012134Clb=3.7m/s t=-54.8C h=2.5% p=183.1hPa 401.400 MHz Type=RS41-SGP ser=U2220858 Radiosonde
W7BDB-13U22208582022-12-05 23:51:3044.7653-123.1691473312126Clb=3.7m/s p=183.3hPa t=-54.7C h=5.2% 401.40MHz Type=RS41-SGP batt=2.7V Details on http://radiosondy.info
KJ7NUX-14U22208582022-12-05 23:51:2344.7657-123.171493312095Clb=3.9m/s p=184.2hPa t=-54.7C h=5.1% 401.40MHz Type=RS41-SGP Details on http://radiosondy.info
WA9ONY-10U22208582022-12-05 23:51:1944.766-123.171503312078Clb=5.2m/s p=184.6hPa t=-54.8C h=5.1% 401.40MHz Type=RS41-SGP Join https://groups.io/g/Balloons
KG7GDB-12U22208582022-12-05 23:51:1744.7665-123.171453312048Clb=4.4m/s t=-54.7C h=2.5% p=185.6hPa 401.401 MHz Type=RS41-SGP ser=U2220858 Radiosonde
K6GDP-11U22208582022-12-05 23:51:1644.7674-123.1711513712001Clb=3.6m/s t=-54.9C h=2.7% p=186.9hPa 401.400 MHz Type=RS41-SGP ser=U2220858 Radiosonde
WA9ONY-10U22208582022-12-05 23:51:1544.7693-123.1721483011902Clb=3.3m/s p=189.8hPa t=-55.2C h=5.6% 401.40MHz Type=RS41-SGP batt=2.7V Join https://groups.io/g/Balloons
W7BDB-12U22208582022-12-05 23:51:1444.7701-123.173106711820Clb=3.4m/s t=-55.2C h=3.1% p=192.3hPa 401.399 MHz Type=RS41-SGP ser=U2220858 Radiosonde
WA9ONY-10U22208582022-12-05 23:51:1344.7707-123.1741603011745Clb=7.7m/s p=194.5hPa t=-55.2C h=5.7% 401.40MHz Type=RS41-SGP batt=2.7V Join https://groups.io/g/Balloons
KE7WWCU22208582022-12-05 23:51:1144.771-123.1741813011723Clb=2.8m/s t=-55.2C h=3.2% p=195.2hPa 401.375 MHz Type=RS41-SGP ser=U2220858 Radiosonde
KJ7NUX-14U22208582022-12-05 23:51:1044.7711-123.1741752411714Clb=4.9m/s p=195.4hPa t=-55.2C h=6.1% 401.40MHz Type=RS41-SGP TxPastBurst=8h30m batt=2.7V Details on http://radiosondy.info
W7BDB-13U22208582022-12-05 23:51:0644.7713-123.1741542211702Clb=4.8m/s p=195.8hPa t=-55.2C h=6.2% 401.40MHz Type=RS41-SGP batt=2.7V Details on http://radiosondy.info
K6GDP-11U22208582022-12-05 23:51:0544.7714-123.1741553111697Clb=3.7m/s t=-55.3C h=3.5% p=196.0hPa 401.400 MHz Type=RS41-SGP ser=U2220858 Radiosonde
WA9ONY-14U22208582022-12-05 23:50:5244.7719-123.1741853011638Clb=5.4m/s p=197.8hPa t=-55.3C h=5.9% 401.40MHz Type=RS41-SGP Join https://groups.io/g/Balloons
KJ7NUX-14U22208582022-12-05 23:50:5144.7719-123.1741803111633Clb=4.5m/s p=197.9hPa t=-55.4C h=6.0% 401.40MHz Type=RS41-SGP Details on http://radiosondy.info
W7BDB-13U22208582022-12-05 23:50:4544.7722-123.1741633311610Clb=3.8m/s p=198.6hPa t=-55.8C h=6.5% 401.40MHz Type=RS41-SGP Details on http://radiosondy.info
WA9ONY-10U22208582022-12-05 23:50:3744.7726-123.1741663711591Clb=4.8m/s p=199.2hPa t=-55.9C h=6.5% 401.40MHz Type=RS41-SGP TxPastBurst=8h30m batt=2.7V Join https://groups.io/g/Balloons
KJ7NUX-14U22208582022-12-05 23:50:2344.7734-123.1751593111554Clb=3.8m/s p=200.4hPa t=-55.6C h=6.6% 401.40MHz Type=RS41-SGP Details on http://radiosondy.info
WA9ONY-14U22208582022-12-05 23:50:2044.7735-123.1751563111549Clb=5.4m/s p=200.6hPa t=-55.5C h=6.7% 401.40MHz Type=RS41-SGP TxPastBurst=8h30m batt=2.7V Join https://groups.io/g/Balloons
W7BDB-13U22208582022-12-05 23:50:1944.7735-123.1751543111545Clb=2.7m/s p=200.8hPa t=-55.5C h=6.8% 401.40MHz Type=RS41-SGP Details on http://radiosondy.info
WA9ONY-10U22208582022-12-05 23:50:0444.7742-123.1751533111509Clb=5.2m/s p=201.8hPa t=-55.4C h=6.7% 401.40MHz Type=RS41-SGP Join https://groups.io/g/Balloons
KJ7NUX-14U22208582022-12-05 23:49:5644.7745-123.1751492811485Clb=5.3m/s p=202.6hPa t=-55.2C h=6.6% 401.40MHz Type=RS41-SGP batt=2.7V Details on http://radiosondy.info
W7BDB-13U22208582022-12-05 23:49:5544.7746-123.1751492811481Clb=3.8m/s p=202.8hPa t=-55.1C h=6.5% 401.40MHz Type=RS41-SGP batt=2.7V Details on http://radiosondy.info
WA9ONY-10U22208582022-12-05 23:49:4944.7748-123.1761512811462Clb=3.8m/s p=203.4hPa t=-55.0C h=6.5% 401.40MHz Type=RS41-SGP batt=2.7V Join https://groups.io/g/Balloons
KG7GDB-12U22208582022-12-05 23:49:4844.7749-123.1761502811458Clb=5.0m/s t=-55.0C h=4.0% p=203.6hPa 401.401 MHz Type=RS41-SGP ser=U2220858 Radiosonde
WA9ONY-14U22208582022-12-05 23:49:3344.7754-123.1761452811417Clb=3.9m/s p=204.8hPa t=-55.8C h=7.3% 401.40MHz Type=RS41-SGP batt=2.7V Join https://groups.io/g/Balloons
KE7WWCU22208582022-12-05 23:49:3244.7755-123.1761442811412Clb=5.3m/s t=-55.9C h=4.5% p=205.0hPa 401.375 MHz Type=RS41-SGP ser=U2220858 Radiosonde
W7BDB-13U22208582022-12-05 23:49:3044.7755-123.1761432411407Clb=4.6m/s p=205.1hPa t=-55.8C h=7.4% 401.40MHz Type=RS41-SGP Details on http://radiosondy.info
WA9ONY-10U22208582022-12-05 23:49:1844.7759-123.1771472211370Clb=4.5m/s p=206.2hPa t=-56.2C h=7.8% 401.40MHz Type=RS41-SGP Join https://groups.io/g/Balloons
KJ7NUX-14U22208582022-12-05 23:49:0644.7763-123.1771552611339Clb=4.8m/s p=207.3hPa t=-56.0C h=7.8% 401.40MHz Type=RS41-SGP Details on http://radiosondy.info
WA9ONY-10U22208582022-12-05 23:49:0144.7764-123.1771612811327Clb=5.0m/s p=207.7hPa t=-55.9C h=8.2% 401.40MHz Type=RS41-SGP batt=2.7V Join https://groups.io/g/Balloons
KG7GDB-12U22208582022-12-05 23:48:5844.7766-123.1771653011313Clb=5.1m/s t=-55.9C h=5.3% p=208.2hPa 401.401 MHz Type=RS41-SGP ser=U2220858 Radiosonde
WA9ONY-10U22208582022-12-05 23:48:4444.7771-123.1771702811281Clb=4.5m/s p=209.2hPa t=-55.7C h=8.5% 401.40MHz Type=RS41-SGP Join https://groups.io/g/Balloons
KE7WWCU22208582022-12-05 23:48:4244.7772-123.1771732411272Clb=3.8m/s t=-55.7C h=5.6% p=209.6hPa 401.375 MHz Type=RS41-SGP ser=U2220858 Radiosonde
W7BDB-13U22208582022-12-05 23:48:4144.7772-123.1771743011271Clb=3.8m/s p=209.5hPa t=-55.7C h=8.6% 401.40MHz Type=RS41-SGP TxPastBurst=8h30m batt=2.7V Details on http://radiosondy.info
KJ7NUX-14U22208582022-12-05 23:48:4044.7773-123.1771733111267Clb=4.8m/s p=209.6hPa t=-55.6C h=8.6% 401.40MHz Type=RS41-SGP batt=2.7V Details on http://radiosondy.info
K6GDP-11U22208582022-12-05 23:48:3944.7773-123.1771722611267Clb=4.8m/s t=-55.7C h=5.6% p=209.7hPa 401.400 MHz Type=RS41-SGP ser=U2220858 Radiosonde
WA9ONY-10U22208582022-12-05 23:48:2844.7778-123.1771763311232Clb=5.1m/s p=210.8hPa t=-55.5C h=9.1% 401.40MHz Type=RS41-SGP Join https://groups.io/g/Balloons
W7BDB-13U22208582022-12-05 23:48:1844.7784-123.1771763311198Clb=4.1m/s p=212.0hPa t=-55.8C h=10.7% 401.40MHz Type=RS41-SGP Details on http://radiosondy.info
KJ7NUX-14U22208582022-12-05 23:48:1544.7785-123.1771723511190Clb=3.8m/s p=212.2hPa t=-56.2C h=11.2% 401.40MHz Type=RS41-SGP Details on http://radiosondy.info
WA9ONY-14U22208582022-12-05 23:48:1344.7786-123.1781733511185Clb=4.8m/s p=212.3hPa t=-56.2C h=11.2% 401.40MHz Type=RS41-SGP Join https://groups.io/g/Balloons
KG7GDB-12U22208582022-12-05 23:48:0944.7789-123.1781713311172Clb=5.1m/s t=-56.4C h=7.9% p=212.9hPa 401.401 MHz Type=RS41-SGP ser=U2220858 Radiosonde
WA9ONY-14U22208582022-12-05 23:47:5944.7795-123.1781823311141Clb=4.7m/s p=213.8hPa t=-56.1C h=12.6% 401.40MHz Type=RS41-SGP TxPastBurst=8h30m batt=2.7V Join https://groups.io/g/Balloons
W7BDB-13U22208582022-12-05 23:47:5744.7797-123.1781823111132Clb=4.2m/s p=214.1hPa t=-56.1C h=12.9% 401.40MHz Type=RS41-SGP Details on http://radiosondy.info
KE7WWCU22208582022-12-05 23:47:5644.7798-123.1781783511127Clb=4.9m/s t=-56.1C h=9.6% p=214.3hPa 401.375 MHz Type=RS41-SGP ser=U2220858 Radiosonde
K6GDP-11U22208582022-12-05 23:47:5544.7799-123.1781753311118Clb=4.6m/s t=-56.1C h=10.0% p=214.7hPa 401.400 MHz Type=RS41-SGP ser=U2220858 Radiosonde
KJ7NUX-14U22208582022-12-05 23:47:5444.78-123.1781763011118Clb=4.5m/s p=214.6hPa t=-56.0C h=13.5% 401.40MHz Type=RS41-SGP Details on http://radiosondy.info
WA9ONY-14U22208582022-12-05 23:47:5044.7803-123.1781832811094Clb=5.7m/s p=215.4hPa t=-56.7C h=14.9% 401.40MHz Type=RS41-SGP Join https://groups.io/g/Balloons
W7BDB-13U22208582022-12-05 23:47:4244.7808-123.1781792611062Clb=3.6m/s p=216.5hPa t=-56.8C h=15.7% 401.40MHz Type=RS41-SGP batt=2.7V Details on http://radiosondy.info
WA9ONY-14U22208582022-12-05 23:47:3944.781-123.1781962411048Clb=3.6m/s p=217.0hPa t=-56.9C h=16.7% 401.40MHz Type=RS41-SGP Join https://groups.io/g/Balloons
KJ7NUX-14U22208582022-12-05 23:47:3844.7811-123.1781972611044Clb=5.4m/s p=217.1hPa t=-56.9C h=17.0% 401.40MHz Type=RS41-SGP TxPastBurst=8h30m batt=2.7V Details on http://radiosondy.info
KG7GDB-12U22208582022-12-05 23:47:3644.7812-123.1782152211029Clb=4.4m/s t=-57.3C h=14.2% p=217.7hPa 401.401 MHz Type=RS41-SGP ser=U2220858 Radiosonde
WA9ONY-14U22208582022-12-05 23:47:2944.7816-123.1771872811002Clb=5.4m/s p=218.5hPa t=-57.7C h=20.2% 401.40MHz Type=RS41-SGP batt=2.7V Join https://groups.io/g/Balloons
W7BDB-13U22208582022-12-05 23:47:2744.7818-123.1771923710989Clb=4.4m/s p=219.0hPa t=-57.6C h=20.1% 401.40MHz Type=RS41-SGP Details on http://radiosondy.info
KE7WWCU22208582022-12-05 23:47:2544.7819-123.1772062810985Clb=3.5m/s t=-57.7C h=15.6% p=219.2hPa 401.375 MHz Type=RS41-SGP ser=U2220858 Radiosonde
K6GDP-11U22208582022-12-05 23:47:2444.782-123.1772272610973Clb=6.7m/s t=-58.0C h=15.7% p=219.5hPa 401.400 MHz Type=RS41-SGP ser=U2220858 Radiosonde
KJ7NUX-14U22208582022-12-05 23:47:2244.782-123.1772323910967Clb=7.1m/s p=219.7hPa t=-58.0C h=20.2% 401.40MHz Type=RS41-SGP Details on http://radiosondy.info
WA9ONY-14U22208582022-12-05 23:47:1944.7822-123.1772114310952Clb=6.1m/s p=220.2hPa t=-58.0C h=21.3% 401.40MHz Type=RS41-SGP Join https://groups.io/g/Balloons
W7BDB-13U22208582022-12-05 23:47:1144.783-123.1762105610901Clb=4.2m/s p=222.0hPa t=-58.0C h=23.8% 401.40MHz Type=RS41-SGP Details on http://radiosondy.info
WA9ONY-14U22208582022-12-05 23:47:1044.7831-123.1762075210896Clb=5.3m/s p=222.2hPa t=-58.2C h=24.3% 401.40MHz Type=RS41-SGP Join https://groups.io/g/Balloons
KJ7NUX-14U22208582022-12-05 23:47:0644.7834-123.1761956110886Clb=4.1m/s p=222.6hPa t=-58.3C h=25.1% 401.40MHz Type=RS41-SGP Details on http://radiosondy.info
KG7GDB-12U22208582022-12-05 23:47:0544.7837-123.1761975210876Clb=5.6m/s t=-58.7C h=21.3% p=223.0hPa 401.401 MHz Type=RS41-SGP ser=U2220858 Radiosonde
WA9ONY-14U22208582022-12-05 23:46:5944.7843-123.1752116710844Clb=8.4m/s p=224.1hPa t=-58.6C h=25.5% 401.40MHz Type=RS41-SGP batt=2.7V Join https://groups.io/g/Balloons
KE7WWCU22208582022-12-05 23:46:5744.7851-123.1752086510820Clb=3.8m/s t=-58.6C h=21.4% p=225.0hPa 401.374 MHz Type=RS41-SGP ser=U2220858 Radiosonde
W7BDB-13U22208582022-12-05 23:46:5444.7851-123.1752096710820Clb=3.8m/s p=225.0hPa t=-58.5C h=26.0% 401.40MHz Type=RS41-SGP batt=2.7V Details on http://radiosondy.info
K6GDP-11U22208582022-12-05 23:46:5344.7854-123.1752096310812Clb=3.9m/s t=-58.5C h=21.3% p=225.2hPa 401.400 MHz Type=RS41-SGP ser=U2220858 Radiosonde
KJ7NUX-14U22208582022-12-05 23:46:5044.7856-123.1742106510805Clb=2.8m/s p=225.6hPa t=-58.5C h=26.0% 401.40MHz Type=RS41-SGP batt=2.7V Details on http://radiosondy.info
KG7GDB-12U22208582022-12-05 23:46:4944.7881-123.1732006110740Clb=3.1m/s t=-60.8C h=24.9% p=227.9hPa 401.401 MHz Type=RS41-SGP ser=U2220858 Radiosonde
W7BDB-12U22208582022-12-05 23:46:4844.791-123.1712127410667Clb=3.3m/s t=-60.9C h=25.1% p=230.5hPa 401.399 MHz Type=RS41-SGP ser=U2220858 Radiosonde
WA9ONY-14U22208582022-12-05 23:46:4744.7932-123.1692038110586Clb=5.4m/s p=233.6hPa t=-61.1C h=29.3% 401.40MHz Type=RS41-SGP batt=2.7V Join https://groups.io/g/Balloons
W7BDB-13U22208582022-12-05 23:46:4444.7947-123.1682027810554Clb=3.7m/s p=234.8hPa t=-60.9C h=28.8% 401.40MHz Type=RS41-SGP Details on http://radiosondy.info
WA9ONY-10U22208582022-12-05 23:46:4244.7951-123.1682047610547Clb=4.0m/s p=235.1hPa t=-61.0C h=29.1% 401.40MHz Type=RS41-SGP Join https://groups.io/g/Balloons
KJ7NUX-14U22208582022-12-05 23:46:4044.7956-123.1672067810535Clb=3.5m/s p=235.5hPa t=-61.0C h=28.9% 401.40MHz Type=RS41-SGP Details on http://radiosondy.info
WA9ONY-14U22208582022-12-05 23:46:3244.7968-123.1672048010510Clb=5.0m/s p=236.5hPa t=-61.1C h=29.8% 401.40MHz Type=RS41-SGP Join https://groups.io/g/Balloons
W7BDB-13U22208582022-12-05 23:46:2744.7974-123.1661997810497Clb=3.8m/s p=237.0hPa t=-61.0C h=29.6% 401.40MHz Type=RS41-SGP Details on http://radiosondy.info
KG7GDB-12U22208582022-12-05 23:46:2044.7984-123.1662017410478Clb=3.8m/s t=-61.1C h=24.6% p=237.7hPa 401.401 MHz Type=RS41-SGP ser=U2220858 Radiosonde
KJ7NUX-14U22208582022-12-05 23:46:1844.7985-123.1662027610474Clb=4.7m/s p=237.8hPa t=-61.0C h=30.2% 401.40MHz Type=RS41-SGP Details on http://radiosondy.info
WA9ONY-14U22208582022-12-05 23:46:1544.7987-123.1662037610469Clb=3.6m/s p=238.0hPa t=-61.0C h=30.7% 401.40MHz Type=RS41-SGP batt=2.7V Join https://groups.io/g/Balloons
KE7WWCU22208582022-12-05 23:46:0344.8003-123.1651997810433Clb=3.6m/s t=-60.8C h=25.3% p=239.4hPa 401.374 MHz Type=RS41-SGP ser=U2220858 Radiosonde
W7BDB-13U22208582022-12-05 23:46:0244.8003-123.1652007410433Clb=3.5m/s p=239.4hPa t=-60.8C h=30.8% 401.40MHz Type=RS41-SGP batt=2.7V Details on http://radiosondy.info
K6GDP-11U22208582022-12-05 23:46:0144.8005-123.1652007610430Clb=3.2m/s t=-60.8C h=25.5% p=239.6hPa 401.400 MHz Type=RS41-SGP ser=U2220858 Radiosonde
WA9ONY-14U22208582022-12-05 23:46:0044.8005-123.1652017410430Clb=3.1m/s p=239.6hPa t=-60.8C h=31.0% 401.40MHz Type=RS41-SGP Join https://groups.io/g/Balloons
KJ7NUX-14U22208582022-12-05 23:45:5344.8014-123.1642047210409Clb=3.7m/s p=240.3hPa t=-60.7C h=30.9% 401.40MHz Type=RS41-SGP TxPastBurst=8h30m batt=2.7V Details on http://radiosondy.info
WA9ONY-14U22208582022-12-05 23:45:4444.8022-123.1641997010388Clb=4.9m/s p=241.1hPa t=-60.6C h=30.9% 401.40MHz Type=RS41-SGP Join https://groups.io/g/Balloons
W7BDB-13U22208582022-12-05 23:45:3944.8029-123.1631997010372Clb=2.8m/s p=241.8hPa t=-60.5C h=31.2% 401.40MHz Type=RS41-SGP Details on http://radiosondy.info
KG7GDB-12U22208582022-12-05 23:45:3144.8037-123.1632016710350Clb=3.9m/s t=-60.4C h=26.1% p=242.6hPa 401.401 MHz Type=RS41-SGP ser=U2220858 Radiosonde
WA9ONY-14U22208582022-12-05 23:45:2944.8039-123.1632017010346Clb=4.6m/s p=242.8hPa t=-60.3C h=31.6% 401.40MHz Type=RS41-SGP TxPastBurst=8h30m batt=2.7V Join https://groups.io/g/Balloons
KJ7NUX-14U22208582022-12-05 23:45:2744.804-123.1632006910342Clb=3.8m/s p=242.9hPa t=-60.3C h=31.9% 401.40MHz Type=RS41-SGP Details on http://radiosondy.info
W7BDB-13U22208582022-12-05 23:45:1544.8054-123.1622056510308Clb=5.1m/s p=244.2hPa t=-60.1C h=33.3% 401.40MHz Type=RS41-SGP Details on http://radiosondy.info
WA9ONY-10U22208582022-12-05 23:45:1344.8055-123.1622056710303Clb=2.9m/s p=244.4hPa t=-60.0C h=33.3% 401.40MHz Type=RS41-SGP Join https://groups.io/g/Balloons
K6GDP-11U22208582022-12-05 23:45:1244.8057-123.1622056310299Clb=4.5m/s t=-60.1C h=27.2% p=244.6hPa 401.400 MHz Type=RS41-SGP ser=U2220858 Radiosonde
KJ7NUX-14U22208582022-12-05 23:45:0344.8066-123.1611996510272Clb=4.7m/s p=245.6hPa t=-59.9C h=32.1% 401.40MHz Type=RS41-SGP Details on http://radiosondy.info
WA9ONY-10U22208582022-12-05 23:44:5744.807-123.1611986310258Clb=2.7m/s p=246.2hPa t=-59.8C h=32.8% 401.40MHz Type=RS41-SGP batt=2.7V Join https://groups.io/g/Balloons
W7BDB-13U22208582022-12-05 23:44:5144.8076-123.1612076310238Clb=3.3m/s p=247.0hPa t=-59.7C h=33.1% 401.40MHz Type=RS41-SGP batt=2.7V Details on http://radiosondy.info
WA9ONY-10U22208582022-12-05 23:44:4144.8085-123.162086110212Clb=3.7m/s p=248.0hPa t=-59.5C h=32.2% 401.40MHz Type=RS41-SGP Join https://groups.io/g/Balloons
KJ7NUX-14U22208582022-12-05 23:44:3844.8089-123.162096310199Clb=3.2m/s p=248.5hPa t=-59.3C h=31.4% 401.40MHz Type=RS41-SGP batt=2.7V Details on http://radiosondy.info
W7BDB-13U22208582022-12-05 23:44:2944.8097-123.1592116310173Clb=4.3m/s p=249.5hPa t=-59.1C h=30.8% 401.40MHz Type=RS41-SGP Details on http://radiosondy.info
WA9ONY-10U22208582022-12-05 23:44:2744.8098-123.1592096510169Clb=4.1m/s p=249.7hPa t=-59.1C h=30.6% 401.40MHz Type=RS41-SGP Join https://groups.io/g/Balloons
K6GDP-11U22208582022-12-05 23:44:2544.8101-123.1592036510161Clb=3.6m/s t=-59.1C h=25.5% p=250.1hPa 401.400 MHz Type=RS41-SGP ser=U2220858 Radiosonde
W7BDB-12U22208582022-12-05 23:44:1844.8111-123.1582116110131Clb=3.8m/s t=-58.8C h=26.2% p=251.3hPa 401.399 MHz Type=RS41-SGP ser=U2220858 Radiosonde
KJ7NUX-14U22208582022-12-05 23:44:1444.8111-123.1582126510131Clb=3.7m/s p=251.2hPa t=-58.8C h=31.3% 401.40MHz Type=RS41-SGP Details on http://radiosondy.info
WA9ONY-14U22208582022-12-05 23:44:1244.8112-123.1582126510126Clb=4.9m/s p=251.4hPa t=-58.8C h=31.4% 401.40MHz Type=RS41-SGP Join https://groups.io/g/Balloons
W7BDB-13U22208582022-12-05 23:44:0644.8118-123.1582116510109Clb=3.3m/s p=252.1hPa t=-58.6C h=31.7% 401.40MHz Type=RS41-SGP Details on http://radiosondy.info
WA9ONY-14U22208582022-12-05 23:43:5944.8127-123.1572116110083Clb=3.3m/s p=253.2hPa t=-58.4C h=31.9% 401.40MHz Type=RS41-SGP batt=2.7V Join https://groups.io/g/Balloons
KG7GDB-12U22208582022-12-05 23:43:5844.8128-123.1572106510080Clb=3.4m/s t=-58.4C h=26.4% p=253.3hPa 401.401 MHz Type=RS41-SGP ser=U2220858 Radiosonde
KJ7NUX-14U22208582022-12-05 23:43:5444.8134-123.1572066110063Clb=3.8m/s p=253.9hPa t=-58.2C h=31.0% 401.40MHz Type=RS41-SGP Details on http://radiosondy.info
W7BDB-13U22208582022-12-05 23:43:5044.8139-123.1562116110047Clb=5.6m/s p=254.6hPa t=-58.1C h=30.2% 401.40MHz Type=RS41-SGP TxPastBurst=8h30m batt=2.7V Details on http://radiosondy.info
WA9ONY-14U22208582022-12-05 23:43:4944.814-123.1562116310042Clb=3.9m/s p=254.8hPa t=-58.1C h=30.2% 401.40MHz Type=RS41-SGP Join https://groups.io/g/Balloons
KE7WWCU22208582022-12-05 23:43:4844.8143-123.1562116510032Clb=4.2m/s t=-58.0C h=24.9% p=255.2hPa 401.374 MHz Type=RS41-SGP ser=U2220858 Radiosonde
K6GDP-11U22208582022-12-05 23:43:4744.8144-123.1562106510027Clb=5.1m/s t=-58.0C h=25.0% p=255.4hPa 401.400 MHz Type=RS41-SGP ser=U2220858 Radiosonde
WA9ONY-14U22208582022-12-05 23:43:3944.8154-123.155211619997Clb=3.2m/s p=256.6hPa t=-57.7C h=29.9% 401.40MHz Type=RS41-SGP Join https://groups.io/g/Balloons
KJ7NUX-14U22208582022-12-05 23:43:3844.8155-123.155212619993Clb=4.5m/s p=256.8hPa t=-57.7C h=29.7% 401.40MHz Type=RS41-SGP batt=2.7V Details on http://radiosondy.info
W7BDB-13U22208582022-12-05 23:43:3444.816-123.154209619976Clb=3.4m/s p=257.4hPa t=-57.6C h=29.0% 401.40MHz Type=RS41-SGP Details on http://radiosondy.info
WA9ONY-14U22208582022-12-05 23:43:2944.8167-123.154211619953Clb=4.6m/s p=258.3hPa t=-57.5C h=29.3% 401.40MHz Type=RS41-SGP TxPastBurst=8h30m batt=2.7V Join https://groups.io/g/Balloons
WA9ONY-10U22208582022-12-05 23:43:2844.8168-123.154212619949Clb=4.2m/s p=258.6hPa t=-57.4C h=29.5% 401.40MHz Type=RS41-SGP Join https://groups.io/g/Balloons
KG7GDB-12U22208582022-12-05 23:43:2744.8169-123.154212579945Clb=2.9m/s t=-57.4C h=24.6% p=258.7hPa 401.401 MHz Type=RS41-SGP ser=U2220858 Radiosonde
KJ7NUX-14U22208582022-12-05 23:43:2344.8176-123.153212619923Clb=4.1m/s p=259.6hPa t=-57.2C h=29.5% 401.40MHz Type=RS41-SGP Details on http://radiosondy.info
W7BDB-13U22208582022-12-05 23:43:1944.818-123.153214619909Clb=5.5m/s p=260.2hPa t=-57.2C h=30.1% 401.40MHz Type=RS41-SGP Details on http://radiosondy.info
WA9ONY-10U22208582022-12-05 23:43:1844.8181-123.153214619905Clb=3.7m/s p=260.3hPa t=-57.1C h=30.2% 401.40MHz Type=RS41-SGP Join https://groups.io/g/Balloons
KE7WWCU22208582022-12-05 23:43:1744.8183-123.152213599896Clb=3.1m/s t=-57.1C h=25.8% p=260.8hPa 401.374 MHz Type=RS41-SGP ser=U2220858 Radiosonde
K6GDP-11U22208582022-12-05 23:43:1644.8185-123.152213579892Clb=4.6m/s t=-57.1C h=25.6% p=260.9hPa 401.400 MHz Type=RS41-SGP ser=U2220858 Radiosonde
WA9ONY-14U22208582022-12-05 23:43:0944.8192-123.152209639869Clb=4.1m/s p=261.8hPa t=-56.8C h=30.3% 401.40MHz Type=RS41-SGP Join https://groups.io/g/Balloons
WA9ONY-10U22208582022-12-05 23:43:0844.8194-123.152211619864Clb=4.1m/s p=262.0hPa t=-56.8C h=30.5% 401.40MHz Type=RS41-SGP batt=2.7V Join https://groups.io/g/Balloons
KJ7NUX-14U22208582022-12-05 23:43:0644.8196-123.151216619857Clb=3.7m/s p=262.3hPa t=-56.7C h=30.5% 401.40MHz Type=RS41-SGP Details on http://radiosondy.info
W7BDB-13U22208582022-12-05 23:43:0444.8199-123.151215599849Clb=4.2m/s p=262.6hPa t=-56.7C h=30.4% 401.40MHz Type=RS41-SGP batt=2.7V Details on http://radiosondy.info
WA9ONY-14U22208582022-12-05 23:42:5944.8205-123.151211599828Clb=3.9m/s p=263.5hPa t=-56.5C h=30.0% 401.40MHz Type=RS41-SGP batt=2.7V Join https://groups.io/g/Balloons
WA9ONY-10U22208582022-12-05 23:42:5844.8207-123.15209619824Clb=4.6m/s p=263.7hPa t=-56.5C h=30.2% 401.40MHz Type=RS41-SGP Join https://groups.io/g/Balloons
KG7GDB-12U22208582022-12-05 23:42:5644.8209-123.15212569815Clb=4.5m/s t=-56.5C h=25.8% p=264.1hPa 401.401 MHz Type=RS41-SGP ser=U2220858 Radiosonde
KJ7NUX-14U22208582022-12-05 23:42:5044.8217-123.15216619790Clb=3.6m/s p=265.1hPa t=-56.2C h=30.3% 401.40MHz Type=RS41-SGP TxPastBurst=8h30m batt=2.7V Details on http://radiosondy.info
W7BDB-13U22208582022-12-05 23:42:4944.8218-123.149212619786Clb=4.9m/s p=265.2hPa t=-56.2C h=30.3% 401.40MHz Type=RS41-SGP Details on http://radiosondy.info
WA9ONY-10U22208582022-12-05 23:42:4844.8219-123.149210599781Clb=3.7m/s p=265.4hPa t=-56.1C h=30.2% 401.40MHz Type=RS41-SGP Join https://groups.io/g/Balloons
KE7WWCU22208582022-12-05 23:42:4544.8224-123.149210599765Clb=5.0m/s t=-56.0C h=25.3% p=266.2hPa 401.374 MHz Type=RS41-SGP ser=U2220858 Radiosonde
K6GDP-11U22208582022-12-05 23:42:4444.8224-123.149210599765Clb=5.0m/s t=-56.0C h=25.3% p=266.2hPa 401.400 MHz Type=RS41-SGP ser=U2220858 Radiosonde
WA9ONY-14U22208582022-12-05 23:42:3944.8231-123.148215639743Clb=5.2m/s p=267.1hPa t=-55.8C h=29.8% 401.40MHz Type=RS41-SGP Join https://groups.io/g/Balloons
WA9ONY-10U22208582022-12-05 23:42:3844.8232-123.148214619738Clb=3.5m/s p=267.3hPa t=-55.7C h=29.8% 401.40MHz Type=RS41-SGP batt=2.7V Join https://groups.io/g/Balloons
KJ7NUX-14U22208582022-12-05 23:42:3444.8237-123.148215599719Clb=5.4m/s p=268.1hPa t=-55.6C h=30.1% 401.40MHz Type=RS41-SGP Details on http://radiosondy.info
W7BDB-13U22208582022-12-05 23:42:3344.8238-123.148214599714Clb=4.4m/s p=268.3hPa t=-55.6C h=29.6% 401.40MHz Type=RS41-SGP Details on http://radiosondy.info
WA9ONY-14U22208582022-12-05 23:42:2944.8244-123.147211579695Clb=6.0m/s p=269.0hPa t=-55.4C h=30.2% 401.40MHz Type=RS41-SGP batt=2.7V Join https://groups.io/g/Balloons
KJ7NUX-14U22208582022-12-05 23:42:2844.8257-123.146216599636Clb=4.8m/s p=271.6hPa t=-55.2C h=30.6% 401.40MHz Type=RS41-SGP Details on http://radiosondy.info
KG7GDB-12U22208582022-12-05 23:42:2744.8285-123.143215599489Clb=7.3m/s t=-54.1C h=28.1% p=277.9hPa 401.401 MHz Type=RS41-SGP ser=U2220858 Radiosonde
KE7WWCU22208582022-12-05 23:42:2544.8298-123.141225599427Clb=6.7m/s t=-53.8C h=29.9% p=280.5hPa 401.374 MHz Type=RS41-SGP ser=U2220858 Radiosonde
K6GDP-11U22208582022-12-05 23:42:2344.8299-123.141228619421Clb=5.5m/s t=-53.8C h=30.0% p=280.8hPa 401.400 MHz Type=RS41-SGP ser=U2220858 Radiosonde
WA9ONY-14U22208582022-12-05 23:42:2144.8302-123.141228639403Clb=7.6m/s p=281.5hPa t=-53.6C h=35.4% 401.40MHz Type=RS41-SGP Join https://groups.io/g/Balloons
WA9ONY-10U22208582022-12-05 23:42:2044.8303-123.141225639396Clb=6.4m/s p=281.8hPa t=-53.5C h=36.0% 401.40MHz Type=RS41-SGP batt=2.7V Join https://groups.io/g/Balloons
W7BDB-13U22208582022-12-05 23:42:1544.831-123.14221659360Clb=5.8m/s p=283.5hPa t=-53.3C h=37.2% 401.40MHz Type=RS41-SGP TxPastBurst=8h30m batt=2.7V Details on http://radiosondy.info
KJ7NUX-14U22208582022-12-05 23:42:1344.8313-123.14222659347Clb=6.1m/s p=284.0hPa t=-53.2C h=37.2% 401.40MHz Type=RS41-SGP Details on http://radiosondy.info
WA9ONY-14U22208582022-12-05 23:42:0944.8314-123.139223639342Clb=4.6m/s p=284.3hPa t=-53.1C h=37.3% 401.40MHz Type=RS41-SGP batt=2.7V Join https://groups.io/g/Balloons
WA9ONY-10U22208582022-12-05 23:42:0844.8315-123.139223639336Clb=6.6m/s p=284.6hPa t=-53.1C h=37.2% 401.40MHz Type=RS41-SGP Join https://groups.io/g/Balloons
KG7GDB-12U22208582022-12-05 23:42:0044.8322-123.138220599299Clb=6.7m/s t=-52.9C h=33.3% p=286.2hPa 401.401 MHz Type=RS41-SGP ser=U2220858 Radiosonde
WA9ONY-14U22208582022-12-05 23:41:5444.8326-123.138226699283Clb=6.9m/s p=287.0hPa t=-52.8C h=37.8% 401.40MHz Type=RS41-SGP Join https://groups.io/g/Balloons
WA9ONY-10U22208582022-12-05 23:41:5344.8327-123.138226699276Clb=6.2m/s p=287.2hPa t=-52.7C h=37.8% 401.40MHz Type=RS41-SGP Join https://groups.io/g/Balloons
W7BDB-13U22208582022-12-05 23:41:5244.8328-123.138225699270Clb=5.2m/s p=287.5hPa t=-52.7C h=37.7% 401.40MHz Type=RS41-SGP Details on http://radiosondy.info
KJ7NUX-14U22208582022-12-05 23:41:4844.8332-123.137221679252Clb=7.9m/s p=288.3hPa t=-52.6C h=37.6% 401.40MHz Type=RS41-SGP batt=2.7V Details on http://radiosondy.info
KE7WWCU22208582022-12-05 23:41:4544.8335-123.137221699234Clb=4.4m/s t=-52.5C h=33.3% p=289.2hPa 401.375 MHz Type=RS41-SGP ser=U2220858 Radiosonde
K6GDP-11U22208582022-12-05 23:41:4344.8335-123.137221699234Clb=4.4m/s t=-52.5C h=33.3% p=289.2hPa 401.400 MHz Type=RS41-SGP ser=U2220858 Radiosonde
WA9ONY-14U22208582022-12-05 23:41:4044.8338-123.136222679222Clb=7.0m/s p=289.6hPa t=-52.4C h=36.5% 401.40MHz Type=RS41-SGP Join https://groups.io/g/Balloons
WA9ONY-10U22208582022-12-05 23:41:3944.8339-123.136221679216Clb=5.7m/s p=289.9hPa t=-52.4C h=36.5% 401.40MHz Type=RS41-SGP batt=2.7V Join https://groups.io/g/Balloons
W7BDB-12U22208582022-12-05 23:41:3744.8346-123.135224659186Clb=4.8m/s t=-52.1C h=31.2% p=291.3hPa 401.399 MHz Type=RS41-SGP ser=U2220858 Radiosonde
W7BDB-13U22208582022-12-05 23:41:2944.8348-123.135227679176Clb=6.7m/s p=291.7hPa t=-52.0C h=35.1% 401.40MHz Type=RS41-SGP Details on http://radiosondy.info
WA9ONY-14U22208582022-12-05 23:41:2444.835-123.135225699165Clb=5.1m/s p=292.1hPa t=-51.9C h=34.5% 401.40MHz Type=RS41-SGP batt=2.9V Join https://groups.io/g/Balloons
KJ7NUX-14U22208582022-12-05 23:41:2344.8352-123.135222679161Clb=3.6m/s p=292.4hPa t=-51.9C h=34.6% 401.40MHz Type=RS41-SGP Details on http://radiosondy.info
KG7GDB-12U22208582022-12-05 23:41:1444.8362-123.133224619120Clb=5.0m/s t=-51.8C h=30.7% p=294.3hPa 401.401 MHz Type=RS41-SGP ser=U2220858 Radiosonde
WA9ONY-14U22208582022-12-05 23:41:1044.8363-123.133221659114Clb=7.0m/s p=294.4hPa t=-51.7C h=34.1% 401.40MHz Type=RS41-SGP Join https://groups.io/g/Balloons
WA9ONY-10U22208582022-12-05 23:41:0944.8364-123.133219659108Clb=5.8m/s p=294.7hPa t=-51.6C h=34.1% 401.40MHz Type=RS41-SGP Join https://groups.io/g/Balloons
W7BDB-13U22208582022-12-05 23:41:0644.8367-123.133219639098Clb=5.7m/s p=295.2hPa t=-51.5C h=33.8% 401.40MHz Type=RS41-SGP batt=2.9V Details on http://radiosondy.info
KJ7NUX-14U22208582022-12-05 23:41:0144.8371-123.132227639076Clb=4.4m/s p=296.2hPa t=-51.3C h=32.6% 401.40MHz Type=RS41-SGP Details on http://radiosondy.info
KE7WWCU22208582022-12-05 23:40:5944.8372-123.132225639071Clb=7.4m/s t=-51.3C h=28.3% p=296.4hPa 401.375 MHz Type=RS41-SGP ser=U2220858 Radiosonde
K6GDP-11U22208582022-12-05 23:40:5844.8374-123.132223639064Clb=5.0m/s t=-51.2C h=28.6% p=296.8hPa 401.400 MHz Type=RS41-SGP ser=U2220858 Radiosonde
WA9ONY-14U22208582022-12-05 23:40:5644.8375-123.132224639060Clb=3.7m/s p=296.9hPa t=-51.1C h=32.2% 401.40MHz Type=RS41-SGP Join https://groups.io/g/Balloons
WA9ONY-10U22208582022-12-05 23:40:5444.8376-123.131225639056Clb=5.7m/s p=297.2hPa t=-51.1C h=32.2% 401.40MHz Type=RS41-SGP TxPastBurst=8h30m batt=2.7V Join https://groups.io/g/Balloons
W7BDB-13U22208582022-12-05 23:40:4344.8384-123.13228599021Clb=4.8m/s p=298.7hPa t=-50.7C h=32.4% 401.40MHz Type=RS41-SGP Details on http://radiosondy.info
WA9ONY-14U22208582022-12-05 23:40:4044.8385-123.13226639018Clb=2.7m/s p=298.9hPa t=-50.7C h=32.3% 401.40MHz Type=RS41-SGP TxPastBurst=8h30m batt=2.9V Join https://groups.io/g/Balloons
WA9ONY-10U22208582022-12-05 23:40:3944.8387-123.13226639015Clb=4.0m/s p=299.0hPa t=-50.7C h=31.7% 401.40MHz Type=RS41-SGP Join https://groups.io/g/Balloons
KJ7NUX-14U22208582022-12-05 23:40:3644.8389-123.13223579005Clb=3.1m/s p=299.4hPa t=-50.6C h=31.0% 401.40MHz Type=RS41-SGP TxPastBurst=8h30m batt=2.7V Details on http://radiosondy.info
KG7GDB-12U22208582022-12-05 23:40:2844.8396-123.129230568976Clb=4.1m/s t=-50.4C h=27.0% p=300.8hPa 401.401 MHz Type=RS41-SGP ser=U2220858 Radiosonde
WA9ONY-14U22208582022-12-05 23:40:2544.8397-123.129235548971Clb=6.8m/s p=300.9hPa t=-50.3C h=30.2% 401.40MHz Type=RS41-SGP Join https://groups.io/g/Balloons
WA9ONY-10U22208582022-12-05 23:40:2444.8398-123.128239548964Clb=6.8m/s p=301.2hPa t=-50.2C h=30.0% 401.40MHz Type=RS41-SGP Join https://groups.io/g/Balloons
W7BDB-13U22208582022-12-05 23:40:2044.84-123.128244578950Clb=4.7m/s p=301.9hPa t=-50.1C h=29.5% 401.40MHz Type=RS41-SGP Details on http://radiosondy.info
KJ7NUX-14U22208582022-12-05 23:40:1344.8403-123.127227598924Clb=8.8m/s p=303.1hPa t=-49.8C h=28.4% 401.40MHz Type=RS41-SGP Details on http://radiosondy.info
WA9ONY-14U22208582022-12-05 23:40:1144.8404-123.127219598916Clb=7.8m/s p=303.5hPa t=-49.8C h=28.4% 401.40MHz Type=RS41-SGP Join https://groups.io/g/Balloons
WA9ONY-10U22208582022-12-05 23:40:1044.8405-123.127215618909Clb=6.0m/s p=303.8hPa t=-49.7C h=28.5% 401.40MHz Type=RS41-SGP batt=2.9V Join https://groups.io/g/Balloons
W7BDB-12U22208582022-12-05 23:40:0544.8413-123.126234638868Clb=7.5m/s t=-49.4C h=23.8% p=305.8hPa 401.399 MHz Type=RS41-SGP ser=U2220858 Radiosonde
W7BDB-13U22208582022-12-05 23:39:5944.8415-123.125233598857Clb=5.1m/s p=306.3hPa t=-49.2C h=27.0% 401.40MHz Type=RS41-SGP batt=2.7V Details on http://radiosondy.info
WA9ONY-10U22208582022-12-05 23:39:5844.8416-123.125231578851Clb=5.7m/s p=306.6hPa t=-49.1C h=27.0% 401.40MHz Type=RS41-SGP Join https://groups.io/g/Balloons
KJ7NUX-14U22208582022-12-05 23:39:5444.8419-123.125229578828Clb=4.2m/s p=307.8hPa t=-48.9C h=26.8% 401.40MHz Type=RS41-SGP Details on http://radiosondy.info
KG7GDB-12U22208582022-12-05 23:39:5044.8424-123.124223548800Clb=5.7m/s t=-48.7C h=23.1% p=309.0hPa 401.401 MHz Type=RS41-SGP ser=U2220858 Radiosonde
WA9ONY-14U22208582022-12-05 23:39:4944.8424-123.124224578800Clb=5.6m/s p=309.0hPa t=-48.6C h=26.3% 401.40MHz Type=RS41-SGP Join https://groups.io/g/Balloons
WA9ONY-10U22208582022-12-05 23:39:4844.8425-123.124226578794Clb=6.1m/s p=309.2hPa t=-48.6C h=26.1% 401.40MHz Type=RS41-SGP Join https://groups.io/g/Balloons
W7BDB-13U22208582022-12-05 23:39:4344.843-123.123228618769Clb=7.1m/s p=310.5hPa t=-48.3C h=25.2% 401.40MHz Type=RS41-SGP Details on http://radiosondy.info
KE7WWCU22208582022-12-05 23:39:3944.8434-123.123215578751Clb=5.0m/s t=-48.2C h=22.0% p=311.3hPa 401.375 MHz Type=RS41-SGP ser=U2220858 Radiosonde
KJ7NUX-14U22208582022-12-05 23:39:3844.8435-123.122221598746Clb=4.3m/s p=311.5hPa t=-48.1C h=25.3% 401.40MHz Type=RS41-SGP batt=2.9V Details on http://radiosondy.info
WA9ONY-14U22208582022-12-05 23:39:2944.8444-123.121226508707Clb=4.9m/s p=313.5hPa t=-47.8C h=25.1% 401.40MHz Type=RS41-SGP batt=2.9V Join https://groups.io/g/Balloons
W7BDB-13U22208582022-12-05 23:39:2844.8445-123.121228508701Clb=5.1m/s p=313.8hPa t=-47.7C h=25.5% 401.40MHz Type=RS41-SGP Details on http://radiosondy.info
KJ7NUX-14U22208582022-12-05 23:39:2344.8451-123.12226508672Clb=3.7m/s p=315.1hPa t=-47.5C h=24.8% 401.40MHz Type=RS41-SGP Details on http://radiosondy.info
WA9ONY-14U22208582022-12-05 23:39:1944.8453-123.12231568661Clb=4.3m/s p=315.6hPa t=-47.4C h=24.7% 401.40MHz Type=RS41-SGP Join https://groups.io/g/Balloons
WA9ONY-10U22208582022-12-05 23:39:1844.8453-123.12229568656Clb=6.5m/s p=315.9hPa t=-47.3C h=24.3% 401.40MHz Type=RS41-SGP Join https://groups.io/g/Balloons
W7BDB-13U22208582022-12-05 23:39:1344.8458-123.119229528618Clb=8.1m/s p=317.6hPa t=-47.0C h=23.7% 401.40MHz Type=RS41-SGP TxPastBurst=8h30m batt=2.7V Details on http://radiosondy.info
WA9ONY-14U22208582022-12-05 23:39:0944.8462-123.118221528596Clb=6.0m/s p=318.6hPa t=-46.8C h=23.1% 401.40MHz Type=RS41-SGP Join https://groups.io/g/Balloons
KE7WWCU22208582022-12-05 23:39:0844.8463-123.118221528590Clb=6.0m/s t=-46.8C h=20.4% p=319.0hPa 401.375 MHz Type=RS41-SGP ser=U2220858 Radiosonde
KJ7NUX-14U22208582022-12-05 23:39:0644.8465-123.118227548581Clb=3.5m/s p=319.4hPa t=-46.7C h=23.3% 401.40MHz Type=RS41-SGP Details on http://radiosondy.info
W7BDB-12U22208582022-12-05 23:39:0244.8471-123.117224448548Clb=5.2m/s t=-46.5C h=21.6% p=321.0hPa 401.399 MHz Type=RS41-SGP ser=U2220858 Radiosonde
WA9ONY-14U22208582022-12-05 23:38:5944.8471-123.117225548548Clb=5.2m/s p=321.0hPa t=-46.5C h=24.5% 401.40MHz Type=RS41-SGP TxPastBurst=8h30m batt=2.7V Join https://groups.io/g/Balloons
W7BDB-13U22208582022-12-05 23:38:5844.8472-123.117228508544Clb=3.3m/s p=321.1hPa t=-46.4C h=24.9% 401.40MHz Type=RS41-SGP Details on http://radiosondy.info
KJ7NUX-14U22208582022-12-05 23:38:5044.8479-123.116230548506Clb=3.9m/s p=323.0hPa t=-46.5C h=26.6% 401.40MHz Type=RS41-SGP batt=2.9V Details on http://radiosondy.info
WA9ONY-14U22208582022-12-05 23:38:4944.8479-123.116228508501Clb=6.2m/s p=323.2hPa t=-46.5C h=26.5% 401.40MHz Type=RS41-SGP Join https://groups.io/g/Balloons
WA9ONY-10U22208582022-12-05 23:38:4844.848-123.116223528495Clb=4.5m/s p=323.5hPa t=-46.5C h=26.7% 401.40MHz Type=RS41-SGP Join https://groups.io/g/Balloons
W7BDB-13U22208582022-12-05 23:38:4344.8484-123.115228598474Clb=5.4m/s p=324.5hPa t=-46.4C h=28.6% 401.40MHz Type=RS41-SGP Details on http://radiosondy.info
WA9ONY-14U22208582022-12-05 23:38:3944.8488-123.114245598447Clb=5.4m/s p=325.8hPa t=-46.2C h=29.7% 401.40MHz Type=RS41-SGP Join https://groups.io/g/Balloons
WA9ONY-10U22208582022-12-05 23:38:3844.8488-123.114246618442Clb=4.8m/s p=326.1hPa t=-46.2C h=29.9% 401.40MHz Type=RS41-SGP batt=2.7V Join https://groups.io/g/Balloons
KE7WWCU22208582022-12-05 23:38:3744.8489-123.114243618437Clb=4.4m/s t=-46.2C h=26.9% p=326.4hPa 401.374 MHz Type=RS41-SGP ser=U2220858 Radiosonde
K6GDP-11U22208582022-12-05 23:38:3644.849-123.113241568426Clb=7.3m/s t=-46.2C h=25.9% p=326.9hPa 401.400 MHz Type=RS41-SGP ser=U2220858 Radiosonde
KJ7NUX-14U22208582022-12-05 23:38:3444.8491-123.113241678419Clb=7.9m/s p=327.3hPa t=-46.1C h=28.5% 401.40MHz Type=RS41-SGP Details on http://radiosondy.info
WA9ONY-14U22208582022-12-05 23:38:2944.8495-123.112235728386Clb=5.9m/s p=328.7hPa t=-45.9C h=27.8% 401.40MHz Type=RS41-SGP batt=2.9V Join https://groups.io/g/Balloons
W7BDB-13U22208582022-12-05 23:38:2844.8496-123.112235708381Clb=4.1m/s p=328.9hPa t=-45.8C h=27.4% 401.40MHz Type=RS41-SGP batt=2.9V Details on http://radiosondy.info
WA9ONY-14U22208582022-12-05 23:38:1944.8505-123.11243678326Clb=8.1m/s p=331.8hPa t=-45.4C h=28.7% 401.40MHz Type=RS41-SGP Join https://groups.io/g/Balloons
KJ7NUX-14U22208582022-12-05 23:38:1844.8506-123.11243678320Clb=5.4m/s p=332.0hPa t=-45.4C h=29.4% 401.40MHz Type=RS41-SGP Details on http://radiosondy.info
KG7GDB-12U22208582022-12-05 23:38:1744.8507-123.11242698309Clb=6.8m/s t=-45.4C h=27.7% p=332.7hPa 401.401 MHz Type=RS41-SGP ser=U2220858 Radiosonde
W7BDB-13U22208582022-12-05 23:38:1444.851-123.109239658293Clb=6.2m/s p=333.4hPa t=-45.2C h=31.3% 401.40MHz Type=RS41-SGP Details on http://radiosondy.info
WA9ONY-14U22208582022-12-05 23:38:0944.8513-123.108234678268Clb=4.6m/s p=334.6hPa t=-45.0C h=32.9% 401.40MHz Type=RS41-SGP Join https://groups.io/g/Balloons
WA9ONY-10U22208582022-12-05 23:38:0844.8514-123.108233678263Clb=6.2m/s p=334.9hPa t=-44.9C h=32.8% 401.40MHz Type=RS41-SGP batt=2.9V Join https://groups.io/g/Balloons
KE7WWCU22208582022-12-05 23:38:0644.8516-123.108236708249Clb=6.8m/s t=-44.9C h=29.7% p=335.6hPa 401.374 MHz Type=RS41-SGP ser=U2220858 Radiosonde
K6GDP-11U22208582022-12-05 23:38:0544.8518-123.107244678238Clb=5.3m/s t=-44.8C h=29.5% p=336.2hPa 401.400 MHz Type=RS41-SGP ser=U2220858 Radiosonde
KJ7NUX-14U22208582022-12-05 23:38:0244.8519-123.107246708226Clb=7.9m/s p=336.8hPa t=-44.6C h=32.4% 401.40MHz Type=RS41-SGP TxPastBurst=8h30m batt=2.7V Details on http://radiosondy.info
W7BDB-13U22208582022-12-05 23:37:5944.8523-123.106235728201Clb=6.0m/s p=338.1hPa t=-44.4C h=31.6% 401.40MHz Type=RS41-SGP Details on http://radiosondy.info
KE7WWCU22208582022-12-05 23:37:5844.8545-123.101234728079Clb=4.8m/s t=-43.7C h=29.9% p=344.4hPa 401.374 MHz Type=RS41-SGP ser=U2220858 Radiosonde
WA9ONY-14U22208582022-12-05 23:37:5644.8555-123.099234678020Clb=5.1m/s p=347.4hPa t=-43.3C h=24.2% 401.40MHz Type=RS41-SGP Join https://groups.io/g/Balloons
KG7GDB-12U22208582022-12-05 23:37:4944.8564-123.097243657967Clb=6.5m/s t=-42.9C h=19.1% p=350.1hPa 401.401 MHz Type=RS41-SGP ser=U2220858 Radiosonde
WA9ONY-14U22208582022-12-05 23:37:4844.8564-123.097244697967Clb=6.5m/s p=350.1hPa t=-42.9C h=21.4% 401.40MHz Type=RS41-SGP TxPastBurst=8h30m batt=2.9V Join https://groups.io/g/Balloons
W7BDB-13U22208582022-12-05 23:37:4744.8565-123.097241677962Clb=5.1m/s p=350.4hPa t=-42.9C h=21.6% 401.40MHz Type=RS41-SGP Details on http://radiosondy.info
KE7WWCU22208582022-12-05 23:37:3544.8574-123.095232677922Clb=5.2m/s t=-42.6C h=21.8% p=352.5hPa 401.374 MHz Type=RS41-SGP ser=U2220858 Radiosonde
WA9ONY-10U22208582022-12-05 23:37:3444.8575-123.095234637918Clb=3.3m/s p=352.8hPa t=-42.5C h=24.5% 401.40MHz Type=RS41-SGP Join https://groups.io/g/Balloons
K6GDP-11U22208582022-12-05 23:37:3344.8576-123.095233637914Clb=5.6m/s t=-42.6C h=22.2% p=353.0hPa 401.400 MHz Type=RS41-SGP ser=U2220858 Radiosonde
KJ7NUX-14U22208582022-12-05 23:37:2744.858-123.094232637896Clb=5.2m/s p=353.9hPa t=-42.4C h=26.8% 401.40MHz Type=RS41-SGP Details on http://radiosondy.info
W7BDB-13U22208582022-12-05 23:37:2244.8582-123.094233637887Clb=5.0m/s p=354.4hPa t=-42.3C h=27.3% 401.40MHz Type=RS41-SGP TxPastBurst=8h30m batt=2.9V Details on http://radiosondy.info
WA9ONY-14U22208582022-12-05 23:37:1844.8583-123.093234637878Clb=3.7m/s p=354.8hPa t=-42.2C h=27.8% 401.40MHz Type=RS41-SGP Join https://groups.io/g/Balloons
WA9ONY-10U22208582022-12-05 23:37:1644.8584-123.093235637874Clb=4.3m/s p=355.1hPa t=-42.2C h=28.0% 401.40MHz Type=RS41-SGP batt=2.7V Join https://groups.io/g/Balloons
WA9ONY-14U22208582022-12-05 23:37:0344.8592-123.092235697839Clb=3.6m/s p=356.9hPa t=-41.8C h=32.6% 401.40MHz Type=RS41-SGP batt=2.9V Join https://groups.io/g/Balloons
WA9ONY-10U22208582022-12-05 23:37:0144.8593-123.091237707836Clb=4.2m/s p=357.1hPa t=-41.8C h=32.8% 401.40MHz Type=RS41-SGP Join https://groups.io/g/Balloons
W7BDB-13U22208582022-12-05 23:36:5744.8596-123.091242677823Clb=5.3m/s p=357.8hPa t=-41.7C h=34.2% 401.40MHz Type=RS41-SGP Details on http://radiosondy.info
WA9ONY-14U22208582022-12-05 23:36:4844.8602-123.09231637800Clb=3.3m/s p=358.9hPa t=-41.5C h=36.4% 401.40MHz Type=RS41-SGP Join https://groups.io/g/Balloons
WA9ONY-10U22208582022-12-05 23:36:4744.8603-123.089228617795Clb=5.1m/s p=359.1hPa t=-41.5C h=36.5% 401.40MHz Type=RS41-SGP Join https://groups.io/g/Balloons
K6GDP-11U22208582022-12-05 23:36:4544.8606-123.089229567776Clb=7.9m/s t=-41.4C h=34.8% p=360.1hPa 401.400 MHz Type=RS41-SGP ser=U2220858 Radiosonde
KJ7NUX-14U22208582022-12-05 23:36:3944.8608-123.088249657755Clb=6.9m/s p=361.1hPa t=-41.2C h=38.4% 401.40MHz Type=RS41-SGP batt=2.9V Details on http://radiosondy.info
W7BDB-13U22208582022-12-05 23:36:3344.861-123.088241677737Clb=4.9m/s p=362.1hPa t=-41.1C h=38.7% 401.40MHz Type=RS41-SGP Details on http://radiosondy.info
WA9ONY-10U22208582022-12-05 23:36:3244.8611-123.088235657731Clb=6.2m/s p=362.4hPa t=-41.0C h=37.7% 401.40MHz Type=RS41-SGP batt=2.9V Join https://groups.io/g/Balloons
WA9ONY-14U22208582022-12-05 23:36:1944.862-123.086244697681Clb=5.0m/s p=365.2hPa t=-40.8C h=37.3% 401.40MHz Type=RS41-SGP batt=2.7V Join https://groups.io/g/Balloons
WA9ONY-10U22208582022-12-05 23:36:1844.8621-123.086246697677Clb=5.6m/s p=365.5hPa t=-40.8C h=36.5% 401.40MHz Type=RS41-SGP Join https://groups.io/g/Balloons
KG7GDB-12U22208582022-12-05 23:36:1744.8621-123.086244657670Clb=7.2m/s t=-40.8C h=33.6% p=365.8hPa 401.401 MHz Type=RS41-SGP ser=U2220858 Radiosonde
KJ7NUX-14U22208582022-12-05 23:36:1544.8622-123.085246677663Clb=7.4m/s p=366.1hPa t=-40.7C h=35.7% 401.40MHz Type=RS41-SGP Details on http://radiosondy.info
W7BDB-13U22208582022-12-05 23:36:1044.8625-123.085234657646Clb=4.4m/s p=367.0hPa t=-40.5C h=34.8% 401.40MHz Type=RS41-SGP batt=2.9V Details on http://radiosondy.info
WA9ONY-10U22208582022-12-05 23:36:0444.863-123.084237657619Clb=5.6m/s p=368.4hPa t=-40.4C h=33.9% 401.40MHz Type=RS41-SGP Join https://groups.io/g/Balloons
WA9ONY-14U22208582022-12-05 23:36:0344.863-123.084237657619Clb=5.6m/s p=368.4hPa t=-40.4C h=33.9% 401.40MHz Type=RS41-SGP Join https://groups.io/g/Balloons
KE7WWCU22208582022-12-05 23:36:0244.8631-123.084237547609Clb=6.2m/s t=-40.3C h=-1.0% p=369.0hPa 401.374 MHz Type=RS41-SGP ser=U2220858 Radiosonde
K6GDP-11U22208582022-12-05 23:36:0144.8632-123.083237597603Clb=5.4m/s t=-40.3C h=32.6% p=369.4hPa 401.400 MHz Type=RS41-SGP ser=U2220858 Radiosonde
KJ7NUX-14U22208582022-12-05 23:35:5544.8636-123.082249677575Clb=5.3m/s p=370.9hPa t=-40.0C h=35.8% 401.40MHz Type=RS41-SGP Details on http://radiosondy.info
W7BDB-13U22208582022-12-05 23:35:5344.8638-123.082245657566Clb=5.2m/s p=371.5hPa t=-39.9C h=36.1% 401.40MHz Type=RS41-SGP Details on http://radiosondy.info
WA9ONY-14U22208582022-12-05 23:35:4344.8646-123.08237657504Clb=6.1m/s p=374.9hPa t=-39.4C h=33.6% 401.40MHz Type=RS41-SGP TxPastBurst=8h30m batt=2.9V Join https://groups.io/g/Balloons
KG7GDB-12U22208582022-12-05 23:35:4144.8648-123.079241697494Clb=3.7m/s t=-39.4C h=31.4% p=375.4hPa 401.401 MHz Type=RS41-SGP ser=U2220858 Radiosonde
KJ7NUX-14U22208582022-12-05 23:35:3944.8649-123.079243657486Clb=4.0m/s p=375.9hPa t=-39.3C h=33.8% 401.40MHz Type=RS41-SGP TxPastBurst=8h30m batt=2.7V Details on http://radiosondy.info
W7BDB-13U22208582022-12-05 23:35:3844.865-123.079242657482Clb=5.1m/s p=376.1hPa t=-39.2C h=33.8% 401.40MHz Type=RS41-SGP Details on http://radiosondy.info
WA9ONY-10U22208582022-12-05 23:35:3344.8654-123.078242657462Clb=4.4m/s p=377.1hPa t=-39.0C h=33.4% 401.40MHz Type=RS41-SGP Join https://groups.io/g/Balloons
KE7WWCU22208582022-12-05 23:35:3144.8657-123.077238637445Clb=3.4m/s t=-38.9C h=-1.0% p=378.2hPa 401.374 MHz Type=RS41-SGP ser=U2220858 Radiosonde
K6GDP-11U22208582022-12-05 23:35:2944.8657-123.077238637445Clb=3.4m/s t=-38.9C h=31.1% p=378.2hPa 401.400 MHz Type=RS41-SGP ser=U2220858 Radiosonde
KJ7NUX-14U22208582022-12-05 23:35:2344.8662-123.076240637422Clb=4.6m/s p=379.4hPa t=-38.7C h=32.5% 401.40MHz Type=RS41-SGP Details on http://radiosondy.info
WA9ONY-10U22208582022-12-05 23:35:1344.867-123.074243637382Clb=3.7m/s p=381.6hPa t=-38.3C h=30.0% 401.40MHz Type=RS41-SGP Join https://groups.io/g/Balloons
KG7GDB-12U22208582022-12-05 23:35:1044.8673-123.073239657366Clb=4.4m/s t=-38.2C h=27.6% p=382.5hPa 401.401 MHz Type=RS41-SGP ser=U2220858 Radiosonde
KJ7NUX-14U22208582022-12-05 23:35:0844.8675-123.073237597358Clb=5.6m/s p=383.0hPa t=-38.1C h=29.3% 401.40MHz Type=RS41-SGP Details on http://radiosondy.info
W7BDB-13U22208582022-12-05 23:35:0744.8675-123.073237597358Clb=5.6m/s p=383.0hPa t=-38.1C h=29.3% 401.40MHz Type=RS41-SGP Details on http://radiosondy.info
WA9ONY-14U22208582022-12-05 23:35:0344.8678-123.072240567342Clb=5.4m/s p=383.8hPa t=-37.9C h=27.1% 401.40MHz Type=RS41-SGP Join https://groups.io/g/Balloons
KE7WWCU22208582022-12-05 23:35:0044.868-123.072241527325Clb=2.7m/s t=-37.8C h=-1.0% p=384.8hPa 401.374 MHz Type=RS41-SGP ser=U2220858 Radiosonde
K6GDP-11U22208582022-12-05 23:34:5844.8681-123.071242567322Clb=3.9m/s t=-37.8C h=24.8% p=385.0hPa 401.400 MHz Type=RS41-SGP ser=U2220858 Radiosonde
WA9ONY-14U22208582022-12-05 23:34:5344.8685-123.07237637284Clb=8.4m/s p=386.9hPa t=-37.5C h=27.9% 401.40MHz Type=RS41-SGP Join https://groups.io/g/Balloons
KJ7NUX-14U22208582022-12-05 23:34:5144.8687-123.07234637270Clb=5.5m/s p=387.6hPa t=-37.4C h=28.4% 401.40MHz Type=RS41-SGP batt=2.7V Details on http://radiosondy.info
WA9ONY-14U22208582022-12-05 23:34:4344.8694-123.069243617235Clb=5.1m/s p=389.7hPa t=-37.1C h=30.7% 401.40MHz Type=RS41-SGP batt=2.7V Join https://groups.io/g/Balloons
KG7GDB-12U22208582022-12-05 23:34:3944.8697-123.068242577219Clb=4.4m/s t=-37.0C h=29.4% p=390.5hPa 401.401 MHz Type=RS41-SGP ser=U2220858 Radiosonde
KJ7NUX-14U22208582022-12-05 23:34:3544.8699-123.067238597203Clb=4.5m/s p=391.5hPa t=-36.9C h=32.1% 401.40MHz Type=RS41-SGP Details on http://radiosondy.info
WA9ONY-14U22208582022-12-05 23:34:3344.8701-123.067237637194Clb=3.9m/s p=392.0hPa t=-36.9C h=31.9% 401.40MHz Type=RS41-SGP Join https://groups.io/g/Balloons
K6GDP-11U22208582022-12-05 23:34:2844.8706-123.065249637170Clb=3.2m/s t=-36.7C h=31.8% p=393.3hPa 401.400 MHz Type=RS41-SGP ser=U2220858 Radiosonde
WA9ONY-10U22208582022-12-05 23:34:2344.8708-123.065243567155Clb=3.5m/s p=394.1hPa t=-36.5C h=33.8% 401.40MHz Type=RS41-SGP TxPastBurst=8h30m batt=2.7V Join https://groups.io/g/Balloons
W7BDB-13U22208582022-12-05 23:34:1744.8711-123.064250637124Clb=4.1m/s p=395.9hPa t=-36.2C h=32.8% 401.40MHz Type=RS41-SGP Details on http://radiosondy.info
WA9ONY-14U22208582022-12-05 23:34:1344.8713-123.063239637098Clb=4.6m/s p=397.4hPa t=-36.0C h=32.1% 401.40MHz Type=RS41-SGP TxPastBurst=8h30m batt=2.7V Join https://groups.io/g/Balloons
KG7GDB-12U22208582022-12-05 23:34:0844.8717-123.062250707069Clb=3.6m/s t=-35.9C h=30.4% p=398.9hPa 401.401 MHz Type=RS41-SGP ser=U2220858 Radiosonde
WA9ONY-14U22208582022-12-05 23:34:0344.8719-123.061256597042Clb=6.8m/s p=400.4hPa t=-35.7C h=33.1% 401.40MHz Type=RS41-SGP Join https://groups.io/g/Balloons
W7BDB-13U22208582022-12-05 23:34:0244.8719-123.061256597036Clb=6.5m/s p=400.8hPa t=-35.6C h=33.1% 401.40MHz Type=RS41-SGP Details on http://radiosondy.info
KJ7NUX-14U22208582022-12-05 23:34:0144.872-123.06258597030Clb=5.6m/s p=401.2hPa t=-35.5C h=32.8% 401.40MHz Type=RS41-SGP batt=2.9V Details on http://radiosondy.info
K6GDP-11U22208582022-12-05 23:33:5644.8723-123.059240616992Clb=5.3m/s t=-35.3C h=31.2% p=403.6hPa 401.400 MHz Type=RS41-SGP ser=U2220858 Radiosonde
KE7WWCU22208582022-12-05 23:33:5344.8724-123.059245596980Clb=6.0m/s t=-35.2C h=-1.0% p=-1.0hPa 401.373 MHz Type=RS41 ser=U2220858 Radiosonde
W7BDB-12U22208582022-12-05 23:33:5144.8727-123.058244566955Clb=5.6m/s t=-35.1C h=35.6% p=405.6hPa 401.399 MHz Type=RS41-SGP ser=U2220858 Radiosonde
WA9ONY-14U22208582022-12-05 23:33:4644.8728-123.058244596951Clb=3.6m/s p=405.9hPa t=-35.0C h=38.0% 401.40MHz Type=RS41-SGP Join https://groups.io/g/Balloons
KJ7NUX-14U22208582022-12-05 23:33:4544.8729-123.057242596946Clb=5.1m/s p=406.1hPa t=-35.0C h=38.0% 401.40MHz Type=RS41-SGP Details on http://radiosondy.info
KG7GDB-12U22208582022-12-05 23:33:3844.8735-123.056236576916Clb=4.8m/s t=-34.8C h=34.3% p=408.0hPa 401.401 MHz Type=RS41-SGP ser=U2220858 Radiosonde
KJ7NUX-14U22208582022-12-05 23:33:3744.874-123.055253596883Clb=3.8m/s p=409.8hPa t=-34.4C h=34.9% 401.40MHz Type=RS41-SGP Details on http://radiosondy.info
WA9ONY-14U22208582022-12-05 23:33:3544.875-123.052225526817Clb=3.4m/s p=413.5hPa t=-33.8C h=31.7% 401.40MHz Type=RS41-SGP Join https://groups.io/g/Balloons
KJ7NUX-14U22208582022-12-05 23:33:3344.8752-123.052244546806Clb=4.0m/s p=414.2hPa t=-33.7C h=31.9% 401.40MHz Type=RS41-SGP TxPastBurst=8h30m batt=2.9V Details on http://radiosondy.info
KG7GDB-12U22208582022-12-05 23:33:2744.8756-123.051236446764Clb=4.4m/s t=-33.4C h=29.2% p=416.7hPa 401.401 MHz Type=RS41-SGP ser=U2220858 Radiosonde
W7BDB-13U22208582022-12-05 23:33:1844.8761-123.049239526724Clb=5.3m/s p=419.2hPa t=-33.1C h=33.0% 401.40MHz Type=RS41-SGP batt=2.7V Details on http://radiosondy.info
KJ7NUX-14U22208582022-12-05 23:33:1744.8762-123.049234526719Clb=5.5m/s p=419.5hPa t=-33.0C h=32.4% 401.40MHz Type=RS41-SGP Details on http://radiosondy.info
WA9ONY-10U22208582022-12-05 23:33:1544.8763-123.049227466715Clb=3.0m/s p=419.8hPa t=-33.0C h=32.1% 401.40MHz Type=RS41-SGP Join https://groups.io/g/Balloons
K6GDP-11U22208582022-12-05 23:33:1244.8766-123.049237416697Clb=5.7m/s t=-33.0C h=29.6% p=421.0hPa 401.400 MHz Type=RS41-SGP ser=U2220858 Radiosonde
WA9ONY-14U22208582022-12-05 23:33:0144.8769-123.048244566664Clb=4.8m/s p=422.9hPa t=-32.6C h=29.9% 401.40MHz Type=RS41-SGP Join https://groups.io/g/Balloons
W7BDB-13U22208582022-12-05 23:32:5644.8772-123.047242566640Clb=5.0m/s p=424.3hPa t=-32.5C h=28.3% 401.40MHz Type=RS41-SGP Details on http://radiosondy.info
KJ7NUX-14U22208582022-12-05 23:32:5544.8772-123.047238566635Clb=4.7m/s p=424.5hPa t=-32.5C h=27.8% 401.40MHz Type=RS41-SGP Details on http://radiosondy.info
WA9ONY-14U22208582022-12-05 23:32:4844.8776-123.046240576606Clb=5.3m/s p=426.3hPa t=-32.3C h=27.3% 401.40MHz Type=RS41-SGP TxPastBurst=8h30m batt=2.9V Join https://groups.io/g/Balloons
KG7GDB-12U22208582022-12-05 23:32:4644.8778-123.046234616596Clb=5.1m/s t=-32.3C h=26.1% p=426.9hPa 401.401 MHz Type=RS41-SGP ser=U2220858 Radiosonde
W7BDB-13U22208582022-12-05 23:32:3444.8785-123.045218566568Clb=5.2m/s p=428.5hPa t=-32.1C h=27.3% 401.40MHz Type=RS41-SGP Details on http://radiosondy.info
WA9ONY-10U22208582022-12-05 23:32:3344.8786-123.045228546562Clb=5.1m/s p=428.9hPa t=-32.0C h=26.9% 401.40MHz Type=RS41-SGP Join https://groups.io/g/Balloons
K6GDP-11U22208582022-12-05 23:32:2944.8788-123.044246596539Clb=4.9m/s t=-31.9C h=24.6% p=430.3hPa 401.400 MHz Type=RS41-SGP ser=U2220858 Radiosonde
WA9ONY-14U22208582022-12-05 23:32:2044.8793-123.043229596506Clb=5.5m/s p=432.4hPa t=-31.6C h=24.9% 401.40MHz Type=RS41-SGP Join https://groups.io/g/Balloons
W7BDB-13U22208582022-12-05 23:32:1344.8797-123.042234566482Clb=4.4m/s p=434.1hPa t=-31.3C h=24.0% 401.40MHz Type=RS41-SGP TxPastBurst=8h30m batt=2.9V Details on http://radiosondy.info
KJ7NUX-14U22208582022-12-05 23:32:1044.8799-123.042234506474Clb=4.4m/s p=434.5hPa t=-31.2C h=24.1% 401.40MHz Type=RS41-SGP Details on http://radiosondy.info
WA9ONY-14U22208582022-12-05 23:32:0644.8802-123.041237486460Clb=4.9m/s p=435.3hPa t=-31.1C h=23.6% 401.40MHz Type=RS41-SGP batt=2.9V Join https://groups.io/g/Balloons
KG7GDB-12U22208582022-12-05 23:32:0444.8803-123.041241506452Clb=3.6m/s t=-31.1C h=21.9% p=435.8hPa 401.401 MHz Type=RS41-SGP ser=U2220858 Radiosonde
W7BDB-13U22208582022-12-05 23:31:5644.881-123.04234526415Clb=8.2m/s p=438.2hPa t=-30.9C h=22.0% 401.40MHz Type=RS41-SGP Details on http://radiosondy.info
KJ7NUX-14U22208582022-12-05 23:31:5344.8812-123.04238566395Clb=4.4m/s p=439.5hPa t=-30.8C h=22.9% 401.40MHz Type=RS41-SGP Details on http://radiosondy.info
K6GDP-11U22208582022-12-05 23:31:5244.8813-123.039244446383Clb=6.3m/s t=-30.8C h=21.5% p=440.1hPa 401.400 MHz Type=RS41-SGP ser=U2220858 Radiosonde
WA9ONY-14U22208582022-12-05 23:31:4644.8816-123.039227616363Clb=4.6m/s p=441.3hPa t=-30.6C h=22.9% 401.40MHz Type=RS41-SGP Join https://groups.io/g/Balloons
W7BDB-13U22208582022-12-05 23:31:4044.8821-123.038245596321Clb=4.8m/s p=444.0hPa t=-30.3C h=22.0% 401.40MHz Type=RS41-SGP Details on http://radiosondy.info
WA9ONY-10U22208582022-12-05 23:31:3644.8825-123.037234596302Clb=5.8m/s p=445.2hPa t=-30.2C h=22.9% 401.40MHz Type=RS41-SGP Join https://groups.io/g/Balloons
KJ7NUX-14U22208582022-12-05 23:31:3544.8825-123.037235576297Clb=5.3m/s p=445.6hPa t=-30.2C h=23.0% 401.40MHz Type=RS41-SGP batt=2.9V Details on http://radiosondy.info
KG7GDB-12U22208582022-12-05 23:31:3344.8828-123.036235616275Clb=6.1m/s t=-30.1C h=23.9% p=446.9hPa 401.401 MHz Type=RS41-SGP ser=U2220858 Radiosonde
WA9ONY-14U22208582022-12-05 23:31:2644.8833-123.035234566246Clb=4.9m/s p=448.7hPa t=-30.1C h=32.0% 401.40MHz Type=RS41-SGP Join https://groups.io/g/Balloons
W7BDB-13U22208582022-12-05 23:31:2444.8835-123.035238526238Clb=4.7m/s p=449.2hPa t=-30.1C h=33.0% 401.40MHz Type=RS41-SGP batt=2.9V Details on http://radiosondy.info
K6GDP-11U22208582022-12-05 23:31:2144.8838-123.034236576224Clb=3.5m/s t=-30.1C h=35.0% p=450.2hPa 401.400 MHz Type=RS41-SGP ser=U2220858 Radiosonde
KJ7NUX-14U22208582022-12-05 23:31:1944.8839-123.034233566220Clb=4.1m/s p=450.4hPa t=-30.1C h=37.2% 401.40MHz Type=RS41-SGP Details on http://radiosondy.info
WA9ONY-14U22208582022-12-05 23:31:1644.8842-123.034224526208Clb=3.8m/s p=451.2hPa t=-30.0C h=39.3% 401.40MHz Type=RS41-SGP Join https://groups.io/g/Balloons
W7BDB-13U22208582022-12-05 23:31:0944.8849-123.033217636176Clb=4.7m/s p=453.1hPa t=-29.8C h=41.6% 401.40MHz Type=RS41-SGP Details on http://radiosondy.info
WA9ONY-10U22208582022-12-05 23:31:0644.8852-123.032225696165Clb=5.2m/s p=453.8hPa t=-29.7C h=43.5% 401.40MHz Type=RS41-SGP Join https://groups.io/g/Balloons
KG7GDB-12U22208582022-12-05 23:31:0244.8857-123.031239726137Clb=7.6m/s t=-29.6C h=48.4% p=455.5hPa 401.401 MHz Type=RS41-SGP ser=U2220858 Radiosonde
KJ7NUX-14U22208582022-12-05 23:31:0144.8857-123.031240566137Clb=7.5m/s p=455.5hPa t=-29.6C h=50.1% 401.40MHz Type=RS41-SGP Details on http://radiosondy.info
WA9ONY-10U22208582022-12-05 23:30:5644.8862-123.031219486108Clb=5.1m/s p=457.6hPa t=-29.4C h=53.5% 401.40MHz Type=RS41-SGP Join https://groups.io/g/Balloons
W7BDB-13U22208582022-12-05 23:30:5244.8866-123.03215486083Clb=4.1m/s p=459.1hPa t=-29.3C h=56.4% 401.40MHz Type=RS41-SGP Details on http://radiosondy.info
K6GDP-11U22208582022-12-05 23:30:5044.887-123.03220486062Clb=4.4m/s t=-29.3C h=48.0% p=460.5hPa 401.400 MHz Type=RS41-SGP ser=U2220858 Radiosonde
WA9ONY-14U22208582022-12-05 23:30:4644.8872-123.03225466052Clb=5.2m/s p=461.0hPa t=-29.1C h=43.6% 401.40MHz Type=RS41-SGP Join https://groups.io/g/Balloons
KJ7NUX-14U22208582022-12-05 23:30:4544.8873-123.029224506046Clb=7.0m/s p=461.4hPa t=-29.1C h=41.2% 401.40MHz Type=RS41-SGP TxPastBurst=8h30m batt=2.9V Details on http://radiosondy.info
W7BDB-13U22208582022-12-05 23:30:3644.888-123.028218505993Clb=4.8m/s p=464.8hPa t=-29.0C h=37.1% 401.40MHz Type=RS41-SGP batt=2.9V Details on http://radiosondy.info
KG7GDB-12U22208582022-12-05 23:30:3144.8885-123.027236525958Clb=7.0m/s t=-28.8C h=33.3% p=467.2hPa 401.401 MHz Type=RS41-SGP ser=U2220858 Radiosonde
KJ7NUX-14U22208582022-12-05 23:30:2944.8886-123.027234465952Clb=5.2m/s p=467.5hPa t=-28.7C h=33.9% 401.40MHz Type=RS41-SGP Details on http://radiosondy.info
WA9ONY-14U22208582022-12-05 23:30:2644.8888-123.027204525934Clb=6.0m/s p=468.7hPa t=-28.5C h=33.1% 401.40MHz Type=RS41-SGP Join https://groups.io/g/Balloons
W7BDB-13U22208582022-12-05 23:30:2144.8894-123.027231485908Clb=7.2m/s p=470.3hPa t=-28.3C h=30.7% 401.40MHz Type=RS41-SGP Details on http://radiosondy.info
K6GDP-11U22208582022-12-05 23:30:1844.8896-123.026246465891Clb=5.6m/s t=-28.3C h=27.4% p=471.5hPa 401.400 MHz Type=RS41-SGP ser=U2220858 Radiosonde
WA9ONY-14U22208582022-12-05 23:30:1644.8897-123.026228465881Clb=5.0m/s p=472.2hPa t=-28.2C h=28.7% 401.40MHz Type=RS41-SGP Join https://groups.io/g/Balloons
KJ7NUX-14U22208582022-12-05 23:30:1344.8899-123.026209445865Clb=7.0m/s p=473.1hPa t=-28.2C h=27.9% 401.40MHz Type=RS41-SGP Details on http://radiosondy.info
W7BDB-13U22208582022-12-05 23:30:0644.8905-123.025242435825Clb=5.5m/s p=475.8hPa t=-27.9C h=27.7% 401.40MHz Type=RS41-SGP Details on http://radiosondy.info
KG7GDB-12U22208582022-12-05 23:30:0044.891-123.024230445785Clb=6.3m/s t=-27.7C h=27.4% p=478.5hPa 401.401 MHz Type=RS41-SGP ser=U2220858 Radiosonde
KJ7NUX-14U22208582022-12-05 23:29:5744.8911-123.024241395775Clb=6.2m/s p=479.1hPa t=-27.6C h=28.3% 401.40MHz Type=RS41-SGP batt=2.9V Details on http://radiosondy.info
WA9ONY-10U22208582022-12-05 23:29:5644.8912-123.024241395768Clb=6.9m/s p=479.5hPa t=-27.6C h=28.6% 401.40MHz Type=RS41-SGP Join https://groups.io/g/Balloons
W7BDB-13U22208582022-12-05 23:29:5144.8915-123.023224375741Clb=4.9m/s p=481.4hPa t=-27.4C h=32.3% 401.40MHz Type=RS41-SGP TxPastBurst=8h30m batt=2.9V Details on http://radiosondy.info
K6GDP-11U22208582022-12-05 23:29:4744.8918-123.023220265719Clb=4.0m/s t=-27.3C h=32.8% p=482.7hPa 401.400 MHz Type=RS41-SGP ser=U2220858 Radiosonde
WA9ONY-10U22208582022-12-05 23:29:4644.8918-123.023214415715Clb=5.5m/s p=482.9hPa t=-27.3C h=34.3% 401.40MHz Type=RS41-SGP TxPastBurst=8h30m batt=2.9V Join https://groups.io/g/Balloons
KJ7NUX-14U22208582022-12-05 23:29:4144.8922-123.022220445685Clb=7.4m/s p=485.1hPa t=-27.1C h=34.7% 401.40MHz Type=RS41-SGP Details on http://radiosondy.info
W7BDB-13U22208582022-12-05 23:29:3644.8926-123.022237445655Clb=3.8m/s p=487.0hPa t=-26.9C h=36.4% 401.40MHz Type=RS41-SGP Details on http://radiosondy.info
KG7GDB-12U22208582022-12-05 23:29:2944.8932-123.021213445616Clb=4.9m/s t=-26.8C h=43.3% p=489.7hPa 401.401 MHz Type=RS41-SGP ser=U2220858 Radiosonde
WA9ONY-14U22208582022-12-05 23:29:2644.8934-123.021208435609Clb=4.1m/s p=490.3hPa t=-26.8C h=46.8% 401.40MHz Type=RS41-SGP Join https://groups.io/g/Balloons
KJ7NUX-14U22208582022-12-05 23:29:2544.8935-123.021209445604Clb=3.4m/s p=490.6hPa t=-26.7C h=47.3% 401.40MHz Type=RS41-SGP Details on http://radiosondy.info
W7BDB-13U22208582022-12-05 23:29:2144.8938-123.02232445586Clb=6.1m/s p=491.8hPa t=-26.6C h=51.2% 401.40MHz Type=RS41-SGP Details on http://radiosondy.info
K6GDP-11U22208582022-12-05 23:29:1644.8941-123.02237525558Clb=5.0m/s t=-26.4C h=49.3% p=493.7hPa 401.400 MHz Type=RS41-SGP ser=U2220858 Radiosonde
WA9ONY-14U22208582022-12-05 23:29:1544.8949-123.019226395501Clb=6.2m/s p=497.6hPa t=-25.8C h=47.0% 401.40MHz Type=RS41-SGP batt=2.9V Join https://groups.io/g/Balloons
KG7GDB-12U22208582022-12-05 23:29:0944.8954-123.018228485464Clb=3.9m/s t=-25.5C h=41.5% p=500.3hPa 401.401 MHz Type=RS41-SGP ser=U2220858 Radiosonde
WA9ONY-10U22208582022-12-05 23:29:0844.8955-123.017222395459Clb=5.4m/s p=500.5hPa t=-25.4C h=42.1% 401.40MHz Type=RS41-SGP Join https://groups.io/g/Balloons
WA9ONY-14U22208582022-12-05 23:29:0744.8955-123.017222395459Clb=5.4m/s p=500.5hPa t=-25.4C h=42.1% 401.40MHz Type=RS41-SGP Join https://groups.io/g/Balloons
KJ7NUX-14U22208582022-12-05 23:29:0644.8958-123.017212335438Clb=7.0m/s p=502.0hPa t=-25.2C h=37.9% 401.40MHz Type=RS41-SGP Details on http://radiosondy.info
W7BDB-13U22208582022-12-05 23:29:0144.896-123.017242355415Clb=6.4m/s p=503.7hPa t=-25.0C h=36.9% 401.40MHz Type=RS41-SGP Details on http://radiosondy.info
WA9ONY-10U22208582022-12-05 23:28:5744.8962-123.017221335397Clb=8.1m/s p=504.9hPa t=-24.9C h=34.7% 401.40MHz Type=RS41-SGP batt=2.9V Join https://groups.io/g/Balloons
K6GDP-11U22208582022-12-05 23:28:5644.8962-123.016214335390Clb=5.7m/s t=-24.9C h=34.0% p=505.3hPa 401.400 MHz Type=RS41-SGP ser=U2220858 Radiosonde
W7BDB-12U22208582022-12-05 23:28:5144.8965-123.016254435351Clb=5.8m/s t=-24.6C h=35.3% p=508.1hPa 401.399 MHz Type=RS41-SGP ser=U2220858 Radiosonde
KJ7NUX-14U22208582022-12-05 23:28:4744.8965-123.016246415346Clb=5.4m/s p=508.4hPa t=-24.5C h=36.0% 401.40MHz Type=RS41-SGP Details on http://radiosondy.info
WA9ONY-14U22208582022-12-05 23:28:4544.8966-123.016244435340Clb=5.6m/s p=508.7hPa t=-24.5C h=35.8% 401.40MHz Type=RS41-SGP batt=2.9V Join https://groups.io/g/Balloons
W7BDB-13U22208582022-12-05 23:28:4244.8967-123.015238395332Clb=4.1m/s p=509.4hPa t=-24.4C h=35.8% 401.40MHz Type=RS41-SGP Details on http://radiosondy.info
KG7GDB-12U22208582022-12-05 23:28:3344.8972-123.014226335284Clb=7.0m/s t=-24.0C h=33.2% p=512.8hPa 401.401 MHz Type=RS41-SGP ser=U2220858 Radiosonde
WA9ONY-14U22208582022-12-05 23:28:3244.8972-123.014227375284Clb=7.0m/s p=512.7hPa t=-24.0C h=34.2% 401.40MHz Type=RS41-SGP Join https://groups.io/g/Balloons
KJ7NUX-14U22208582022-12-05 23:28:2744.8975-123.014238395260Clb=4.5m/s p=514.4hPa t=-23.7C h=33.5% 401.40MHz Type=RS41-SGP TxPastBurst=8h30m batt=2.9V Details on http://radiosondy.info
W7BDB-13U22208582022-12-05 23:28:2244.8976-123.013241375247Clb=5.5m/s p=515.4hPa t=-23.6C h=33.2% 401.40MHz Type=RS41-SGP batt=2.9V Details on http://radiosondy.info
WA9ONY-14U22208582022-12-05 23:28:2044.8977-123.013235415237Clb=5.3m/s p=516.0hPa t=-23.5C h=33.1% 401.40MHz Type=RS41-SGP Join https://groups.io/g/Balloons
K6GDP-11U22208582022-12-05 23:28:1744.8978-123.013228395228Clb=4.6m/s t=-23.5C h=31.8% p=516.5hPa 401.400 MHz Type=RS41-SGP ser=U2220858 Radiosonde
WA9ONY-14U22208582022-12-05 23:28:0644.8984-123.012218375197Clb=5.5m/s p=518.9hPa t=-23.2C h=31.8% 401.40MHz Type=RS41-SGP TxPastBurst=8h30m batt=2.7V Join https://groups.io/g/Balloons
W7BDB-13U22208582022-12-05 23:28:0244.8986-123.012227355174Clb=4.6m/s p=520.5hPa t=-23.0C h=31.8% 401.40MHz Type=RS41-SGP Details on http://radiosondy.info
WA9ONY-10U22208582022-12-05 23:27:5644.8989-123.011258305148Clb=4.4m/s p=522.3hPa t=-22.8C h=32.9% 401.40MHz Type=RS41-SGP Join https://groups.io/g/Balloons
KG7GDB-12U22208582022-12-05 23:27:5544.8989-123.011266285141Clb=7.2m/s t=-22.8C h=31.9% p=522.6hPa 401.401 MHz Type=RS41-SGP ser=U2220858 Radiosonde
KJ7NUX-14U22208582022-12-05 23:27:4944.8991-123.011235315105Clb=5.9m/s p=525.4hPa t=-22.5C h=35.3% 401.40MHz Type=RS41-SGP Details on http://radiosondy.info
W7BDB-13U22208582022-12-05 23:27:4744.8992-123.01237305088Clb=3.2m/s p=526.7hPa t=-22.4C h=36.2% 401.40MHz Type=RS41-SGP Details on http://radiosondy.info
WA9ONY-14U22208582022-12-05 23:27:4644.8992-123.01237335088Clb=3.2m/s p=526.7hPa t=-22.4C h=36.2% 401.40MHz Type=RS41-SGP Join https://groups.io/g/Balloons
K6GDP-11U22208582022-12-05 23:27:4344.8993-123.01230375076Clb=3.2m/s t=-22.5C h=34.4% p=527.6hPa 401.400 MHz Type=RS41-SGP ser=U2220858 Radiosonde
WA9ONY-14U22208582022-12-05 23:27:3644.8997-123.009241265050Clb=3.9m/s p=529.6hPa t=-22.2C h=31.1% 401.40MHz Type=RS41-SGP batt=2.7V Join https://groups.io/g/Balloons
KJ7NUX-14U22208582022-12-05 23:27:3344.8998-123.009254285037Clb=4.3m/s p=530.3hPa t=-22.1C h=29.0% 401.40MHz Type=RS41-SGP batt=2.9V Details on http://radiosondy.info
W7BDB-13U22208582022-12-05 23:27:3044.8998-123.009262315026Clb=3.7m/s p=531.1hPa t=-22.0C h=25.1% 401.40MHz Type=RS41-SGP TxPastBurst=8h30m batt=2.9V Details on http://radiosondy.info
WA9ONY-10U22208582022-12-05 23:27:2644.8998-123.009259315006Clb=4.3m/s p=532.5hPa t=-21.8C h=23.2% 401.40MHz Type=RS41-SGP Join https://groups.io/g/Balloons
KG7GDB-12U22208582022-12-05 23:27:2444.8999-123.008236264996Clb=5.7m/s t=-21.8C h=22.0% p=533.3hPa 401.401 MHz Type=RS41-SGP ser=U2220858 Radiosonde
KJ7NUX-14U22208582022-12-05 23:27:1844.9002-123.008240314959Clb=3.7m/s p=536.1hPa t=-21.4C h=24.7% 401.40MHz Type=RS41-SGP Details on http://radiosondy.info
WA9ONY-14U22208582022-12-05 23:27:1544.9003-123.008241284952Clb=3.4m/s p=536.6hPa t=-21.3C h=26.5% 401.40MHz Type=RS41-SGP Join https://groups.io/g/Balloons
W7BDB-13U22208582022-12-05 23:27:1444.9003-123.007231284949Clb=4.1m/s p=536.9hPa t=-21.3C h=27.9% 401.40MHz Type=RS41-SGP Details on http://radiosondy.info
K6GDP-11U22208582022-12-05 23:27:1244.9004-123.007203244938Clb=6.5m/s t=-21.3C h=30.5% p=537.7hPa 401.400 MHz Type=RS41-SGP ser=U2220858 Radiosonde
WA9ONY-10U22208582022-12-05 23:27:0544.9008-123.007239314899Clb=6.2m/s p=540.4hPa t=-20.9C h=40.2% 401.40MHz Type=RS41-SGP Join https://groups.io/g/Balloons
KJ7NUX-14U22208582022-12-05 23:27:0144.901-123.007222314884Clb=4.4m/s p=541.6hPa t=-21.0C h=55.1% 401.40MHz Type=RS41-SGP Details on http://radiosondy.info
W7BDB-13U22208582022-12-05 23:26:5944.9011-123.006222334874Clb=6.6m/s p=542.4hPa t=-21.0C h=51.2% 401.40MHz Type=RS41-SGP Details on http://radiosondy.info
WA9ONY-14U22208582022-12-05 23:26:5544.9013-123.006236314855Clb=3.8m/s p=543.6hPa t=-20.9C h=49.0% 401.40MHz Type=RS41-SGP Join https://groups.io/g/Balloons
KG7GDB-12U22208582022-12-05 23:26:5344.9014-123.006215264845Clb=4.9m/s t=-20.9C h=50.2% p=544.6hPa 401.401 MHz Type=RS41-SGP ser=U2220858 Radiosonde
KJ7NUX-14U22208582022-12-05 23:26:4544.9019-123.005233264803Clb=6.5m/s p=547.5hPa t=-20.8C h=67.7% 401.40MHz Type=RS41-SGP batt=2.9V Details on http://radiosondy.info
W7BDB-13U22208582022-12-05 23:26:4344.902-123.005210244791Clb=4.7m/s p=548.5hPa t=-20.7C h=68.9% 401.40MHz Type=RS41-SGP batt=2.9V Details on http://radiosondy.info
K6GDP-11U22208582022-12-05 23:26:4144.9021-123.005197194780Clb=6.4m/s t=-20.7C h=67.5% p=549.3hPa 401.400 MHz Type=RS41-SGP ser=U2220858 Radiosonde
WA9ONY-14U22208582022-12-05 23:26:3544.9023-123.005247194748Clb=5.2m/s p=551.6hPa t=-20.4C h=66.6% 401.40MHz Type=RS41-SGP TxPastBurst=8h30m batt=2.9V Join https://groups.io/g/Balloons
KJ7NUX-14U22208582022-12-05 23:26:2944.9025-123.004196174717Clb=4.5m/s p=554.0hPa t=-20.2C h=65.8% 401.40MHz Type=RS41-SGP Details on http://radiosondy.info
W7BDB-13U22208582022-12-05 23:26:2844.9025-123.004229174713Clb=5.3m/s p=554.4hPa t=-20.1C h=65.4% 401.40MHz Type=RS41-SGP Details on http://radiosondy.info
WA9ONY-14U22208582022-12-05 23:26:2544.9026-123.004215204700Clb=4.5m/s p=555.3hPa t=-20.0C h=65.6% 401.40MHz Type=RS41-SGP Join https://groups.io/g/Balloons
KG7GDB-12U22208582022-12-05 23:26:2244.9027-123.004229314687Clb=6.7m/s t=-20.0C h=61.8% p=556.1hPa 401.401 MHz Type=RS41-SGP ser=U2220858 Radiosonde
WA9ONY-14U22208582022-12-05 23:26:1544.9029-123.004171224644Clb=8.3m/s p=559.3hPa t=-19.6C h=58.0% 401.40MHz Type=RS41-SGP Join https://groups.io/g/Balloons
KJ7NUX-14U22208582022-12-05 23:26:1344.903-123.004180204632Clb=5.5m/s p=560.2hPa t=-19.5C h=56.8% 401.40MHz Type=RS41-SGP Details on http://radiosondy.info
W7BDB-13U22208582022-12-05 23:26:1244.903-123.004189194628Clb=4.0m/s p=560.6hPa t=-19.4C h=56.5% 401.40MHz Type=RS41-SGP Details on http://radiosondy.info
K6GDP-11U22208582022-12-05 23:26:1044.9032-123.004224264614Clb=4.9m/s t=-19.4C h=54.6% p=561.5hPa 401.400 MHz Type=RS41-SGP ser=U2220858 Radiosonde
WA9ONY-10U22208582022-12-05 23:26:0544.9033-123.003260154597Clb=4.0m/s p=562.8hPa t=-19.2C h=54.9% 401.40MHz Type=RS41-SGP Join https://groups.io/g/Balloons
KJ7NUX-14U22208582022-12-05 23:25:5744.9035-123.003154154549Clb=6.2m/s p=566.4hPa t=-18.8C h=50.6% 401.40MHz Type=RS41-SGP TxPastBurst=8h30m batt=2.9V Details on http://radiosondy.info
W7BDB-13U22208582022-12-05 23:25:5644.9035-123.003144174545Clb=4.4m/s p=566.9hPa t=-18.7C h=50.7% 401.40MHz Type=RS41-SGP batt=2.9V Details on http://radiosondy.info
WA9ONY-14U22208582022-12-05 23:25:5544.9036-123.003159194540Clb=4.6m/s p=567.2hPa t=-18.7C h=50.7% 401.40MHz Type=RS41-SGP Join https://groups.io/g/Balloons
KG7GDB-12U22208582022-12-05 23:25:5144.9037-123.003229264523Clb=6.0m/s t=-18.6C h=48.2% p=568.4hPa 401.401 MHz Type=RS41-SGP ser=U2220858 Radiosonde
WA9ONY-10U22208582022-12-05 23:25:4544.9038-123.003277174493Clb=4.8m/s p=570.8hPa t=-18.4C h=48.8% 401.40MHz Type=RS41-SGP batt=2.9V Join https://groups.io/g/Balloons
WA9ONY-14U22208582022-12-05 23:25:4444.9038-123.003254174487Clb=7.6m/s p=571.3hPa t=-18.3C h=48.4% 401.40MHz Type=RS41-SGP Join https://groups.io/g/Balloons
KJ7NUX-14U22208582022-12-05 23:25:4144.9039-123.003181174470Clb=3.7m/s p=572.6hPa t=-18.3C h=48.2% 401.40MHz Type=RS41-SGP Details on http://radiosondy.info
K6GDP-11U22208582022-12-05 23:25:3944.9041-123.003209204456Clb=3.6m/s t=-18.2C h=46.4% p=573.7hPa 401.400 MHz Type=RS41-SGP ser=U2220858 Radiosonde
WA9ONY-10U22208582022-12-05 23:25:3544.9042-123.002267114443Clb=4.9m/s p=574.8hPa t=-18.0C h=45.4% 401.40MHz Type=RS41-SGP Join https://groups.io/g/Balloons
WA9ONY-14U22208582022-12-05 23:25:3444.9042-123.002299114437Clb=6.7m/s p=575.2hPa t=-18.0C h=44.5% 401.40MHz Type=RS41-SGP batt=2.9V Join https://groups.io/g/Balloons
W7BDB-13U22208582022-12-05 23:25:2644.9044-123.003188134399Clb=6.4m/s p=578.0hPa t=-17.7C h=42.5% 401.40MHz Type=RS41-SGP Details on http://radiosondy.info
KJ7NUX-14U22208582022-12-05 23:25:2544.9044-123.003203134394Clb=6.0m/s p=578.5hPa t=-17.6C h=42.1% 401.40MHz Type=RS41-SGP Details on http://radiosondy.info
WA9ONY-14U22208582022-12-05 23:25:2444.9044-123.003254114389Clb=2.9m/s p=578.8hPa t=-17.6C h=42.0% 401.40MHz Type=RS41-SGP Join https://groups.io/g/Balloons
KG7GDB-12U22208582022-12-05 23:25:2044.9044-123.003134174364Clb=4.9m/s t=-17.4C h=40.6% p=580.9hPa 401.401 MHz Type=RS41-SGP ser=U2220858 Radiosonde
WA9ONY-10U22208582022-12-05 23:25:1544.9046-123.003229154337Clb=4.7m/s p=582.7hPa t=-17.1C h=41.2% 401.40MHz Type=RS41-SGP TxPastBurst=8h30m batt=2.9V Join https://groups.io/g/Balloons
WA9ONY-14U22208582022-12-05 23:25:1444.9046-123.003233134331Clb=7.9m/s p=583.0hPa t=-17.1C h=40.9% 401.40MHz Type=RS41-SGP Join https://groups.io/g/Balloons
W7BDB-13U22208582022-12-05 23:25:1144.9047-123.003186154309Clb=5.4m/s p=585.0hPa t=-17.2C h=44.2% 401.40MHz Type=RS41-SGP TxPastBurst=8h30m batt=2.9V Details on http://radiosondy.info
K6GDP-11U22208582022-12-05 23:25:0844.9048-123.0036674287Clb=5.5m/s t=-17.2C h=46.5% p=586.7hPa 401.400 MHz Type=RS41-SGP ser=U2220858 Radiosonde
KJ7NUX-14U22208582022-12-05 23:25:0744.9048-123.00367154287Clb=5.4m/s p=586.6hPa t=-17.1C h=47.2% 401.40MHz Type=RS41-SGP batt=2.9V Details on http://radiosondy.info
WA9ONY-10U22208582022-12-05 23:25:0544.9048-123.00377154278Clb=4.1m/s p=587.5hPa t=-17.0C h=48.2% 401.40MHz Type=RS41-SGP Join https://groups.io/g/Balloons
WA9ONY-14U22208582022-12-05 23:25:0444.9048-123.003104154274Clb=4.1m/s p=587.7hPa t=-17.0C h=48.5% 401.40MHz Type=RS41-SGP TxPastBurst=8h30m batt=2.9V Join https://groups.io/g/Balloons
W7BDB-13U22208582022-12-05 23:25:0044.9049-123.003297154232Clb=4.5m/s p=591.2hPa t=-16.7C h=44.3% 401.40MHz Type=RS41-SGP Details on http://radiosondy.info
WA9ONY-14U22208582022-12-05 23:24:5944.9049-123.002299154227Clb=6.1m/s p=591.5hPa t=-16.6C h=43.5% 401.40MHz Type=RS41-SGP Join https://groups.io/g/Balloons
KJ7NUX-14U22208582022-12-05 23:24:5744.9048-123.002284114213Clb=4.1m/s p=592.6hPa t=-16.5C h=41.8% 401.40MHz Type=RS41-SGP Details on http://radiosondy.info
KG7GDB-12U22208582022-12-05 23:24:5644.9048-123.00230774204Clb=6.0m/s t=-16.5C h=40.9% p=593.3hPa 401.401 MHz Type=RS41-SGP ser=U2220858 Radiosonde
WA9ONY-10U22208582022-12-05 23:24:5244.9047-123.002326114177Clb=5.5m/s p=595.3hPa t=-16.3C h=37.4% 401.40MHz Type=RS41-SGP batt=2.9V Join https://groups.io/g/Balloons
WA9ONY-14U22208582022-12-05 23:24:5144.9047-123.002320114173Clb=3.9m/s p=595.8hPa t=-16.2C h=36.8% 401.40MHz Type=RS41-SGP Join https://groups.io/g/Balloons
W7BDB-13U22208582022-12-05 23:24:4544.9045-123.00215114150Clb=4.5m/s p=597.7hPa t=-16.0C h=35.8% 401.40MHz Type=RS41-SGP Details on http://radiosondy.info
K6GDP-11U22208582022-12-05 23:24:4344.9046-123.00216094132Clb=7.4m/s t=-15.9C h=34.0% p=599.0hPa 401.400 MHz Type=RS41-SGP ser=U2220858 Radiosonde
WA9ONY-10U22208582022-12-05 23:24:4144.9046-123.002177134126Clb=6.2m/s p=599.5hPa t=-15.8C h=33.3% 401.40MHz Type=RS41-SGP Join https://groups.io/g/Balloons
WA9ONY-14U22208582022-12-05 23:24:4044.9046-123.002185134121Clb=4.2m/s p=599.9hPa t=-15.7C h=32.8% 401.40MHz Type=RS41-SGP batt=2.9V Join https://groups.io/g/Balloons
W7BDB-12U22208582022-12-05 23:24:3844.9048-123.00212024103Clb=3.7m/s t=-15.7C h=31.7% p=601.5hPa 401.399 MHz Type=RS41-SGP ser=U2220858 Radiosonde
WA9ONY-10U22208582022-12-05 23:24:2944.9047-123.002285114078Clb=4.5m/s p=603.5hPa t=-15.5C h=29.0% 401.40MHz Type=RS41-SGP Join https://groups.io/g/Balloons
WA9ONY-14U22208582022-12-05 23:24:2844.9047-123.00228794073Clb=4.8m/s p=603.8hPa t=-15.5C h=28.1% 401.40MHz Type=RS41-SGP Join https://groups.io/g/Balloons
W7BDB-13U22208582022-12-05 23:24:2744.9047-123.002290134068Clb=5.5m/s p=604.3hPa t=-15.5C h=26.9% 401.40MHz Type=RS41-SGP batt=2.9V Details on http://radiosondy.info
KJ7NUX-14U22208582022-12-05 23:24:2244.9046-123.00275174046Clb=5.4m/s p=606.2hPa t=-15.4C h=26.7% 401.40MHz Type=RS41-SGP batt=2.9V Details on http://radiosondy.info
KG7GDB-12U22208582022-12-05 23:24:2144.9046-123.00279114041Clb=5.6m/s t=-15.4C h=28.4% p=606.5hPa 401.401 MHz Type=RS41-SGP ser=U2220858 Radiosonde
WA9ONY-10U22208582022-12-05 23:24:1844.9046-123.002355194027Clb=3.3m/s p=607.7hPa t=-15.3C h=30.8% 401.40MHz Type=RS41-SGP batt=2.9V Join https://groups.io/g/Balloons
WA9ONY-14U22208582022-12-05 23:24:1644.9046-123.002278194023Clb=4.6m/s p=607.9hPa t=-15.3C h=31.0% 401.40MHz Type=RS41-SGP Join https://groups.io/g/Balloons
W7BDB-13U22208582022-12-05 23:24:0744.9049-123.002172173983Clb=5.8m/s p=611.1hPa t=-15.1C h=29.0% 401.40MHz Type=RS41-SGP Details on http://radiosondy.info
K6GDP-11U22208582022-12-05 23:24:0644.905-123.002146193972Clb=4.8m/s t=-15.1C h=26.4% p=612.0hPa 401.400 MHz Type=RS41-SGP ser=U2220858 Radiosonde
WA9ONY-10U22208582022-12-05 23:24:0544.905-123.002147133972Clb=4.8m/s p=611.9hPa t=-15.1C h=26.8% 401.40MHz Type=RS41-SGP Join https://groups.io/g/Balloons
WA9ONY-14U22208582022-12-05 23:24:0444.905-123.002134133967Clb=5.2m/s p=612.2hPa t=-15.0C h=27.2% 401.40MHz Type=RS41-SGP batt=2.9V Join https://groups.io/g/Balloons
WA9ONY-10U22208582022-12-05 23:23:5544.9051-123.002212203922Clb=4.4m/s p=615.6hPa t=-14.8C h=25.5% 401.40MHz Type=RS41-SGP Join https://groups.io/g/Balloons
WA9ONY-14U22208582022-12-05 23:23:5444.9051-123.002197203918Clb=5.0m/s p=616.1hPa t=-14.8C h=25.3% 401.40MHz Type=RS41-SGP Join https://groups.io/g/Balloons
W7BDB-13U22208582022-12-05 23:23:5244.9053-123.002165153909Clb=5.7m/s p=616.8hPa t=-14.7C h=25.2% 401.40MHz Type=RS41-SGP Details on http://radiosondy.info
KG7GDB-12U22208582022-12-05 23:23:4744.9055-123.002159203887Clb=4.3m/s t=-14.7C h=24.8% p=618.7hPa 401.401 MHz Type=RS41-SGP ser=U2220858 Radiosonde
KJ7NUX-14U22208582022-12-05 23:23:4644.9055-123.002181133882Clb=4.9m/s p=619.0hPa t=-14.6C h=24.6% 401.40MHz Type=RS41-SGP Details on http://radiosondy.info
WA9ONY-10U22208582022-12-05 23:23:4544.9056-123.002206113877Clb=6.3m/s p=619.4hPa t=-14.6C h=25.1% 401.40MHz Type=RS41-SGP TxPastBurst=8h30m batt=2.9V Join https://groups.io/g/Balloons
WA9ONY-14U22208582022-12-05 23:23:4444.9056-123.002232113871Clb=6.3m/s p=620.0hPa t=-14.6C h=25.1% 401.40MHz Type=RS41-SGP Join https://groups.io/g/Balloons
K6GDP-14U22208582022-12-05 23:23:4044.9056-123.002358113851Clb=4.2m/s calibration 68% Type=RS41 Details on http://radiosondy.info
W7BDB-13U22208582022-12-05 23:23:3644.9056-123.002183113828Clb=4.9m/s p=623.4hPa t=-14.5C h=21.6% 401.40MHz Type=RS41-SGP batt=2.9V Details on http://radiosondy.info
WA9ONY-10U22208582022-12-05 23:23:3544.9057-123.00217993822Clb=6.0m/s p=623.9hPa t=-14.4C h=20.8% 401.40MHz Type=RS41-SGP Join https://groups.io/g/Balloons
WA9ONY-14U22208582022-12-05 23:23:3444.9057-123.00217173817Clb=4.8m/s p=624.3hPa t=-14.4C h=21.0% 401.40MHz Type=RS41-SGP TxPastBurst=8h30m batt=2.9V Join https://groups.io/g/Balloons
W7BDB-12U22208582022-12-05 23:23:3044.9058-123.00231073790Clb=4.9m/s t=-14.3C h=20.7% p=626.6hPa 401.399 MHz Type=RS41-SGP ser=U2220858 Radiosonde
W7BDB-13U22208582022-12-05 23:23:2144.9059-123.002186173749Clb=4.4m/s p=630.0hPa t=-14.0C h=15.3% 401.40MHz Type=RS41-SGP Details on http://radiosondy.info
KG7GDB-12U22208582022-12-05 23:23:1644.9061-123.002223193717Clb=4.4m/s t=-14.0C h=15.9% p=632.7hPa 401.401 MHz Type=RS41-SGP ser=U2220858 Radiosonde
WA9ONY-10U22208582022-12-05 23:23:1544.9061-123.002224153717Clb=4.3m/s p=632.6hPa t=-14.0C h=16.2% 401.40MHz Type=RS41-SGP batt=2.9V Join https://groups.io/g/Balloons
KJ7NUX-14U22208582022-12-05 23:23:1444.9062-123.002224153714Clb=4.0m/s p=633.0hPa t=-14.0C h=18.4% 401.40MHz Type=RS41-SGP Details on http://radiosondy.info
K6GDP-14U22208582022-12-05 23:23:0944.9063-123.001264113693Clb=5.2m/s calibration 60% Type=RS41 batt=2.9V Details on http://radiosondy.info
W7BDB-13U22208582022-12-05 23:23:0544.9063-123.001138133673Clb=5.2m/s p=636.3hPa t=-13.9C h=21.5% 401.40MHz Type=RS41-SGP Details on http://radiosondy.info
WA9ONY-14U22208582022-12-05 23:23:0444.9063-123.001131133668Clb=4.8m/s p=636.7hPa t=-13.8C h=21.7% 401.40MHz Type=RS41-SGP batt=2.9V Join https://groups.io/g/Balloons
K6GDP-11U22208582022-12-05 23:23:0344.9063-123.001133193662Clb=5.8m/s t=-13.9C h=21.4% p=637.2hPa 401.400 MHz Type=RS41-SGP ser=U2220858 Radiosonde
KJ7NUX-14U22208582022-12-05 23:22:5844.9064-123.002299113636Clb=4.8m/s p=639.3hPa t=-13.6C h=21.8% 401.40MHz Type=RS41-SGP Details on http://radiosondy.info
WA9ONY-10U22208582022-12-05 23:22:5544.9064-123.001238113621Clb=4.0m/s p=640.6hPa t=-13.5C h=21.5% 401.40MHz Type=RS41-SGP Join https://groups.io/g/Balloons
WA9ONY-14U22208582022-12-05 23:22:5444.9065-123.001233113616Clb=5.2m/s p=640.8hPa t=-13.4C h=21.5% 401.40MHz Type=RS41-SGP Join https://groups.io/g/Balloons
W7BDB-13U22208582022-12-05 23:22:4944.9066-123.00177173591Clb=7.2m/s p=643.1hPa t=-13.2C h=21.2% 401.40MHz Type=RS41-SGP TxPastBurst=8h30m batt=2.9V Details on http://radiosondy.info
WA9ONY-10U22208582022-12-05 23:22:4544.9065-123.001254193568Clb=5.0m/s p=644.9hPa t=-13.0C h=21.1% 401.40MHz Type=RS41-SGP batt=2.9V Join https://groups.io/g/Balloons
WA9ONY-14U22208582022-12-05 23:22:4444.9066-123.001224193563Clb=4.8m/s p=645.5hPa t=-13.0C h=21.2% 401.40MHz Type=RS41-SGP Join https://groups.io/g/Balloons
KJ7NUX-14U22208582022-12-05 23:22:4244.9066-123.001187153554Clb=4.4m/s p=646.4hPa t=-12.9C h=21.2% 401.40MHz Type=RS41-SGP batt=2.9V Details on http://radiosondy.info
WA9ONY-10U22208582022-12-05 23:22:3544.907-123.001187133514Clb=5.4m/s p=649.6hPa t=-12.6C h=21.1% 401.40MHz Type=RS41-SGP Join https://groups.io/g/Balloons
WA9ONY-14U22208582022-12-05 23:22:3444.907-123.001212113509Clb=4.1m/s p=650.1hPa t=-12.6C h=21.0% 401.40MHz Type=RS41-SGP batt=2.9V Join https://groups.io/g/Balloons
W7BDB-13U22208582022-12-05 23:22:3344.907-123.00123393506Clb=4.2m/s p=650.4hPa t=-12.6C h=21.1% calibration 98% 401.40MHz Type=RS41-SGP Details on http://radiosondy.info
K6GDP-11U22208582022-12-05 23:22:3244.9071-123.001247113500Clb=6.0m/s t=-12.6C h=20.8% p=650.9hPa 401.400 MHz Type=RS41-SGP ser=U2220858 Radiosonde
KJ7NUX-14U22208582022-12-05 23:22:2644.9071-123.00112693471Clb=3.4m/s p=653.4hPa t=-12.3C h=20.7% 401.40MHz Type=RS41-SGP Details on http://radiosondy.info
WA9ONY-10U22208582022-12-05 23:22:2544.9071-123.00113093468Clb=3.9m/s p=653.6hPa t=-12.3C h=20.8% 401.40MHz Type=RS41-SGP Join https://groups.io/g/Balloons
WA9ONY-14U22208582022-12-05 23:22:2444.9071-123.00114073464Clb=4.3m/s p=653.9hPa t=-12.3C h=20.8% 401.40MHz Type=RS41-SGP Join https://groups.io/g/Balloons
W7BDB-13U22208582022-12-05 23:22:1744.9072-123.002105133423Clb=8.1m/s p=657.3hPa t=-11.9C h=20.1% calibration 98% 401.40MHz Type=RS41-SGP Details on http://radiosondy.info
WA9ONY-10U22208582022-12-05 23:22:1544.9072-123.00241153410Clb=4.5m/s p=658.5hPa t=-11.8C h=20.2% 401.40MHz Type=RS41-SGP TxPastBurst=8h30m batt=2.9V Join https://groups.io/g/Balloons
WA9ONY-14U22208582022-12-05 23:22:1444.9072-123.002304153406Clb=5.6m/s p=658.9hPa t=-11.7C h=20.2% 401.40MHz Type=RS41-SGP Join https://groups.io/g/Balloons
KJ7NUX-14U22208582022-12-05 23:22:1044.9073-123.002175153384Clb=5.6m/s p=660.7hPa t=-11.5C h=20.1% 401.40MHz Type=RS41-SGP Details on http://radiosondy.info
WA9ONY-10U22208582022-12-05 23:22:0544.9075-123.002101113355Clb=3.6m/s p=663.1hPa t=-11.3C h=19.9% 401.40MHz Type=RS41-SGP Join https://groups.io/g/Balloons
WA9ONY-14U22208582022-12-05 23:22:0444.9075-123.00278113351Clb=5.0m/s p=663.4hPa t=-11.2C h=19.9% 401.40MHz Type=RS41-SGP TxPastBurst=8h30m batt=2.9V Join https://groups.io/g/Balloons
W7BDB-13U22208582022-12-05 23:22:0144.9075-123.00216133337Clb=4.9m/s p=664.9hPa t=-11.1C h=19.7% calibration 98% 401.40MHz Type=RS41-SGP batt=2.9V Details on http://radiosondy.info
WA9ONY-10U22208582022-12-05 23:21:5544.9075-123.002178153306Clb=3.9m/s p=667.6hPa t=-10.8C h=19.3% 401.40MHz Type=RS41-SGP Join https://groups.io/g/Balloons
KJ7NUX-14U22208582022-12-05 23:21:5444.9076-123.002161113302Clb=4.9m/s p=667.9hPa t=-10.8C h=19.2% 401.40MHz Type=RS41-SGP batt=2.9V Details on http://radiosondy.info
K6GDP-14U22208582022-12-05 23:21:4944.9077-123.002226153274Clb=7.1m/s calibration 60% Type=RS41 Details on http://radiosondy.info
W7BDB-13U22208582022-12-05 23:21:4544.9078-123.002156153251Clb=5.5m/s p=672.2hPa t=-10.4C h=21.5% calibration 98% 401.40MHz Type=RS41-SGP Details on http://radiosondy.info
WA9ONY-14U22208582022-12-05 23:21:4444.9079-123.002129133246Clb=5.3m/s p=672.7hPa t=-10.3C h=21.5% 401.40MHz Type=RS41-SGP Join https://groups.io/g/Balloons
KG7GDB-12U22208582022-12-05 23:21:4344.9079-123.0024863235Clb=7.2m/s t=-10.3C h=21.2% p=673.6hPa 401.401 MHz Type=RS41-SGP ser=U2220858 Radiosonde
KJ7NUX-14U22208582022-12-05 23:21:3844.9079-123.002239173207Clb=4.0m/s p=676.1hPa t=-10.1C h=22.3% 401.40MHz Type=RS41-SGP Details on http://radiosondy.info
WA9ONY-10U22208582022-12-05 23:21:3544.908-123.002177153193Clb=5.2m/s p=677.3hPa t=-10.0C h=23.7% 401.40MHz Type=RS41-SGP Join https://groups.io/g/Balloons
WA9ONY-14U22208582022-12-05 23:21:3444.908-123.002161153189Clb=4.3m/s p=677.8hPa t=-9.9C h=23.8% 401.40MHz Type=RS41-SGP batt=2.9V Join https://groups.io/g/Balloons
K6GDP-14U22208582022-12-05 23:21:3344.9081-123.002148173184Clb=4.8m/s calibration 52% Type=RS41 Details on http://radiosondy.info
K6GDP-11U22208582022-12-05 23:21:3044.9082-123.00218343167Clb=5.7m/s t=-9.9C h=23.2% p=679.6hPa 401.400 MHz Type=RS41-SGP ser=U2220858 Radiosonde
W7BDB-13U22208582022-12-05 23:21:2944.9082-123.002244153162Clb=4.0m/s p=679.9hPa t=-9.8C h=23.1% calibration 98% 401.40MHz Type=RS41-SGP Details on http://radiosondy.info
WA9ONY-10U22208582022-12-05 23:21:2544.9083-123.002206173134Clb=5.6m/s p=682.5hPa t=-9.7C h=22.3% 401.40MHz Type=RS41-SGP Join https://groups.io/g/Balloons
WA9ONY-14U22208582022-12-05 23:21:2444.9083-123.002193173129Clb=3.7m/s p=682.9hPa t=-9.6C h=22.2% 401.40MHz Type=RS41-SGP Join https://groups.io/g/Balloons
KJ7NUX-14U22208582022-12-05 23:21:2244.9085-123.002173133120Clb=6.0m/s p=683.8hPa t=-9.6C h=21.3% 401.40MHz Type=RS41-SGP Details on http://radiosondy.info
K6GDP-14U22208582022-12-05 23:21:1744.9086-123.00295133095Clb=5.1m/s calibration 50% Type=RS41 batt=2.9V Details on http://radiosondy.info
WA9ONY-10U22208582022-12-05 23:21:1544.9086-123.002250133085Clb=5.4m/s p=686.9hPa t=-9.9C h=19.5% 401.40MHz Type=RS41-SGP batt=2.9V Join https://groups.io/g/Balloons
WA9ONY-14U22208582022-12-05 23:21:1444.9086-123.002240153080Clb=3.5m/s p=687.4hPa t=-9.9C h=20.3% 401.40MHz Type=RS41-SGP Join https://groups.io/g/Balloons
W7BDB-13U22208582022-12-05 23:21:1344.9087-123.002217173077Clb=3.5m/s p=687.6hPa t=-9.9C h=21.6% calibration 98% 401.40MHz Type=RS41-SGP batt=2.9V Details on http://radiosondy.info
KG7GDB-12U22208582022-12-05 23:21:1244.9087-123.002222153068Clb=5.9m/s t=-10.0C h=24.2% p=688.6hPa 401.401 MHz Type=RS41-SGP ser=U2220858 Radiosonde
KJ7NUX-14U22208582022-12-05 23:21:0644.9088-123.002113173035Clb=5.9m/s p=691.7hPa t=-9.7C h=34.8% 401.40MHz Type=RS41-SGP TxPastBurst=8h30m batt=2.9V Details on http://radiosondy.info
WA9ONY-10U22208582022-12-05 23:21:0544.9088-123.002115173029Clb=5.5m/s p=692.1hPa t=-9.7C h=34.9% 401.40MHz Type=RS41-SGP Join https://groups.io/g/Balloons
WA9ONY-14U22208582022-12-05 23:21:0444.9089-123.002121153025Clb=3.4m/s p=692.4hPa t=-9.6C h=35.0% 401.40MHz Type=RS41-SGP batt=2.9V Join https://groups.io/g/Balloons
K6GDP-14U22208582022-12-05 23:21:0144.909-123.002150133014Clb=4.7m/s calibration 35% Type=RS41 Details on http://radiosondy.info
K6GDP-11U22208582022-12-05 23:20:5944.909-123.002180133003Clb=5.1m/s t=-9.6C h=36.1% p=694.3hPa 401.400 MHz Type=RS41-SGP ser=U2220858 Radiosonde
W7BDB-13U22208582022-12-05 23:20:5744.9091-123.002258132994Clb=6.2m/s p=695.2hPa t=-9.4C h=36.9% calibration 98% 401.40MHz Type=RS41-SGP Details on http://radiosondy.info
WA9ONY-10U22208582022-12-05 23:20:5544.9091-123.00215152982Clb=5.3m/s p=696.3hPa t=-9.3C h=36.6% 401.40MHz Type=RS41-SGP Join https://groups.io/g/Balloons
WA9ONY-14U22208582022-12-05 23:20:5444.9091-123.00243152977Clb=4.9m/s p=696.8hPa t=-9.3C h=36.5% 401.40MHz Type=RS41-SGP Join https://groups.io/g/Balloons
KJ7NUX-14U22208582022-12-05 23:20:5044.9092-123.00217392946Clb=3.4m/s p=699.4hPa t=-9.2C h=41.5% 401.40MHz Type=RS41-SGP Details on http://radiosondy.info
WA9ONY-10U22208582022-12-05 23:20:4644.9093-123.00222872933Clb=6.0m/s p=700.5hPa t=-9.1C h=38.3% 401.40MHz Type=RS41-SGP TxPastBurst=8h30m batt=2.9V Join https://groups.io/g/Balloons
WA9ONY-14U22208582022-12-05 23:20:4544.9093-123.00224772928Clb=5.9m/s p=701.1hPa t=-9.0C h=35.0% 401.40MHz Type=RS41-SGP Join https://groups.io/g/Balloons
W7BDB-13U22208582022-12-05 23:20:4444.9093-123.00235972916Clb=4.7m/s p=702.0hPa t=-9.0C h=34.7% calibration 98% 401.40MHz Type=RS41-SGP Details on http://radiosondy.info
KG7GDB-12U22208582022-12-05 23:20:4244.9093-123.0028872906Clb=5.9m/s t=-9.0C h=36.2% p=703.0hPa 401.401 MHz Type=RS41-SGP ser=U2220858 Radiosonde
WA9ONY-10U22208582022-12-05 23:20:3744.9093-123.00232392879Clb=8.1m/s p=705.3hPa t=-8.7C h=41.9% 401.40MHz Type=RS41-SGP Join https://groups.io/g/Balloons
WA9ONY-14U22208582022-12-05 23:20:3644.9093-123.0021092872Clb=5.8m/s p=706.1hPa t=-8.7C h=42.4% 401.40MHz Type=RS41-SGP TxPastBurst=8h30m batt=2.9V Join https://groups.io/g/Balloons
KJ7NUX-14U22208582022-12-05 23:20:3444.9093-123.0022292860Clb=5.6m/s p=707.2hPa t=-8.6C h=42.6% 401.40MHz Type=RS41-SGP Details on http://radiosondy.info
K6GDP-11U22208582022-12-05 23:20:3044.9092-123.00229462842Clb=4.8m/s t=-8.5C h=40.3% p=708.8hPa 401.400 MHz Type=RS41-SGP ser=U2220858 Radiosonde
W7BDB-13U22208582022-12-05 23:20:2844.9092-123.00227972833Clb=5.2m/s p=709.6hPa t=-8.5C h=43.7% calibration 98% 401.40MHz Type=RS41-SGP TxPastBurst=8h30m batt=2.9V Details on http://radiosondy.info
WA9ONY-10U22208582022-12-05 23:20:2644.9092-123.00230072828Clb=5.9m/s p=710.0hPa t=-8.4C h=42.7% 401.40MHz Type=RS41-SGP Join https://groups.io/g/Balloons
WA9ONY-14U22208582022-12-05 23:20:2544.9092-123.00231162822Clb=6.6m/s p=710.6hPa t=-8.3C h=39.3% 401.40MHz Type=RS41-SGP Join https://groups.io/g/Balloons
KJ7NUX-14U22208582022-12-05 23:20:1744.9092-123.00216372783Clb=7.1m/s p=714.4hPa t=-8.0C h=30.8% 401.40MHz Type=RS41-SGP batt=2.9V Details on http://radiosondy.info
WA9ONY-10U22208582022-12-05 23:20:1544.9092-123.0021072777Clb=4.9m/s p=714.8hPa t=-7.9C h=31.2% 401.40MHz Type=RS41-SGP batt=2.9V Join https://groups.io/g/Balloons
WA9ONY-14U22208582022-12-05 23:20:1444.9092-123.0022872772Clb=6.6m/s p=715.6hPa t=-7.9C h=31.5% 401.40MHz Type=RS41-SGP Join https://groups.io/g/Balloons
W7BDB-13U22208582022-12-05 23:20:1144.9092-123.00216692742Clb=6.3m/s p=718.2hPa t=-7.7C h=28.6% calibration 96% 401.40MHz Type=RS41-SGP Details on http://radiosondy.info
KG7GDB-12U22208582022-12-05 23:20:1044.9092-123.002175112736Clb=4.3m/s t=-7.7C h=27.3% p=718.8hPa 401.401 MHz Type=RS41-SGP ser=U2220858 Radiosonde
WA9ONY-10U22208582022-12-05 23:20:0544.9093-123.00212192713Clb=6.1m/s p=721.0hPa t=-7.6C h=24.7% 401.40MHz Type=RS41-SGP Join https://groups.io/g/Balloons
WA9ONY-14U22208582022-12-05 23:20:0444.9093-123.00214892705Clb=8.2m/s p=721.5hPa t=-7.7C h=26.5% 401.40MHz Type=RS41-SGP batt=2.9V Join https://groups.io/g/Balloons
K6GDP-14U22208582022-12-05 23:20:0144.9093-123.002208112687Clb=6.1m/s calibration 31% Type=RS41 Details on http://radiosondy.info
KJ7NUX-14U22208582022-12-05 23:20:0044.9094-123.002167112680Clb=7.9m/s p=723.9hPa t=-7.6C h=26.8% 401.40MHz Type=RS41-SGP Details on http://radiosondy.info
K6GDP-11U22208582022-12-05 23:19:5744.9094-123.002112152663Clb=6.8m/s t=-7.6C h=32.1% p=725.7hPa 401.400 MHz Type=RS41-SGP ser=U2220858 Radiosonde
W7BDB-13U22208582022-12-05 23:19:5544.9094-123.0025392651Clb=4.7m/s p=726.8hPa t=-7.5C h=32.8% calibration 96% 401.40MHz Type=RS41-SGP Details on http://radiosondy.info
WA9ONY-14U22208582022-12-05 23:19:5444.9094-123.002332112646Clb=4.9m/s p=727.2hPa t=-7.4C h=32.7% 401.40MHz Type=RS41-SGP Join https://groups.io/g/Balloons
K6GDP-14U22208582022-12-05 23:19:4544.9096-123.002238112596Clb=4.0m/s calibration 11% Type=RS41 batt=2.9V Details on http://radiosondy.info
KJ7NUX-14U22208582022-12-05 23:19:4444.9096-123.002284112592Clb=5.1m/s p=732.3hPa t=-7.1C h=39.8% 401.40MHz Type=RS41-SGP Details on http://radiosondy.info
W7BDB-13U22208582022-12-05 23:19:3944.9096-123.002125132567Clb=5.3m/s p=734.5hPa t=-6.9C h=41.2% calibration 96% 401.40MHz Type=RS41-SGP batt=2.9V Details on http://radiosondy.info
KG7GDB-12U22208582022-12-05 23:19:3844.9096-123.002142172562Clb=4.8m/s t=-7.0C h=39.9% p=735.0hPa 401.401 MHz Type=RS41-SGP ser=U2220858 Radiosonde
WA9ONY-10U22208582022-12-05 23:19:3544.9097-123.002203112547Clb=4.9m/s p=736.3hPa t=-6.8C h=36.4% 401.40MHz Type=RS41-SGP Join https://groups.io/g/Balloons
WA9ONY-14U22208582022-12-05 23:19:3444.9097-123.002256112543Clb=4.3m/s p=736.8hPa t=-6.7C h=36.5% 401.40MHz Type=RS41-SGP batt=2.9V Join https://groups.io/g/Balloons
KJ7NUX-14U22208582022-12-05 23:19:2844.9097-123.002135132510Clb=4.8m/s p=739.9hPa t=-6.5C h=35.7% 401.40MHz Type=RS41-SGP batt=2.9V Details on http://radiosondy.info
K6GDP-11U22208582022-12-05 23:19:2644.9097-123.002173152498Clb=5.7m/s t=-6.5C h=33.9% p=741.0hPa 401.400 MHz Type=RS41-SGP ser=U2220858 Radiosonde
WA9ONY-10U22208582022-12-05 23:19:2544.9098-123.002188112493Clb=4.7m/s p=741.4hPa t=-6.4C h=34.1% 401.40MHz Type=RS41-SGP Join https://groups.io/g/Balloons
WA9ONY-14U22208582022-12-05 23:19:2444.9098-123.002200112489Clb=4.9m/s p=742.0hPa t=-6.3C h=33.8% 401.40MHz Type=RS41-SGP Join https://groups.io/g/Balloons
W7BDB-12U22208582022-12-05 23:19:2244.9099-123.00224342465Clb=4.4m/s t=-6.2C h=29.2% p=744.1hPa 401.399 MHz Type=RS41-SGP ser=U2220858 Radiosonde
WA9ONY-10U22208582022-12-05 23:19:1544.9099-123.002101112445Clb=4.1m/s p=745.9hPa t=-6.0C h=36.3% 401.40MHz Type=RS41-SGP TxPastBurst=8h30m batt=2.9V Join https://groups.io/g/Balloons
WA9ONY-14U22208582022-12-05 23:19:1444.9099-123.002116112440Clb=5.6m/s p=746.4hPa t=-6.0C h=36.8% 401.40MHz Type=RS41-SGP Join https://groups.io/g/Balloons
KJ7NUX-14U22208582022-12-05 23:19:1244.91-123.003158132429Clb=4.1m/s p=747.4hPa t=-5.9C h=37.6% 401.40MHz Type=RS41-SGP Details on http://radiosondy.info
KG7GDB-12U22208582022-12-05 23:19:0744.91-123.0031942399Clb=8.1m/s t=-5.8C h=44.8% p=750.2hPa 401.401 MHz Type=RS41-SGP ser=U2220858 Radiosonde
WA9ONY-10U22208582022-12-05 23:19:0544.91-123.003100172386Clb=5.0m/s p=751.4hPa t=-5.6C h=44.5% 401.40MHz Type=RS41-SGP Join https://groups.io/g/Balloons
WA9ONY-14U22208582022-12-05 23:19:0444.91-123.003104172380Clb=5.9m/s p=752.0hPa t=-5.6C h=44.5% 401.40MHz Type=RS41-SGP TxPastBurst=8h30m batt=2.9V Join https://groups.io/g/Balloons
KJ7NUX-14U22208582022-12-05 23:18:5644.9103-123.00386152337Clb=4.9m/s p=756.1hPa t=-5.3C h=47.9% 401.40MHz Type=RS41-SGP Details on http://radiosondy.info
WA9ONY-10U22208582022-12-05 23:18:5544.9102-123.00357112331Clb=5.4m/s p=756.7hPa t=-5.3C h=49.1% 401.40MHz Type=RS41-SGP Join https://groups.io/g/Balloons
WA9ONY-14U22208582022-12-05 23:18:5444.9102-123.00345132327Clb=4.2m/s p=757.1hPa t=-5.2C h=50.3% 401.40MHz Type=RS41-SGP Join https://groups.io/g/Balloons
W7BDB-13U22208582022-12-05 23:18:5244.9102-123.003303152315Clb=5.2m/s p=758.1hPa t=-5.2C h=52.5% calibration 96% 401.40MHz Type=RS41-SGP batt=2.9V Details on http://radiosondy.info
WA9ONY-10U22208582022-12-05 23:18:4544.9103-123.00393172281Clb=3.4m/s p=761.6hPa t=-5.2C h=59.1% 401.40MHz Type=RS41-SGP batt=2.9V Join https://groups.io/g/Balloons
WA9ONY-14U22208582022-12-05 23:18:4444.9103-123.00378172277Clb=4.9m/s p=762.0hPa t=-5.2C h=58.8% 401.40MHz Type=RS41-SGP Join https://groups.io/g/Balloons
KJ7NUX-14U22208582022-12-05 23:18:4044.9103-123.00333112259Clb=4.0m/s p=763.9hPa t=-5.1C h=58.9% 401.40MHz Type=RS41-SGP TxPastBurst=8h30m batt=2.9V Details on http://radiosondy.info
W7BDB-13U22208582022-12-05 23:18:3744.9102-123.00437132246Clb=5.5m/s p=765.2hPa t=-5.1C h=62.9% calibration 96% 401.40MHz Type=RS41-SGP Details on http://radiosondy.info
KG7GDB-12U22208582022-12-05 23:18:3644.9101-123.00463132241Clb=4.8m/s t=-5.1C h=64.0% p=765.6hPa 401.401 MHz Type=RS41-SGP ser=U2220858 Radiosonde
WA9ONY-10U22208582022-12-05 23:18:3544.9101-123.0049392236Clb=5.0m/s p=766.1hPa t=-5.1C h=66.7% 401.40MHz Type=RS41-SGP Join https://groups.io/g/Balloons
WA9ONY-14U22208582022-12-05 23:18:3444.9101-123.00411772231Clb=4.8m/s p=766.6hPa t=-5.1C h=65.7% 401.40MHz Type=RS41-SGP batt=2.9V Join https://groups.io/g/Balloons
KJ7NUX-14U22208582022-12-05 23:18:2444.9102-123.004128112175Clb=5.1m/s p=772.0hPa t=-4.9C h=67.0% 401.40MHz Type=RS41-SGP Details on http://radiosondy.info
W7BDB-12U22208582022-12-05 23:18:2044.9104-123.004138112136Clb=3.9m/s t=-4.8C h=70.6% p=776.1hPa 401.399 MHz Type=RS41-SGP ser=U2220858 Radiosonde
KJ7NUX-14U22208582022-12-05 23:18:0844.9104-123.00474172088Clb=5.8m/s p=780.7hPa t=-4.6C h=76.2% 401.40MHz Type=RS41-SGP Details on http://radiosondy.info
KG7GDB-12U22208582022-12-05 23:18:0544.9103-123.00468172071Clb=4.1m/s t=-4.6C h=77.9% p=782.5hPa 401.401 MHz Type=RS41-SGP ser=U2220858 Radiosonde
K6GDP-11U22208582022-12-05 23:17:5344.9101-123.0055792023Clb=5.1m/s t=-4.4C h=85.1% p=787.6hPa 401.400 MHz Type=RS41-SGP ser=U2220858 Radiosonde
KJ7NUX-14U22208582022-12-05 23:17:5244.9101-123.0052992018Clb=4.6m/s p=787.9hPa t=-4.3C h=85.8% 401.40MHz Type=RS41-SGP batt=2.9V Details on http://radiosondy.info
W7BDB-13U22208582022-12-05 23:17:4944.9101-123.00530092005Clb=7.5m/s p=789.2hPa t=-4.3C h=87.2% calibration 96% 401.40MHz Type=RS41-SGP Details on http://radiosondy.info
KJ7NUX-14U22208582022-12-05 23:17:3644.9099-123.005201111931Clb=6.3m/s p=796.5hPa t=-3.9C h=87.1% 401.40MHz Type=RS41-SGP Details on http://radiosondy.info
KG7GDB-12U22208582022-12-05 23:17:3444.9099-123.00512891921Clb=3.3m/s t=-3.8C h=86.8% p=797.7hPa 401.401 MHz Type=RS41-SGP ser=U2220858 Radiosonde
W7BDB-13U22208582022-12-05 23:17:3344.9099-123.005129111918Clb=2.9m/s p=797.8hPa t=-3.8C h=87.0% calibration 96% 401.40MHz Type=RS41-SGP Details on http://radiosondy.info
K6GDP-11U22208582022-12-05 23:17:2244.9098-123.00562111866Clb=5.4m/s t=-3.8C h=89.8% p=803.2hPa 401.400 MHz Type=RS41-SGP ser=U2220858 Radiosonde
KJ7NUX-14U22208582022-12-05 23:17:2044.9098-123.005134131857Clb=3.9m/s p=804.0hPa t=-4.0C h=95.6% 401.40MHz Type=RS41-SGP Details on http://radiosondy.info
W7BDB-12U22208582022-12-05 23:17:1744.9099-123.00681201831Clb=4.6m/s t=-4.5C h=99.1% p=806.8hPa 401.399 MHz Type=RS41-SGP ser=U2220858 Radiosonde
KJ7NUX-14U22208582022-12-05 23:17:0444.9096-123.00639131773Clb=5.8m/s p=812.6hPa t=-3.9C h=96.8% 401.40MHz Type=RS41-SGP batt=2.9V Details on http://radiosondy.info
KG7GDB-12U22208582022-12-05 23:17:0344.9096-123.00647131767Clb=5.6m/s t=-3.9C h=96.9% p=813.2hPa 401.401 MHz Type=RS41-SGP ser=U2220858 Radiosonde
W7BDB-13U22208582022-12-05 23:17:0144.9095-123.00627131755Clb=7.3m/s t=-3.8C h=96.3% calibration 96% 401.40MHz Type=RS41-SGP Details on http://radiosondy.info
K6GDP-11U22208582022-12-05 23:16:5144.9093-123.006342111696Clb=4.6m/s t=-3.4C h=95.7% p=820.3hPa 401.400 MHz Type=RS41-SGP ser=U2220858 Radiosonde
KJ7NUX-14U22208582022-12-05 23:16:4844.9092-123.006281111686Clb=5.4m/s p=821.4hPa t=-3.3C h=94.7% 401.40MHz Type=RS41-SGP Details on http://radiosondy.info
W7BDB-13U22208582022-12-05 23:16:4644.9092-123.006133111675Clb=4.7m/s t=-3.2C h=94.3% calibration 84% 401.40MHz Type=RS41 Details on http://radiosondy.info
KJ7NUX-14U22208582022-12-05 23:16:3344.909-123.00642111610Clb=5.1m/s p=829.5hPa t=-2.6C h=90.6% 401.40MHz Type=RS41-SGP Details on http://radiosondy.info
W7BDB-13U22208582022-12-05 23:16:3144.909-123.00630111604Clb=5.0m/s t=-2.5C h=90.5% calibration 84% 401.40MHz Type=RS41 batt=2.9V Details on http://radiosondy.info
K6GDP-11U22208582022-12-05 23:16:2044.9086-123.007348111539Clb=5.4m/s t=-2.2C h=89.0% p=837.1hPa 401.400 MHz Type=RS41-SGP ser=U2220858 Radiosonde
KJ7NUX-14U22208582022-12-05 23:16:1744.9086-123.006164151523Clb=4.6m/s p=838.7hPa t=-2.0C h=88.3% 401.40MHz Type=RS41-SGP TxPastBurst=8h30m batt=2.9V Details on http://radiosondy.info
W7BDB-12U22208582022-12-05 23:16:1644.9087-123.007109171508Clb=4.8m/s t=-1.9C h=88.3% p=840.4hPa 401.399 MHz Type=RS41-SGP ser=U2220858 Radiosonde
KG7GDB-12U22208582022-12-05 23:16:0144.9084-123.00710791456Clb=5.1m/s t=-1.5C h=87.7% p=845.9hPa 401.401 MHz Type=RS41-SGP ser=U2220858 Radiosonde
KJ7NUX-14U22208582022-12-05 23:16:0044.9084-123.007101151450Clb=5.6m/s p=846.3hPa t=-1.4C h=87.3% 401.40MHz Type=RS41-SGP Details on http://radiosondy.info
W7BDB-13U22208582022-12-05 23:15:5944.9084-123.00786151444Clb=5.7m/s t=-1.4C h=87.1% calibration 84% 401.40MHz Type=RS41 Details on http://radiosondy.info
WA9ONY-14U22208582022-12-05 23:15:5044.9081-123.007357131401Clb=4.9m/s p=851.6hPa t=-1.0C h=85.8% 401.40MHz Type=RS41-SGP Join https://groups.io/g/Balloons
K6GDP-11U22208582022-12-05 23:15:4944.9081-123.00881171378Clb=5.6m/s t=-0.9C h=-1.0% p=854.1hPa 401.400 MHz Type=RS41-SGP ser=U2220858 Radiosonde
W7BDB-13U22208582022-12-05 23:15:4444.9081-123.00876191374Clb=4.7m/s t=-0.8C h=85.5% calibration 84% 401.40MHz Type=RS41 TxPastBurst=8h30m batt=2.9V Details on http://radiosondy.info
WA9ONY-14U22208582022-12-05 23:15:3644.9079-123.00885191330Clb=5.7m/s p=859.3hPa t=-0.4C h=83.5% 401.40MHz Type=RS41-SGP Join https://groups.io/g/Balloons
KG7GDB-12U22208582022-12-05 23:15:3044.9078-123.00862131293Clb=5.4m/s t=-0.1C h=83.4% p=863.4hPa 401.401 MHz Type=RS41-SGP ser=U2220858 Radiosonde
W7BDB-13U22208582022-12-05 23:15:2944.9077-123.00875191288Clb=4.9m/s t=-0.1C h=83.4% calibration 84% 401.40MHz Type=RS41 Details on http://radiosondy.info
KJ7NUX-14U22208582022-12-05 23:15:2844.9077-123.009102171282Clb=6.9m/s p=864.4hPa t=-0.0C h=83.1% 401.40MHz Type=RS41-SGP batt=2.9V Details on http://radiosondy.info
WA9ONY-14U22208582022-12-05 23:15:2344.9078-123.00972151251Clb=6.1m/s p=867.9hPa t=0.2C h=81.1% 401.40MHz Type=RS41-SGP batt=2.9V Join https://groups.io/g/Balloons
K6GDP-11U22208582022-12-05 23:15:1844.9076-123.0097661220Clb=4.3m/s t=-273.0C h=-1.0% p=-1.0hPa 401.400 MHz Type=RS41-SGP ser=U2220858 Radiosonde
WA9ONY-14U22208582022-12-05 23:15:1344.9076-123.00957201200Clb=5.2m/s p=873.2hPa t=0.7C h=79.1% 401.40MHz Type=RS41-SGP Join https://groups.io/g/Balloons
KJ7NUX-14U22208582022-12-05 23:15:1244.9075-123.00946201194Clb=7.5m/s p=873.9hPa t=0.8C h=78.5% 401.40MHz Type=RS41-SGP Details on http://radiosondy.info
WA9ONY-10U22208582022-12-05 23:15:0344.9073-123.0175191146Clb=5.9m/s p=879.2hPa t=1.0C h=79.9% 401.40MHz Type=RS41-SGP Join https://groups.io/g/Balloons
KG7GDB-12U22208582022-12-05 23:14:5944.9072-123.0146171121Clb=5.1m/s t=1.2C h=79.2% p=882.1hPa 401.401 MHz Type=RS41-SGP ser=U2220858 Radiosonde
W7BDB-13U22208582022-12-05 23:14:5844.9071-123.0145131116Clb=4.7m/s t=1.2C h=79.0% calibration 84% 401.40MHz Type=RS41 batt=2.9V Details on http://radiosondy.info
KJ7NUX-14U22208582022-12-05 23:14:5644.9071-123.0198131105Clb=5.4m/s p=883.6hPa t=1.3C h=78.5% 401.40MHz Type=RS41-SGP Details on http://radiosondy.info
WA9ONY-14U22208582022-12-05 23:14:5344.9071-123.0196151088Clb=5.1m/s p=885.5hPa t=1.4C h=77.6% 401.40MHz Type=RS41-SGP TxPastBurst=8h30m batt=2.9V Join https://groups.io/g/Balloons
WA9ONY-10U22208582022-12-05 23:14:4344.907-123.011171111041Clb=4.2m/s p=890.7hPa t=1.7C h=79.3% 401.40MHz Type=RS41-SGP Join https://groups.io/g/Balloons
W7BDB-13U22208582022-12-05 23:14:4244.9071-123.011158151036Clb=4.5m/s t=1.8C h=79.0% calibration 84% 401.40MHz Type=RS41 Details on http://radiosondy.info
KJ7NUX-14U22208582022-12-05 23:14:4044.9071-123.011123171028Clb=4.4m/s p=892.2hPa t=1.8C h=79.1% 401.40MHz Type=RS41-SGP batt=2.9V Details on http://radiosondy.info
WA9ONY-10U22208582022-12-05 23:14:3344.9071-123.01117517992Clb=6.1m/s p=896.1hPa t=2.1C h=77.6% 401.40MHz Type=RS41-SGP Join https://groups.io/g/Balloons
W7BDB-13U22208582022-12-05 23:14:2744.9074-123.01113313965Clb=4.3m/s t=2.3C h=75.3% calibration 80% 401.40MHz Type=RS41 Details on http://radiosondy.info
KJ7NUX-14U22208582022-12-05 23:14:2444.9074-123.01110411950Clb=6.1m/s p=900.8hPa t=2.4C h=75.1% 401.40MHz Type=RS41-SGP Details on http://radiosondy.info
WA9ONY-14U22208582022-12-05 23:14:2344.9074-123.0126811945Clb=4.0m/s p=901.4hPa t=2.4C h=75.2% 401.40MHz Type=RS41-SGP batt=2.9V Join https://groups.io/g/Balloons
K6GDP-11U22208582022-12-05 23:14:1644.9075-123.01215017905Clb=4.0m/s t=-273.0C h=-1.0% p=-1.0hPa 401.400 MHz Type=RS41 ser=U2220858 Radiosonde
WA9ONY-14U22208582022-12-05 23:14:1344.9075-123.01211811897Clb=4.9m/s p=906.7hPa t=2.5C h=77.1% 401.40MHz Type=RS41-SGP Join https://groups.io/g/Balloons
W7BDB-12U22208582022-12-05 23:14:1144.9075-123.0122337876Clb=5.3m/s t=-273.0C h=-1.0% p=-1.0hPa 401.399 MHz Type=RS41 ser=U2220858 Radiosonde
KJ7NUX-14U22208582022-12-05 23:14:0844.9075-123.0122349876Clb=5.2m/s p=909.3hPa t=2.6C h=77.4% 401.40MHz Type=RS41-SGP Details on http://radiosondy.info
WA9ONY-14U22208582022-12-05 23:14:0344.9077-123.0121319853Clb=5.0m/s p=911.9hPa t=2.6C calibration 86% 401.40MHz Type=RS41-SGP Join https://groups.io/g/Balloons
KG7GDB-12U22208582022-12-05 23:13:5744.9078-123.0122009818Clb=6.9m/s t=2.8C h=76.6% p=915.9hPa 401.401 MHz Type=RS41-SGP ser=U2220858 Radiosonde
W7BDB-13U22208582022-12-05 23:13:5644.9078-123.0122019818Clb=6.8m/s calibration 50% 401.40MHz Type=RS41 Details on http://radiosondy.info
WA9ONY-10U22208582022-12-05 23:13:5344.9078-123.0121647804Clb=4.9m/s p=917.6hPa calibration 66% 401.40MHz Type=RS41-SGP batt=2.9V Join https://groups.io/g/Balloons
KJ7NUX-14U22208582022-12-05 23:13:5244.9078-123.01216613800Clb=4.6m/s p=918.1hPa t=2.9C h=74.5% 401.40MHz Type=RS41-SGP TxPastBurst=8h30m batt=2.9V Details on http://radiosondy.info
WA9ONY-10U22208582022-12-05 23:13:4344.908-123.01220617754Clb=5.1m/s p=923.2hPa calibration 47% Type=RS41-SGP Join https://groups.io/g/Balloons
W7BDB-13U22208582022-12-05 23:13:4144.9081-123.01223013746Clb=3.6m/s calibration 21% Type=RS41 Details on http://radiosondy.info
KJ7NUX-14U22208582022-12-05 23:13:3644.9082-123.01116815725Clb=4.5m/s p=926.7hPa t=2.9C h=80.7% calibration 92% 401.40MHz Type=RS41-SGP Details on http://radiosondy.info
WA9ONY-14U22208582022-12-05 23:13:3344.9083-123.01122615708Clb=4.5m/s calibration 27% Type=RS41-SGP Join https://groups.io/g/Balloons
W7BDB-13U22208582022-12-05 23:13:2644.9084-123.01117217672Clb=3.7m/s calibration 7% Type=RS41 batt=2.9V Details on http://radiosondy.info
WA9ONY-14U22208582022-12-05 23:13:2344.9085-123.01123817657Clb=4.8m/s calibration 7% Type=RS41 batt=2.9V Join https://groups.io/g/Balloons
KJ7NUX-14U22208582022-12-05 23:13:2044.9086-123.01124217643Clb=5.4m/s p=936.2hPa t=3.2C h=79.8% calibration 92% 401.40MHz Type=RS41-SGP Details on http://radiosondy.info
KJ7NUX-14U22208582022-12-05 23:13:0444.9091-123.01125622570Clb=4.8m/s p=944.9hPa calibration 90% 401.40MHz Type=RS41-SGP batt=3.0V Details on http://radiosondy.info
KG7GDB-12U22208582022-12-05 23:12:5544.9094-123.0120722520Clb=5.7m/s t=-273.0C h=-1.0% p=950.5hPa 401.401 MHz Type=RS41-SGP ser=U2220858 Radiosonde